Wetterdaten: Dienstag, 29.10.2019
Datum Zeit Temp. A. Feuchte A. Luftdruck Regen Wind Richtung Richtung Sonnenschein ET UV Solar Taupunkt Windchill Windböen
29.10.2019 00:00 5,4 °C 96 % 1016,3 hPa 0,0 mm 3,0 km/h (1 Bft) O-NO 74 ° 0 min 0,000 mm 0,0 UV-I 0 W/m² 4,8 °C 5,4 °C 4,8 km/h (1 Bft)
29.10.2019 00:01 5,4 °C 96 % 1016,3 hPa 0,0 mm 4,7 km/h (1 Bft) O-NO 74 ° 0 min 0,000 mm 0,0 UV-I 0 W/m² 4,8 °C 4,7 °C 6,4 km/h (2 Bft)
29.10.2019 00:02 5,4 °C 96 % 1016,3 hPa 0,0 mm 3,1 km/h (1 Bft) O-NO 74 ° 0 min 0,000 mm 0,0 UV-I 0 W/m² 4,8 °C 5,4 °C 4,8 km/h (1 Bft)
29.10.2019 00:03 5,4 °C 96 % 1016,2 hPa 0,0 mm 3,0 km/h (1 Bft) O-NO 74 ° 0 min 0,000 mm 0,0 UV-I 0 W/m² 4,8 °C 5,4 °C 4,8 km/h (1 Bft)
29.10.2019 00:04 5,4 °C 96 % 1016,3 hPa 0,0 mm 3,9 km/h (1 Bft) O-NO 74 ° 0 min 0,000 mm 0,0 UV-I 0 W/m² 4,8 °C 5,4 °C 4,8 km/h (1 Bft)
29.10.2019 00:05 5,4 °C 96 % 1016,3 hPa 0,0 mm 4,2 km/h (1 Bft) O-NO 74 ° 0 min 0,000 mm 0,0 UV-I 0 W/m² 4,8 °C 5,4 °C 4,8 km/h (1 Bft)
29.10.2019 00:06 5,4 °C 96 % 1016,2 hPa 0,0 mm 3,6 km/h (1 Bft) O-NO 74 ° 0 min 0,000 mm 0,0 UV-I 0 W/m² 4,8 °C 5,4 °C 4,8 km/h (1 Bft)
29.10.2019 00:07 5,4 °C 96 % 1016,2 hPa 0,0 mm 2,8 km/h (1 Bft) O-NO 74 ° 0 min 0,000 mm 0,0 UV-I 0 W/m² 4,8 °C 5,4 °C 3,2 km/h (1 Bft)
29.10.2019 00:08 5,4 °C 96 % 1016,2 hPa 0,0 mm 1,9 km/h (1 Bft) O-NO 74 ° 0 min 0,000 mm 0,0 UV-I 0 W/m² 4,8 °C 5,4 °C 4,8 km/h (1 Bft)
29.10.2019 00:09 5,4 °C 96 % 1016,2 hPa 0,0 mm 3,0 km/h (1 Bft) O-NO 74 ° 0 min 0,000 mm 0,0 UV-I 0 W/m² 4,8 °C 5,4 °C 4,8 km/h (1 Bft)
29.10.2019 00:10 5,4 °C 96 % 1016,2 hPa 0,0 mm 3,7 km/h (1 Bft) O-NO 74 ° 0 min 0,000 mm 0,0 UV-I 0 W/m² 4,8 °C 5,4 °C 4,8 km/h (1 Bft)
29.10.2019 00:11 5,4 °C 96 % 1016,2 hPa 0,0 mm 1,5 km/h (1 Bft) O-NO 74 ° 0 min 0,000 mm 0,0 UV-I 0 W/m² 4,8 °C 5,4 °C 3,2 km/h (1 Bft)
29.10.2019 00:12 5,3 °C 96 % 1016,2 hPa 0,0 mm 0,4 km/h (0 Bft) O-NO 74 ° 0 min 0,000 mm 0,0 UV-I 0 W/m² 4,7 °C 5,3 °C 1,6 km/h (1 Bft)
29.10.2019 00:13 5,4 °C 96 % 1016,2 hPa 0,0 mm 0,3 km/h (0 Bft) O-NO 74 ° 0 min 0,000 mm 0,0 UV-I 0 W/m² 4,8 °C 5,4 °C 3,2 km/h (1 Bft)
29.10.2019 00:14 5,4 °C 96 % 1016,2 hPa 0,0 mm 2,3 km/h (1 Bft) O-NO 74 ° 0 min 0,000 mm 0,0 UV-I 0 W/m² 4,8 °C 5,4 °C 3,2 km/h (1 Bft)
29.10.2019 00:15 5,4 °C 96 % 1016,2 hPa 0,0 mm 3,3 km/h (1 Bft) O-NO 74 ° 0 min 0,000 mm 0,0 UV-I 0 W/m² 4,8 °C 5,4 °C 4,8 km/h (1 Bft)
29.10.2019 00:16 5,4 °C 96 % 1016,2 hPa 0,0 mm 3,4 km/h (1 Bft) O-NO 74 ° 0 min 0,000 mm 0,0 UV-I 0 W/m² 4,8 °C 5,4 °C 4,8 km/h (1 Bft)
29.10.2019 00:17 5,4 °C 96 % 1016,2 hPa 0,0 mm 3,0 km/h (1 Bft) O-NO 74 ° 0 min 0,000 mm 0,0 UV-I 0 W/m² 4,8 °C 5,4 °C 4,8 km/h (1 Bft)
29.10.2019 00:18 5,4 °C 96 % 1016,1 hPa 0,0 mm 4,7 km/h (1 Bft) O-NO 74 ° 0 min 0,000 mm 0,0 UV-I 0 W/m² 4,8 °C 4,7 °C 4,8 km/h (1 Bft)
29.10.2019 00:19 5,4 °C 96 % 1016,2 hPa 0,0 mm 2,7 km/h (1 Bft) O-NO 74 ° 0 min 0,000 mm 0,0 UV-I 0 W/m² 4,8 °C 5,4 °C 4,8 km/h (1 Bft)
29.10.2019 00:20 5,4 °C 96 % 1016,2 hPa 0,0 mm 3,4 km/h (1 Bft) O-NO 74 ° 0 min 0,000 mm 0,0 UV-I 0 W/m² 4,8 °C 5,4 °C 4,8 km/h (1 Bft)
29.10.2019 00:21 5,4 °C 96 % 1016,2 hPa 0,0 mm 3,2 km/h (1 Bft) O-NO 74 ° 0 min 0,000 mm 0,0 UV-I 0 W/m² 4,8 °C 5,4 °C 4,8 km/h (1 Bft)
29.10.2019 00:22 5,4 °C 96 % 1016,2 hPa 0,0 mm 3,6 km/h (1 Bft) O-NO 74 ° 0 min 0,000 mm 0,0 UV-I 0 W/m² 4,8 °C 5,4 °C 6,4 km/h (2 Bft)
29.10.2019 00:23 5,4 °C 96 % 1016,2 hPa 0,0 mm 4,0 km/h (1 Bft) O-NO 74 ° 0 min 0,000 mm 0,0 UV-I 0 W/m² 4,8 °C 5,4 °C 6,4 km/h (2 Bft)
29.10.2019 00:24 5,4 °C 96 % 1016,1 hPa 0,0 mm 4,2 km/h (1 Bft) O-NO 74 ° 0 min 0,000 mm 0,0 UV-I 0 W/m² 4,8 °C 5,4 °C 6,4 km/h (2 Bft)
29.10.2019 00:25 5,4 °C 96 % 1016,1 hPa 0,0 mm 3,1 km/h (1 Bft) O-NO 74 ° 0 min 0,000 mm 0,0 UV-I 0 W/m² 4,8 °C 5,4 °C 4,8 km/h (1 Bft)
29.10.2019 00:26 5,4 °C 96 % 1016,1 hPa 0,0 mm 0,9 km/h (0 Bft) O-NO 74 ° 0 min 0,000 mm 0,0 UV-I 0 W/m² 4,8 °C 5,4 °C 3,2 km/h (1 Bft)
29.10.2019 00:27 5,4 °C 96 % 1016,1 hPa 0,0 mm 2,0 km/h (1 Bft) O-NO 74 ° 0 min 0,000 mm 0,0 UV-I 0 W/m² 4,8 °C 5,4 °C 3,2 km/h (1 Bft)
29.10.2019 00:28 5,4 °C 96 % 1016,1 hPa 0,0 mm 1,5 km/h (1 Bft) O-NO 74 ° 0 min 0,000 mm 0,0 UV-I 0 W/m² 4,8 °C 5,4 °C 4,8 km/h (1 Bft)
29.10.2019 00:29 5,4 °C 96 % 1016,1 hPa 0,0 mm 2,7 km/h (1 Bft) O-NO 74 ° 0 min 0,000 mm 0,0 UV-I 0 W/m² 4,8 °C 5,4 °C 6,4 km/h (2 Bft)
29.10.2019 00:30 5,4 °C 96 % 1016,1 hPa 0,0 mm 3,6 km/h (1 Bft) O-NO 74 ° 0 min 0,000 mm 0,0 UV-I 0 W/m² 4,8 °C 5,4 °C 4,8 km/h (1 Bft)
29.10.2019 00:31 5,4 °C 96 % 1016,1 hPa 0,0 mm 2,1 km/h (1 Bft) O-NO 74 ° 0 min 0,000 mm 0,0 UV-I 0 W/m² 4,8 °C 5,4 °C 3,2 km/h (1 Bft)
29.10.2019 00:32 5,4 °C 96 % 1016,0 hPa 0,0 mm 4,1 km/h (1 Bft) O-NO 74 ° 0 min 0,000 mm 0,0 UV-I 0 W/m² 4,8 °C 5,4 °C 8,0 km/h (2 Bft)
29.10.2019 00:33 5,4 °C 96 % 1016,0 hPa 0,0 mm 3,9 km/h (1 Bft) O-NO 74 ° 0 min 0,000 mm 0,0 UV-I 0 W/m² 4,8 °C 5,4 °C 4,8 km/h (1 Bft)
29.10.2019 00:34 5,4 °C 96 % 1016,1 hPa 0,0 mm 4,5 km/h (1 Bft) NO 45 ° 0 min 0,000 mm 0,0 UV-I 0 W/m² 4,8 °C 5,4 °C 9,7 km/h (2 Bft)
29.10.2019 00:35 5,4 °C 96 % 1016,0 hPa 0,0 mm 4,4 km/h (1 Bft) O 81 ° 0 min 0,000 mm 0,0 UV-I 0 W/m² 4,8 °C 5,4 °C 6,4 km/h (2 Bft)
29.10.2019 00:36 5,4 °C 96 % 1016,0 hPa 0,0 mm 3,2 km/h (1 Bft) O 79 ° 0 min 0,000 mm 0,0 UV-I 0 W/m² 4,8 °C 5,4 °C 4,8 km/h (1 Bft)
29.10.2019 00:37 5,4 °C 96 % 1016,0 hPa 0,0 mm 3,7 km/h (1 Bft) O-NO 61 ° 0 min 0,000 mm 0,0 UV-I 0 W/m² 4,8 °C 5,4 °C 6,4 km/h (2 Bft)
29.10.2019 00:38 5,4 °C 96 % 1016,0 hPa 0,0 mm 4,8 km/h (1 Bft) O-NO 57 ° 0 min 0,000 mm 0,0 UV-I 0 W/m² 4,8 °C 4,6 °C 6,4 km/h (2 Bft)
29.10.2019 00:39 5,4 °C 96 % 1016,0 hPa 0,0 mm 3,2 km/h (1 Bft) O-NO 58 ° 0 min 0,000 mm 0,0 UV-I 0 W/m² 4,8 °C 5,4 °C 4,8 km/h (1 Bft)
29.10.2019 00:40 5,4 °C 96 % 1016,0 hPa 0,0 mm 2,4 km/h (1 Bft) O-NO 58 ° 0 min 0,000 mm 0,0 UV-I 0 W/m² 4,8 °C 5,4 °C 4,8 km/h (1 Bft)
29.10.2019 00:41 5,4 °C 96 % 1016,0 hPa 0,0 mm 2,1 km/h (1 Bft) O-NO 58 ° 0 min 0,000 mm 0,0 UV-I 0 W/m² 4,8 °C 5,4 °C 3,2 km/h (1 Bft)
29.10.2019 00:42 5,4 °C 96 % 1016,0 hPa 0,0 mm 1,9 km/h (1 Bft) O-NO 58 ° 0 min 0,000 mm 0,0 UV-I 0 W/m² 4,8 °C 5,4 °C 3,2 km/h (1 Bft)
29.10.2019 00:43 5,4 °C 96 % 1016,0 hPa 0,0 mm 1,2 km/h (1 Bft) O-NO 58 ° 0 min 0,000 mm 0,0 UV-I 0 W/m² 4,8 °C 5,4 °C 3,2 km/h (1 Bft)
29.10.2019 00:44 5,4 °C 96 % 1016,0 hPa 0,0 mm 2,1 km/h (1 Bft) O-NO 58 ° 0 min 0,000 mm 0,0 UV-I 0 W/m² 4,8 °C 5,4 °C 4,8 km/h (1 Bft)
29.10.2019 00:45 5,4 °C 96 % 1015,9 hPa 0,0 mm 2,6 km/h (1 Bft) O-NO 58 ° 0 min 0,000 mm 0,0 UV-I 0 W/m² 4,8 °C 5,4 °C 4,8 km/h (1 Bft)
29.10.2019 00:46 5,4 °C 96 % 1015,9 hPa 0,0 mm 1,9 km/h (1 Bft) O-NO 58 ° 0 min 0,000 mm 0,0 UV-I 0 W/m² 4,8 °C 5,4 °C 3,2 km/h (1 Bft)
29.10.2019 00:47 5,4 °C 96 % 1015,9 hPa 0,0 mm 3,1 km/h (1 Bft) O-NO 78 ° 0 min 0,000 mm 0,0 UV-I 0 W/m² 4,8 °C 5,4 °C 4,8 km/h (1 Bft)
29.10.2019 00:48 5,4 °C 96 % 1015,9 hPa 0,0 mm 1,5 km/h (1 Bft) O-NO 78 ° 0 min 0,000 mm 0,0 UV-I 0 W/m² 4,8 °C 5,4 °C 3,2 km/h (1 Bft)
29.10.2019 00:49 5,4 °C 96 % 1015,9 hPa 0,0 mm 3,4 km/h (1 Bft) O-NO 78 ° 0 min 0,000 mm 0,0 UV-I 0 W/m² 4,8 °C 5,4 °C 4,8 km/h (1 Bft)
29.10.2019 00:50 5,4 °C 96 % 1015,9 hPa 0,0 mm 3,0 km/h (1 Bft) O-NO 76 ° 0 min 0,000 mm 0,0 UV-I 0 W/m² 4,8 °C 5,4 °C 4,8 km/h (1 Bft)
29.10.2019 00:51 5,4 °C 96 % 1015,9 hPa 0,0 mm 1,9 km/h (1 Bft) O-NO 76 ° 0 min 0,000 mm 0,0 UV-I 0 W/m² 4,8 °C 5,4 °C 3,2 km/h (1 Bft)
29.10.2019 00:52 5,4 °C 96 % 1015,9 hPa 0,0 mm 1,6 km/h (1 Bft) O-NO 76 ° 0 min 0,000 mm 0,0 UV-I 0 W/m² 4,8 °C 5,4 °C 3,2 km/h (1 Bft)
29.10.2019 00:53 5,4 °C 96 % 1015,9 hPa 0,0 mm 1,2 km/h (1 Bft) O-NO 76 ° 0 min 0,000 mm 0,0 UV-I 0 W/m² 4,8 °C 5,4 °C 3,2 km/h (1 Bft)
29.10.2019 00:54 5,4 °C 96 % 1015,9 hPa 0,0 mm 1,5 km/h (1 Bft) O-NO 76 ° 0 min 0,000 mm 0,0 UV-I 0 W/m² 4,8 °C 5,4 °C 3,2 km/h (1 Bft)
29.10.2019 00:55 5,4 °C 96 % 1015,8 hPa 0,0 mm 1,6 km/h (1 Bft) O-NO 76 ° 0 min 0,000 mm 0,0 UV-I 0 W/m² 4,8 °C 5,4 °C 3,2 km/h (1 Bft)
29.10.2019 00:56 5,4 °C 96 % 1015,8 hPa 0,0 mm 0,8 km/h (0 Bft) O-NO 76 ° 0 min 0,000 mm 0,0 UV-I 0 W/m² 4,8 °C 5,4 °C 3,2 km/h (1 Bft)
29.10.2019 00:57 5,4 °C 96 % 1015,9 hPa 0,0 mm 1,0 km/h (0 Bft) O-NO 76 ° 0 min 0,000 mm 0,0 UV-I 0 W/m² 4,8 °C 5,4 °C 3,2 km/h (1 Bft)
29.10.2019 00:58 5,4 °C 96 % 1015,8 hPa 0,0 mm 1,5 km/h (1 Bft) O-NO 76 ° 0 min 0,000 mm 0,0 UV-I 0 W/m² 4,8 °C 5,4 °C 3,2 km/h (1 Bft)
29.10.2019 00:59 5,4 °C 96 % 1015,8 hPa 0,0 mm 0,6 km/h (0 Bft) O-NO 76 ° 0 min 0,000 mm 0,0 UV-I 0 W/m² 4,8 °C 5,4 °C 3,2 km/h (1 Bft)
29.10.2019 01:00 5,4 °C 96 % 1015,9 hPa 0,0 mm 3,0 km/h (1 Bft) O-NO 76 ° 0 min 0,000 mm 0,0 UV-I 0 W/m² 4,8 °C 5,4 °C 4,8 km/h (1 Bft)
29.10.2019 01:01 5,4 °C 96 % 1015,8 hPa 0,0 mm 4,1 km/h (1 Bft) O-NO 61 ° 0 min 0,000 mm 0,0 UV-I 0 W/m² 4,8 °C 5,4 °C 6,4 km/h (2 Bft)
29.10.2019 01:02 5,4 °C 96 % 1015,8 hPa 0,0 mm 2,3 km/h (1 Bft) O-NO 61 ° 0 min 0,000 mm 0,0 UV-I 0 W/m² 4,8 °C 5,4 °C 3,2 km/h (1 Bft)
29.10.2019 01:03 5,4 °C 96 % 1015,9 hPa 0,0 mm 3,0 km/h (1 Bft) O-NO 61 ° 0 min 0,000 mm 0,0 UV-I 0 W/m² 4,8 °C 5,4 °C 4,8 km/h (1 Bft)
29.10.2019 01:04 5,4 °C 96 % 1015,9 hPa 0,0 mm 3,0 km/h (1 Bft) O-NO 61 ° 0 min 0,000 mm 0,0 UV-I 0 W/m² 4,8 °C 5,4 °C 4,8 km/h (1 Bft)
29.10.2019 01:05 5,4 °C 96 % 1015,9 hPa 0,0 mm 1,0 km/h (0 Bft) O-NO 61 ° 0 min 0,000 mm 0,0 UV-I 0 W/m² 4,8 °C 5,4 °C 3,2 km/h (1 Bft)
29.10.2019 01:06 5,4 °C 96 % 1015,9 hPa 0,0 mm 1,9 km/h (1 Bft) O-NO 61 ° 0 min 0,000 mm 0,0 UV-I 0 W/m² 4,8 °C 5,4 °C 3,2 km/h (1 Bft)
29.10.2019 01:07 5,4 °C 96 % 1015,8 hPa 0,0 mm 1,6 km/h (1 Bft) O-NO 61 ° 0 min 0,000 mm 0,0 UV-I 0 W/m² 4,8 °C 5,4 °C 3,2 km/h (1 Bft)
29.10.2019 01:08 5,4 °C 96 % 1015,8 hPa 0,0 mm 4,3 km/h (1 Bft) O-NO 61 ° 0 min 0,000 mm 0,0 UV-I 0 W/m² 4,8 °C 5,4 °C 6,4 km/h (2 Bft)
29.10.2019 01:09 5,4 °C 96 % 1015,8 hPa 0,0 mm 3,5 km/h (1 Bft) O-NO 61 ° 0 min 0,000 mm 0,0 UV-I 0 W/m² 4,8 °C 5,4 °C 4,8 km/h (1 Bft)
29.10.2019 01:10 5,4 °C 96 % 1015,8 hPa 0,0 mm 2,5 km/h (1 Bft) O-NO 61 ° 0 min 0,000 mm 0,0 UV-I 0 W/m² 4,8 °C 5,4 °C 4,8 km/h (1 Bft)
29.10.2019 01:11 5,4 °C 96 % 1015,8 hPa 0,0 mm 2,1 km/h (1 Bft) O-NO 61 ° 0 min 0,000 mm 0,0 UV-I 0 W/m² 4,8 °C 5,4 °C 3,2 km/h (1 Bft)
29.10.2019 01:12 5,4 °C 96 % 1015,8 hPa 0,0 mm 1,5 km/h (1 Bft) O-NO 61 ° 0 min 0,000 mm 0,0 UV-I 0 W/m² 4,8 °C 5,4 °C 3,2 km/h (1 Bft)
29.10.2019 01:13 5,4 °C 96 % 1015,8 hPa 0,0 mm 0,3 km/h (0 Bft) O-NO 61 ° 0 min 0,000 mm 0,0 UV-I 0 W/m² 4,8 °C 5,4 °C 1,6 km/h (1 Bft)
29.10.2019 01:14 5,4 °C 96 % 1015,8 hPa 0,0 mm 0,0 km/h (0 Bft) O-NO 61 ° 0 min 0,000 mm 0,0 UV-I 0 W/m² 4,8 °C 5,4 °C 0,0 km/h (0 Bft)
29.10.2019 01:15 5,4 °C 96 % 1015,8 hPa 0,0 mm 0,0 km/h (0 Bft) O-NO 61 ° 0 min 0,000 mm 0,0 UV-I 0 W/m² 4,8 °C 5,4 °C 0,0 km/h (0 Bft)
29.10.2019 01:16 5,4 °C 96 % 1015,9 hPa 0,0 mm 0,0 km/h (0 Bft) O-NO 61 ° 0 min 0,000 mm 0,0 UV-I 0 W/m² 4,8 °C 5,4 °C 0,0 km/h (0 Bft)
29.10.2019 01:17 5,4 °C 96 % 1015,9 hPa 0,0 mm 0,8 km/h (0 Bft) O-NO 61 ° 0 min 0,000 mm 0,0 UV-I 0 W/m² 4,8 °C 5,4 °C 1,6 km/h (1 Bft)
29.10.2019 01:18 5,4 °C 96 % 1015,8 hPa 0,0 mm 0,0 km/h (0 Bft) O-NO 61 ° 0 min 0,000 mm 0,0 UV-I 0 W/m² 4,8 °C 5,4 °C 0,0 km/h (0 Bft)
29.10.2019 01:19 5,4 °C 96 % 1015,8 hPa 0,0 mm 0,0 km/h (0 Bft) O-NO 61 ° 0 min 0,000 mm 0,0 UV-I 0 W/m² 4,8 °C 5,4 °C 0,0 km/h (0 Bft)
29.10.2019 01:20 5,4 °C 96 % 1015,9 hPa 0,0 mm 0,0 km/h (0 Bft) O-NO 61 ° 0 min 0,000 mm 0,0 UV-I 0 W/m² 4,8 °C 5,4 °C 0,0 km/h (0 Bft)
29.10.2019 01:21 5,4 °C 96 % 1015,9 hPa 0,0 mm 0,0 km/h (0 Bft) O-NO 61 ° 0 min 0,000 mm 0,0 UV-I 0 W/m² 4,8 °C 5,4 °C 0,0 km/h (0 Bft)
29.10.2019 01:22 5,4 °C 96 % 1015,9 hPa 0,0 mm 0,8 km/h (0 Bft) O-NO 61 ° 0 min 0,000 mm 0,0 UV-I 0 W/m² 4,8 °C 5,4 °C 3,2 km/h (1 Bft)
29.10.2019 01:23 5,4 °C 96 % 1015,8 hPa 0,0 mm 2,1 km/h (1 Bft) O-NO 61 ° 0 min 0,000 mm 0,0 UV-I 0 W/m² 4,8 °C 5,4 °C 4,8 km/h (1 Bft)
29.10.2019 01:24 5,4 °C 96 % 1015,8 hPa 0,0 mm 3,3 km/h (1 Bft) O-NO 61 ° 0 min 0,000 mm 0,0 UV-I 0 W/m² 4,8 °C 5,4 °C 4,8 km/h (1 Bft)
29.10.2019 01:25 5,4 °C 96 % 1015,8 hPa 0,0 mm 1,7 km/h (1 Bft) O-NO 61 ° 0 min 0,000 mm 0,0 UV-I 0 W/m² 4,8 °C 5,4 °C 3,2 km/h (1 Bft)
29.10.2019 01:26 5,4 °C 96 % 1015,8 hPa 0,0 mm 0,8 km/h (0 Bft) O-NO 61 ° 0 min 0,000 mm 0,0 UV-I 0 W/m² 4,8 °C 5,4 °C 1,6 km/h (1 Bft)
29.10.2019 01:27 5,4 °C 96 % 1015,8 hPa 0,0 mm 1,4 km/h (1 Bft) O-NO 61 ° 0 min 0,000 mm 0,0 UV-I 0 W/m² 4,8 °C 5,4 °C 3,2 km/h (1 Bft)
29.10.2019 01:28 5,4 °C 96 % 1015,8 hPa 0,0 mm 2,0 km/h (1 Bft) O-NO 61 ° 0 min 0,000 mm 0,0 UV-I 0 W/m² 4,8 °C 5,4 °C 3,2 km/h (1 Bft)
29.10.2019 01:29 5,4 °C 96 % 1015,8 hPa 0,0 mm 2,7 km/h (1 Bft) O-NO 61 ° 0 min 0,000 mm 0,0 UV-I 0 W/m² 4,8 °C 5,4 °C 4,8 km/h (1 Bft)
29.10.2019 01:30 5,4 °C 96 % 1015,8 hPa 0,0 mm 2,3 km/h (1 Bft) O-NO 61 ° 0 min 0,000 mm 0,0 UV-I 0 W/m² 4,8 °C 5,4 °C 4,8 km/h (1 Bft)
29.10.2019 01:31 5,4 °C 96 % 1015,8 hPa 0,0 mm 1,5 km/h (1 Bft) O-NO 61 ° 0 min 0,000 mm 0,0 UV-I 0 W/m² 4,8 °C 5,4 °C 3,2 km/h (1 Bft)
29.10.2019 01:32 5,4 °C 96 % 1015,9 hPa 0,0 mm 1,7 km/h (1 Bft) O-NO 61 ° 0 min 0,000 mm 0,0 UV-I 0 W/m² 4,8 °C 5,4 °C 3,2 km/h (1 Bft)
29.10.2019 01:33 5,5 °C 96 % 1015,8 hPa 0,0 mm 2,5 km/h (1 Bft) O-NO 61 ° 0 min 0,000 mm 0,0 UV-I 0 W/m² 4,9 °C 5,5 °C 4,8 km/h (1 Bft)
29.10.2019 01:34 5,4 °C 96 % 1015,8 hPa 0,0 mm 1,4 km/h (1 Bft) O-NO 61 ° 0 min 0,000 mm 0,0 UV-I 0 W/m² 4,8 °C 5,4 °C 1,6 km/h (1 Bft)
29.10.2019 01:35 5,4 °C 96 % 1015,8 hPa 0,0 mm 2,4 km/h (1 Bft) O-NO 61 ° 0 min 0,000 mm 0,0 UV-I 0 W/m² 4,8 °C 5,4 °C 3,2 km/h (1 Bft)
29.10.2019 01:36 5,4 °C 96 % 1015,8 hPa 0,0 mm 1,7 km/h (1 Bft) O-NO 61 ° 0 min 0,000 mm 0,0 UV-I 0 W/m² 4,8 °C 5,4 °C 3,2 km/h (1 Bft)
29.10.2019 01:37 5,4 °C 96 % 1015,8 hPa 0,0 mm 0,3 km/h (0 Bft) O-NO 61 ° 0 min 0,000 mm 0,0 UV-I 0 W/m² 4,8 °C 5,4 °C 1,6 km/h (1 Bft)
29.10.2019 01:38 5,4 °C 96 % 1015,8 hPa 0,0 mm 1,5 km/h (1 Bft) O-NO 61 ° 0 min 0,000 mm 0,0 UV-I 0 W/m² 4,8 °C 5,4 °C 3,2 km/h (1 Bft)
29.10.2019 01:39 5,4 °C 96 % 1015,8 hPa 0,0 mm 2,3 km/h (1 Bft) O-NO 61 ° 0 min 0,000 mm 0,0 UV-I 0 W/m² 4,8 °C 5,4 °C 4,8 km/h (1 Bft)
29.10.2019 01:40 5,4 °C 96 % 1015,7 hPa 0,0 mm 2,4 km/h (1 Bft) O-NO 61 ° 0 min 0,000 mm 0,0 UV-I 0 W/m² 4,8 °C 5,4 °C 3,2 km/h (1 Bft)
29.10.2019 01:41 5,4 °C 96 % 1015,7 hPa 0,0 mm 2,7 km/h (1 Bft) O-NO 61 ° 0 min 0,000 mm 0,0 UV-I 0 W/m² 4,8 °C 5,4 °C 4,8 km/h (1 Bft)
29.10.2019 01:42 5,4 °C 96 % 1015,7 hPa 0,0 mm 2,1 km/h (1 Bft) O-NO 61 ° 0 min 0,000 mm 0,0 UV-I 0 W/m² 4,8 °C 5,4 °C 3,2 km/h (1 Bft)
29.10.2019 01:43 5,4 °C 96 % 1015,7 hPa 0,0 mm 2,2 km/h (1 Bft) O-NO 61 ° 0 min 0,000 mm 0,0 UV-I 0 W/m² 4,8 °C 5,4 °C 3,2 km/h (1 Bft)
29.10.2019 01:44 5,5 °C 96 % 1015,7 hPa 0,0 mm 2,6 km/h (1 Bft) O-NO 61 ° 0 min 0,000 mm 0,0 UV-I 0 W/m² 4,9 °C 5,5 °C 4,8 km/h (1 Bft)
29.10.2019 01:45 5,4 °C 96 % 1015,7 hPa 0,0 mm 1,2 km/h (1 Bft) O-NO 61 ° 0 min 0,000 mm 0,0 UV-I 0 W/m² 4,8 °C 5,4 °C 3,2 km/h (1 Bft)
29.10.2019 01:46 5,4 °C 96 % 1015,7 hPa 0,0 mm 0,8 km/h (0 Bft) O-NO 61 ° 0 min 0,000 mm 0,0 UV-I 0 W/m² 4,8 °C 5,4 °C 3,2 km/h (1 Bft)
29.10.2019 01:47 5,4 °C 96 % 1015,7 hPa 0,0 mm 1,7 km/h (1 Bft) O-NO 61 ° 0 min 0,000 mm 0,0 UV-I 0 W/m² 4,8 °C 5,4 °C 3,2 km/h (1 Bft)
29.10.2019 01:48 5,4 °C 96 % 1015,7 hPa 0,0 mm 1,7 km/h (1 Bft) O-NO 61 ° 0 min 0,000 mm 0,0 UV-I 0 W/m² 4,8 °C 5,4 °C 3,2 km/h (1 Bft)
29.10.2019 01:49 5,4 °C 96 % 1015,7 hPa 0,0 mm 1,7 km/h (1 Bft) O-NO 61 ° 0 min 0,000 mm 0,0 UV-I 0 W/m² 4,8 °C 5,4 °C 3,2 km/h (1 Bft)
29.10.2019 01:50 5,4 °C 96 % 1015,7 hPa 0,0 mm 0,5 km/h (0 Bft) O-NO 61 ° 0 min 0,000 mm 0,0 UV-I 0 W/m² 4,8 °C 5,4 °C 1,6 km/h (1 Bft)
29.10.2019 01:51 5,4 °C 96 % 1015,7 hPa 0,0 mm 0,5 km/h (0 Bft) O-NO 61 ° 0 min 0,000 mm 0,0 UV-I 0 W/m² 4,8 °C 5,4 °C 3,2 km/h (1 Bft)
29.10.2019 01:52 5,4 °C 96 % 1015,7 hPa 0,0 mm 2,1 km/h (1 Bft) O-NO 61 ° 0 min 0,000 mm 0,0 UV-I 0 W/m² 4,8 °C 5,4 °C 3,2 km/h (1 Bft)
29.10.2019 01:53 5,4 °C 96 % 1015,7 hPa 0,0 mm 2,8 km/h (1 Bft) O-NO 61 ° 0 min 0,000 mm 0,0 UV-I 0 W/m² 4,8 °C 5,4 °C 4,8 km/h (1 Bft)
29.10.2019 01:54 5,4 °C 96 % 1015,7 hPa 0,0 mm 2,1 km/h (1 Bft) O-NO 61 ° 0 min 0,000 mm 0,0 UV-I 0 W/m² 4,8 °C 5,4 °C 3,2 km/h (1 Bft)
29.10.2019 01:55 5,4 °C 96 % 1015,6 hPa 0,0 mm 1,5 km/h (1 Bft) O-NO 61 ° 0 min 0,000 mm 0,0 UV-I 0 W/m² 4,8 °C 5,4 °C 3,2 km/h (1 Bft)
29.10.2019 01:56 5,4 °C 96 % 1015,7 hPa 0,0 mm 2,9 km/h (1 Bft) O-NO 61 ° 0 min 0,000 mm 0,0 UV-I 0 W/m² 4,8 °C 5,4 °C 3,2 km/h (1 Bft)
29.10.2019 01:57 5,4 °C 96 % 1015,6 hPa 0,0 mm 1,6 km/h (1 Bft) O-NO 61 ° 0 min 0,000 mm 0,0 UV-I 0 W/m² 4,8 °C 5,4 °C 3,2 km/h (1 Bft)
29.10.2019 01:58 5,4 °C 96 % 1015,6 hPa 0,0 mm 1,3 km/h (1 Bft) O-NO 61 ° 0 min 0,000 mm 0,0 UV-I 0 W/m² 4,8 °C 5,4 °C 3,2 km/h (1 Bft)
29.10.2019 01:59 5,4 °C 96 % 1015,6 hPa 0,0 mm 0,7 km/h (0 Bft) O-NO 61 ° 0 min 0,000 mm 0,0 UV-I 0 W/m² 4,8 °C 5,4 °C 3,2 km/h (1 Bft)
29.10.2019 02:00 5,4 °C 96 % 1015,6 hPa 0,0 mm 2,4 km/h (1 Bft) O-NO 61 ° 0 min 0,000 mm 0,0 UV-I 0 W/m² 4,8 °C 5,4 °C 3,2 km/h (1 Bft)
29.10.2019 02:01 5,4 °C 96 % 1015,7 hPa 0,0 mm 2,5 km/h (1 Bft) O-NO 61 ° 0 min 0,000 mm 0,0 UV-I 0 W/m² 4,8 °C 5,4 °C 4,8 km/h (1 Bft)
29.10.2019 02:02 5,4 °C 96 % 1015,7 hPa 0,0 mm 3,8 km/h (1 Bft) O-NO 61 ° 0 min 0,000 mm 0,0 UV-I 0 W/m² 4,8 °C 5,4 °C 4,8 km/h (1 Bft)
29.10.2019 02:03 5,4 °C 96 % 1015,7 hPa 0,0 mm 1,6 km/h (1 Bft) O-NO 61 ° 0 min 0,000 mm 0,0 UV-I 0 W/m² 4,8 °C 5,4 °C 3,2 km/h (1 Bft)
29.10.2019 02:04 5,4 °C 96 % 1015,7 hPa 0,0 mm 1,1 km/h (1 Bft) O-NO 61 ° 0 min 0,000 mm 0,0 UV-I 0 W/m² 4,8 °C 5,4 °C 1,6 km/h (1 Bft)
29.10.2019 02:05 5,4 °C 96 % 1015,7 hPa 0,0 mm 0,7 km/h (0 Bft) O-NO 61 ° 0 min 0,000 mm 0,0 UV-I 0 W/m² 4,8 °C 5,4 °C 3,2 km/h (1 Bft)
29.10.2019 02:06 5,4 °C 96 % 1015,7 hPa 0,0 mm 2,6 km/h (1 Bft) O-NO 61 ° 0 min 0,000 mm 0,0 UV-I 0 W/m² 4,8 °C 5,4 °C 3,2 km/h (1 Bft)
29.10.2019 02:07 5,4 °C 96 % 1015,7 hPa 0,0 mm 2,2 km/h (1 Bft) O-NO 61 ° 0 min 0,000 mm 0,0 UV-I 0 W/m² 4,8 °C 5,4 °C 3,2 km/h (1 Bft)
29.10.2019 02:08 5,4 °C 96 % 1015,7 hPa 0,0 mm 0,3 km/h (0 Bft) O-NO 61 ° 0 min 0,000 mm 0,0 UV-I 0 W/m² 4,8 °C 5,4 °C 1,6 km/h (1 Bft)
29.10.2019 02:09 5,4 °C 96 % 1015,7 hPa 0,0 mm 0,0 km/h (0 Bft) O-NO 61 ° 0 min 0,000 mm 0,0 UV-I 0 W/m² 4,8 °C 5,4 °C 0,0 km/h (0 Bft)
29.10.2019 02:10 5,4 °C 96 % 1015,7 hPa 0,0 mm 0,0 km/h (0 Bft) O-NO 61 ° 0 min 0,000 mm 0,0 UV-I 0 W/m² 4,8 °C 5,4 °C 0,0 km/h (0 Bft)
29.10.2019 02:11 5,4 °C 96 % 1015,7 hPa 0,0 mm 0,1 km/h (0 Bft) O-NO 61 ° 0 min 0,000 mm 0,0 UV-I 0 W/m² 4,8 °C 5,4 °C 1,6 km/h (1 Bft)
29.10.2019 02:12 5,5 °C 96 % 1015,7 hPa 0,0 mm 3,2 km/h (1 Bft) O-NO 61 ° 0 min 0,000 mm 0,0 UV-I 0 W/m² 4,9 °C 5,5 °C 4,8 km/h (1 Bft)
29.10.2019 02:13 5,4 °C 96 % 1015,7 hPa 0,0 mm 1,3 km/h (1 Bft) O-NO 61 ° 0 min 0,000 mm 0,0 UV-I 0 W/m² 4,8 °C 5,4 °C 3,2 km/h (1 Bft)
29.10.2019 02:14 5,4 °C 96 % 1015,7 hPa 0,0 mm 0,3 km/h (0 Bft) O-NO 61 ° 0 min 0,000 mm 0,0 UV-I 0 W/m² 4,8 °C 5,4 °C 1,6 km/h (1 Bft)
29.10.2019 02:15 5,4 °C 96 % 1015,7 hPa 0,0 mm 0,0 km/h (0 Bft) O-NO 61 ° 0 min 0,000 mm 0,0 UV-I 0 W/m² 4,8 °C 5,4 °C 0,0 km/h (0 Bft)
29.10.2019 02:16 5,4 °C 96 % 1015,6 hPa 0,0 mm 1,2 km/h (1 Bft) O-NO 61 ° 0 min 0,000 mm 0,0 UV-I 0 W/m² 4,8 °C 5,4 °C 3,2 km/h (1 Bft)
29.10.2019 02:17 5,5 °C 96 % 1015,6 hPa 0,0 mm 2,0 km/h (1 Bft) O-NO 61 ° 0 min 0,000 mm 0,0 UV-I 0 W/m² 4,9 °C 5,5 °C 3,2 km/h (1 Bft)
29.10.2019 02:18 5,4 °C 96 % 1015,7 hPa 0,0 mm 0,0 km/h (0 Bft) O-NO 61 ° 0 min 0,000 mm 0,0 UV-I 0 W/m² 4,8 °C 5,4 °C 0,0 km/h (0 Bft)
29.10.2019 02:19 5,5 °C 96 % 1015,7 hPa 0,0 mm 2,0 km/h (1 Bft) O-NO 61 ° 0 min 0,000 mm 0,0 UV-I 0 W/m² 4,9 °C 5,5 °C 3,2 km/h (1 Bft)
29.10.2019 02:20 5,4 °C 96 % 1015,7 hPa 0,0 mm 1,7 km/h (1 Bft) O-NO 61 ° 0 min 0,000 mm 0,0 UV-I 0 W/m² 4,8 °C 5,4 °C 3,2 km/h (1 Bft)
29.10.2019 02:21 5,5 °C 96 % 1015,6 hPa 0,0 mm 3,0 km/h (1 Bft) O-NO 61 ° 0 min 0,000 mm 0,0 UV-I 0 W/m² 4,9 °C 5,5 °C 4,8 km/h (1 Bft)
29.10.2019 02:22 5,4 °C 96 % 1015,6 hPa 0,0 mm 1,4 km/h (1 Bft) O-NO 61 ° 0 min 0,000 mm 0,0 UV-I 0 W/m² 4,8 °C 5,4 °C 3,2 km/h (1 Bft)
29.10.2019 02:23 5,4 °C 96 % 1015,6 hPa 0,0 mm 1,8 km/h (1 Bft) O-NO 61 ° 0 min 0,000 mm 0,0 UV-I 0 W/m² 4,8 °C 5,4 °C 4,8 km/h (1 Bft)
29.10.2019 02:24 5,5 °C 96 % 1015,6 hPa 0,0 mm 1,1 km/h (1 Bft) O-NO 61 ° 0 min 0,000 mm 0,0 UV-I 0 W/m² 4,9 °C 5,5 °C 3,2 km/h (1 Bft)
29.10.2019 02:25 5,5 °C 96 % 1015,6 hPa 0,0 mm 2,1 km/h (1 Bft) O-NO 61 ° 0 min 0,000 mm 0,0 UV-I 0 W/m² 4,9 °C 5,5 °C 3,2 km/h (1 Bft)
29.10.2019 02:26 5,5 °C 96 % 1015,6 hPa 0,0 mm 1,3 km/h (1 Bft) O-NO 61 ° 0 min 0,000 mm 0,0 UV-I 0 W/m² 4,9 °C 5,5 °C 3,2 km/h (1 Bft)
29.10.2019 02:27 5,5 °C 96 % 1015,6 hPa 0,0 mm 1,5 km/h (1 Bft) O-NO 61 ° 0 min 0,000 mm 0,0 UV-I 0 W/m² 4,9 °C 5,5 °C 3,2 km/h (1 Bft)
29.10.2019 02:28 5,5 °C 96 % 1015,6 hPa 0,0 mm 0,8 km/h (0 Bft) O-NO 61 ° 0 min 0,000 mm 0,0 UV-I 0 W/m² 4,9 °C 5,5 °C 3,2 km/h (1 Bft)
29.10.2019 02:29 5,5 °C 96 % 1015,6 hPa 0,0 mm 0,0 km/h (0 Bft) O-NO 61 ° 0 min 0,000 mm 0,0 UV-I 0 W/m² 4,9 °C 5,5 °C 0,0 km/h (0 Bft)
29.10.2019 02:30 5,5 °C 96 % 1015,6 hPa 0,0 mm 1,6 km/h (1 Bft) O-NO 61 ° 0 min 0,000 mm 0,0 UV-I 0 W/m² 4,9 °C 5,5 °C 3,2 km/h (1 Bft)
29.10.2019 02:31 5,5 °C 96 % 1015,6 hPa 0,0 mm 2,3 km/h (1 Bft) O-NO 61 ° 0 min 0,000 mm 0,0 UV-I 0 W/m² 4,9 °C 5,5 °C 3,2 km/h (1 Bft)
29.10.2019 02:32 5,5 °C 96 % 1015,6 hPa 0,0 mm 1,5 km/h (1 Bft) O-NO 61 ° 0 min 0,000 mm 0,0 UV-I 0 W/m² 4,9 °C 5,5 °C 3,2 km/h (1 Bft)
29.10.2019 02:33 5,5 °C 96 % 1015,5 hPa 0,0 mm 1,7 km/h (1 Bft) O-NO 61 ° 0 min 0,000 mm 0,0 UV-I 0 W/m² 4,9 °C 5,5 °C 3,2 km/h (1 Bft)
29.10.2019 02:34 5,5 °C 96 % 1015,5 hPa 0,0 mm 2,7 km/h (1 Bft) O-NO 61 ° 0 min 0,000 mm 0,0 UV-I 0 W/m² 4,9 °C 5,5 °C 4,8 km/h (1 Bft)
29.10.2019 02:35 5,5 °C 96 % 1015,5 hPa 0,0 mm 3,0 km/h (1 Bft) O-NO 61 ° 0 min 0,000 mm 0,0 UV-I 0 W/m² 4,9 °C 5,5 °C 4,8 km/h (1 Bft)
29.10.2019 02:36 5,5 °C 96 % 1015,6 hPa 0,0 mm 2,7 km/h (1 Bft) O-NO 61 ° 0 min 0,000 mm 0,0 UV-I 0 W/m² 4,9 °C 5,5 °C 3,2 km/h (1 Bft)
29.10.2019 02:37 5,5 °C 96 % 1015,5 hPa 0,0 mm 2,3 km/h (1 Bft) O-NO 61 ° 0 min 0,000 mm 0,0 UV-I 0 W/m² 4,9 °C 5,5 °C 3,2 km/h (1 Bft)
29.10.2019 02:38 5,5 °C 96 % 1015,5 hPa 0,0 mm 2,5 km/h (1 Bft) O-NO 61 ° 0 min 0,000 mm 0,0 UV-I 0 W/m² 4,9 °C 5,5 °C 4,8 km/h (1 Bft)
29.10.2019 02:39 5,5 °C 96 % 1015,5 hPa 0,0 mm 3,5 km/h (1 Bft) O-NO 61 ° 0 min 0,000 mm 0,0 UV-I 0 W/m² 4,9 °C 5,5 °C 4,8 km/h (1 Bft)
29.10.2019 02:40 5,5 °C 96 % 1015,5 hPa 0,0 mm 2,8 km/h (1 Bft) O-NO 61 ° 0 min 0,000 mm 0,0 UV-I 0 W/m² 4,9 °C 5,5 °C 4,8 km/h (1 Bft)
29.10.2019 02:41 5,5 °C 96 % 1015,5 hPa 0,0 mm 3,4 km/h (1 Bft) O-NO 61 ° 0 min 0,000 mm 0,0 UV-I 0 W/m² 4,9 °C 5,5 °C 4,8 km/h (1 Bft)
29.10.2019 02:42 5,5 °C 96 % 1015,5 hPa 0,0 mm 2,5 km/h (1 Bft) O-NO 61 ° 0 min 0,000 mm 0,0 UV-I 0 W/m² 4,9 °C 5,5 °C 3,2 km/h (1 Bft)
29.10.2019 02:43 5,4 °C 96 % 1015,5 hPa 0,0 mm 1,9 km/h (1 Bft) O-NO 61 ° 0 min 0,000 mm 0,0 UV-I 0 W/m² 4,8 °C 5,4 °C 4,8 km/h (1 Bft)
29.10.2019 02:44 5,5 °C 96 % 1015,5 hPa 0,0 mm 2,1 km/h (1 Bft) O-NO 61 ° 0 min 0,000 mm 0,0 UV-I 0 W/m² 4,9 °C 5,5 °C 3,2 km/h (1 Bft)
29.10.2019 02:45 5,4 °C 96 % 1015,5 hPa 0,0 mm 3,0 km/h (1 Bft) O-NO 61 ° 0 min 0,000 mm 0,0 UV-I 0 W/m² 4,8 °C 5,4 °C 4,8 km/h (1 Bft)
29.10.2019 02:46 5,5 °C 96 % 1015,5 hPa 0,0 mm 3,8 km/h (1 Bft) O-NO 61 ° 0 min 0,000 mm 0,0 UV-I 0 W/m² 4,9 °C 5,5 °C 4,8 km/h (1 Bft)
29.10.2019 02:47 5,5 °C 96 % 1015,5 hPa 0,0 mm 2,4 km/h (1 Bft) O-NO 61 ° 0 min 0,000 mm 0,0 UV-I 0 W/m² 4,9 °C 5,5 °C 3,2 km/h (1 Bft)
29.10.2019 02:48 5,5 °C 96 % 1015,5 hPa 0,0 mm 0,9 km/h (0 Bft) O-NO 61 ° 0 min 0,000 mm 0,0 UV-I 0 W/m² 4,9 °C 5,5 °C 3,2 km/h (1 Bft)
29.10.2019 02:49 5,5 °C 96 % 1015,5 hPa 0,0 mm 0,7 km/h (0 Bft) O-NO 61 ° 0 min 0,000 mm 0,0 UV-I 0 W/m² 4,9 °C 5,5 °C 1,6 km/h (1 Bft)
29.10.2019 02:50 5,5 °C 96 % 1015,6 hPa 0,0 mm 0,0 km/h (0 Bft) O-NO 61 ° 0 min 0,000 mm 0,0 UV-I 0 W/m² 4,9 °C 5,5 °C 0,0 km/h (0 Bft)
29.10.2019 02:51 5,5 °C 96 % 1015,6 hPa 0,0 mm 0,0 km/h (0 Bft) O-NO 61 ° 0 min 0,000 mm 0,0 UV-I 0 W/m² 4,9 °C 5,5 °C 0,0 km/h (0 Bft)
29.10.2019 02:52 5,5 °C 96 % 1015,5 hPa 0,0 mm 0,3 km/h (0 Bft) O-NO 61 ° 0 min 0,000 mm 0,0 UV-I 0 W/m² 4,9 °C 5,5 °C 1,6 km/h (1 Bft)
29.10.2019 02:53 5,5 °C 96 % 1015,6 hPa 0,0 mm 0,7 km/h (0 Bft) O-NO 61 ° 0 min 0,000 mm 0,0 UV-I 0 W/m² 4,9 °C 5,5 °C 3,2 km/h (1 Bft)
29.10.2019 02:54 5,5 °C 96 % 1015,5 hPa 0,0 mm 1,8 km/h (1 Bft) O-NO 61 ° 0 min 0,000 mm 0,0 UV-I 0 W/m² 4,9 °C 5,5 °C 4,8 km/h (1 Bft)
29.10.2019 02:55 5,5 °C 96 % 1015,5 hPa 0,0 mm 1,7 km/h (1 Bft) O-NO 61 ° 0 min 0,000 mm 0,0 UV-I 0 W/m² 4,9 °C 5,5 °C 3,2 km/h (1 Bft)
29.10.2019 02:56 5,5 °C 96 % 1015,6 hPa 0,0 mm 1,6 km/h (1 Bft) O-NO 61 ° 0 min 0,000 mm 0,0 UV-I 0 W/m² 4,9 °C 5,5 °C 3,2 km/h (1 Bft)
29.10.2019 02:57 5,5 °C 96 % 1015,6 hPa 0,0 mm 0,1 km/h (0 Bft) O-NO 61 ° 0 min 0,000 mm 0,0 UV-I 0 W/m² 4,9 °C 5,5 °C 1,6 km/h (1 Bft)
29.10.2019 02:58 5,5 °C 96 % 1015,6 hPa 0,0 mm 0,0 km/h (0 Bft) O-NO 61 ° 0 min 0,000 mm 0,0 UV-I 0 W/m² 4,9 °C 5,5 °C 0,0 km/h (0 Bft)
29.10.2019 02:59 5,5 °C 96 % 1015,5 hPa 0,0 mm 0,0 km/h (0 Bft) O-NO 61 ° 0 min 0,000 mm 0,0 UV-I 0 W/m² 4,9 °C 5,5 °C 0,0 km/h (0 Bft)
29.10.2019 03:00 5,5 °C 96 % 1015,5 hPa 0,0 mm 0,0 km/h (0 Bft) O-NO 61 ° 0 min 0,000 mm 0,0 UV-I 0 W/m² 4,9 °C 5,5 °C 0,0 km/h (0 Bft)
29.10.2019 03:01 5,5 °C 96 % 1015,6 hPa 0,0 mm 0,1 km/h (0 Bft) O-NO 61 ° 0 min 0,000 mm 0,0 UV-I 0 W/m² 4,9 °C 5,5 °C 1,6 km/h (1 Bft)
29.10.2019 03:02 5,5 °C 96 % 1015,6 hPa 0,0 mm 0,0 km/h (0 Bft) O-NO 61 ° 0 min 0,000 mm 0,0 UV-I 0 W/m² 4,9 °C 5,5 °C 0,0 km/h (0 Bft)
29.10.2019 03:03 5,5 °C 96 % 1015,6 hPa 0,0 mm 0,0 km/h (0 Bft) O-NO 61 ° 0 min 0,000 mm 0,0 UV-I 0 W/m² 4,9 °C 5,5 °C 0,0 km/h (0 Bft)
29.10.2019 03:04 5,5 °C 96 % 1015,5 hPa 0,0 mm 0,5 km/h (0 Bft) O-NO 61 ° 0 min 0,000 mm 0,0 UV-I 0 W/m² 4,9 °C 5,5 °C 1,6 km/h (1 Bft)
29.10.2019 03:05 5,5 °C 96 % 1015,5 hPa 0,0 mm 0,9 km/h (0 Bft) O-NO 61 ° 0 min 0,000 mm 0,0 UV-I 0 W/m² 4,9 °C 5,5 °C 3,2 km/h (1 Bft)
29.10.2019 03:06 5,5 °C 96 % 1015,5 hPa 0,0 mm 1,3 km/h (1 Bft) O-NO 61 ° 0 min 0,000 mm 0,0 UV-I 0 W/m² 4,9 °C 5,5 °C 1,6 km/h (1 Bft)
29.10.2019 03:07 5,5 °C 96 % 1015,5 hPa 0,0 mm 0,7 km/h (0 Bft) O-NO 61 ° 0 min 0,000 mm 0,0 UV-I 0 W/m² 4,9 °C 5,5 °C 1,6 km/h (1 Bft)
29.10.2019 03:08 5,5 °C 96 % 1015,5 hPa 0,0 mm 0,0 km/h (0 Bft) O-NO 61 ° 0 min 0,000 mm 0,0 UV-I 0 W/m² 4,9 °C 5,5 °C 0,0 km/h (0 Bft)
29.10.2019 03:09 5,5 °C 96 % 1015,5 hPa 0,0 mm 1,5 km/h (1 Bft) O-NO 61 ° 0 min 0,000 mm 0,0 UV-I 0 W/m² 4,9 °C 5,5 °C 3,2 km/h (1 Bft)
29.10.2019 03:10 5,5 °C 96 % 1015,5 hPa 0,0 mm 0,5 km/h (0 Bft) O-NO 61 ° 0 min 0,000 mm 0,0 UV-I 0 W/m² 4,9 °C 5,5 °C 1,6 km/h (1 Bft)
29.10.2019 03:11 5,4 °C 96 % 1015,5 hPa 0,0 mm 1,8 km/h (1 Bft) O-NO 61 ° 0 min 0,000 mm 0,0 UV-I 0 W/m² 4,8 °C 5,4 °C 3,2 km/h (1 Bft)
29.10.2019 03:12 5,5 °C 96 % 1015,5 hPa 0,0 mm 1,4 km/h (1 Bft) O-NO 61 ° 0 min 0,000 mm 0,0 UV-I 0 W/m² 4,9 °C 5,5 °C 1,6 km/h (1 Bft)
29.10.2019 03:13 5,5 °C 96 % 1015,5 hPa 0,0 mm 1,5 km/h (1 Bft) O-NO 61 ° 0 min 0,000 mm 0,0 UV-I 0 W/m² 4,9 °C 5,5 °C 3,2 km/h (1 Bft)
29.10.2019 03:14 5,4 °C 96 % 1015,4 hPa 0,0 mm 0,7 km/h (0 Bft) O-NO 61 ° 0 min 0,000 mm 0,0 UV-I 0 W/m² 4,8 °C 5,4 °C 3,2 km/h (1 Bft)
29.10.2019 03:15 5,4 °C 96 % 1015,4 hPa 0,0 mm 1,0 km/h (0 Bft) O-NO 61 ° 0 min 0,000 mm 0,0 UV-I 0 W/m² 4,8 °C 5,4 °C 3,2 km/h (1 Bft)
29.10.2019 03:16 5,4 °C 96 % 1015,5 hPa 0,0 mm 1,3 km/h (1 Bft) O-NO 61 ° 0 min 0,000 mm 0,0 UV-I 0 W/m² 4,8 °C 5,4 °C 3,2 km/h (1 Bft)
29.10.2019 03:17 5,4 °C 96 % 1015,4 hPa 0,0 mm 3,1 km/h (1 Bft) O-NO 61 ° 0 min 0,000 mm 0,0 UV-I 0 W/m² 4,8 °C 5,4 °C 3,2 km/h (1 Bft)
29.10.2019 03:18 5,4 °C 96 % 1015,4 hPa 0,0 mm 1,3 km/h (1 Bft) O-NO 61 ° 0 min 0,000 mm 0,0 UV-I 0 W/m² 4,8 °C 5,4 °C 3,2 km/h (1 Bft)
29.10.2019 03:19 5,4 °C 96 % 1015,4 hPa 0,0 mm 2,5 km/h (1 Bft) O-NO 61 ° 0 min 0,000 mm 0,0 UV-I 0 W/m² 4,8 °C 5,4 °C 3,2 km/h (1 Bft)
29.10.2019 03:20 5,4 °C 96 % 1015,4 hPa 0,0 mm 2,5 km/h (1 Bft) O-NO 61 ° 0 min 0,000 mm 0,0 UV-I 0 W/m² 4,8 °C 5,4 °C 4,8 km/h (1 Bft)
29.10.2019 03:21 5,4 °C 96 % 1015,4 hPa 0,0 mm 2,3 km/h (1 Bft) O-NO 61 ° 0 min 0,000 mm 0,0 UV-I 0 W/m² 4,8 °C 5,4 °C 3,2 km/h (1 Bft)
29.10.2019 03:22 5,4 °C 96 % 1015,4 hPa 0,0 mm 1,9 km/h (1 Bft) O-NO 61 ° 0 min 0,000 mm 0,0 UV-I 0 W/m² 4,8 °C 5,4 °C 3,2 km/h (1 Bft)
29.10.2019 03:23 5,4 °C 96 % 1015,4 hPa 0,0 mm 2,2 km/h (1 Bft) O-NO 61 ° 0 min 0,000 mm 0,0 UV-I 0 W/m² 4,8 °C 5,4 °C 3,2 km/h (1 Bft)
29.10.2019 03:24 5,4 °C 96 % 1015,4 hPa 0,0 mm 0,3 km/h (0 Bft) O-NO 61 ° 0 min 0,000 mm 0,0 UV-I 0 W/m² 4,8 °C 5,4 °C 1,6 km/h (1 Bft)
29.10.2019 03:25 5,4 °C 96 % 1015,4 hPa 0,0 mm 0,0 km/h (0 Bft) O-NO 61 ° 0 min 0,000 mm 0,0 UV-I 0 W/m² 4,8 °C 5,4 °C 0,0 km/h (0 Bft)
29.10.2019 03:26 5,4 °C 96 % 1015,4 hPa 0,0 mm 0,0 km/h (0 Bft) O-NO 61 ° 0 min 0,000 mm 0,0 UV-I 0 W/m² 4,8 °C 5,4 °C 0,0 km/h (0 Bft)
29.10.2019 03:27 5,4 °C 96 % 1015,4 hPa 0,0 mm 0,0 km/h (0 Bft) O-NO 61 ° 0 min 0,000 mm 0,0 UV-I 0 W/m² 4,8 °C 5,4 °C 0,0 km/h (0 Bft)
29.10.2019 03:28 5,4 °C 96 % 1015,4 hPa 0,0 mm 1,9 km/h (1 Bft) O-NO 61 ° 0 min 0,000 mm 0,0 UV-I 0 W/m² 4,8 °C 5,4 °C 3,2 km/h (1 Bft)
29.10.2019 03:29 5,4 °C 96 % 1015,4 hPa 0,0 mm 0,4 km/h (0 Bft) O-NO 61 ° 0 min 0,000 mm 0,0 UV-I 0 W/m² 4,8 °C 5,4 °C 1,6 km/h (1 Bft)
29.10.2019 03:30 5,4 °C 96 % 1015,5 hPa 0,0 mm 0,0 km/h (0 Bft) O-NO 61 ° 0 min 0,000 mm 0,0 UV-I 0 W/m² 4,8 °C 5,4 °C 0,0 km/h (0 Bft)
29.10.2019 03:31 5,4 °C 96 % 1015,5 hPa 0,0 mm 0,8 km/h (0 Bft) O-NO 61 ° 0 min 0,000 mm 0,0 UV-I 0 W/m² 4,8 °C 5,4 °C 3,2 km/h (1 Bft)
29.10.2019 03:32 5,4 °C 96 % 1015,5 hPa 0,0 mm 1,6 km/h (1 Bft) O-NO 61 ° 0 min 0,000 mm 0,0 UV-I 0 W/m² 4,8 °C 5,4 °C 3,2 km/h (1 Bft)
29.10.2019 03:33 5,4 °C 96 % 1015,5 hPa 0,0 mm 2,1 km/h (1 Bft) O-NO 61 ° 0 min 0,000 mm 0,0 UV-I 0 W/m² 4,8 °C 5,4 °C 4,8 km/h (1 Bft)
29.10.2019 03:34 5,4 °C 96 % 1015,5 hPa 0,0 mm 0,2 km/h (0 Bft) O-NO 61 ° 0 min 0,000 mm 0,0 UV-I 0 W/m² 4,8 °C 5,4 °C 1,6 km/h (1 Bft)
29.10.2019 03:35 5,4 °C 96 % 1015,5 hPa 0,0 mm 1,7 km/h (1 Bft) O-NO 61 ° 0 min 0,000 mm 0,0 UV-I 0 W/m² 4,8 °C 5,4 °C 3,2 km/h (1 Bft)
29.10.2019 03:36 5,4 °C 96 % 1015,5 hPa 0,0 mm 0,6 km/h (0 Bft) O-NO 61 ° 0 min 0,000 mm 0,0 UV-I 0 W/m² 4,8 °C 5,4 °C 3,2 km/h (1 Bft)
29.10.2019 03:37 5,4 °C 96 % 1015,4 hPa 0,0 mm 3,2 km/h (1 Bft) O-NO 61 ° 0 min 0,000 mm 0,0 UV-I 0 W/m² 4,8 °C 5,4 °C 6,4 km/h (2 Bft)
29.10.2019 03:38 5,4 °C 96 % 1015,4 hPa 0,0 mm 4,8 km/h (1 Bft) O-NO 77 ° 0 min 0,000 mm 0,0 UV-I 0 W/m² 4,8 °C 4,6 °C 6,4 km/h (2 Bft)
29.10.2019 03:39 5,4 °C 96 % 1015,5 hPa 0,0 mm 3,7 km/h (1 Bft) O-NO 77 ° 0 min 0,000 mm 0,0 UV-I 0 W/m² 4,8 °C 5,4 °C 4,8 km/h (1 Bft)
29.10.2019 03:40 5,4 °C 96 % 1015,5 hPa 0,0 mm 2,2 km/h (1 Bft) O-NO 77 ° 0 min 0,000 mm 0,0 UV-I 0 W/m² 4,8 °C 5,4 °C 4,8 km/h (1 Bft)
29.10.2019 03:41 5,4 °C 96 % 1015,5 hPa 0,0 mm 2,6 km/h (1 Bft) O-NO 77 ° 0 min 0,000 mm 0,0 UV-I 0 W/m² 4,8 °C 5,4 °C 4,8 km/h (1 Bft)
29.10.2019 03:42 5,4 °C 96 % 1015,5 hPa 0,0 mm 0,3 km/h (0 Bft) O-NO 77 ° 0 min 0,000 mm 0,0 UV-I 0 W/m² 4,8 °C 5,4 °C 1,6 km/h (1 Bft)
29.10.2019 03:43 5,4 °C 96 % 1015,5 hPa 0,0 mm 2,6 km/h (1 Bft) O-NO 77 ° 0 min 0,000 mm 0,0 UV-I 0 W/m² 4,8 °C 5,4 °C 3,2 km/h (1 Bft)
29.10.2019 03:44 5,4 °C 96 % 1015,5 hPa 0,0 mm 3,0 km/h (1 Bft) O-NO 77 ° 0 min 0,000 mm 0,0 UV-I 0 W/m² 4,8 °C 5,4 °C 4,8 km/h (1 Bft)
29.10.2019 03:45 5,4 °C 96 % 1015,5 hPa 0,0 mm 2,5 km/h (1 Bft) O-NO 77 ° 0 min 0,000 mm 0,0 UV-I 0 W/m² 4,8 °C 5,4 °C 3,2 km/h (1 Bft)
29.10.2019 03:46 5,4 °C 96 % 1015,5 hPa 0,0 mm 3,0 km/h (1 Bft) O-NO 77 ° 0 min 0,000 mm 0,0 UV-I 0 W/m² 4,8 °C 5,4 °C 4,8 km/h (1 Bft)
29.10.2019 03:47 5,4 °C 96 % 1015,5 hPa 0,0 mm 2,3 km/h (1 Bft) O-NO 77 ° 0 min 0,000 mm 0,0 UV-I 0 W/m² 4,8 °C 5,4 °C 4,8 km/h (1 Bft)
29.10.2019 03:48 5,4 °C 96 % 1015,5 hPa 0,0 mm 2,1 km/h (1 Bft) O-NO 77 ° 0 min 0,000 mm 0,0 UV-I 0 W/m² 4,8 °C 5,4 °C 3,2 km/h (1 Bft)
29.10.2019 03:49 5,4 °C 96 % 1015,6 hPa 0,0 mm 2,8 km/h (1 Bft) O-NO 77 ° 0 min 0,000 mm 0,0 UV-I 0 W/m² 4,8 °C 5,4 °C 4,8 km/h (1 Bft)
29.10.2019 03:50 5,4 °C 96 % 1015,6 hPa 0,0 mm 0,6 km/h (0 Bft) O-NO 77 ° 0 min 0,000 mm 0,0 UV-I 0 W/m² 4,8 °C 5,4 °C 1,6 km/h (1 Bft)
29.10.2019 03:51 5,4 °C 96 % 1015,5 hPa 0,0 mm 0,1 km/h (0 Bft) O-NO 77 ° 0 min 0,000 mm 0,0 UV-I 0 W/m² 4,8 °C 5,4 °C 1,6 km/h (1 Bft)
29.10.2019 03:52 5,4 °C 96 % 1015,5 hPa 0,0 mm 0,9 km/h (0 Bft) O-NO 77 ° 0 min 0,000 mm 0,0 UV-I 0 W/m² 4,8 °C 5,4 °C 3,2 km/h (1 Bft)
29.10.2019 03:53 5,4 °C 96 % 1015,5 hPa 0,0 mm 0,6 km/h (0 Bft) O-NO 77 ° 0 min 0,000 mm 0,0 UV-I 0 W/m² 4,8 °C 5,4 °C 1,6 km/h (1 Bft)
29.10.2019 03:54 5,4 °C 96 % 1015,5 hPa 0,0 mm 0,4 km/h (0 Bft) O-NO 77 ° 0 min 0,000 mm 0,0 UV-I 0 W/m² 4,8 °C 5,4 °C 1,6 km/h (1 Bft)
29.10.2019 03:55 5,4 °C 96 % 1015,5 hPa 0,0 mm 0,3 km/h (0 Bft) O-NO 77 ° 0 min 0,000 mm 0,0 UV-I 0 W/m² 4,8 °C 5,4 °C 1,6 km/h (1 Bft)
29.10.2019 03:56 5,4 °C 96 % 1015,5 hPa 0,0 mm 0,4 km/h (0 Bft) O-NO 77 ° 0 min 0,000 mm 0,0 UV-I 0 W/m² 4,8 °C 5,4 °C 1,6 km/h (1 Bft)
29.10.2019 03:57 5,4 °C 96 % 1015,5 hPa 0,0 mm 1,0 km/h (0 Bft) O-NO 77 ° 0 min 0,000 mm 0,0 UV-I 0 W/m² 4,8 °C 5,4 °C 3,2 km/h (1 Bft)
29.10.2019 03:58 5,4 °C 96 % 1015,5 hPa 0,0 mm 0,1 km/h (0 Bft) O-NO 77 ° 0 min 0,000 mm 0,0 UV-I 0 W/m² 4,8 °C 5,4 °C 1,6 km/h (1 Bft)
29.10.2019 03:59 5,4 °C 96 % 1015,5 hPa 0,0 mm 0,0 km/h (0 Bft) O-NO 77 ° 0 min 0,000 mm 0,0 UV-I 0 W/m² 4,8 °C 5,4 °C 0,0 km/h (0 Bft)
29.10.2019 04:00 5,4 °C 96 % 1015,5 hPa 0,0 mm 0,7 km/h (0 Bft) O-NO 77 ° 0 min 0,000 mm 0,0 UV-I 0 W/m² 4,8 °C 5,4 °C 3,2 km/h (1 Bft)
29.10.2019 04:01 5,4 °C 96 % 1015,5 hPa 0,0 mm 0,3 km/h (0 Bft) O-NO 77 ° 0 min 0,000 mm 0,0 UV-I 0 W/m² 4,8 °C 5,4 °C 1,6 km/h (1 Bft)
29.10.2019 04:02 5,4 °C 96 % 1015,5 hPa 0,0 mm 0,2 km/h (0 Bft) O-NO 77 ° 0 min 0,000 mm 0,0 UV-I 0 W/m² 4,8 °C 5,4 °C 1,6 km/h (1 Bft)
29.10.2019 04:03 5,4 °C 96 % 1015,5 hPa 0,0 mm 0,0 km/h (0 Bft) O-NO 77 ° 0 min 0,000 mm 0,0 UV-I 0 W/m² 4,8 °C 5,4 °C 0,0 km/h (0 Bft)
29.10.2019 04:04 5,4 °C 96 % 1015,5 hPa 0,0 mm 0,0 km/h (0 Bft) O-NO 77 ° 0 min 0,000 mm 0,0 UV-I 0 W/m² 4,8 °C 5,4 °C 0,0 km/h (0 Bft)
29.10.2019 04:05 5,4 °C 96 % 1015,5 hPa 0,0 mm 0,0 km/h (0 Bft) O-NO 77 ° 0 min 0,000 mm 0,0 UV-I 0 W/m² 4,8 °C 5,4 °C 0,0 km/h (0 Bft)
29.10.2019 04:06 5,4 °C 96 % 1015,5 hPa 0,0 mm 0,0 km/h (0 Bft) O-NO 77 ° 0 min 0,000 mm 0,0 UV-I 0 W/m² 4,8 °C 5,4 °C 0,0 km/h (0 Bft)
29.10.2019 04:07 5,4 °C 96 % 1015,5 hPa 0,0 mm 0,0 km/h (0 Bft) O-NO 77 ° 0 min 0,000 mm 0,0 UV-I 0 W/m² 4,8 °C 5,4 °C 0,0 km/h (0 Bft)
29.10.2019 04:08 5,4 °C 96 % 1015,5 hPa 0,0 mm 0,0 km/h (0 Bft) O-NO 77 ° 0 min 0,000 mm 0,0 UV-I 0 W/m² 4,8 °C 5,4 °C 0,0 km/h (0 Bft)
29.10.2019 04:09 5,4 °C 96 % 1015,5 hPa 0,0 mm 1,2 km/h (1 Bft) O-NO 77 ° 0 min 0,000 mm 0,0 UV-I 0 W/m² 4,8 °C 5,4 °C 3,2 km/h (1 Bft)
29.10.2019 04:10 5,4 °C 96 % 1015,5 hPa 0,0 mm 0,0 km/h (0 Bft) O-NO 77 ° 0 min 0,000 mm 0,0 UV-I 0 W/m² 4,8 °C 5,4 °C 0,0 km/h (0 Bft)
29.10.2019 04:11 5,4 °C 96 % 1015,5 hPa 0,0 mm 1,2 km/h (1 Bft) O-NO 77 ° 0 min 0,000 mm 0,0 UV-I 0 W/m² 4,8 °C 5,4 °C 3,2 km/h (1 Bft)
29.10.2019 04:12 5,4 °C 96 % 1015,5 hPa 0,0 mm 1,7 km/h (1 Bft) O-NO 77 ° 0 min 0,000 mm 0,0 UV-I 0 W/m² 4,8 °C 5,4 °C 3,2 km/h (1 Bft)
29.10.2019 04:13 5,4 °C 96 % 1015,6 hPa 0,0 mm 0,7 km/h (0 Bft) O-NO 77 ° 0 min 0,000 mm 0,0 UV-I 0 W/m² 4,8 °C 5,4 °C 1,6 km/h (1 Bft)
29.10.2019 04:14 5,4 °C 96 % 1015,6 hPa 0,0 mm 1,4 km/h (1 Bft) O-NO 77 ° 0 min 0,000 mm 0,0 UV-I 0 W/m² 4,8 °C 5,4 °C 3,2 km/h (1 Bft)
29.10.2019 04:15 5,4 °C 96 % 1015,6 hPa 0,0 mm 1,7 km/h (1 Bft) O-NO 77 ° 0 min 0,000 mm 0,0 UV-I 0 W/m² 4,8 °C 5,4 °C 3,2 km/h (1 Bft)
29.10.2019 04:16 5,4 °C 96 % 1015,6 hPa 0,0 mm 0,0 km/h (0 Bft) O-NO 77 ° 0 min 0,000 mm 0,0 UV-I 0 W/m² 4,8 °C 5,4 °C 0,0 km/h (0 Bft)
29.10.2019 04:17 5,4 °C 96 % 1015,6 hPa 0,0 mm 0,0 km/h (0 Bft) O-NO 77 ° 0 min 0,000 mm 0,0 UV-I 0 W/m² 4,8 °C 5,4 °C 0,0 km/h (0 Bft)
29.10.2019 04:18 5,4 °C 96 % 1015,6 hPa 0,0 mm 1,9 km/h (1 Bft) O-NO 77 ° 0 min 0,000 mm 0,0 UV-I 0 W/m² 4,8 °C 5,4 °C 3,2 km/h (1 Bft)
29.10.2019 04:19 5,4 °C 96 % 1015,6 hPa 0,0 mm 2,5 km/h (1 Bft) O-NO 77 ° 0 min 0,000 mm 0,0 UV-I 0 W/m² 4,8 °C 5,4 °C 3,2 km/h (1 Bft)
29.10.2019 04:20 5,4 °C 96 % 1015,6 hPa 0,0 mm 1,8 km/h (1 Bft) O-NO 77 ° 0 min 0,000 mm 0,0 UV-I 0 W/m² 4,8 °C 5,4 °C 3,2 km/h (1 Bft)
29.10.2019 04:21 5,4 °C 96 % 1015,6 hPa 0,0 mm 1,2 km/h (1 Bft) O-NO 77 ° 0 min 0,000 mm 0,0 UV-I 0 W/m² 4,8 °C 5,4 °C 3,2 km/h (1 Bft)
29.10.2019 04:22 5,3 °C 96 % 1015,6 hPa 0,0 mm 0,5 km/h (0 Bft) O-NO 77 ° 0 min 0,000 mm 0,0 UV-I 0 W/m² 4,7 °C 5,3 °C 3,2 km/h (1 Bft)
29.10.2019 04:23 5,4 °C 96 % 1015,6 hPa 0,0 mm 2,7 km/h (1 Bft) O-NO 77 ° 0 min 0,000 mm 0,0 UV-I 0 W/m² 4,8 °C 5,4 °C 3,2 km/h (1 Bft)
29.10.2019 04:24 5,4 °C 96 % 1015,6 hPa 0,0 mm 2,3 km/h (1 Bft) O-NO 77 ° 0 min 0,000 mm 0,0 UV-I 0 W/m² 4,8 °C 5,4 °C 3,2 km/h (1 Bft)
29.10.2019 04:25 5,4 °C 96 % 1015,6 hPa 0,0 mm 1,0 km/h (0 Bft) O-NO 77 ° 0 min 0,000 mm 0,0 UV-I 0 W/m² 4,8 °C 5,4 °C 3,2 km/h (1 Bft)
29.10.2019 04:26 5,4 °C 96 % 1015,6 hPa 0,0 mm 0,0 km/h (0 Bft) O-NO 77 ° 0 min 0,000 mm 0,0 UV-I 0 W/m² 4,8 °C 5,4 °C 0,0 km/h (0 Bft)
29.10.2019 04:27 5,4 °C 96 % 1015,6 hPa 0,0 mm 0,8 km/h (0 Bft) O-NO 77 ° 0 min 0,000 mm 0,0 UV-I 0 W/m² 4,8 °C 5,4 °C 3,2 km/h (1 Bft)
29.10.2019 04:28 5,4 °C 96 % 1015,6 hPa 0,0 mm 0,3 km/h (0 Bft) O-NO 77 ° 0 min 0,000 mm 0,0 UV-I 0 W/m² 4,8 °C 5,4 °C 1,6 km/h (1 Bft)
29.10.2019 04:29 5,4 °C 96 % 1015,5 hPa 0,0 mm 0,0 km/h (0 Bft) O-NO 77 ° 0 min 0,000 mm 0,0 UV-I 0 W/m² 4,8 °C 5,4 °C 0,0 km/h (0 Bft)
29.10.2019 04:30 5,4 °C 96 % 1015,5 hPa 0,0 mm 0,7 km/h (0 Bft) O-NO 77 ° 0 min 0,000 mm 0,0 UV-I 0 W/m² 4,8 °C 5,4 °C 1,6 km/h (1 Bft)
29.10.2019 04:31 5,4 °C 96 % 1015,5 hPa 0,0 mm 1,5 km/h (1 Bft) O-NO 77 ° 0 min 0,000 mm 0,0 UV-I 0 W/m² 4,8 °C 5,4 °C 3,2 km/h (1 Bft)
29.10.2019 04:32 5,4 °C 96 % 1015,5 hPa 0,0 mm 0,8 km/h (0 Bft) O-NO 77 ° 0 min 0,000 mm 0,0 UV-I 0 W/m² 4,8 °C 5,4 °C 3,2 km/h (1 Bft)
29.10.2019 04:33 5,3 °C 96 % 1015,6 hPa 0,0 mm 0,5 km/h (0 Bft) O-NO 77 ° 0 min 0,000 mm 0,0 UV-I 0 W/m² 4,7 °C 5,3 °C 1,6 km/h (1 Bft)
29.10.2019 04:34 5,4 °C 96 % 1015,6 hPa 0,0 mm 0,0 km/h (0 Bft) O-NO 77 ° 0 min 0,000 mm 0,0 UV-I 0 W/m² 4,8 °C 5,4 °C 0,0 km/h (0 Bft)
29.10.2019 04:35 5,4 °C 96 % 1015,6 hPa 0,0 mm 0,0 km/h (0 Bft) O-NO 77 ° 0 min 0,000 mm 0,0 UV-I 0 W/m² 4,8 °C 5,4 °C 0,0 km/h (0 Bft)
29.10.2019 04:36 5,3 °C 96 % 1015,6 hPa 0,0 mm 0,3 km/h (0 Bft) O-NO 77 ° 0 min 0,000 mm 0,0 UV-I 0 W/m² 4,7 °C 5,3 °C 3,2 km/h (1 Bft)
29.10.2019 04:37 5,4 °C 96 % 1015,6 hPa 0,0 mm 3,1 km/h (1 Bft) O-NO 77 ° 0 min 0,000 mm 0,0 UV-I 0 W/m² 4,8 °C 5,4 °C 4,8 km/h (1 Bft)
29.10.2019 04:38 5,4 °C 96 % 1015,6 hPa 0,0 mm 2,4 km/h (1 Bft) O-NO 77 ° 0 min 0,000 mm 0,0 UV-I 0 W/m² 4,8 °C 5,4 °C 3,2 km/h (1 Bft)
29.10.2019 04:39 5,4 °C 96 % 1015,6 hPa 0,0 mm 2,7 km/h (1 Bft) O-NO 77 ° 0 min 0,000 mm 0,0 UV-I 0 W/m² 4,8 °C 5,4 °C 3,2 km/h (1 Bft)
29.10.2019 04:40 5,4 °C 96 % 1015,7 hPa 0,0 mm 2,7 km/h (1 Bft) O-NO 77 ° 0 min 0,000 mm 0,0 UV-I 0 W/m² 4,8 °C 5,4 °C 4,8 km/h (1 Bft)
29.10.2019 04:41 5,4 °C 96 % 1015,7 hPa 0,0 mm 1,6 km/h (1 Bft) O-NO 77 ° 0 min 0,000 mm 0,0 UV-I 0 W/m² 4,8 °C 5,4 °C 3,2 km/h (1 Bft)
29.10.2019 04:42 5,3 °C 96 % 1015,7 hPa 0,0 mm 0,8 km/h (0 Bft) O-NO 77 ° 0 min 0,000 mm 0,0 UV-I 0 W/m² 4,7 °C 5,3 °C 1,6 km/h (1 Bft)
29.10.2019 04:43 5,4 °C 96 % 1015,7 hPa 0,0 mm 0,7 km/h (0 Bft) O-NO 77 ° 0 min 0,000 mm 0,0 UV-I 0 W/m² 4,8 °C 5,4 °C 1,6 km/h (1 Bft)
29.10.2019 04:44 5,4 °C 96 % 1015,7 hPa 0,0 mm 1,7 km/h (1 Bft) O-NO 77 ° 0 min 0,000 mm 0,0 UV-I 0 W/m² 4,8 °C 5,4 °C 3,2 km/h (1 Bft)
29.10.2019 04:45 5,4 °C 96 % 1015,7 hPa 0,0 mm 0,0 km/h (0 Bft) O-NO 77 ° 0 min 0,000 mm 0,0 UV-I 0 W/m² 4,8 °C 5,4 °C 0,0 km/h (0 Bft)
29.10.2019 04:46 5,4 °C 96 % 1015,7 hPa 0,0 mm 0,7 km/h (0 Bft) O-NO 77 ° 0 min 0,000 mm 0,0 UV-I 0 W/m² 4,8 °C 5,4 °C 1,6 km/h (1 Bft)
29.10.2019 04:47 5,4 °C 96 % 1015,7 hPa 0,0 mm 2,0 km/h (1 Bft) O-NO 77 ° 0 min 0,000 mm 0,0 UV-I 0 W/m² 4,8 °C 5,4 °C 3,2 km/h (1 Bft)
29.10.2019 04:48 5,4 °C 96 % 1015,7 hPa 0,0 mm 2,0 km/h (1 Bft) O-NO 77 ° 0 min 0,000 mm 0,0 UV-I 0 W/m² 4,8 °C 5,4 °C 3,2 km/h (1 Bft)
29.10.2019 04:49 5,4 °C 96 % 1015,7 hPa 0,0 mm 1,2 km/h (1 Bft) O-NO 77 ° 0 min 0,000 mm 0,0 UV-I 0 W/m² 4,8 °C 5,4 °C 1,6 km/h (1 Bft)
29.10.2019 04:50 5,4 °C 96 % 1015,7 hPa 0,0 mm 0,1 km/h (0 Bft) O-NO 77 ° 0 min 0,000 mm 0,0 UV-I 0 W/m² 4,8 °C 5,4 °C 1,6 km/h (1 Bft)
29.10.2019 04:51 5,4 °C 96 % 1015,7 hPa 0,0 mm 0,0 km/h (0 Bft) O-NO 77 ° 0 min 0,000 mm 0,0 UV-I 0 W/m² 4,8 °C 5,4 °C 0,0 km/h (0 Bft)
29.10.2019 04:52 5,4 °C 96 % 1015,7 hPa 0,0 mm 0,0 km/h (0 Bft) O-NO 77 ° 0 min 0,000 mm 0,0 UV-I 0 W/m² 4,8 °C 5,4 °C 0,0 km/h (0 Bft)
29.10.2019 04:53 5,4 °C 96 % 1015,7 hPa 0,0 mm 1,6 km/h (1 Bft) O-NO 77 ° 0 min 0,000 mm 0,0 UV-I 0 W/m² 4,8 °C 5,4 °C 3,2 km/h (1 Bft)
29.10.2019 04:54 5,4 °C 96 % 1015,8 hPa 0,0 mm 2,0 km/h (1 Bft) O-NO 77 ° 0 min 0,000 mm 0,0 UV-I 0 W/m² 4,8 °C 5,4 °C 3,2 km/h (1 Bft)
29.10.2019 04:55 5,4 °C 96 % 1015,8 hPa 0,0 mm 0,0 km/h (0 Bft) O-NO 77 ° 0 min 0,000 mm 0,0 UV-I 0 W/m² 4,8 °C 5,4 °C 0,0 km/h (0 Bft)
29.10.2019 04:56 5,4 °C 96 % 1015,7 hPa 0,0 mm 0,0 km/h (0 Bft) O-NO 77 ° 0 min 0,000 mm 0,0 UV-I 0 W/m² 4,8 °C 5,4 °C 0,0 km/h (0 Bft)
29.10.2019 04:57 5,4 °C 96 % 1015,7 hPa 0,0 mm 0,0 km/h (0 Bft) O-NO 77 ° 0 min 0,000 mm 0,0 UV-I 0 W/m² 4,8 °C 5,4 °C 0,0 km/h (0 Bft)
29.10.2019 04:58 5,4 °C 96 % 1015,8 hPa 0,0 mm 0,0 km/h (0 Bft) O-NO 77 ° 0 min 0,000 mm 0,0 UV-I 0 W/m² 4,8 °C 5,4 °C 0,0 km/h (0 Bft)
29.10.2019 04:59 5,4 °C 96 % 1015,8 hPa 0,0 mm 0,0 km/h (0 Bft) O-NO 77 ° 0 min 0,000 mm 0,0 UV-I 0 W/m² 4,8 °C 5,4 °C 0,0 km/h (0 Bft)
29.10.2019 05:00 5,4 °C 96 % 1015,8 hPa 0,0 mm 0,0 km/h (0 Bft) O-NO 77 ° 0 min 0,000 mm 0,0 UV-I 0 W/m² 4,8 °C 5,4 °C 0,0 km/h (0 Bft)
29.10.2019 05:01 5,4 °C 96 % 1015,8 hPa 0,0 mm 0,0 km/h (0 Bft) O-NO 77 ° 0 min 0,000 mm 0,0 UV-I 0 W/m² 4,8 °C 5,4 °C 0,0 km/h (0 Bft)
29.10.2019 05:02 5,4 °C 96 % 1015,8 hPa 0,0 mm 0,0 km/h (0 Bft) O-NO 77 ° 0 min 0,000 mm 0,0 UV-I 0 W/m² 4,8 °C 5,4 °C 0,0 km/h (0 Bft)
29.10.2019 05:03 5,4 °C 96 % 1015,8 hPa 0,0 mm 0,0 km/h (0 Bft) O-NO 77 ° 0 min 0,000 mm 0,0 UV-I 0 W/m² 4,8 °C 5,4 °C 0,0 km/h (0 Bft)
29.10.2019 05:04 5,4 °C 96 % 1015,8 hPa 0,0 mm 0,0 km/h (0 Bft) O-NO 77 ° 0 min 0,000 mm 0,0 UV-I 0 W/m² 4,8 °C 5,4 °C 0,0 km/h (0 Bft)
29.10.2019 05:05 5,4 °C 96 % 1015,7 hPa 0,0 mm 0,0 km/h (0 Bft) O-NO 77 ° 0 min 0,000 mm 0,0 UV-I 0 W/m² 4,8 °C 5,4 °C 0,0 km/h (0 Bft)
29.10.2019 05:06 5,4 °C 96 % 1015,8 hPa 0,0 mm 0,0 km/h (0 Bft) O-NO 77 ° 0 min 0,000 mm 0,0 UV-I 0 W/m² 4,8 °C 5,4 °C 0,0 km/h (0 Bft)
29.10.2019 05:07 5,4 °C 96 % 1015,8 hPa 0,0 mm 0,0 km/h (0 Bft) O-NO 77 ° 0 min 0,000 mm 0,0 UV-I 0 W/m² 4,8 °C 5,4 °C 0,0 km/h (0 Bft)
29.10.2019 05:08 5,4 °C 96 % 1015,7 hPa 0,0 mm 0,0 km/h (0 Bft) O-NO 77 ° 0 min 0,000 mm 0,0 UV-I 0 W/m² 4,8 °C 5,4 °C 0,0 km/h (0 Bft)
29.10.2019 05:09 5,4 °C 96 % 1015,7 hPa 0,0 mm 0,0 km/h (0 Bft) O-NO 77 ° 0 min 0,000 mm 0,0 UV-I 0 W/m² 4,8 °C 5,4 °C 0,0 km/h (0 Bft)
29.10.2019 05:10 5,4 °C 96 % 1015,7 hPa 0,0 mm 0,0 km/h (0 Bft) O-NO 77 ° 0 min 0,000 mm 0,0 UV-I 0 W/m² 4,8 °C 5,4 °C 0,0 km/h (0 Bft)
29.10.2019 05:11 5,4 °C 96 % 1015,7 hPa 0,0 mm 0,0 km/h (0 Bft) O-NO 77 ° 0 min 0,000 mm 0,0 UV-I 0 W/m² 4,8 °C 5,4 °C 0,0 km/h (0 Bft)
29.10.2019 05:12 5,4 °C 96 % 1015,7 hPa 0,0 mm 0,0 km/h (0 Bft) O-NO 77 ° 0 min 0,000 mm 0,0 UV-I 0 W/m² 4,8 °C 5,4 °C 0,0 km/h (0 Bft)
29.10.2019 05:13 5,4 °C 96 % 1015,7 hPa 0,0 mm 0,0 km/h (0 Bft) O-NO 77 ° 0 min 0,000 mm 0,0 UV-I 0 W/m² 4,8 °C 5,4 °C 0,0 km/h (0 Bft)
29.10.2019 05:14 5,4 °C 96 % 1015,8 hPa 0,0 mm 0,0 km/h (0 Bft) O-NO 77 ° 0 min 0,000 mm 0,0 UV-I 0 W/m² 4,8 °C 5,4 °C 0,0 km/h (0 Bft)
29.10.2019 05:15 5,4 °C 96 % 1015,7 hPa 0,0 mm 0,0 km/h (0 Bft) O-NO 77 ° 0 min 0,000 mm 0,0 UV-I 0 W/m² 4,8 °C 5,4 °C 0,0 km/h (0 Bft)
29.10.2019 05:16 5,4 °C 96 % 1015,7 hPa 0,0 mm 0,0 km/h (0 Bft) O-NO 77 ° 0 min 0,000 mm 0,0 UV-I 0 W/m² 4,8 °C 5,4 °C 0,0 km/h (0 Bft)
29.10.2019 05:17 5,4 °C 96 % 1015,7 hPa 0,0 mm 0,5 km/h (0 Bft) O-NO 77 ° 0 min 0,000 mm 0,0 UV-I 0 W/m² 4,8 °C 5,4 °C 1,6 km/h (1 Bft)
29.10.2019 05:18 5,4 °C 96 % 1015,7 hPa 0,0 mm 0,1 km/h (0 Bft) O-NO 77 ° 0 min 0,000 mm 0,0 UV-I 0 W/m² 4,8 °C 5,4 °C 1,6 km/h (1 Bft)
29.10.2019 05:19 5,4 °C 96 % 1015,7 hPa 0,0 mm 0,0 km/h (0 Bft) O-NO 77 ° 0 min 0,000 mm 0,0 UV-I 0 W/m² 4,8 °C 5,4 °C 0,0 km/h (0 Bft)
29.10.2019 05:20 5,4 °C 96 % 1015,7 hPa 0,0 mm 0,0 km/h (0 Bft) O-NO 77 ° 0 min 0,000 mm 0,0 UV-I 0 W/m² 4,8 °C 5,4 °C 0,0 km/h (0 Bft)
29.10.2019 05:21 5,4 °C 96 % 1015,7 hPa 0,0 mm 0,0 km/h (0 Bft) O-NO 77 ° 0 min 0,000 mm 0,0 UV-I 0 W/m² 4,8 °C 5,4 °C 0,0 km/h (0 Bft)
29.10.2019 05:22 5,4 °C 96 % 1015,7 hPa 0,0 mm 0,0 km/h (0 Bft) O-NO 77 ° 0 min 0,000 mm 0,0 UV-I 0 W/m² 4,8 °C 5,4 °C 0,0 km/h (0 Bft)
29.10.2019 05:23 5,4 °C 96 % 1015,7 hPa 0,0 mm 0,0 km/h (0 Bft) O-NO 77 ° 0 min 0,000 mm 0,0 UV-I 0 W/m² 4,8 °C 5,4 °C 0,0 km/h (0 Bft)
29.10.2019 05:24 5,4 °C 96 % 1015,6 hPa 0,0 mm 0,0 km/h (0 Bft) O-NO 77 ° 0 min 0,000 mm 0,0 UV-I 0 W/m² 4,8 °C 5,4 °C 0,0 km/h (0 Bft)
29.10.2019 05:25 5,4 °C 96 % 1015,7 hPa 0,0 mm 0,0 km/h (0 Bft) O-NO 77 ° 0 min 0,000 mm 0,0 UV-I 0 W/m² 4,8 °C 5,4 °C 0,0 km/h (0 Bft)
29.10.2019 05:26 5,4 °C 96 % 1015,7 hPa 0,0 mm 0,0 km/h (0 Bft) O-NO 77 ° 0 min 0,000 mm 0,0 UV-I 0 W/m² 4,8 °C 5,4 °C 0,0 km/h (0 Bft)
29.10.2019 05:27 5,4 °C 96 % 1015,7 hPa 0,0 mm 0,0 km/h (0 Bft) O-NO 77 ° 0 min 0,000 mm 0,0 UV-I 0 W/m² 4,8 °C 5,4 °C 0,0 km/h (0 Bft)
29.10.2019 05:28 5,4 °C 96 % 1015,7 hPa 0,0 mm 0,0 km/h (0 Bft) O-NO 77 ° 0 min 0,000 mm 0,0 UV-I 0 W/m² 4,8 °C 5,4 °C 0,0 km/h (0 Bft)
29.10.2019 05:29 5,4 °C 96 % 1015,7 hPa 0,0 mm 0,0 km/h (0 Bft) O-NO 77 ° 0 min 0,000 mm 0,0 UV-I 0 W/m² 4,8 °C 5,4 °C 0,0 km/h (0 Bft)
29.10.2019 05:30 5,4 °C 96 % 1015,7 hPa 0,0 mm 0,0 km/h (0 Bft) O-NO 77 ° 0 min 0,000 mm 0,0 UV-I 0 W/m² 4,8 °C 5,4 °C 0,0 km/h (0 Bft)
29.10.2019 05:31 5,4 °C 96 % 1015,7 hPa 0,0 mm 0,0 km/h (0 Bft) O-NO 77 ° 0 min 0,000 mm 0,0 UV-I 0 W/m² 4,8 °C 5,4 °C 0,0 km/h (0 Bft)
29.10.2019 05:32 5,4 °C 96 % 1015,7 hPa 0,0 mm 0,0 km/h (0 Bft) O-NO 77 ° 0 min 0,000 mm 0,0 UV-I 0 W/m² 4,8 °C 5,4 °C 0,0 km/h (0 Bft)
29.10.2019 05:33 5,4 °C 96 % 1015,7 hPa 0,0 mm 0,0 km/h (0 Bft) O-NO 77 ° 0 min 0,000 mm 0,0 UV-I 0 W/m² 4,8 °C 5,4 °C 0,0 km/h (0 Bft)
29.10.2019 05:34 5,4 °C 96 % 1015,7 hPa 0,0 mm 0,0 km/h (0 Bft) O-NO 77 ° 0 min 0,000 mm 0,0 UV-I 0 W/m² 4,8 °C 5,4 °C 0,0 km/h (0 Bft)
29.10.2019 05:35 5,4 °C 96 % 1015,7 hPa 0,0 mm 0,0 km/h (0 Bft) O-NO 77 ° 0 min 0,000 mm 0,0 UV-I 0 W/m² 4,8 °C 5,4 °C 0,0 km/h (0 Bft)
29.10.2019 05:36 5,4 °C 96 % 1015,7 hPa 0,0 mm 0,0 km/h (0 Bft) O-NO 77 ° 0 min 0,000 mm 0,0 UV-I 0 W/m² 4,8 °C 5,4 °C 0,0 km/h (0 Bft)
29.10.2019 05:37 5,4 °C 96 % 1015,7 hPa 0,0 mm 0,0 km/h (0 Bft) O-NO 77 ° 0 min 0,000 mm 0,0 UV-I 0 W/m² 4,8 °C 5,4 °C 0,0 km/h (0 Bft)
29.10.2019 05:38 5,4 °C 96 % 1015,7 hPa 0,0 mm 0,0 km/h (0 Bft) O-NO 77 ° 0 min 0,000 mm 0,0 UV-I 0 W/m² 4,8 °C 5,4 °C 0,0 km/h (0 Bft)
29.10.2019 05:39 5,4 °C 96 % 1015,7 hPa 0,0 mm 0,0 km/h (0 Bft) O-NO 77 ° 0 min 0,000 mm 0,0 UV-I 0 W/m² 4,8 °C 5,4 °C 0,0 km/h (0 Bft)
29.10.2019 05:40 5,4 °C 96 % 1015,7 hPa 0,0 mm 0,0 km/h (0 Bft) O-NO 77 ° 0 min 0,000 mm 0,0 UV-I 0 W/m² 4,8 °C 5,4 °C 0,0 km/h (0 Bft)
29.10.2019 05:41 5,4 °C 96 % 1015,7 hPa 0,0 mm 0,0 km/h (0 Bft) O-NO 77 ° 0 min 0,000 mm 0,0 UV-I 0 W/m² 4,8 °C 5,4 °C 0,0 km/h (0 Bft)
29.10.2019 05:42 5,4 °C 96 % 1015,7 hPa 0,0 mm 0,0 km/h (0 Bft) O-NO 77 ° 0 min 0,000 mm 0,0 UV-I 0 W/m² 4,8 °C 5,4 °C 0,0 km/h (0 Bft)
29.10.2019 05:43 5,4 °C 96 % 1015,7 hPa 0,0 mm 0,0 km/h (0 Bft) O-NO 77 ° 0 min 0,000 mm 0,0 UV-I 0 W/m² 4,8 °C 5,4 °C 0,0 km/h (0 Bft)
29.10.2019 05:44 5,4 °C 96 % 1015,7 hPa 0,0 mm 0,0 km/h (0 Bft) O-NO 77 ° 0 min 0,000 mm 0,0 UV-I 0 W/m² 4,8 °C 5,4 °C 0,0 km/h (0 Bft)
29.10.2019 05:45 5,4 °C 96 % 1015,6 hPa 0,0 mm 0,0 km/h (0 Bft) O-NO 77 ° 0 min 0,000 mm 0,0 UV-I 0 W/m² 4,8 °C 5,4 °C 0,0 km/h (0 Bft)
29.10.2019 05:46 5,4 °C 96 % 1015,6 hPa 0,0 mm 0,0 km/h (0 Bft) O-NO 77 ° 0 min 0,000 mm 0,0 UV-I 0 W/m² 4,8 °C 5,4 °C 0,0 km/h (0 Bft)
29.10.2019 05:47 5,4 °C 96 % 1015,6 hPa 0,0 mm 0,0 km/h (0 Bft) O-NO 77 ° 0 min 0,000 mm 0,0 UV-I 0 W/m² 4,8 °C 5,4 °C 0,0 km/h (0 Bft)
29.10.2019 05:48 5,4 °C 96 % 1015,6 hPa 0,0 mm 0,0 km/h (0 Bft) O-NO 77 ° 0 min 0,000 mm 0,0 UV-I 0 W/m² 4,8 °C 5,4 °C 0,0 km/h (0 Bft)
29.10.2019 05:49 5,4 °C 96 % 1015,6 hPa 0,0 mm 0,0 km/h (0 Bft) O-NO 77 ° 0 min 0,000 mm 0,0 UV-I 0 W/m² 4,8 °C 5,4 °C 0,0 km/h (0 Bft)
29.10.2019 05:50 5,4 °C 96 % 1015,6 hPa 0,0 mm 0,0 km/h (0 Bft) O-NO 77 ° 0 min 0,000 mm 0,0 UV-I 0 W/m² 4,8 °C 5,4 °C 0,0 km/h (0 Bft)
29.10.2019 05:51 5,4 °C 96 % 1015,6 hPa 0,0 mm 0,5 km/h (0 Bft) O-NO 77 ° 0 min 0,000 mm 0,0 UV-I 0 W/m² 4,8 °C 5,4 °C 1,6 km/h (1 Bft)
29.10.2019 05:52 5,4 °C 96 % 1015,6 hPa 0,0 mm 0,1 km/h (0 Bft) O-NO 77 ° 0 min 0,000 mm 0,0 UV-I 0 W/m² 4,8 °C 5,4 °C 1,6 km/h (1 Bft)
29.10.2019 05:53 5,4 °C 96 % 1015,6 hPa 0,0 mm 0,0 km/h (0 Bft) O-NO 77 ° 0 min 0,000 mm 0,0 UV-I 0 W/m² 4,8 °C 5,4 °C 0,0 km/h (0 Bft)
29.10.2019 05:54 5,4 °C 96 % 1015,6 hPa 0,0 mm 0,0 km/h (0 Bft) O-NO 77 ° 0 min 0,000 mm 0,0 UV-I 0 W/m² 4,8 °C 5,4 °C 0,0 km/h (0 Bft)
29.10.2019 05:55 5,4 °C 96 % 1015,6 hPa 0,0 mm 0,0 km/h (0 Bft) O-NO 77 ° 0 min 0,000 mm 0,0 UV-I 0 W/m² 4,8 °C 5,4 °C 0,0 km/h (0 Bft)
29.10.2019 05:56 5,4 °C 96 % 1015,6 hPa 0,0 mm 0,0 km/h (0 Bft) O-NO 77 ° 0 min 0,000 mm 0,0 UV-I 0 W/m² 4,8 °C 5,4 °C 0,0 km/h (0 Bft)
29.10.2019 05:57 5,4 °C 96 % 1015,6 hPa 0,0 mm 0,0 km/h (0 Bft) O-NO 77 ° 0 min 0,000 mm 0,0 UV-I 0 W/m² 4,8 °C 5,4 °C 0,0 km/h (0 Bft)
29.10.2019 05:58 5,4 °C 96 % 1015,6 hPa 0,0 mm 0,0 km/h (0 Bft) O-NO 77 ° 0 min 0,000 mm 0,0 UV-I 0 W/m² 4,8 °C 5,4 °C 0,0 km/h (0 Bft)
29.10.2019 05:59 5,4 °C 96 % 1015,7 hPa 0,0 mm 0,0 km/h (0 Bft) O-NO 77 ° 0 min 0,000 mm 0,0 UV-I 0 W/m² 4,8 °C 5,4 °C 0,0 km/h (0 Bft)
29.10.2019 06:00 5,4 °C 96 % 1015,7 hPa 0,0 mm 0,0 km/h (0 Bft) O-NO 77 ° 0 min 0,000 mm 0,0 UV-I 0 W/m² 4,8 °C 5,4 °C 0,0 km/h (0 Bft)
29.10.2019 06:01 5,4 °C 96 % 1015,7 hPa 0,0 mm 0,0 km/h (0 Bft) O-NO 77 ° 0 min 0,000 mm 0,0 UV-I 0 W/m² 4,8 °C 5,4 °C 0,0 km/h (0 Bft)
29.10.2019 06:02 5,4 °C 96 % 1015,7 hPa 0,0 mm 0,0 km/h (0 Bft) O-NO 77 ° 0 min 0,000 mm 0,0 UV-I 0 W/m² 4,8 °C 5,4 °C 0,0 km/h (0 Bft)
29.10.2019 06:03 5,4 °C 96 % 1015,7 hPa 0,0 mm 0,0 km/h (0 Bft) O-NO 77 ° 0 min 0,000 mm 0,0 UV-I 0 W/m² 4,8 °C 5,4 °C 0,0 km/h (0 Bft)
29.10.2019 06:04 5,4 °C 96 % 1015,7 hPa 0,0 mm 0,0 km/h (0 Bft) O-NO 77 ° 0 min 0,000 mm 0,0 UV-I 0 W/m² 4,8 °C 5,4 °C 0,0 km/h (0 Bft)
29.10.2019 06:05 5,4 °C 96 % 1015,7 hPa 0,0 mm 0,0 km/h (0 Bft) O-NO 77 ° 0 min 0,000 mm 0,0 UV-I 0 W/m² 4,8 °C 5,4 °C 0,0 km/h (0 Bft)
29.10.2019 06:06 5,4 °C 96 % 1015,7 hPa 0,0 mm 0,0 km/h (0 Bft) O-NO 77 ° 0 min 0,000 mm 0,0 UV-I 0 W/m² 4,8 °C 5,4 °C 0,0 km/h (0 Bft)
29.10.2019 06:07 5,4 °C 96 % 1015,7 hPa 0,0 mm 0,0 km/h (0 Bft) O-NO 77 ° 0 min 0,000 mm 0,0 UV-I 0 W/m² 4,8 °C 5,4 °C 0,0 km/h (0 Bft)
29.10.2019 06:08 5,4 °C 96 % 1015,7 hPa 0,0 mm 0,0 km/h (0 Bft) O-NO 77 ° 0 min 0,000 mm 0,0 UV-I 0 W/m² 4,8 °C 5,4 °C 0,0 km/h (0 Bft)
29.10.2019 06:09 5,4 °C 96 % 1015,7 hPa 0,0 mm 0,0 km/h (0 Bft) O-NO 77 ° 0 min 0,000 mm 0,0 UV-I 0 W/m² 4,8 °C 5,4 °C 0,0 km/h (0 Bft)
29.10.2019 06:10 5,4 °C 96 % 1015,8 hPa 0,0 mm 0,0 km/h (0 Bft) O-NO 77 ° 0 min 0,000 mm 0,0 UV-I 0 W/m² 4,8 °C 5,4 °C 0,0 km/h (0 Bft)
29.10.2019 06:11 5,4 °C 96 % 1015,8 hPa 0,0 mm 0,0 km/h (0 Bft) O-NO 77 ° 0 min 0,000 mm 0,0 UV-I 0 W/m² 4,8 °C 5,4 °C 0,0 km/h (0 Bft)
29.10.2019 06:12 5,4 °C 96 % 1015,8 hPa 0,0 mm 0,0 km/h (0 Bft) O-NO 77 ° 0 min 0,000 mm 0,0 UV-I 0 W/m² 4,8 °C 5,4 °C 0,0 km/h (0 Bft)
29.10.2019 06:13 5,4 °C 96 % 1015,7 hPa 0,0 mm 0,0 km/h (0 Bft) O-NO 77 ° 0 min 0,000 mm 0,0 UV-I 0 W/m² 4,8 °C 5,4 °C 0,0 km/h (0 Bft)
29.10.2019 06:14 5,4 °C 96 % 1015,8 hPa 0,0 mm 0,0 km/h (0 Bft) O-NO 77 ° 0 min 0,000 mm 0,0 UV-I 0 W/m² 4,8 °C 5,4 °C 0,0 km/h (0 Bft)
29.10.2019 06:15 5,4 °C 96 % 1015,8 hPa 0,0 mm 0,0 km/h (0 Bft) O-NO 77 ° 0 min 0,000 mm 0,0 UV-I 0 W/m² 4,8 °C 5,4 °C 0,0 km/h (0 Bft)
29.10.2019 06:16 5,4 °C 96 % 1015,7 hPa 0,0 mm 0,0 km/h (0 Bft) O-NO 77 ° 0 min 0,000 mm 0,0 UV-I 0 W/m² 4,8 °C 5,4 °C 0,0 km/h (0 Bft)
29.10.2019 06:17 5,4 °C 96 % 1015,8 hPa 0,0 mm 0,0 km/h (0 Bft) O-NO 77 ° 0 min 0,000 mm 0,0 UV-I 0 W/m² 4,8 °C 5,4 °C 0,0 km/h (0 Bft)
29.10.2019 06:18 5,4 °C 96 % 1015,8 hPa 0,0 mm 0,1 km/h (0 Bft) O-NO 77 ° 0 min 0,000 mm 0,0 UV-I 0 W/m² 4,8 °C 5,4 °C 1,6 km/h (1 Bft)
29.10.2019 06:19 5,4 °C 96 % 1015,8 hPa 0,0 mm 1,2 km/h (1 Bft) O-NO 77 ° 0 min 0,000 mm 0,0 UV-I 0 W/m² 4,8 °C 5,4 °C 3,2 km/h (1 Bft)
29.10.2019 06:20 5,4 °C 96 % 1015,8 hPa 0,0 mm 2,0 km/h (1 Bft) O-NO 77 ° 0 min 0,000 mm 0,0 UV-I 0 W/m² 4,8 °C 5,4 °C 3,2 km/h (1 Bft)
29.10.2019 06:21 5,4 °C 96 % 1015,8 hPa 0,0 mm 0,6 km/h (0 Bft) O-NO 77 ° 0 min 0,000 mm 0,0 UV-I 0 W/m² 4,8 °C 5,4 °C 1,6 km/h (1 Bft)
29.10.2019 06:22 5,4 °C 96 % 1015,8 hPa 0,0 mm 1,6 km/h (1 Bft) O-NO 77 ° 0 min 0,000 mm 0,0 UV-I 0 W/m² 4,8 °C 5,4 °C 3,2 km/h (1 Bft)
29.10.2019 06:23 5,4 °C 96 % 1015,8 hPa 0,0 mm 2,1 km/h (1 Bft) O-NO 77 ° 0 min 0,000 mm 0,0 UV-I 0 W/m² 4,8 °C 5,4 °C 3,2 km/h (1 Bft)
29.10.2019 06:24 5,4 °C 96 % 1015,8 hPa 0,0 mm 0,0 km/h (0 Bft) O-NO 77 ° 0 min 0,000 mm 0,0 UV-I 0 W/m² 4,8 °C 5,4 °C 0,0 km/h (0 Bft)
29.10.2019 06:25 5,4 °C 96 % 1015,8 hPa 0,0 mm 0,0 km/h (0 Bft) O-NO 77 ° 0 min 0,000 mm 0,0 UV-I 0 W/m² 4,8 °C 5,4 °C 0,0 km/h (0 Bft)
29.10.2019 06:26 5,4 °C 96 % 1015,9 hPa 0,0 mm 0,6 km/h (0 Bft) O-NO 77 ° 0 min 0,000 mm 0,0 UV-I 0 W/m² 4,8 °C 5,4 °C 1,6 km/h (1 Bft)
29.10.2019 06:27 5,4 °C 96 % 1015,9 hPa 0,0 mm 2,8 km/h (1 Bft) O-NO 77 ° 0 min 0,000 mm 0,0 UV-I 0 W/m² 4,8 °C 5,4 °C 4,8 km/h (1 Bft)
29.10.2019 06:28 5,4 °C 96 % 1015,9 hPa 0,0 mm 0,5 km/h (0 Bft) O-NO 77 ° 0 min 0,000 mm 0,0 UV-I 0 W/m² 4,8 °C 5,4 °C 1,6 km/h (1 Bft)
29.10.2019 06:29 5,4 °C 96 % 1015,9 hPa 0,0 mm 1,0 km/h (0 Bft) O-NO 77 ° 0 min 0,000 mm 0,0 UV-I 0 W/m² 4,8 °C 5,4 °C 1,6 km/h (1 Bft)
29.10.2019 06:30 5,4 °C 96 % 1015,9 hPa 0,0 mm 0,7 km/h (0 Bft) O-NO 77 ° 0 min 0,000 mm 0,0 UV-I 0 W/m² 4,8 °C 5,4 °C 3,2 km/h (1 Bft)
29.10.2019 06:31 5,4 °C 96 % 1015,8 hPa 0,0 mm 1,6 km/h (1 Bft) O-NO 77 ° 0 min 0,000 mm 0,0 UV-I 0 W/m² 4,8 °C 5,4 °C 3,2 km/h (1 Bft)
29.10.2019 06:32 5,4 °C 96 % 1015,8 hPa 0,0 mm 2,0 km/h (1 Bft) O-NO 77 ° 0 min 0,000 mm 0,0 UV-I 0 W/m² 4,8 °C 5,4 °C 3,2 km/h (1 Bft)
29.10.2019 06:33 5,4 °C 96 % 1015,9 hPa 0,0 mm 0,3 km/h (0 Bft) O-NO 77 ° 0 min 0,000 mm 0,0 UV-I 0 W/m² 4,8 °C 5,4 °C 1,6 km/h (1 Bft)
29.10.2019 06:34 5,4 °C 96 % 1015,9 hPa 0,0 mm 0,0 km/h (0 Bft) O-NO 77 ° 0 min 0,000 mm 0,0 UV-I 0 W/m² 4,8 °C 5,4 °C 0,0 km/h (0 Bft)
29.10.2019 06:35 5,4 °C 96 % 1015,9 hPa 0,0 mm 1,2 km/h (1 Bft) O-NO 77 ° 0 min 0,000 mm 0,0 UV-I 0 W/m² 4,8 °C 5,4 °C 3,2 km/h (1 Bft)
29.10.2019 06:36 5,4 °C 96 % 1015,8 hPa 0,0 mm 1,9 km/h (1 Bft) O-NO 77 ° 0 min 0,000 mm 0,0 UV-I 0 W/m² 4,8 °C 5,4 °C 3,2 km/h (1 Bft)
29.10.2019 06:37 5,4 °C 96 % 1015,9 hPa 0,0 mm 0,9 km/h (0 Bft) O-NO 77 ° 0 min 0,000 mm 0,0 UV-I 0 W/m² 4,8 °C 5,4 °C 3,2 km/h (1 Bft)
29.10.2019 06:38 5,4 °C 96 % 1015,9 hPa 0,0 mm 0,8 km/h (0 Bft) O-NO 77 ° 0 min 0,000 mm 0,0 UV-I 0 W/m² 4,8 °C 5,4 °C 3,2 km/h (1 Bft)
29.10.2019 06:39 5,4 °C 96 % 1015,9 hPa 0,0 mm 0,1 km/h (0 Bft) O-NO 77 ° 0 min 0,000 mm 0,0 UV-I 0 W/m² 4,8 °C 5,4 °C 1,6 km/h (1 Bft)
29.10.2019 06:40 5,4 °C 96 % 1015,9 hPa 0,0 mm 0,0 km/h (0 Bft) O-NO 77 ° 0 min 0,000 mm 0,0 UV-I 0 W/m² 4,8 °C 5,4 °C 0,0 km/h (0 Bft)
29.10.2019 06:41 5,4 °C 96 % 1015,9 hPa 0,0 mm 0,0 km/h (0 Bft) O-NO 77 ° 0 min 0,000 mm 0,0 UV-I 0 W/m² 4,8 °C 5,4 °C 0,0 km/h (0 Bft)
29.10.2019 06:42 5,4 °C 96 % 1016,0 hPa 0,0 mm 0,4 km/h (0 Bft) O-NO 77 ° 0 min 0,000 mm 0,0 UV-I 0 W/m² 4,8 °C 5,4 °C 1,6 km/h (1 Bft)
29.10.2019 06:43 5,4 °C 96 % 1015,9 hPa 0,0 mm 0,0 km/h (0 Bft) O-NO 77 ° 0 min 0,000 mm 0,0 UV-I 0 W/m² 4,8 °C 5,4 °C 0,0 km/h (0 Bft)
29.10.2019 06:44 5,4 °C 96 % 1016,0 hPa 0,0 mm 0,4 km/h (0 Bft) O-NO 77 ° 0 min 0,000 mm 0,0 UV-I 0 W/m² 4,8 °C 5,4 °C 3,2 km/h (1 Bft)
29.10.2019 06:45 5,4 °C 96 % 1015,9 hPa 0,0 mm 2,7 km/h (1 Bft) O-NO 77 ° 0 min 0,000 mm 0,0 UV-I 0 W/m² 4,8 °C 5,4 °C 3,2 km/h (1 Bft)
29.10.2019 06:46 5,4 °C 96 % 1015,9 hPa 0,0 mm 3,0 km/h (1 Bft) O-NO 77 ° 0 min 0,000 mm 0,0 UV-I 0 W/m² 4,8 °C 5,4 °C 3,2 km/h (1 Bft)
29.10.2019 06:47 5,4 °C 96 % 1016,0 hPa 0,0 mm 2,3 km/h (1 Bft) O-NO 77 ° 0 min 0,000 mm 0,0 UV-I 0 W/m² 4,8 °C 5,4 °C 3,2 km/h (1 Bft)
29.10.2019 06:48 5,4 °C 96 % 1016,0 hPa 0,0 mm 1,3 km/h (1 Bft) O-NO 77 ° 0 min 0,000 mm 0,0 UV-I 0 W/m² 4,8 °C 5,4 °C 3,2 km/h (1 Bft)
29.10.2019 06:49 5,4 °C 96 % 1016,0 hPa 0,0 mm 0,0 km/h (0 Bft) O-NO 77 ° 0 min 0,000 mm 0,0 UV-I 0 W/m² 4,8 °C 5,4 °C 0,0 km/h (0 Bft)
29.10.2019 06:50 5,4 °C 96 % 1016,1 hPa 0,0 mm 0,0 km/h (0 Bft) O-NO 77 ° 0 min 0,000 mm 0,0 UV-I 0 W/m² 4,8 °C 5,4 °C 0,0 km/h (0 Bft)
29.10.2019 06:51 5,4 °C 96 % 1016,1 hPa 0,0 mm 0,0 km/h (0 Bft) O-NO 77 ° 0 min 0,000 mm 0,0 UV-I 0 W/m² 4,8 °C 5,4 °C 0,0 km/h (0 Bft)
29.10.2019 06:52 5,4 °C 96 % 1016,1 hPa 0,0 mm 2,8 km/h (1 Bft) O-NO 77 ° 0 min 0,000 mm 0,0 UV-I 0 W/m² 4,8 °C 5,4 °C 4,8 km/h (1 Bft)
29.10.2019 06:53 5,4 °C 96 % 1016,1 hPa 0,0 mm 4,7 km/h (1 Bft) O-NO 77 ° 0 min 0,000 mm 0,0 UV-I 0 W/m² 4,8 °C 4,7 °C 6,4 km/h (2 Bft)
29.10.2019 06:54 5,4 °C 96 % 1016,1 hPa 0,0 mm 1,1 km/h (1 Bft) O-NO 77 ° 0 min 0,000 mm 0,0 UV-I 0 W/m² 4,8 °C 5,4 °C 3,2 km/h (1 Bft)
29.10.2019 06:55 5,4 °C 96 % 1016,1 hPa 0,0 mm 0,5 km/h (0 Bft) O-NO 77 ° 0 min 0,000 mm 0,0 UV-I 0 W/m² 4,8 °C 5,4 °C 3,2 km/h (1 Bft)
29.10.2019 06:56 5,4 °C 96 % 1016,1 hPa 0,0 mm 1,5 km/h (1 Bft) O-NO 77 ° 0 min 0,000 mm 0,0 UV-I 0 W/m² 4,8 °C 5,4 °C 3,2 km/h (1 Bft)
29.10.2019 06:57 5,4 °C 96 % 1016,1 hPa 0,0 mm 0,7 km/h (0 Bft) O-NO 77 ° 0 min 0,000 mm 0,0 UV-I 0 W/m² 4,8 °C 5,4 °C 1,6 km/h (1 Bft)
29.10.2019 06:58 5,4 °C 96 % 1016,2 hPa 0,0 mm 0,0 km/h (0 Bft) O-NO 77 ° 0 min 0,000 mm 0,0 UV-I 0 W/m² 4,8 °C 5,4 °C 0,0 km/h (0 Bft)
29.10.2019 06:59 5,4 °C 96 % 1016,2 hPa 0,0 mm 0,0 km/h (0 Bft) O-NO 77 ° 0 min 0,000 mm 0,0 UV-I 0 W/m² 4,8 °C 5,4 °C 0,0 km/h (0 Bft)
29.10.2019 07:00 5,4 °C 96 % 1016,2 hPa 0,0 mm 0,0 km/h (0 Bft) O-NO 77 ° 0 min 0,000 mm 0,0 UV-I 0 W/m² 4,8 °C 5,4 °C 0,0 km/h (0 Bft)
29.10.2019 07:01 5,4 °C 96 % 1016,2 hPa 0,0 mm 0,0 km/h (0 Bft) O-NO 77 ° 0 min 0,000 mm 0,0 UV-I 0 W/m² 4,8 °C 5,4 °C 0,0 km/h (0 Bft)
29.10.2019 07:02 5,4 °C 96 % 1016,2 hPa 0,0 mm 0,0 km/h (0 Bft) O-NO 77 ° 0 min 0,000 mm 0,0 UV-I 0 W/m² 4,8 °C 5,4 °C 0,0 km/h (0 Bft)
29.10.2019 07:03 5,4 °C 96 % 1016,2 hPa 0,0 mm 0,0 km/h (0 Bft) O-NO 77 ° 0 min 0,000 mm 0,0 UV-I 0 W/m² 4,8 °C 5,4 °C 0,0 km/h (0 Bft)
29.10.2019 07:04 5,4 °C 96 % 1016,2 hPa 0,0 mm 0,0 km/h (0 Bft) O-NO 77 ° 0 min 0,000 mm 0,0 UV-I 0 W/m² 4,8 °C 5,4 °C 0,0 km/h (0 Bft)
29.10.2019 07:05 5,4 °C 96 % 1016,2 hPa 0,0 mm 0,0 km/h (0 Bft) O-NO 77 ° 0 min 0,000 mm 0,0 UV-I 0 W/m² 4,8 °C 5,4 °C 0,0 km/h (0 Bft)
29.10.2019 07:06 5,4 °C 96 % 1016,2 hPa 0,0 mm 0,9 km/h (0 Bft) O-NO 77 ° 0 min 0,000 mm 0,0 UV-I 0 W/m² 4,8 °C 5,4 °C 4,8 km/h (1 Bft)
29.10.2019 07:07 5,4 °C 96 % 1016,2 hPa 0,0 mm 3,2 km/h (1 Bft) O-NO 77 ° 0 min 0,000 mm 0,0 UV-I 0 W/m² 4,8 °C 5,4 °C 4,8 km/h (1 Bft)
29.10.2019 07:08 5,4 °C 96 % 1016,2 hPa 0,0 mm 2,7 km/h (1 Bft) O-NO 77 ° 0 min 0,000 mm 0,0 UV-I 0 W/m² 4,8 °C 5,4 °C 3,2 km/h (1 Bft)
29.10.2019 07:09 5,4 °C 96 % 1016,2 hPa 0,0 mm 3,2 km/h (1 Bft) O-NO 77 ° 0 min 0,000 mm 0,0 UV-I 0 W/m² 4,8 °C 5,4 °C 4,8 km/h (1 Bft)
29.10.2019 07:10 5,4 °C 96 % 1016,2 hPa 0,0 mm 3,1 km/h (1 Bft) O-NO 77 ° 0 min 0,000 mm 0,0 UV-I 0 W/m² 4,8 °C 5,4 °C 4,8 km/h (1 Bft)
29.10.2019 07:11 5,4 °C 96 % 1016,2 hPa 0,0 mm 2,2 km/h (1 Bft) O-NO 77 ° 0 min 0,000 mm 0,0 UV-I 0 W/m² 4,8 °C 5,4 °C 3,2 km/h (1 Bft)
29.10.2019 07:12 5,4 °C 96 % 1016,2 hPa 0,0 mm 1,6 km/h (1 Bft) O-NO 77 ° 0 min 0,000 mm 0,0 UV-I 0 W/m² 4,8 °C 5,4 °C 3,2 km/h (1 Bft)
29.10.2019 07:13 5,4 °C 96 % 1016,2 hPa 0,0 mm 0,8 km/h (0 Bft) O-NO 77 ° 0 min 0,000 mm 0,0 UV-I 0 W/m² 4,8 °C 5,4 °C 1,6 km/h (1 Bft)
29.10.2019 07:14 5,4 °C 96 % 1016,3 hPa 0,0 mm 0,6 km/h (0 Bft) O-NO 77 ° 0 min 0,000 mm 0,0 UV-I 0 W/m² 4,8 °C 5,4 °C 1,6 km/h (1 Bft)
29.10.2019 07:15 5,4 °C 96 % 1016,3 hPa 0,0 mm 1,7 km/h (1 Bft) O-NO 77 ° 0 min 0,000 mm 0,0 UV-I 0 W/m² 4,8 °C 5,4 °C 3,2 km/h (1 Bft)
29.10.2019 07:16 5,4 °C 96 % 1016,2 hPa 0,0 mm 1,1 km/h (1 Bft) O-NO 77 ° 0 min 0,000 mm 0,0 UV-I 0 W/m² 4,8 °C 5,4 °C 3,2 km/h (1 Bft)
29.10.2019 07:17 5,4 °C 96 % 1016,3 hPa 0,0 mm 0,0 km/h (0 Bft) O-NO 77 ° 0 min 0,000 mm 0,0 UV-I 0 W/m² 4,8 °C 5,4 °C 0,0 km/h (0 Bft)
29.10.2019 07:18 5,4 °C 96 % 1016,3 hPa 0,0 mm 0,0 km/h (0 Bft) O-NO 77 ° 0 min 0,000 mm 0,0 UV-I 0 W/m² 4,8 °C 5,4 °C 0,0 km/h (0 Bft)
29.10.2019 07:19 5,4 °C 96 % 1016,3 hPa 0,0 mm 0,3 km/h (0 Bft) O-NO 77 ° 0 min 0,000 mm 0,0 UV-I 0 W/m² 4,8 °C 5,4 °C 1,6 km/h (1 Bft)
29.10.2019 07:20 5,4 °C 96 % 1016,3 hPa 0,0 mm 2,2 km/h (1 Bft) O-NO 77 ° 0 min 0,000 mm 0,0 UV-I 0 W/m² 4,8 °C 5,4 °C 3,2 km/h (1 Bft)
29.10.2019 07:21 5,4 °C 96 % 1016,3 hPa 0,0 mm 2,0 km/h (1 Bft) O-NO 77 ° 0 min 0,000 mm 0,0 UV-I 0 W/m² 4,8 °C 5,4 °C 3,2 km/h (1 Bft)
29.10.2019 07:22 5,4 °C 96 % 1016,3 hPa 0,0 mm 0,2 km/h (0 Bft) O-NO 77 ° 0 min 0,000 mm 0,0 UV-I 0 W/m² 4,8 °C 5,4 °C 1,6 km/h (1 Bft)
29.10.2019 07:23 5,4 °C 96 % 1016,4 hPa 0,0 mm 0,4 km/h (0 Bft) O-NO 77 ° 0 min 0,000 mm 0,0 UV-I 0 W/m² 4,8 °C 5,4 °C 1,6 km/h (1 Bft)
29.10.2019 07:24 5,4 °C 96 % 1016,3 hPa 0,0 mm 3,2 km/h (1 Bft) O-NO 77 ° 0 min 0,000 mm 0,0 UV-I 5 W/m² 4,8 °C 5,4 °C 4,8 km/h (1 Bft)
29.10.2019 07:25 5,4 °C 96 % 1016,3 hPa 0,0 mm 1,5 km/h (1 Bft) O-NO 77 ° 0 min 0,000 mm 0,0 UV-I 5 W/m² 4,8 °C 5,4 °C 3,2 km/h (1 Bft)
29.10.2019 07:26 5,4 °C 96 % 1016,3 hPa 0,0 mm 0,0 km/h (0 Bft) O-NO 77 ° 0 min 0,000 mm 0,0 UV-I 5 W/m² 4,8 °C 5,4 °C 0,0 km/h (0 Bft)
29.10.2019 07:27 5,4 °C 96 % 1016,4 hPa 0,0 mm 2,0 km/h (1 Bft) O-NO 77 ° 0 min 0,000 mm 0,0 UV-I 5 W/m² 4,8 °C 5,4 °C 4,8 km/h (1 Bft)
29.10.2019 07:28 5,4 °C 96 % 1016,4 hPa 0,0 mm 2,3 km/h (1 Bft) O-NO 77 ° 0 min 0,000 mm 0,0 UV-I 5 W/m² 4,8 °C 5,4 °C 3,2 km/h (1 Bft)
29.10.2019 07:29 5,5 °C 96 % 1016,4 hPa 0,0 mm 1,5 km/h (1 Bft) O-NO 77 ° 0 min 0,000 mm 0,0 UV-I 7 W/m² 4,9 °C 5,5 °C 1,6 km/h (1 Bft)
29.10.2019 07:30 5,4 °C 96 % 1016,4 hPa 0,0 mm 0,0 km/h (0 Bft) O-NO 77 ° 0 min 0,000 mm 0,0 UV-I 7 W/m² 4,8 °C 5,4 °C 0,0 km/h (0 Bft)
29.10.2019 07:31 5,5 °C 96 % 1016,4 hPa 0,0 mm 1,5 km/h (1 Bft) O-NO 77 ° 0 min 0,000 mm 0,0 UV-I 7 W/m² 4,9 °C 5,5 °C 3,2 km/h (1 Bft)
29.10.2019 07:32 5,5 °C 96 % 1016,4 hPa 0,0 mm 1,4 km/h (1 Bft) O-NO 77 ° 0 min 0,000 mm 0,0 UV-I 7 W/m² 4,9 °C 5,5 °C 3,2 km/h (1 Bft)
29.10.2019 07:33 5,5 °C 96 % 1016,5 hPa 0,0 mm 0,0 km/h (0 Bft) O-NO 77 ° 0 min 0,000 mm 0,0 UV-I 7 W/m² 4,9 °C 5,5 °C 0,0 km/h (0 Bft)
29.10.2019 07:34 5,5 °C 96 % 1016,5 hPa 0,0 mm 0,0 km/h (0 Bft) O-NO 77 ° 0 min 0,000 mm 0,0 UV-I 7 W/m² 4,9 °C 5,5 °C 0,0 km/h (0 Bft)
29.10.2019 07:35 5,5 °C 96 % 1016,5 hPa 0,0 mm 0,0 km/h (0 Bft) O-NO 77 ° 0 min 0,000 mm 0,0 UV-I 7 W/m² 4,9 °C 5,5 °C 0,0 km/h (0 Bft)
29.10.2019 07:36 5,5 °C 96 % 1016,5 hPa 0,0 mm 0,0 km/h (0 Bft) O-NO 77 ° 0 min 0,000 mm 0,0 UV-I 7 W/m² 4,9 °C 5,5 °C 0,0 km/h (0 Bft)
29.10.2019 07:37 5,5 °C 96 % 1016,5 hPa 0,0 mm 0,0 km/h (0 Bft) O-NO 77 ° 0 min 0,000 mm 0,0 UV-I 7 W/m² 4,9 °C 5,5 °C 0,0 km/h (0 Bft)
29.10.2019 07:38 5,5 °C 96 % 1016,5 hPa 0,0 mm 0,0 km/h (0 Bft) O-NO 77 ° 0 min 0,000 mm 0,0 UV-I 7 W/m² 4,9 °C 5,5 °C 0,0 km/h (0 Bft)
29.10.2019 07:39 5,5 °C 96 % 1016,6 hPa 0,0 mm 1,3 km/h (1 Bft) O-NO 77 ° 0 min 0,000 mm 0,0 UV-I 7 W/m² 4,9 °C 5,5 °C 3,2 km/h (1 Bft)
29.10.2019 07:40 5,5 °C 96 % 1016,6 hPa 0,0 mm 1,2 km/h (1 Bft) O-NO 77 ° 0 min 0,000 mm 0,0 UV-I 7 W/m² 4,9 °C 5,5 °C 1,6 km/h (1 Bft)
29.10.2019 07:41 5,5 °C 96 % 1016,6 hPa 0,0 mm 0,2 km/h (0 Bft) O-NO 77 ° 0 min 0,000 mm 0,0 UV-I 9 W/m² 4,9 °C 5,5 °C 1,6 km/h (1 Bft)
29.10.2019 07:42 5,5 °C 96 % 1016,6 hPa 0,0 mm 1,9 km/h (1 Bft) O-NO 77 ° 0 min 0,000 mm 0,0 UV-I 9 W/m² 4,9 °C 5,5 °C 3,2 km/h (1 Bft)
29.10.2019 07:43 5,5 °C 96 % 1016,6 hPa 0,0 mm 1,2 km/h (1 Bft) O-NO 77 ° 0 min 0,000 mm 0,0 UV-I 9 W/m² 4,9 °C 5,5 °C 3,2 km/h (1 Bft)
29.10.2019 07:44 5,5 °C 96 % 1016,6 hPa 0,0 mm 0,7 km/h (0 Bft) O-NO 77 ° 0 min 0,000 mm 0,0 UV-I 9 W/m² 4,9 °C 5,5 °C 3,2 km/h (1 Bft)
29.10.2019 07:45 5,5 °C 96 % 1016,7 hPa 0,0 mm 2,5 km/h (1 Bft) O-NO 77 ° 0 min 0,000 mm 0,0 UV-I 9 W/m² 4,9 °C 5,5 °C 4,8 km/h (1 Bft)
29.10.2019 07:46 5,5 °C 96 % 1016,7 hPa 0,0 mm 3,8 km/h (1 Bft) O-NO 77 ° 0 min 0,000 mm 0,0 UV-I 9 W/m² 4,9 °C 5,5 °C 4,8 km/h (1 Bft)
29.10.2019 07:47 5,5 °C 96 % 1016,6 hPa 0,0 mm 2,1 km/h (1 Bft) O-NO 77 ° 0 min 0,000 mm 0,0 UV-I 9 W/m² 4,9 °C 5,5 °C 3,2 km/h (1 Bft)
29.10.2019 07:48 5,5 °C 96 % 1016,7 hPa 0,0 mm 1,3 km/h (1 Bft) O-NO 77 ° 0 min 0,000 mm 0,0 UV-I 11 W/m² 4,9 °C 5,5 °C 3,2 km/h (1 Bft)
29.10.2019 07:49 5,5 °C 96 % 1016,7 hPa 0,0 mm 0,0 km/h (0 Bft) O-NO 77 ° 0 min 0,000 mm 0,0 UV-I 11 W/m² 4,9 °C 5,5 °C 0,0 km/h (0 Bft)
29.10.2019 07:50 5,5 °C 96 % 1016,7 hPa 0,0 mm 0,0 km/h (0 Bft) O-NO 77 ° 0 min 0,000 mm 0,0 UV-I 11 W/m² 4,9 °C 5,5 °C 0,0 km/h (0 Bft)
29.10.2019 07:51 5,5 °C 96 % 1016,8 hPa 0,0 mm 1,2 km/h (1 Bft) O-NO 77 ° 0 min 0,000 mm 0,0 UV-I 11 W/m² 4,9 °C 5,5 °C 4,8 km/h (1 Bft)
29.10.2019 07:52 5,5 °C 96 % 1016,8 hPa 0,0 mm 1,5 km/h (1 Bft) O-NO 77 ° 0 min 0,000 mm 0,0 UV-I 11 W/m² 4,9 °C 5,5 °C 3,2 km/h (1 Bft)
29.10.2019 07:53 5,5 °C 96 % 1016,8 hPa 0,0 mm 0,1 km/h (0 Bft) O-NO 77 ° 0 min 0,000 mm 0,0 UV-I 11 W/m² 4,9 °C 5,5 °C 1,6 km/h (1 Bft)
29.10.2019 07:54 5,6 °C 96 % 1016,8 hPa 0,0 mm 0,5 km/h (0 Bft) O-NO 77 ° 0 min 0,000 mm 0,0 UV-I 11 W/m² 5,0 °C 5,6 °C 1,6 km/h (1 Bft)
29.10.2019 07:55 5,5 °C 96 % 1016,8 hPa 0,0 mm 0,0 km/h (0 Bft) O-NO 77 ° 0 min 0,000 mm 0,0 UV-I 11 W/m² 4,9 °C 5,5 °C 0,0 km/h (0 Bft)
29.10.2019 07:56 5,5 °C 96 % 1016,8 hPa 0,0 mm 0,0 km/h (0 Bft) O-NO 77 ° 0 min 0,000 mm 0,0 UV-I 11 W/m² 4,9 °C 5,5 °C 0,0 km/h (0 Bft)
29.10.2019 07:57 5,6 °C 96 % 1016,9 hPa 0,0 mm 0,0 km/h (0 Bft) O-NO 77 ° 0 min 0,000 mm 0,0 UV-I 11 W/m² 5,0 °C 5,6 °C 0,0 km/h (0 Bft)
29.10.2019 07:58 5,6 °C 96 % 1016,9 hPa 0,0 mm 0,0 km/h (0 Bft) O-NO 77 ° 0 min 0,000 mm 0,0 UV-I 11 W/m² 5,0 °C 5,6 °C 0,0 km/h (0 Bft)
29.10.2019 07:59 5,6 °C 96 % 1016,9 hPa 0,0 mm 0,9 km/h (0 Bft) O-NO 77 ° 0 min 0,000 mm 0,0 UV-I 11 W/m² 5,0 °C 5,6 °C 1,6 km/h (1 Bft)
29.10.2019 08:00 5,6 °C 96 % 1016,9 hPa 0,0 mm 0,0 km/h (0 Bft) O-NO 77 ° 0 min 0,000 mm 0,0 UV-I 9 W/m² 5,0 °C 5,6 °C 0,0 km/h (0 Bft)
29.10.2019 08:01 5,6 °C 96 % 1016,9 hPa 0,0 mm 0,0 km/h (0 Bft) O-NO 77 ° 0 min 0,000 mm 0,0 UV-I 11 W/m² 5,0 °C 5,6 °C 0,0 km/h (0 Bft)
29.10.2019 08:02 5,6 °C 96 % 1017,0 hPa 0,0 mm 0,0 km/h (0 Bft) O-NO 77 ° 0 min 0,000 mm 0,0 UV-I 11 W/m² 5,0 °C 5,6 °C 0,0 km/h (0 Bft)
29.10.2019 08:03 5,6 °C 96 % 1017,0 hPa 0,0 mm 0,0 km/h (0 Bft) O-NO 77 ° 0 min 0,000 mm 0,0 UV-I 11 W/m² 5,0 °C 5,6 °C 0,0 km/h (0 Bft)
29.10.2019 08:04 5,6 °C 96 % 1017,0 hPa 0,0 mm 0,0 km/h (0 Bft) O-NO 77 ° 0 min 0,000 mm 0,0 UV-I 11 W/m² 5,0 °C 5,6 °C 0,0 km/h (0 Bft)
29.10.2019 08:05 5,6 °C 96 % 1017,0 hPa 0,0 mm 0,0 km/h (0 Bft) O-NO 77 ° 0 min 0,000 mm 0,0 UV-I 11 W/m² 5,0 °C 5,6 °C 0,0 km/h (0 Bft)
29.10.2019 08:06 5,6 °C 96 % 1017,0 hPa 0,0 mm 0,0 km/h (0 Bft) O-NO 77 ° 0 min 0,000 mm 0,0 UV-I 12 W/m² 5,0 °C 5,6 °C 0,0 km/h (0 Bft)
29.10.2019 08:07 5,6 °C 96 % 1017,0 hPa 0,0 mm 0,0 km/h (0 Bft) O-NO 77 ° 0 min 0,000 mm 0,0 UV-I 12 W/m² 5,0 °C 5,6 °C 0,0 km/h (0 Bft)
29.10.2019 08:08 5,6 °C 96 % 1017,0 hPa 0,0 mm 0,6 km/h (0 Bft) O-NO 77 ° 0 min 0,000 mm 0,0 UV-I 12 W/m² 5,0 °C 5,6 °C 1,6 km/h (1 Bft)
29.10.2019 08:09 5,6 °C 96 % 1016,9 hPa 0,0 mm 1,3 km/h (1 Bft) O-NO 77 ° 0 min 0,000 mm 0,0 UV-I 14 W/m² 5,0 °C 5,6 °C 3,2 km/h (1 Bft)
29.10.2019 08:10 5,6 °C 96 % 1016,9 hPa 0,0 mm 0,0 km/h (0 Bft) O-NO 77 ° 0 min 0,000 mm 0,0 UV-I 14 W/m² 5,0 °C 5,6 °C 0,0 km/h (0 Bft)
29.10.2019 08:11 5,6 °C 96 % 1016,9 hPa 0,0 mm 0,0 km/h (0 Bft) O-NO 77 ° 0 min 0,000 mm 0,0 UV-I 14 W/m² 5,0 °C 5,6 °C 0,0 km/h (0 Bft)
29.10.2019 08:12 5,6 °C 96 % 1016,9 hPa 0,0 mm 0,0 km/h (0 Bft) O-NO 77 ° 0 min 0,000 mm 0,0 UV-I 14 W/m² 5,0 °C 5,6 °C 0,0 km/h (0 Bft)
29.10.2019 08:13 5,6 °C 96 % 1016,9 hPa 0,0 mm 0,0 km/h (0 Bft) O-NO 77 ° 0 min 0,000 mm 0,0 UV-I 14 W/m² 5,0 °C 5,6 °C 0,0 km/h (0 Bft)
29.10.2019 08:14 5,6 °C 96 % 1016,9 hPa 0,0 mm 0,0 km/h (0 Bft) O-NO 77 ° 0 min 0,000 mm 0,0 UV-I 16 W/m² 5,0 °C 5,6 °C 0,0 km/h (0 Bft)
29.10.2019 08:15 5,6 °C 97 % 1016,9 hPa 0,0 mm 0,0 km/h (0 Bft) O-NO 77 ° 0 min 0,000 mm 0,0 UV-I 16 W/m² 5,2 °C 5,6 °C 0,0 km/h (0 Bft)
29.10.2019 08:16 5,6 °C 96 % 1016,9 hPa 0,0 mm 0,5 km/h (0 Bft) O-NO 77 ° 0 min 0,000 mm 0,0 UV-I 16 W/m² 5,0 °C 5,6 °C 3,2 km/h (1 Bft)
29.10.2019 08:17 5,6 °C 97 % 1017,0 hPa 0,0 mm 2,0 km/h (1 Bft) O-NO 77 ° 0 min 0,000 mm 0,0 UV-I 16 W/m² 5,2 °C 5,6 °C 4,8 km/h (1 Bft)
29.10.2019 08:18 5,6 °C 97 % 1017,0 hPa 0,0 mm 1,8 km/h (1 Bft) O-NO 77 ° 0 min 0,000 mm 0,0 UV-I 16 W/m² 5,2 °C 5,6 °C 3,2 km/h (1 Bft)
29.10.2019 08:19 5,6 °C 97 % 1017,0 hPa 0,0 mm 2,7 km/h (1 Bft) O-NO 77 ° 0 min 0,000 mm 0,0 UV-I 16 W/m² 5,2 °C 5,6 °C 3,2 km/h (1 Bft)
29.10.2019 08:20 5,7 °C 96 % 1016,9 hPa 0,0 mm 1,3 km/h (1 Bft) O-NO 77 ° 0 min 0,000 mm 0,0 UV-I 18 W/m² 5,1 °C 5,7 °C 3,2 km/h (1 Bft)
29.10.2019 08:21 5,6 °C 97 % 1017,0 hPa 0,0 mm 2,4 km/h (1 Bft) O-NO 77 ° 0 min 0,000 mm 0,0 UV-I 18 W/m² 5,2 °C 5,6 °C 3,2 km/h (1 Bft)
29.10.2019 08:22 5,7 °C 97 % 1016,9 hPa 0,0 mm 2,5 km/h (1 Bft) O-NO 77 ° 0 min 0,000 mm 0,0 UV-I 18 W/m² 5,3 °C 5,7 °C 4,8 km/h (1 Bft)
29.10.2019 08:23 5,7 °C 97 % 1017,0 hPa 0,0 mm 4,4 km/h (1 Bft) NO 49 ° 0 min 0,000 mm 0,0 UV-I 16 W/m² 5,3 °C 5,7 °C 6,4 km/h (2 Bft)
29.10.2019 08:24 5,7 °C 97 % 1017,0 hPa 0,0 mm 3,4 km/h (1 Bft) NO 49 ° 0 min 0,000 mm 0,0 UV-I 18 W/m² 5,3 °C 5,7 °C 4,8 km/h (1 Bft)
29.10.2019 08:25 5,7 °C 97 % 1017,0 hPa 0,0 mm 3,8 km/h (1 Bft) NO 41 ° 0 min 0,000 mm 0,0 UV-I 18 W/m² 5,3 °C 5,7 °C 6,4 km/h (2 Bft)
29.10.2019 08:26 5,7 °C 97 % 1017,0 hPa 0,0 mm 3,2 km/h (1 Bft) NO 49 ° 0 min 0,000 mm 0,0 UV-I 18 W/m² 5,3 °C 5,7 °C 6,4 km/h (2 Bft)
29.10.2019 08:27 5,7 °C 97 % 1017,1 hPa 0,0 mm 2,8 km/h (1 Bft) O 92 ° 0 min 0,000 mm 0,0 UV-I 18 W/m² 5,3 °C 5,7 °C 4,8 km/h (1 Bft)
29.10.2019 08:28 5,7 °C 96 % 1017,1 hPa 0,0 mm 3,4 km/h (1 Bft) O-NO 61 ° 0 min 0,000 mm 0,0 UV-I 19 W/m² 5,1 °C 5,7 °C 4,8 km/h (1 Bft)
29.10.2019 08:29 5,7 °C 97 % 1017,1 hPa 0,0 mm 3,0 km/h (1 Bft) O-NO 61 ° 0 min 0,000 mm 0,0 UV-I 21 W/m² 5,3 °C 5,7 °C 4,8 km/h (1 Bft)
29.10.2019 08:30 5,7 °C 97 % 1017,1 hPa 0,0 mm 2,8 km/h (1 Bft) NO 55 ° 0 min 0,000 mm 0,0 UV-I 23 W/m² 5,3 °C 5,7 °C 4,8 km/h (1 Bft)
29.10.2019 08:31 5,7 °C 97 % 1017,1 hPa 0,0 mm 3,4 km/h (1 Bft) NO 55 ° 0 min 0,000 mm 0,0 UV-I 25 W/m² 5,3 °C 5,7 °C 4,8 km/h (1 Bft)
29.10.2019 08:32 5,7 °C 97 % 1017,1 hPa 0,0 mm 2,1 km/h (1 Bft) NO 55 ° 0 min 0,000 mm 0,0 UV-I 26 W/m² 5,3 °C 5,7 °C 4,8 km/h (1 Bft)
29.10.2019 08:33 5,7 °C 97 % 1017,1 hPa 0,0 mm 1,9 km/h (1 Bft) NO 55 ° 0 min 0,000 mm 0,0 UV-I 30 W/m² 5,3 °C 5,7 °C 3,2 km/h (1 Bft)
29.10.2019 08:34 5,7 °C 97 % 1017,1 hPa 0,0 mm 5,2 km/h (1 Bft) O 86 ° 0 min 0,000 mm 0,0 UV-I 32 W/m² 5,3 °C 4,8 °C 11,3 km/h (2 Bft)
29.10.2019 08:35 5,7 °C 97 % 1017,2 hPa 0,0 mm 4,4 km/h (1 Bft) O-NO 77 ° 0 min 0,000 mm 0,0 UV-I 32 W/m² 5,3 °C 5,7 °C 6,4 km/h (2 Bft)
29.10.2019 08:36 5,7 °C 97 % 1017,2 hPa 0,0 mm 3,4 km/h (1 Bft) O-NO 78 ° 0 min 0,000 mm 0,0 UV-I 33 W/m² 5,3 °C 5,7 °C 4,8 km/h (1 Bft)
29.10.2019 08:37 5,7 °C 97 % 1017,2 hPa 0,0 mm 2,1 km/h (1 Bft) O-NO 78 ° 0 min 0,000 mm 0,0 UV-I 33 W/m² 5,3 °C 5,7 °C 4,8 km/h (1 Bft)
29.10.2019 08:38 5,7 °C 97 % 1017,2 hPa 0,0 mm 2,1 km/h (1 Bft) O-NO 78 ° 0 min 0,000 mm 0,0 UV-I 35 W/m² 5,3 °C 5,7 °C 4,8 km/h (1 Bft)
29.10.2019 08:39 5,7 °C 97 % 1017,2 hPa 0,0 mm 3,4 km/h (1 Bft) O-NO 78 ° 0 min 0,000 mm 0,0 UV-I 35 W/m² 5,3 °C 5,7 °C 4,8 km/h (1 Bft)
29.10.2019 08:40 5,7 °C 97 % 1017,1 hPa 0,0 mm 3,4 km/h (1 Bft) O-NO 78 ° 0 min 0,000 mm 0,0 UV-I 33 W/m² 5,3 °C 5,7 °C 6,4 km/h (2 Bft)
29.10.2019 08:41 5,7 °C 97 % 1017,2 hPa 0,0 mm 2,8 km/h (1 Bft) O-NO 78 ° 0 min 0,000 mm 0,0 UV-I 35 W/m² 5,3 °C 5,7 °C 4,8 km/h (1 Bft)
29.10.2019 08:42 5,7 °C 96 % 1017,2 hPa 0,0 mm 3,3 km/h (1 Bft) O-NO 78 ° 0 min 0,000 mm 0,0 UV-I 37 W/m² 5,1 °C 5,7 °C 4,8 km/h (1 Bft)
29.10.2019 08:43 5,7 °C 96 % 1017,1 hPa 0,0 mm 3,2 km/h (1 Bft) O 80 ° 0 min 0,000 mm 0,0 UV-I 33 W/m² 5,1 °C 5,7 °C 6,4 km/h (2 Bft)
29.10.2019 08:44 5,7 °C 97 % 1017,1 hPa 0,0 mm 1,9 km/h (1 Bft) O 80 ° 0 min 0,000 mm 0,0 UV-I 33 W/m² 5,3 °C 5,7 °C 3,2 km/h (1 Bft)
29.10.2019 08:45 5,7 °C 97 % 1017,1 hPa 0,0 mm 2,0 km/h (1 Bft) O 80 ° 0 min 0,000 mm 0,0 UV-I 32 W/m² 5,3 °C 5,7 °C 3,2 km/h (1 Bft)
29.10.2019 08:46 5,7 °C 97 % 1017,1 hPa 0,0 mm 1,4 km/h (1 Bft) O 80 ° 0 min 0,000 mm 0,0 UV-I 30 W/m² 5,3 °C 5,7 °C 1,6 km/h (1 Bft)
29.10.2019 08:47 5,7 °C 96 % 1017,1 hPa 0,0 mm 0,9 km/h (0 Bft) O 80 ° 0 min 0,000 mm 0,0 UV-I 28 W/m² 5,1 °C 5,7 °C 3,2 km/h (1 Bft)
29.10.2019 08:48 5,7 °C 97 % 1017,2 hPa 0,0 mm 2,0 km/h (1 Bft) O 80 ° 0 min 0,000 mm 0,0 UV-I 30 W/m² 5,3 °C 5,7 °C 3,2 km/h (1 Bft)
29.10.2019 08:49 5,7 °C 97 % 1017,1 hPa 0,0 mm 2,3 km/h (1 Bft) O 80 ° 0 min 0,000 mm 0,0 UV-I 30 W/m² 5,3 °C 5,7 °C 4,8 km/h (1 Bft)
29.10.2019 08:50 5,7 °C 97 % 1017,2 hPa 0,0 mm 1,5 km/h (1 Bft) O 80 ° 0 min 0,000 mm 0,0 UV-I 28 W/m² 5,3 °C 5,7 °C 3,2 km/h (1 Bft)
29.10.2019 08:51 5,8 °C 97 % 1017,2 hPa 0,0 mm 3,8 km/h (1 Bft) O-NO 65 ° 0 min 0,000 mm 0,0 UV-I 26 W/m² 5,4 °C 5,8 °C 8,0 km/h (2 Bft)
29.10.2019 08:52 5,7 °C 97 % 1017,2 hPa 0,0 mm 4,3 km/h (1 Bft) NO 43 ° 0 min 0,000 mm 0,0 UV-I 26 W/m² 5,3 °C 5,7 °C 6,4 km/h (2 Bft)
29.10.2019 08:53 5,8 °C 97 % 1017,2 hPa 0,0 mm 3,3 km/h (1 Bft) NO 49 ° 0 min 0,000 mm 0,0 UV-I 23 W/m² 5,4 °C 5,8 °C 4,8 km/h (1 Bft)
29.10.2019 08:54 5,8 °C 97 % 1017,2 hPa 0,0 mm 1,8 km/h (1 Bft) NO 49 ° 0 min 0,000 mm 0,0 UV-I 23 W/m² 5,4 °C 5,8 °C 4,8 km/h (1 Bft)
29.10.2019 08:55 5,7 °C 97 % 1017,2 hPa 0,0 mm 4,7 km/h (1 Bft) NO 49 ° 0 min 0,000 mm 0,0 UV-I 23 W/m² 5,3 °C 5,0 °C 6,4 km/h (2 Bft)
29.10.2019 08:56 5,8 °C 96 % 1017,2 hPa 0,0 mm 3,4 km/h (1 Bft) NO 49 ° 0 min 0,000 mm 0,0 UV-I 23 W/m² 5,2 °C 5,8 °C 4,8 km/h (1 Bft)
29.10.2019 08:57 5,7 °C 97 % 1017,2 hPa 0,0 mm 3,4 km/h (1 Bft) NO 49 ° 0 min 0,000 mm 0,0 UV-I 23 W/m² 5,3 °C 5,7 °C 4,8 km/h (1 Bft)
29.10.2019 08:58 5,7 °C 97 % 1017,2 hPa 0,0 mm 2,6 km/h (1 Bft) NO 49 ° 0 min 0,000 mm 0,0 UV-I 25 W/m² 5,3 °C 5,7 °C 3,2 km/h (1 Bft)
29.10.2019 08:59 5,7 °C 97 % 1017,2 hPa 0,0 mm 0,7 km/h (0 Bft) NO 49 ° 0 min 0,000 mm 0,0 UV-I 23 W/m² 5,3 °C 5,7 °C 1,6 km/h (1 Bft)
29.10.2019 09:00 5,7 °C 96 % 1017,2 hPa 0,0 mm 4,2 km/h (1 Bft) NO 49 ° 0 min 0,000 mm 0,0 UV-I 23 W/m² 5,1 °C 5,7 °C 6,4 km/h (2 Bft)
29.10.2019 09:01 5,7 °C 97 % 1017,2 hPa 0,0 mm 2,4 km/h (1 Bft) NO 49 ° 0 min 0,000 mm 0,0 UV-I 25 W/m² 5,3 °C 5,7 °C 6,4 km/h (2 Bft)
29.10.2019 09:02 5,7 °C 96 % 1017,2 hPa 0,0 mm 4,0 km/h (1 Bft) NO 49 ° 0 min 0,000 mm 0,0 UV-I 25 W/m² 5,1 °C 5,7 °C 6,4 km/h (2 Bft)
29.10.2019 09:03 5,7 °C 97 % 1017,2 hPa 0,0 mm 1,2 km/h (1 Bft) NO 49 ° 0 min 0,000 mm 0,0 UV-I 26 W/m² 5,3 °C 5,7 °C 4,8 km/h (1 Bft)
29.10.2019 09:04 5,7 °C 96 % 1017,3 hPa 0,0 mm 1,9 km/h (1 Bft) NO 49 ° 0 min 0,000 mm 0,0 UV-I 26 W/m² 5,1 °C 5,7 °C 4,8 km/h (1 Bft)
29.10.2019 09:05 5,8 °C 96 % 1017,3 hPa 0,0 mm 0,7 km/h (0 Bft) NO 49 ° 0 min 0,000 mm 0,0 UV-I 30 W/m² 5,2 °C 5,8 °C 1,6 km/h (1 Bft)
29.10.2019 09:06 5,8 °C 97 % 1017,3 hPa 0,0 mm 1,7 km/h (1 Bft) NO 49 ° 0 min 0,000 mm 0,0 UV-I 30 W/m² 5,4 °C 5,8 °C 3,2 km/h (1 Bft)
29.10.2019 09:07 5,7 °C 97 % 1017,3 hPa 0,0 mm 2,4 km/h (1 Bft) NO 49 ° 0 min 0,000 mm 0,0 UV-I 32 W/m² 5,3 °C 5,7 °C 3,2 km/h (1 Bft)
29.10.2019 09:08 5,7 °C 97 % 1017,3 hPa 0,0 mm 2,3 km/h (1 Bft) NO 49 ° 0 min 0,000 mm 0,0 UV-I 32 W/m² 5,3 °C 5,7 °C 3,2 km/h (1 Bft)
29.10.2019 09:09 5,8 °C 96 % 1017,3 hPa 0,0 mm 2,5 km/h (1 Bft) NO 49 ° 0 min 0,000 mm 0,0 UV-I 33 W/m² 5,2 °C 5,8 °C 3,2 km/h (1 Bft)
29.10.2019 09:10 5,8 °C 97 % 1017,3 hPa 0,0 mm 2,4 km/h (1 Bft) NO 49 ° 0 min 0,000 mm 0,0 UV-I 35 W/m² 5,4 °C 5,8 °C 3,2 km/h (1 Bft)
29.10.2019 09:11 5,8 °C 97 % 1017,4 hPa 0,0 mm 2,9 km/h (1 Bft) NO 49 ° 0 min 0,000 mm 0,0 UV-I 33 W/m² 5,4 °C 5,8 °C 4,8 km/h (1 Bft)
29.10.2019 09:12 5,8 °C 97 % 1017,4 hPa 0,0 mm 4,2 km/h (1 Bft) NO 49 ° 0 min 0,000 mm 0,0 UV-I 32 W/m² 5,4 °C 5,8 °C 6,4 km/h (2 Bft)
29.10.2019 09:13 5,8 °C 97 % 1017,4 hPa 0,0 mm 2,8 km/h (1 Bft) NO 49 ° 0 min 0,000 mm 0,0 UV-I 30 W/m² 5,4 °C 5,8 °C 4,8 km/h (1 Bft)
29.10.2019 09:14 5,8 °C 97 % 1017,5 hPa 0,0 mm 2,7 km/h (1 Bft) NO 49 ° 0 min 0,000 mm 0,0 UV-I 30 W/m² 5,4 °C 5,8 °C 3,2 km/h (1 Bft)
29.10.2019 09:15 5,8 °C 97 % 1017,4 hPa 0,0 mm 1,5 km/h (1 Bft) NO 49 ° 0 min 0,000 mm 0,0 UV-I 30 W/m² 5,4 °C 5,8 °C 3,2 km/h (1 Bft)
29.10.2019 09:16 5,8 °C 97 % 1017,4 hPa 0,0 mm 3,6 km/h (1 Bft) NO 49 ° 0 min 0,000 mm 0,0 UV-I 32 W/m² 5,4 °C 5,8 °C 4,8 km/h (1 Bft)
29.10.2019 09:17 5,8 °C 97 % 1017,4 hPa 0,0 mm 3,4 km/h (1 Bft) NO 49 ° 0 min 0,000 mm 0,0 UV-I 33 W/m² 5,4 °C 5,8 °C 4,8 km/h (1 Bft)
29.10.2019 09:18 5,8 °C 96 % 1017,5 hPa 0,0 mm 3,7 km/h (1 Bft) NO 49 ° 0 min 0,000 mm 0,0 UV-I 33 W/m² 5,2 °C 5,8 °C 4,8 km/h (1 Bft)
29.10.2019 09:19 5,8 °C 96 % 1017,5 hPa 0,0 mm 2,3 km/h (1 Bft) NO 49 ° 0 min 0,000 mm 0,0 UV-I 35 W/m² 5,2 °C 5,8 °C 4,8 km/h (1 Bft)
29.10.2019 09:20 5,8 °C 96 % 1017,5 hPa 0,0 mm 3,0 km/h (1 Bft) NO 49 ° 0 min 0,000 mm 0,0 UV-I 37 W/m² 5,2 °C 5,8 °C 3,2 km/h (1 Bft)
29.10.2019 09:21 5,8 °C 96 % 1017,5 hPa 0,0 mm 3,3 km/h (1 Bft) NO 49 ° 0 min 0,000 mm 0,0 UV-I 37 W/m² 5,2 °C 5,8 °C 4,8 km/h (1 Bft)
29.10.2019 09:22 5,8 °C 96 % 1017,6 hPa 0,0 mm 1,3 km/h (1 Bft) NO 49 ° 0 min 0,000 mm 0,0 UV-I 35 W/m² 5,2 °C 5,8 °C 3,2 km/h (1 Bft)
29.10.2019 09:23 5,8 °C 96 % 1017,6 hPa 0,0 mm 2,1 km/h (1 Bft) NO 49 ° 0 min 0,000 mm 0,0 UV-I 33 W/m² 5,2 °C 5,8 °C 4,8 km/h (1 Bft)
29.10.2019 09:24 5,8 °C 96 % 1017,6 hPa 0,0 mm 2,5 km/h (1 Bft) NO 49 ° 0 min 0,000 mm 0,0 UV-I 33 W/m² 5,2 °C 5,8 °C 4,8 km/h (1 Bft)
29.10.2019 09:25 5,8 °C 96 % 1017,6 hPa 0,0 mm 2,3 km/h (1 Bft) NO 49 ° 0 min 0,000 mm 0,0 UV-I 33 W/m² 5,2 °C 5,8 °C 3,2 km/h (1 Bft)
29.10.2019 09:26 5,8 °C 96 % 1017,6 hPa 0,0 mm 1,8 km/h (1 Bft) NO 49 ° 0 min 0,000 mm 0,0 UV-I 33 W/m² 5,2 °C 5,8 °C 3,2 km/h (1 Bft)
29.10.2019 09:27 5,8 °C 96 % 1017,6 hPa 0,0 mm 0,3 km/h (0 Bft) NO 49 ° 0 min 0,000 mm 0,0 UV-I 33 W/m² 5,2 °C 5,8 °C 1,6 km/h (1 Bft)
29.10.2019 09:28 5,8 °C 96 % 1017,6 hPa 0,0 mm 0,6 km/h (0 Bft) NO 49 ° 0 min 0,000 mm 0,0 UV-I 32 W/m² 5,2 °C 5,8 °C 1,6 km/h (1 Bft)
29.10.2019 09:29 5,8 °C 96 % 1017,6 hPa 0,0 mm 3,0 km/h (1 Bft) NO 49 ° 0 min 0,000 mm 0,0 UV-I 28 W/m² 5,2 °C 5,8 °C 6,4 km/h (2 Bft)
29.10.2019 09:30 5,8 °C 96 % 1017,7 hPa 0,0 mm 2,4 km/h (1 Bft) NO 49 ° 0 min 0,000 mm 0,0 UV-I 28 W/m² 5,2 °C 5,8 °C 4,8 km/h (1 Bft)
29.10.2019 09:31 5,8 °C 96 % 1017,6 hPa 0,0 mm 1,3 km/h (1 Bft) NO 49 ° 0 min 0,000 mm 0,0 UV-I 28 W/m² 5,2 °C 5,8 °C 3,2 km/h (1 Bft)
29.10.2019 09:32 5,9 °C 96 % 1017,7 hPa 0,0 mm 1,8 km/h (1 Bft) NO 49 ° 0 min 0,000 mm 0,0 UV-I 28 W/m² 5,3 °C 5,9 °C 3,2 km/h (1 Bft)
29.10.2019 09:33 5,9 °C 96 % 1017,7 hPa 0,0 mm 3,7 km/h (1 Bft) NO 49 ° 0 min 0,000 mm 0,0 UV-I 26 W/m² 5,3 °C 5,9 °C 6,4 km/h (2 Bft)
29.10.2019 09:34 5,9 °C 96 % 1017,7 hPa 0,0 mm 1,0 km/h (0 Bft) NO 49 ° 0 min 0,000 mm 0,0 UV-I 26 W/m² 5,3 °C 5,9 °C 1,6 km/h (1 Bft)
29.10.2019 09:35 5,9 °C 96 % 1017,7 hPa 0,0 mm 0,1 km/h (0 Bft) NO 49 ° 0 min 0,000 mm 0,0 UV-I 26 W/m² 5,3 °C 5,9 °C 1,6 km/h (1 Bft)
29.10.2019 09:36 5,9 °C 96 % 1017,7 hPa 0,0 mm 0,0 km/h (0 Bft) NO 49 ° 0 min 0,000 mm 0,0 UV-I 26 W/m² 5,3 °C 5,9 °C 0,0 km/h (0 Bft)
29.10.2019 09:37 5,9 °C 96 % 1017,8 hPa 0,0 mm 0,0 km/h (0 Bft) NO 49 ° 0 min 0,000 mm 0,0 UV-I 26 W/m² 5,3 °C 5,9 °C 0,0 km/h (0 Bft)
29.10.2019 09:38 5,9 °C 96 % 1017,8 hPa 0,0 mm 0,0 km/h (0 Bft) NO 49 ° 0 min 0,000 mm 0,0 UV-I 28 W/m² 5,3 °C 5,9 °C 0,0 km/h (0 Bft)
29.10.2019 09:39 5,9 °C 96 % 1017,8 hPa 0,0 mm 1,8 km/h (1 Bft) NO 49 ° 0 min 0,000 mm 0,0 UV-I 32 W/m² 5,3 °C 5,9 °C 3,2 km/h (1 Bft)
29.10.2019 09:40 5,9 °C 96 % 1017,8 hPa 0,0 mm 2,3 km/h (1 Bft) NO 49 ° 0 min 0,000 mm 0,0 UV-I 35 W/m² 5,3 °C 5,9 °C 3,2 km/h (1 Bft)
29.10.2019 09:41 5,9 °C 96 % 1017,8 hPa 0,0 mm 2,7 km/h (1 Bft) NO 49 ° 0 min 0,000 mm 0,0 UV-I 39 W/m² 5,3 °C 5,9 °C 4,8 km/h (1 Bft)
29.10.2019 09:42 5,9 °C 96 % 1017,7 hPa 0,0 mm 0,7 km/h (0 Bft) NO 49 ° 0 min 0,000 mm 0,0 UV-I 39 W/m² 5,3 °C 5,9 °C 1,6 km/h (1 Bft)
29.10.2019 09:43 5,9 °C 96 % 1017,7 hPa 0,0 mm 0,1 km/h (0 Bft) NO 49 ° 0 min 0,000 mm 0,0 UV-I 39 W/m² 5,3 °C 5,9 °C 1,6 km/h (1 Bft)
29.10.2019 09:44 5,9 °C 96 % 1017,7 hPa 0,0 mm 0,1 km/h (0 Bft) NO 49 ° 0 min 0,000 mm 0,0 UV-I 39 W/m² 5,3 °C 5,9 °C 1,6 km/h (1 Bft)
29.10.2019 09:45 5,9 °C 96 % 1017,7 hPa 0,0 mm 4,4 km/h (1 Bft) NO 49 ° 0 min 0,000 mm 0,0 UV-I 39 W/m² 5,3 °C 5,9 °C 4,8 km/h (1 Bft)
29.10.2019 09:46 5,9 °C 96 % 1017,8 hPa 0,0 mm 1,7 km/h (1 Bft) N-NO 23 ° 0 min 0,000 mm 0,0 UV-I 40 W/m² 5,3 °C 5,9 °C 4,8 km/h (1 Bft)
29.10.2019 09:47 5,9 °C 96 % 1017,8 hPa 0,0 mm 0,5 km/h (0 Bft) N-NO 23 ° 0 min 0,000 mm 0,0 UV-I 40 W/m² 5,3 °C 5,9 °C 1,6 km/h (1 Bft)
29.10.2019 09:48 5,9 °C 96 % 1017,8 hPa 0,0 mm 1,5 km/h (1 Bft) N-NO 23 ° 0 min 0,000 mm 0,0 UV-I 42 W/m² 5,3 °C 5,9 °C 3,2 km/h (1 Bft)
29.10.2019 09:49 5,9 °C 96 % 1017,8 hPa 0,0 mm 1,3 km/h (1 Bft) N-NO 23 ° 0 min 0,000 mm 0,0 UV-I 40 W/m² 5,3 °C 5,9 °C 3,2 km/h (1 Bft)
29.10.2019 09:50 6,0 °C 96 % 1017,8 hPa 0,0 mm 2,5 km/h (1 Bft) N-NO 23 ° 0 min 0,000 mm 0,0 UV-I 40 W/m² 5,4 °C 6,0 °C 4,8 km/h (1 Bft)
29.10.2019 09:51 5,9 °C 97 % 1017,8 hPa 0,0 mm 3,0 km/h (1 Bft) N-NO 23 ° 0 min 0,000 mm 0,0 UV-I 39 W/m² 5,5 °C 5,9 °C 4,8 km/h (1 Bft)
29.10.2019 09:52 5,9 °C 97 % 1017,8 hPa 0,0 mm 2,8 km/h (1 Bft) N-NO 23 ° 0 min 0,000 mm 0,0 UV-I 39 W/m² 5,5 °C 5,9 °C 4,8 km/h (1 Bft)
29.10.2019 09:53 5,9 °C 97 % 1017,8 hPa 0,0 mm 2,5 km/h (1 Bft) N-NO 23 ° 0 min 0,000 mm 0,0 UV-I 37 W/m² 5,5 °C 5,9 °C 4,8 km/h (1 Bft)
29.10.2019 09:54 5,9 °C 96 % 1017,8 hPa 0,0 mm 4,7 km/h (1 Bft) N 355 ° 0 min 0,000 mm 0,0 UV-I 35 W/m² 5,3 °C 5,2 °C 6,4 km/h (2 Bft)
29.10.2019 09:55 5,9 °C 96 % 1017,8 hPa 0,0 mm 4,2 km/h (1 Bft) N 355 ° 0 min 0,000 mm 0,0 UV-I 35 W/m² 5,3 °C 5,9 °C 6,4 km/h (2 Bft)
29.10.2019 09:56 5,9 °C 96 % 1017,8 hPa 0,0 mm 2,5 km/h (1 Bft) N 355 ° 0 min 0,000 mm 0,0 UV-I 35 W/m² 5,3 °C 5,9 °C 4,8 km/h (1 Bft)
29.10.2019 09:57 5,9 °C 96 % 1017,8 hPa 0,0 mm 2,3 km/h (1 Bft) N 360 ° 0 min 0,000 mm 0,0 UV-I 39 W/m² 5,3 °C 5,9 °C 4,8 km/h (1 Bft)
29.10.2019 09:58 5,9 °C 96 % 1017,9 hPa 0,0 mm 0,5 km/h (0 Bft) N 360 ° 0 min 0,000 mm 0,0 UV-I 39 W/m² 5,3 °C 5,9 °C 1,6 km/h (1 Bft)
29.10.2019 09:59 5,9 °C 96 % 1017,9 hPa 0,0 mm 0,2 km/h (0 Bft) N 360 ° 0 min 0,000 mm 0,0 UV-I 37 W/m² 5,3 °C 5,9 °C 1,6 km/h (1 Bft)
29.10.2019 10:00 6,0 °C 97 % 1017,9 hPa 0,0 mm 2,8 km/h (1 Bft) NO 43 ° 0 min 0,000 mm 0,0 UV-I 35 W/m² 5,6 °C 6,0 °C 4,8 km/h (1 Bft)
29.10.2019 10:01 5,9 °C 97 % 1017,9 hPa 0,0 mm 0,1 km/h (0 Bft) NO 43 ° 0 min 0,025 mm 0,0 UV-I 33 W/m² 5,5 °C 5,9 °C 1,6 km/h (1 Bft)
29.10.2019 10:02 5,9 °C 97 % 1017,9 hPa 0,0 mm 1,4 km/h (1 Bft) NO 43 ° 0 min 0,000 mm 0,0 UV-I 37 W/m² 5,5 °C 5,9 °C 4,8 km/h (1 Bft)
29.10.2019 10:03 6,0 °C 97 % 1017,9 hPa 0,0 mm 4,2 km/h (1 Bft) O 86 ° 0 min 0,000 mm 0,0 UV-I 44 W/m² 5,6 °C 6,0 °C 6,4 km/h (2 Bft)
29.10.2019 10:04 6,0 °C 97 % 1017,8 hPa 0,0 mm 2,5 km/h (1 Bft) O-NO 78 ° 0 min 0,000 mm 0,0 UV-I 42 W/m² 5,6 °C 6,0 °C 4,8 km/h (1 Bft)
29.10.2019 10:05 6,0 °C 97 % 1017,9 hPa 0,0 mm 2,7 km/h (1 Bft) NO 47 ° 0 min 0,000 mm 0,0 UV-I 40 W/m² 5,6 °C 6,0 °C 6,4 km/h (2 Bft)
29.10.2019 10:06 5,9 °C 97 % 1017,9 hPa 0,0 mm 5,4 km/h (1 Bft) O-NO 59 ° 0 min 0,000 mm 0,0 UV-I 40 W/m² 5,5 °C 5,0 °C 9,7 km/h (2 Bft)
29.10.2019 10:07 6,0 °C 97 % 1017,9 hPa 0,0 mm 3,5 km/h (1 Bft) O-NO 64 ° 0 min 0,000 mm 0,0 UV-I 40 W/m² 5,6 °C 6,0 °C 4,8 km/h (1 Bft)
29.10.2019 10:08 6,0 °C 96 % 1017,9 hPa 0,0 mm 4,6 km/h (1 Bft) O-NO 76 ° 0 min 0,000 mm 0,0 UV-I 42 W/m² 5,4 °C 5,4 °C 6,4 km/h (2 Bft)
29.10.2019 10:09 6,0 °C 96 % 1017,9 hPa 0,0 mm 5,4 km/h (1 Bft) O-NO 74 ° 0 min 0,000 mm 0,0 UV-I 44 W/m² 5,4 °C 5,1 °C 9,7 km/h (2 Bft)
29.10.2019 10:10 5,9 °C 97 % 1017,9 hPa 0,0 mm 3,2 km/h (1 Bft) NO 43 ° 0 min 0,000 mm 0,0 UV-I 39 W/m² 5,5 °C 5,9 °C 4,8 km/h (1 Bft)
29.10.2019 10:11 5,9 °C 96 % 1017,9 hPa 0,0 mm 3,6 km/h (1 Bft) NO 45 ° 0 min 0,000 mm 0,0 UV-I 35 W/m² 5,3 °C 5,9 °C 4,8 km/h (1 Bft)
29.10.2019 10:12 5,9 °C 96 % 1017,9 hPa 0,0 mm 0,3 km/h (0 Bft) NO 45 ° 0 min 0,000 mm 0,0 UV-I 35 W/m² 5,3 °C 5,9 °C 1,6 km/h (1 Bft)
29.10.2019 10:13 5,9 °C 96 % 1017,9 hPa 0,0 mm 0,0 km/h (0 Bft) NO 45 ° 0 min 0,000 mm 0,0 UV-I 35 W/m² 5,3 °C 5,9 °C 0,0 km/h (0 Bft)
29.10.2019 10:14 5,9 °C 96 % 1017,9 hPa 0,0 mm 2,6 km/h (1 Bft) N-NO 21 ° 0 min 0,000 mm 0,0 UV-I 37 W/m² 5,3 °C 5,9 °C 6,4 km/h (2 Bft)
29.10.2019 10:15 5,9 °C 96 % 1018,0 hPa 0,0 mm 1,5 km/h (1 Bft) N-NO 21 ° 0 min 0,000 mm 0,0 UV-I 32 W/m² 5,3 °C 5,9 °C 3,2 km/h (1 Bft)
29.10.2019 10:16 5,9 °C 96 % 1018,0 hPa 0,0 mm 1,7 km/h (1 Bft) N-NO 21 ° 0 min 0,000 mm 0,0 UV-I 33 W/m² 5,3 °C 5,9 °C 3,2 km/h (1 Bft)
29.10.2019 10:17 5,9 °C 96 % 1018,0 hPa 0,0 mm 3,8 km/h (1 Bft) O-NO 60 ° 0 min 0,000 mm 0,0 UV-I 32 W/m² 5,3 °C 5,9 °C 6,4 km/h (2 Bft)
29.10.2019 10:18 5,9 °C 96 % 1018,0 hPa 0,0 mm 5,8 km/h (2 Bft) O-NO 78 ° 0 min 0,000 mm 0,0 UV-I 33 W/m² 5,3 °C 4,8 °C 8,0 km/h (2 Bft)
29.10.2019 10:19 5,9 °C 96 % 1018,1 hPa 0,0 mm 5,0 km/h (1 Bft) O-NO 71 ° 0 min 0,000 mm 0,0 UV-I 33 W/m² 5,3 °C 5,1 °C 8,0 km/h (2 Bft)
29.10.2019 10:20 5,9 °C 96 % 1018,0 hPa 0,0 mm 4,8 km/h (1 Bft) O 80 ° 0 min 0,000 mm 0,0 UV-I 35 W/m² 5,3 °C 5,2 °C 6,4 km/h (2 Bft)
29.10.2019 10:21 5,9 °C 96 % 1018,0 hPa 0,0 mm 5,7 km/h (1 Bft) O-NO 62 ° 0 min 0,000 mm 0,0 UV-I 35 W/m² 5,3 °C 4,9 °C 8,0 km/h (2 Bft)
29.10.2019 10:22 5,9 °C 96 % 1018,0 hPa 0,0 mm 4,7 km/h (1 Bft) O 81 ° 0 min 0,000 mm 0,0 UV-I 37 W/m² 5,3 °C 5,2 °C 6,4 km/h (2 Bft)
29.10.2019 10:23 5,9 °C 96 % 1018,1 hPa 0,0 mm 3,5 km/h (1 Bft) O-NO 75 ° 0 min 0,000 mm 0,0 UV-I 40 W/m² 5,3 °C 5,9 °C 6,4 km/h (2 Bft)
29.10.2019 10:24 5,9 °C 96 % 1018,1 hPa 0,0 mm 5,2 km/h (1 Bft) O-NO 63 ° 0 min 0,000 mm 0,0 UV-I 39 W/m² 5,3 °C 5,0 °C 6,4 km/h (2 Bft)
29.10.2019 10:25 5,9 °C 96 % 1018,1 hPa 0,0 mm 3,4 km/h (1 Bft) O-NO 63 ° 0 min 0,000 mm 0,0 UV-I 42 W/m² 5,3 °C 5,9 °C 4,8 km/h (1 Bft)
29.10.2019 10:26 5,9 °C 96 % 1018,2 hPa 0,0 mm 3,8 km/h (1 Bft) O-NO 64 ° 0 min 0,000 mm 0,0 UV-I 46 W/m² 5,3 °C 5,9 °C 6,4 km/h (2 Bft)
29.10.2019 10:27 5,9 °C 96 % 1018,2 hPa 0,0 mm 1,3 km/h (1 Bft) O-NO 64 ° 0 min 0,000 mm 0,0 UV-I 44 W/m² 5,3 °C 5,9 °C 3,2 km/h (1 Bft)
29.10.2019 10:28 5,9 °C 97 % 1018,2 hPa 0,0 mm 1,6 km/h (1 Bft) O-NO 64 ° 0 min 0,000 mm 0,0 UV-I 44 W/m² 5,5 °C 5,9 °C 3,2 km/h (1 Bft)
29.10.2019 10:29 5,9 °C 96 % 1018,1 hPa 0,0 mm 3,0 km/h (1 Bft) O-NO 64 ° 0 min 0,000 mm 0,0 UV-I 44 W/m² 5,3 °C 5,9 °C 4,8 km/h (1 Bft)
29.10.2019 10:30 5,9 °C 96 % 1018,1 hPa 0,0 mm 2,6 km/h (1 Bft) O-NO 64 ° 0 min 0,000 mm 0,0 UV-I 44 W/m² 5,3 °C 5,9 °C 3,2 km/h (1 Bft)
29.10.2019 10:31 5,9 °C 96 % 1018,1 hPa 0,0 mm 1,9 km/h (1 Bft) O-NO 64 ° 0 min 0,000 mm 0,0 UV-I 42 W/m² 5,3 °C 5,9 °C 3,2 km/h (1 Bft)
29.10.2019 10:32 5,9 °C 96 % 1018,1 hPa 0,0 mm 1,6 km/h (1 Bft) O-NO 63 ° 0 min 0,000 mm 0,0 UV-I 42 W/m² 5,3 °C 5,9 °C 1,6 km/h (1 Bft)
29.10.2019 10:33 6,0 °C 97 % 1018,2 hPa 0,0 mm 2,4 km/h (1 Bft) O-NO 64 ° 0 min 0,000 mm 0,0 UV-I 49 W/m² 5,6 °C 6,0 °C 4,8 km/h (1 Bft)
29.10.2019 10:34 6,0 °C 97 % 1018,2 hPa 0,0 mm 4,0 km/h (1 Bft) O-NO 71 ° 0 min 0,000 mm 0,0 UV-I 53 W/m² 5,6 °C 6,0 °C 6,4 km/h (2 Bft)
29.10.2019 10:35 6,0 °C 97 % 1018,1 hPa 0,0 mm 4,3 km/h (1 Bft) O 87 ° 0 min 0,000 mm 0,0 UV-I 49 W/m² 5,6 °C 6,0 °C 6,4 km/h (2 Bft)
29.10.2019 10:36 6,0 °C 97 % 1018,0 hPa 0,0 mm 5,8 km/h (2 Bft) O 85 ° 0 min 0,000 mm 0,0 UV-I 49 W/m² 5,6 °C 4,9 °C 8,0 km/h (2 Bft)
29.10.2019 10:37 6,0 °C 97 % 1018,1 hPa 0,0 mm 2,7 km/h (1 Bft) NO 52 ° 0 min 0,000 mm 0,0 UV-I 54 W/m² 5,6 °C 6,0 °C 6,4 km/h (2 Bft)
29.10.2019 10:38 6,1 °C 97 % 1018,1 hPa 0,0 mm 2,1 km/h (1 Bft) NO 52 ° 0 min 0,000 mm 0,0 UV-I 54 W/m² 5,7 °C 6,1 °C 4,8 km/h (1 Bft)
29.10.2019 10:39 6,1 °C 97 % 1018,1 hPa 0,0 mm 3,1 km/h (1 Bft) O 80 ° 0 min 0,000 mm 0,0 UV-I 56 W/m² 5,7 °C 6,1 °C 6,4 km/h (2 Bft)
29.10.2019 10:40 6,1 °C 97 % 1018,2 hPa 0,0 mm 4,5 km/h (1 Bft) O-NO 77 ° 0 min 0,000 mm 0,0 UV-I 54 W/m² 5,7 °C 6,1 °C 6,4 km/h (2 Bft)
29.10.2019 10:41 6,1 °C 97 % 1018,2 hPa 0,0 mm 4,1 km/h (1 Bft) O 90 ° 0 min 0,000 mm 0,0 UV-I 51 W/m² 5,7 °C 6,1 °C 6,4 km/h (2 Bft)
29.10.2019 10:42 6,1 °C 97 % 1018,2 hPa 0,0 mm 2,7 km/h (1 Bft) O 89 ° 0 min 0,000 mm 0,0 UV-I 47 W/m² 5,7 °C 6,1 °C 4,8 km/h (1 Bft)
29.10.2019 10:43 6,1 °C 97 % 1018,2 hPa 0,0 mm 4,4 km/h (1 Bft) NO 38 ° 0 min 0,000 mm 0,0 UV-I 47 W/m² 5,7 °C 6,1 °C 6,4 km/h (2 Bft)
29.10.2019 10:44 6,1 °C 97 % 1018,2 hPa 0,0 mm 3,1 km/h (1 Bft) NO 54 ° 0 min 0,000 mm 0,0 UV-I 46 W/m² 5,7 °C 6,1 °C 4,8 km/h (1 Bft)
29.10.2019 10:45 6,1 °C 97 % 1018,2 hPa 0,0 mm 1,7 km/h (1 Bft) NO 54 ° 0 min 0,000 mm 0,0 UV-I 46 W/m² 5,7 °C 6,1 °C 3,2 km/h (1 Bft)
29.10.2019 10:46 6,1 °C 97 % 1018,3 hPa 0,0 mm 1,1 km/h (1 Bft) NO 54 ° 0 min 0,000 mm 0,0 UV-I 51 W/m² 5,7 °C 6,1 °C 3,2 km/h (1 Bft)
29.10.2019 10:47 6,1 °C 97 % 1018,3 hPa 0,0 mm 0,1 km/h (0 Bft) NO 54 ° 0 min 0,000 mm 0,0 UV-I 49 W/m² 5,7 °C 6,1 °C 1,6 km/h (1 Bft)
29.10.2019 10:48 6,1 °C 97 % 1018,3 hPa 0,0 mm 1,4 km/h (1 Bft) NO 54 ° 0 min 0,000 mm 0,0 UV-I 46 W/m² 5,7 °C 6,1 °C 3,2 km/h (1 Bft)
29.10.2019 10:49 6,1 °C 96 % 1018,4 hPa 0,0 mm 0,0 km/h (0 Bft) NO 54 ° 0 min 0,000 mm 0,0 UV-I 42 W/m² 5,5 °C 6,1 °C 0,0 km/h (0 Bft)
29.10.2019 10:50 6,1 °C 97 % 1018,3 hPa 0,0 mm 0,2 km/h (0 Bft) NO 54 ° 0 min 0,000 mm 0,0 UV-I 46 W/m² 5,7 °C 6,1 °C 3,2 km/h (1 Bft)
29.10.2019 10:51 6,2 °C 96 % 1018,4 hPa 0,0 mm 2,9 km/h (1 Bft) NO 54 ° 0 min 0,000 mm 0,0 UV-I 46 W/m² 5,6 °C 6,2 °C 4,8 km/h (1 Bft)
29.10.2019 10:52 6,1 °C 97 % 1018,4 hPa 0,0 mm 0,3 km/h (0 Bft) NO 54 ° 0 min 0,000 mm 0,0 UV-I 44 W/m² 5,7 °C 6,1 °C 1,6 km/h (1 Bft)
29.10.2019 10:53 6,2 °C 97 % 1018,3 hPa 0,0 mm 0,0 km/h (0 Bft) NO 54 ° 0 min 0,000 mm 0,0 UV-I 44 W/m² 5,8 °C 6,2 °C 0,0 km/h (0 Bft)
29.10.2019 10:54 6,2 °C 96 % 1018,3 hPa 0,0 mm 0,0 km/h (0 Bft) NO 54 ° 0 min 0,000 mm 0,0 UV-I 46 W/m² 5,6 °C 6,2 °C 0,0 km/h (0 Bft)
29.10.2019 10:55 6,2 °C 96 % 1018,3 hPa 0,0 mm 0,9 km/h (0 Bft) NO 54 ° 0 min 0,000 mm 0,0 UV-I 47 W/m² 5,6 °C 6,2 °C 1,6 km/h (1 Bft)
29.10.2019 10:56 6,2 °C 96 % 1018,3 hPa 0,0 mm 2,2 km/h (1 Bft) NO 53 ° 0 min 0,000 mm 0,0 UV-I 51 W/m² 5,6 °C 6,2 °C 6,4 km/h (2 Bft)
29.10.2019 10:57 6,2 °C 96 % 1018,3 hPa 0,0 mm 2,7 km/h (1 Bft) NO 53 ° 0 min 0,000 mm 0,0 UV-I 53 W/m² 5,6 °C 6,2 °C 4,8 km/h (1 Bft)
29.10.2019 10:58 6,2 °C 96 % 1018,3 hPa 0,0 mm 2,6 km/h (1 Bft) NO 53 ° 0 min 0,000 mm 0,0 UV-I 54 W/m² 5,6 °C 6,2 °C 4,8 km/h (1 Bft)
29.10.2019 10:59 6,2 °C 96 % 1018,3 hPa 0,0 mm 2,5 km/h (1 Bft) NO 53 ° 0 min 0,000 mm 0,0 UV-I 54 W/m² 5,6 °C 6,2 °C 3,2 km/h (1 Bft)
29.10.2019 11:00 6,2 °C 96 % 1018,3 hPa 0,0 mm 4,5 km/h (1 Bft) NO 53 ° 0 min 0,000 mm 0,0 UV-I 53 W/m² 5,6 °C 6,2 °C 6,4 km/h (2 Bft)
29.10.2019 11:01 6,2 °C 96 % 1018,3 hPa 0,0 mm 3,2 km/h (1 Bft) NO 53 ° 0 min 0,026 mm 0,0 UV-I 53 W/m² 5,6 °C 6,2 °C 4,8 km/h (1 Bft)
29.10.2019 11:02 6,2 °C 96 % 1018,4 hPa 0,0 mm 2,7 km/h (1 Bft) NO 53 ° 0 min 0,000 mm 0,0 UV-I 56 W/m² 5,6 °C 6,2 °C 3,2 km/h (1 Bft)
29.10.2019 11:03 6,3 °C 96 % 1018,4 hPa 0,0 mm 1,4 km/h (1 Bft) NO 53 ° 0 min 0,000 mm 0,5 UV-I 56 W/m² 5,7 °C 6,3 °C 3,2 km/h (1 Bft)
29.10.2019 11:04 6,3 °C 96 % 1018,4 hPa 0,0 mm 1,4 km/h (1 Bft) NO 53 ° 0 min 0,000 mm 0,0 UV-I 53 W/m² 5,7 °C 6,3 °C 3,2 km/h (1 Bft)
29.10.2019 11:05 6,2 °C 96 % 1018,4 hPa 0,0 mm 2,6 km/h (1 Bft) NO 53 ° 0 min 0,000 mm 0,0 UV-I 51 W/m² 5,6 °C 6,2 °C 4,8 km/h (1 Bft)
29.10.2019 11:06 6,2 °C 96 % 1018,5 hPa 0,0 mm 4,0 km/h (1 Bft) NO 53 ° 0 min 0,000 mm 0,0 UV-I 51 W/m² 5,6 °C 6,2 °C 6,4 km/h (2 Bft)
29.10.2019 11:07 6,3 °C 96 % 1018,5 hPa 0,0 mm 5,2 km/h (1 Bft) O-NO 61 ° 0 min 0,000 mm 0,0 UV-I 54 W/m² 5,7 °C 5,5 °C 6,4 km/h (2 Bft)
29.10.2019 11:08 6,2 °C 96 % 1018,4 hPa 0,0 mm 3,8 km/h (1 Bft) O-NO 61 ° 0 min 0,000 mm 0,5 UV-I 62 W/m² 5,6 °C 6,2 °C 6,4 km/h (2 Bft)
29.10.2019 11:09 6,2 °C 96 % 1018,4 hPa 0,0 mm 2,9 km/h (1 Bft) O-NO 61 ° 0 min 0,000 mm 0,5 UV-I 62 W/m² 5,6 °C 6,2 °C 4,8 km/h (1 Bft)
29.10.2019 11:10 6,2 °C 96 % 1018,4 hPa 0,0 mm 4,2 km/h (1 Bft) O-NO 62 ° 0 min 0,000 mm 0,5 UV-I 62 W/m² 5,6 °C 6,2 °C 6,4 km/h (2 Bft)
29.10.2019 11:11 6,3 °C 96 % 1018,4 hPa 0,0 mm 3,1 km/h (1 Bft) O-NO 62 ° 0 min 0,000 mm 0,5 UV-I 60 W/m² 5,7 °C 6,3 °C 4,8 km/h (1 Bft)
29.10.2019 11:12 6,2 °C 96 % 1018,4 hPa 0,0 mm 3,3 km/h (1 Bft) O-NO 62 ° 0 min 0,000 mm 0,5 UV-I 56 W/m² 5,6 °C 6,2 °C 4,8 km/h (1 Bft)
29.10.2019 11:13 6,3 °C 96 % 1018,4 hPa 0,0 mm 2,9 km/h (1 Bft) O-NO 62 ° 0 min 0,000 mm 0,0 UV-I 49 W/m² 5,7 °C 6,3 °C 3,2 km/h (1 Bft)
29.10.2019 11:14 6,3 °C 96 % 1018,5 hPa 0,0 mm 1,7 km/h (1 Bft) O-NO 62 ° 0 min 0,000 mm 0,0 UV-I 47 W/m² 5,7 °C 6,3 °C 3,2 km/h (1 Bft)
29.10.2019 11:15 6,3 °C 96 % 1018,5 hPa 0,0 mm 0,4 km/h (0 Bft) O-NO 62 ° 0 min 0,000 mm 0,0 UV-I 47 W/m² 5,7 °C 6,3 °C 1,6 km/h (1 Bft)
29.10.2019 11:16 6,3 °C 96 % 1018,4 hPa 0,0 mm 1,7 km/h (1 Bft) O-NO 62 ° 0 min 0,000 mm 0,0 UV-I 46 W/m² 5,7 °C 6,3 °C 3,2 km/h (1 Bft)
29.10.2019 11:17 6,3 °C 96 % 1018,4 hPa 0,0 mm 1,7 km/h (1 Bft) O-NO 62 ° 0 min 0,000 mm 0,0 UV-I 44 W/m² 5,7 °C 6,3 °C 3,2 km/h (1 Bft)
29.10.2019 11:18 6,3 °C 96 % 1018,5 hPa 0,0 mm 2,7 km/h (1 Bft) O-NO 62 ° 0 min 0,000 mm 0,0 UV-I 44 W/m² 5,7 °C 6,3 °C 4,8 km/h (1 Bft)
29.10.2019 11:19 6,3 °C 96 % 1018,5 hPa 0,0 mm 0,5 km/h (0 Bft) O-NO 62 ° 0 min 0,000 mm 0,0 UV-I 46 W/m² 5,7 °C 6,3 °C 1,6 km/h (1 Bft)
29.10.2019 11:20 6,3 °C 96 % 1018,6 hPa 0,0 mm 1,6 km/h (1 Bft) O-NO 62 ° 0 min 0,000 mm 0,0 UV-I 47 W/m² 5,7 °C 6,3 °C 4,8 km/h (1 Bft)
29.10.2019 11:21 6,4 °C 96 % 1018,4 hPa 0,0 mm 2,9 km/h (1 Bft) O-NO 62 ° 0 min 0,000 mm 0,0 UV-I 49 W/m² 5,8 °C 6,4 °C 4,8 km/h (1 Bft)
29.10.2019 11:22 6,4 °C 96 % 1018,5 hPa 0,0 mm 3,0 km/h (1 Bft) O-NO 62 ° 0 min 0,000 mm 0,0 UV-I 49 W/m² 5,8 °C 6,4 °C 4,8 km/h (1 Bft)
29.10.2019 11:23 6,4 °C 96 % 1018,5 hPa 0,0 mm 2,0 km/h (1 Bft) NO 47 ° 0 min 0,000 mm 0,0 UV-I 51 W/m² 5,8 °C 6,4 °C 4,8 km/h (1 Bft)
29.10.2019 11:24 6,4 °C 96 % 1018,5 hPa 0,0 mm 2,5 km/h (1 Bft) NO 47 ° 0 min 0,000 mm 0,0 UV-I 49 W/m² 5,8 °C 6,4 °C 4,8 km/h (1 Bft)
29.10.2019 11:25 6,4 °C 96 % 1018,5 hPa 0,0 mm 3,5 km/h (1 Bft) N-NO 33 ° 0 min 0,000 mm 0,0 UV-I 46 W/m² 5,8 °C 6,4 °C 6,4 km/h (2 Bft)
29.10.2019 11:26 6,4 °C 96 % 1018,5 hPa 0,0 mm 4,2 km/h (1 Bft) N-NO 33 ° 0 min 0,000 mm 0,0 UV-I 42 W/m² 5,8 °C 6,4 °C 4,8 km/h (1 Bft)
29.10.2019 11:27 6,4 °C 96 % 1018,5 hPa 0,0 mm 3,8 km/h (1 Bft) O-NO 65 ° 0 min 0,000 mm 0,0 UV-I 40 W/m² 5,8 °C 6,4 °C 6,4 km/h (2 Bft)
29.10.2019 11:28 6,4 °C 96 % 1018,5 hPa 0,0 mm 3,8 km/h (1 Bft) NO 55 ° 0 min 0,000 mm 0,0 UV-I 40 W/m² 5,8 °C 6,4 °C 6,4 km/h (2 Bft)
29.10.2019 11:29 6,4 °C 96 % 1018,6 hPa 0,0 mm 3,4 km/h (1 Bft) NO 56 ° 0 min 0,000 mm 0,0 UV-I 39 W/m² 5,8 °C 6,4 °C 4,8 km/h (1 Bft)
29.10.2019 11:30 6,4 °C 96 % 1018,6 hPa 0,0 mm 2,1 km/h (1 Bft) NO 56 ° 0 min 0,000 mm 0,0 UV-I 35 W/m² 5,8 °C 6,4 °C 4,8 km/h (1 Bft)
29.10.2019 11:31 6,3 °C 96 % 1018,6 hPa 0,0 mm 4,1 km/h (1 Bft) NO 56 ° 0 min 0,000 mm 0,0 UV-I 33 W/m² 5,7 °C 6,3 °C 6,4 km/h (2 Bft)
29.10.2019 11:32 6,4 °C 96 % 1018,6 hPa 0,0 mm 2,9 km/h (1 Bft) NO 56 ° 0 min 0,000 mm 0,0 UV-I 32 W/m² 5,8 °C 6,4 °C 4,8 km/h (1 Bft)
29.10.2019 11:33 6,4 °C 96 % 1018,6 hPa 0,0 mm 2,5 km/h (1 Bft) NO 56 ° 0 min 0,000 mm 0,0 UV-I 30 W/m² 5,8 °C 6,4 °C 4,8 km/h (1 Bft)
29.10.2019 11:34 6,4 °C 96 % 1018,6 hPa 0,0 mm 5,1 km/h (1 Bft) NO 34 ° 0 min 0,000 mm 0,0 UV-I 28 W/m² 5,8 °C 5,6 °C 8,0 km/h (2 Bft)
29.10.2019 11:35 6,3 °C 96 % 1018,6 hPa 0,0 mm 4,3 km/h (1 Bft) N-NW 340 ° 0 min 0,000 mm 0,0 UV-I 28 W/m² 5,7 °C 6,3 °C 6,4 km/h (2 Bft)
29.10.2019 11:36 6,3 °C 96 % 1018,7 hPa 0,0 mm 3,9 km/h (1 Bft) N-NW 340 ° 0 min 0,000 mm 0,0 UV-I 28 W/m² 5,7 °C 6,3 °C 4,8 km/h (1 Bft)
29.10.2019 11:37 6,3 °C 96 % 1018,7 hPa 0,0 mm 4,3 km/h (1 Bft) N-NW 345 ° 0 min 0,000 mm 0,0 UV-I 26 W/m² 5,7 °C 6,3 °C 6,4 km/h (2 Bft)
29.10.2019 11:38 6,3 °C 96 % 1018,7 hPa 0,0 mm 4,7 km/h (1 Bft) NO 39 ° 0 min 0,000 mm 0,0 UV-I 26 W/m² 5,7 °C 5,7 °C 6,4 km/h (2 Bft)
29.10.2019 11:39 6,3 °C 96 % 1018,7 hPa 0,0 mm 2,2 km/h (1 Bft) NO 41 ° 0 min 0,000 mm 0,0 UV-I 28 W/m² 5,7 °C 6,3 °C 4,8 km/h (1 Bft)
29.10.2019 11:40 6,3 °C 96 % 1018,7 hPa 0,0 mm 1,6 km/h (1 Bft) NO 41 ° 0 min 0,000 mm 0,0 UV-I 28 W/m² 5,7 °C 6,3 °C 4,8 km/h (1 Bft)
29.10.2019 11:41 6,3 °C 96 % 1018,7 hPa 0,0 mm 1,0 km/h (0 Bft) NO 43 ° 0 min 0,000 mm 0,0 UV-I 28 W/m² 5,7 °C 6,3 °C 3,2 km/h (1 Bft)
29.10.2019 11:42 6,3 °C 96 % 1018,7 hPa 0,0 mm 4,7 km/h (1 Bft) NO 46 ° 0 min 0,000 mm 0,0 UV-I 26 W/m² 5,7 °C 5,7 °C 6,4 km/h (2 Bft)
29.10.2019 11:43 6,3 °C 96 % 1018,7 hPa 0,0 mm 2,7 km/h (1 Bft) NO 46 ° 0 min 0,000 mm 0,0 UV-I 28 W/m² 5,7 °C 6,3 °C 4,8 km/h (1 Bft)
29.10.2019 11:44 6,3 °C 96 % 1018,7 hPa 0,0 mm 3,2 km/h (1 Bft) NO 46 ° 0 min 0,000 mm 0,0 UV-I 30 W/m² 5,7 °C 6,3 °C 6,4 km/h (2 Bft)
29.10.2019 11:45 6,3 °C 96 % 1018,8 hPa 0,0 mm 4,0 km/h (1 Bft) N-NO 16 ° 0 min 0,000 mm 0,0 UV-I 33 W/m² 5,7 °C 6,3 °C 6,4 km/h (2 Bft)
29.10.2019 11:46 6,3 °C 96 % 1018,7 hPa 0,0 mm 2,0 km/h (1 Bft) N-NO 26 ° 0 min 0,000 mm 0,0 UV-I 35 W/m² 5,7 °C 6,3 °C 3,2 km/h (1 Bft)
29.10.2019 11:47 6,3 °C 96 % 1018,7 hPa 0,0 mm 3,5 km/h (1 Bft) N-NO 28 ° 0 min 0,000 mm 0,0 UV-I 39 W/m² 5,7 °C 6,3 °C 6,4 km/h (2 Bft)
29.10.2019 11:48 6,3 °C 96 % 1018,7 hPa 0,0 mm 4,6 km/h (1 Bft) NO 47 ° 0 min 0,000 mm 0,0 UV-I 40 W/m² 5,7 °C 5,7 °C 6,4 km/h (2 Bft)
29.10.2019 11:49 6,3 °C 96 % 1018,7 hPa 0,0 mm 5,2 km/h (1 Bft) N-NO 33 ° 0 min 0,000 mm 0,0 UV-I 47 W/m² 5,7 °C 5,5 °C 9,7 km/h (2 Bft)
29.10.2019 11:50 6,3 °C 96 % 1018,7 hPa 0,0 mm 3,8 km/h (1 Bft) O-NO 64 ° 0 min 0,000 mm 0,0 UV-I 49 W/m² 5,7 °C 6,3 °C 4,8 km/h (1 Bft)
29.10.2019 11:51 6,3 °C 96 % 1018,8 hPa 0,0 mm 4,8 km/h (1 Bft) O-SO 107 ° 0 min 0,000 mm 0,0 UV-I 51 W/m² 5,7 °C 5,6 °C 9,7 km/h (2 Bft)
29.10.2019 11:52 6,3 °C 96 % 1018,8 hPa 0,0 mm 5,8 km/h (2 Bft) O-NO 68 ° 0 min 0,000 mm 0,0 UV-I 51 W/m² 5,7 °C 5,3 °C 9,7 km/h (2 Bft)
29.10.2019 11:53 6,3 °C 96 % 1018,8 hPa 0,0 mm 3,6 km/h (1 Bft) O-NO 63 ° 0 min 0,000 mm 0,0 UV-I 51 W/m² 5,7 °C 6,3 °C 4,8 km/h (1 Bft)
29.10.2019 11:54 6,3 °C 96 % 1018,8 hPa 0,0 mm 3,0 km/h (1 Bft) O-NO 63 ° 0 min 0,000 mm 0,0 UV-I 51 W/m² 5,7 °C 6,3 °C 4,8 km/h (1 Bft)
29.10.2019 11:55 6,3 °C 96 % 1018,8 hPa 0,0 mm 3,9 km/h (1 Bft) O-NO 62 ° 0 min 0,000 mm 0,0 UV-I 51 W/m² 5,7 °C 6,3 °C 8,0 km/h (2 Bft)
29.10.2019 11:56 6,3 °C 96 % 1018,8 hPa 0,0 mm 1,7 km/h (1 Bft) O-NO 62 ° 0 min 0,000 mm 0,0 UV-I 51 W/m² 5,7 °C 6,3 °C 3,2 km/h (1 Bft)
29.10.2019 11:57 6,3 °C 96 % 1018,8 hPa 0,0 mm 3,6 km/h (1 Bft) O-NO 74 ° 0 min 0,000 mm 0,0 UV-I 51 W/m² 5,7 °C 6,3 °C 4,8 km/h (1 Bft)
29.10.2019 11:58 6,3 °C 96 % 1018,8 hPa 0,0 mm 3,6 km/h (1 Bft) O 88 ° 0 min 0,000 mm 0,0 UV-I 49 W/m² 5,7 °C 6,3 °C 4,8 km/h (1 Bft)
29.10.2019 11:59 6,3 °C 96 % 1018,8 hPa 0,0 mm 5,0 km/h (1 Bft) NO 40 ° 0 min 0,000 mm 0,0 UV-I 49 W/m² 5,7 °C 5,6 °C 6,4 km/h (2 Bft)
29.10.2019 12:00 6,3 °C 96 % 1018,8 hPa 0,0 mm 4,2 km/h (1 Bft) NO 40 ° 0 min 0,000 mm 0,0 UV-I 49 W/m² 5,7 °C 6,3 °C 4,8 km/h (1 Bft)
29.10.2019 12:01 6,3 °C 96 % 1018,8 hPa 0,0 mm 3,4 km/h (1 Bft) NO 53 ° 0 min 0,025 mm 0,0 UV-I 44 W/m² 5,7 °C 6,3 °C 4,8 km/h (1 Bft)
29.10.2019 12:02 6,2 °C 96 % 1018,8 hPa 0,0 mm 2,9 km/h (1 Bft) O-NO 64 ° 0 min 0,000 mm 0,0 UV-I 40 W/m² 5,6 °C 6,2 °C 6,4 km/h (2 Bft)
29.10.2019 12:03 6,2 °C 96 % 1018,8 hPa 0,0 mm 4,5 km/h (1 Bft) O-NO 76 ° 0 min 0,000 mm 0,0 UV-I 37 W/m² 5,6 °C 6,2 °C 6,4 km/h (2 Bft)
29.10.2019 12:04 6,2 °C 96 % 1018,8 hPa 0,0 mm 1,9 km/h (1 Bft) O-NO 76 ° 0 min 0,000 mm 0,0 UV-I 37 W/m² 5,6 °C 6,2 °C 3,2 km/h (1 Bft)
29.10.2019 12:05 6,3 °C 96 % 1018,8 hPa 0,0 mm 2,8 km/h (1 Bft) O-NO 76 ° 0 min 0,000 mm 0,0 UV-I 39 W/m² 5,7 °C 6,3 °C 4,8 km/h (1 Bft)
29.10.2019 12:06 6,2 °C 96 % 1018,8 hPa 0,0 mm 3,1 km/h (1 Bft) O-NO 74 ° 0 min 0,000 mm 0,0 UV-I 40 W/m² 5,6 °C 6,2 °C 4,8 km/h (1 Bft)
29.10.2019 12:07 6,2 °C 96 % 1018,8 hPa 0,0 mm 5,2 km/h (1 Bft) O-NO 67 ° 0 min 0,000 mm 0,0 UV-I 42 W/m² 5,6 °C 5,4 °C 8,0 km/h (2 Bft)
29.10.2019 12:08 6,2 °C 96 % 1018,9 hPa 0,0 mm 5,1 km/h (1 Bft) O-NO 67 ° 0 min 0,000 mm 0,0 UV-I 40 W/m² 5,6 °C 5,4 °C 6,4 km/h (2 Bft)
29.10.2019 12:09 6,2 °C 96 % 1018,9 hPa 0,0 mm 4,3 km/h (1 Bft) O-NO 66 ° 0 min 0,000 mm 0,0 UV-I 40 W/m² 5,6 °C 6,2 °C 6,4 km/h (2 Bft)
29.10.2019 12:10 6,2 °C 96 % 1018,8 hPa 0,0 mm 3,0 km/h (1 Bft) O-NO 66 ° 0 min 0,000 mm 0,0 UV-I 40 W/m² 5,6 °C 6,2 °C 4,8 km/h (1 Bft)
29.10.2019 12:11 6,2 °C 96 % 1018,8 hPa 0,0 mm 4,7 km/h (1 Bft) O-NO 76 ° 0 min 0,000 mm 0,0 UV-I 39 W/m² 5,6 °C 5,6 °C 8,0 km/h (2 Bft)
29.10.2019 12:12 6,2 °C 96 % 1018,9 hPa 0,0 mm 3,9 km/h (1 Bft) NO 55 ° 0 min 0,000 mm 0,0 UV-I 33 W/m² 5,6 °C 6,2 °C 4,8 km/h (1 Bft)
29.10.2019 12:13 6,2 °C 96 % 1018,8 hPa 0,0 mm 1,0 km/h (0 Bft) NO 55 ° 0 min 0,000 mm 0,0 UV-I 33 W/m² 5,6 °C 6,2 °C 3,2 km/h (1 Bft)
29.10.2019 12:14 6,2 °C 96 % 1018,8 hPa 0,0 mm 0,3 km/h (0 Bft) NO 55 ° 0 min 0,000 mm 0,0 UV-I 33 W/m² 5,6 °C 6,2 °C 1,6 km/h (1 Bft)
29.10.2019 12:15 6,2 °C 96 % 1018,8 hPa 0,0 mm 4,4 km/h (1 Bft) O 86 ° 0 min 0,000 mm 0,0 UV-I 37 W/m² 5,6 °C 6,2 °C 9,7 km/h (2 Bft)
29.10.2019 12:16 6,2 °C 96 % 1018,8 hPa 0,0 mm 4,0 km/h (1 Bft) O 88 ° 0 min 0,000 mm 0,0 UV-I 42 W/m² 5,6 °C 6,2 °C 6,4 km/h (2 Bft)
29.10.2019 12:17 6,2 °C 96 % 1018,8 hPa 0,0 mm 5,0 km/h (1 Bft) O-NO 69 ° 0 min 0,000 mm 0,0 UV-I 46 W/m² 5,6 °C 5,4 °C 6,4 km/h (2 Bft)
29.10.2019 12:18 6,2 °C 96 % 1018,8 hPa 0,0 mm 6,6 km/h (2 Bft) O-SO 104 ° 0 min 0,000 mm 0,0 UV-I 56 W/m² 5,6 °C 4,9 °C 11,3 km/h (2 Bft)
29.10.2019 12:19 6,2 °C 96 % 1018,8 hPa 0,0 mm 4,4 km/h (1 Bft) O-NO 78 ° 0 min 0,000 mm 0,6 UV-I 63 W/m² 5,6 °C 6,2 °C 4,8 km/h (1 Bft)
29.10.2019 12:20 6,2 °C 96 % 1018,8 hPa 0,0 mm 3,3 km/h (1 Bft) O 79 ° 0 min 0,000 mm 0,7 UV-I 70 W/m² 5,6 °C 6,2 °C 4,8 km/h (1 Bft)
29.10.2019 12:21 6,2 °C 96 % 1018,8 hPa 0,0 mm 4,0 km/h (1 Bft) O 96 ° 0 min 0,000 mm 0,7 UV-I 76 W/m² 5,6 °C 6,2 °C 8,0 km/h (2 Bft)
29.10.2019 12:22 6,2 °C 96 % 1018,8 hPa 0,0 mm 1,5 km/h (1 Bft) O 96 ° 0 min 0,000 mm 0,7 UV-I 77 W/m² 5,6 °C 6,2 °C 3,2 km/h (1 Bft)
29.10.2019 12:23 6,2 °C 96 % 1018,8 hPa 0,0 mm 1,7 km/h (1 Bft) O-NO 68 ° 0 min 0,000 mm 0,7 UV-I 76 W/m² 5,6 °C 6,2 °C 3,2 km/h (1 Bft)
29.10.2019 12:24 6,2 °C 96 % 1018,8 hPa 0,0 mm 4,0 km/h (1 Bft) O 80 ° 0 min 0,000 mm 0,7 UV-I 67 W/m² 5,6 °C 6,2 °C 6,4 km/h (2 Bft)
29.10.2019 12:25 6,2 °C 96 % 1018,8 hPa 0,0 mm 3,3 km/h (1 Bft) NO 42 ° 0 min 0,000 mm 0,6 UV-I 62 W/m² 5,6 °C 6,2 °C 4,8 km/h (1 Bft)
29.10.2019 12:26 6,2 °C 96 % 1018,9 hPa 0,0 mm 2,4 km/h (1 Bft) NO 44 ° 0 min 0,000 mm 0,6 UV-I 60 W/m² 5,6 °C 6,2 °C 6,4 km/h (2 Bft)
29.10.2019 12:27 6,2 °C 96 % 1018,9 hPa 0,0 mm 2,7 km/h (1 Bft) O-NO 65 ° 0 min 0,000 mm 0,5 UV-I 58 W/m² 5,6 °C 6,2 °C 6,4 km/h (2 Bft)
29.10.2019 12:28 6,2 °C 96 % 1018,9 hPa 0,0 mm 1,2 km/h (1 Bft) O-NO 65 ° 0 min 0,000 mm 0,6 UV-I 60 W/m² 5,6 °C 6,2 °C 4,8 km/h (1 Bft)
29.10.2019 12:29 6,2 °C 96 % 1018,9 hPa 0,0 mm 0,9 km/h (0 Bft) O-NO 65 ° 0 min 0,000 mm 0,6 UV-I 62 W/m² 5,6 °C 6,2 °C 3,2 km/h (1 Bft)
29.10.2019 12:30 6,3 °C 96 % 1018,9 hPa 0,0 mm 1,2 km/h (1 Bft) O-NO 58 ° 0 min 0,000 mm 0,6 UV-I 58 W/m² 5,7 °C 6,3 °C 4,8 km/h (1 Bft)
29.10.2019 12:31 6,2 °C 96 % 1018,9 hPa 0,0 mm 4,8 km/h (1 Bft) NO 53 ° 0 min 0,000 mm 0,0 UV-I 53 W/m² 5,6 °C 5,5 °C 8,0 km/h (2 Bft)
29.10.2019 12:32 6,2 °C 96 % 1018,9 hPa 0,0 mm 3,8 km/h (1 Bft) NO 53 ° 0 min 0,000 mm 0,0 UV-I 49 W/m² 5,6 °C 6,2 °C 6,4 km/h (2 Bft)
29.10.2019 12:33 6,3 °C 96 % 1018,9 hPa 0,0 mm 4,8 km/h (1 Bft) NO 45 ° 0 min 0,000 mm 0,0 UV-I 49 W/m² 5,7 °C 5,6 °C 8,0 km/h (2 Bft)
29.10.2019 12:34 6,2 °C 96 % 1018,9 hPa 0,0 mm 4,1 km/h (1 Bft) O-NO 74 ° 0 min 0,000 mm 0,0 UV-I 46 W/m² 5,6 °C 6,2 °C 8,0 km/h (2 Bft)
29.10.2019 12:35 6,2 °C 96 % 1018,9 hPa 0,0 mm 4,8 km/h (1 Bft) NO 55 ° 0 min 0,000 mm 0,0 UV-I 42 W/m² 5,6 °C 5,5 °C 6,4 km/h (2 Bft)
29.10.2019 12:36 6,2 °C 96 % 1018,9 hPa 0,0 mm 6,2 km/h (2 Bft) O-NO 67 ° 0 min 0,000 mm 0,0 UV-I 42 W/m² 5,6 °C 5,0 °C 8,0 km/h (2 Bft)
29.10.2019 12:37 6,2 °C 96 % 1018,9 hPa 0,0 mm 5,5 km/h (1 Bft) NO 46 ° 0 min 0,000 mm 0,0 UV-I 47 W/m² 5,6 °C 5,3 °C 6,4 km/h (2 Bft)
29.10.2019 12:38 6,2 °C 96 % 1018,9 hPa 0,0 mm 3,1 km/h (1 Bft) O 89 ° 0 min 0,000 mm 0,0 UV-I 51 W/m² 5,6 °C 6,2 °C 4,8 km/h (1 Bft)
29.10.2019 12:39 6,2 °C 96 % 1018,9 hPa 0,0 mm 2,6 km/h (1 Bft) NO 43 ° 0 min 0,000 mm 0,0 UV-I 51 W/m² 5,6 °C 6,2 °C 4,8 km/h (1 Bft)
29.10.2019 12:40 6,2 °C 96 % 1018,9 hPa 0,0 mm 6,2 km/h (2 Bft) N-NO 25 ° 0 min 0,000 mm 0,6 UV-I 60 W/m² 5,6 °C 5,0 °C 8,0 km/h (2 Bft)
29.10.2019 12:41 6,2 °C 96 % 1018,9 hPa 0,0 mm 2,9 km/h (1 Bft) N-NO 25 ° 0 min 0,000 mm 0,6 UV-I 69 W/m² 5,6 °C 6,2 °C 4,8 km/h (1 Bft)
29.10.2019 12:42 6,2 °C 96 % 1018,9 hPa 0,0 mm 3,6 km/h (1 Bft) O-NO 67 ° 0 min 0,000 mm 0,7 UV-I 79 W/m² 5,6 °C 6,2 °C 6,4 km/h (2 Bft)
29.10.2019 12:43 6,2 °C 96 % 1018,9 hPa 0,0 mm 7,4 km/h (2 Bft) O-NO 57 ° 0 min 0,000 mm 0,7 UV-I 79 W/m² 5,6 °C 4,7 °C 9,7 km/h (2 Bft)
29.10.2019 12:44 6,2 °C 96 % 1018,9 hPa 0,0 mm 4,2 km/h (1 Bft) O-NO 57 ° 0 min 0,000 mm 0,6 UV-I 72 W/m² 5,6 °C 6,2 °C 6,4 km/h (2 Bft)
29.10.2019 12:45 6,2 °C 96 % 1018,9 hPa 0,0 mm 3,1 km/h (1 Bft) O-NO 57 ° 0 min 0,000 mm 0,6 UV-I 70 W/m² 5,6 °C 6,2 °C 6,4 km/h (2 Bft)
29.10.2019 12:46 6,2 °C 96 % 1018,9 hPa 0,0 mm 1,6 km/h (1 Bft) O-NO 57 ° 0 min 0,000 mm 0,6 UV-I 70 W/m² 5,6 °C 6,2 °C 3,2 km/h (1 Bft)
29.10.2019 12:47 6,2 °C 96 % 1018,9 hPa 0,0 mm 2,4 km/h (1 Bft) O-NO 57 ° 0 min 0,000 mm 0,6 UV-I 63 W/m² 5,6 °C 6,2 °C 4,8 km/h (1 Bft)
29.10.2019 12:48 6,2 °C 96 % 1018,9 hPa 0,0 mm 4,8 km/h (1 Bft) O-NO 57 ° 0 min 0,000 mm 0,5 UV-I 58 W/m² 5,6 °C 5,5 °C 6,4 km/h (2 Bft)
29.10.2019 12:49 6,2 °C 96 % 1018,9 hPa 0,0 mm 3,7 km/h (1 Bft) O 80 ° 0 min 0,000 mm 0,5 UV-I 58 W/m² 5,6 °C 6,2 °C 6,4 km/h (2 Bft)
29.10.2019 12:50 6,2 °C 96 % 1018,8 hPa 0,0 mm 6,0 km/h (2 Bft) O-NO 64 ° 0 min 0,000 mm 0,5 UV-I 56 W/m² 5,6 °C 5,1 °C 8,0 km/h (2 Bft)
29.10.2019 12:51 6,2 °C 96 % 1018,9 hPa 0,0 mm 5,0 km/h (1 Bft) NO 45 ° 0 min 0,000 mm 0,5 UV-I 56 W/m² 5,6 °C 5,4 °C 8,0 km/h (2 Bft)
29.10.2019 12:52 6,2 °C 96 % 1018,9 hPa 0,0 mm 3,8 km/h (1 Bft) O-NO 69 ° 0 min 0,000 mm 0,5 UV-I 58 W/m² 5,6 °C 6,2 °C 8,0 km/h (2 Bft)
29.10.2019 12:53 6,2 °C 96 % 1018,9 hPa 0,0 mm 3,1 km/h (1 Bft) O-NO 70 ° 0 min 0,000 mm 0,0 UV-I 49 W/m² 5,6 °C 6,2 °C 6,4 km/h (2 Bft)
29.10.2019 12:54 6,3 °C 96 % 1018,9 hPa 0,0 mm 3,2 km/h (1 Bft) O-NO 69 ° 0 min 0,000 mm 0,0 UV-I 47 W/m² 5,7 °C 6,3 °C 4,8 km/h (1 Bft)
29.10.2019 12:55 6,2 °C 96 % 1018,9 hPa 0,0 mm 5,3 km/h (1 Bft) NO 41 ° 0 min 0,000 mm 0,0 UV-I 44 W/m² 5,6 °C 5,3 °C 8,0 km/h (2 Bft)
29.10.2019 12:56 6,2 °C 96 % 1018,9 hPa 0,0 mm 6,3 km/h (2 Bft) NO 47 ° 0 min 0,000 mm 0,0 UV-I 42 W/m² 5,6 °C 5,0 °C 11,3 km/h (2 Bft)
29.10.2019 12:57 6,2 °C 96 % 1018,9 hPa 0,0 mm 4,7 km/h (1 Bft) NO 38 ° 0 min 0,000 mm 0,0 UV-I 46 W/m² 5,6 °C 5,6 °C 6,4 km/h (2 Bft)
29.10.2019 12:58 6,2 °C 96 % 1018,9 hPa 0,0 mm 6,6 km/h (2 Bft) NO 55 ° 0 min 0,000 mm 0,0 UV-I 51 W/m² 5,6 °C 4,9 °C 9,7 km/h (2 Bft)
29.10.2019 12:59 6,2 °C 96 % 1018,9 hPa 0,0 mm 4,6 km/h (1 Bft) NO 45 ° 0 min 0,000 mm 0,6 UV-I 74 W/m² 5,6 °C 5,6 °C 8,0 km/h (2 Bft)
29.10.2019 13:00 6,2 °C 96 % 1018,9 hPa 0,0 mm 4,4 km/h (1 Bft) NO 38 ° 0 min 0,026 mm 0,8 UV-I 88 W/m² 5,6 °C 6,2 °C 8,0 km/h (2 Bft)
29.10.2019 13:01 6,2 °C 96 % 1018,9 hPa 0,0 mm 3,5 km/h (1 Bft) O-NO 61 ° 0 min 0,000 mm 0,9 UV-I 102 W/m² 5,6 °C 6,2 °C 6,4 km/h (2 Bft)
29.10.2019 13:02 6,2 °C 96 % 1018,9 hPa 0,0 mm 1,8 km/h (1 Bft) O-NO 60 ° 0 min 0,000 mm 0,9 UV-I 105 W/m² 5,6 °C 6,2 °C 4,8 km/h (1 Bft)
29.10.2019 13:03 6,2 °C 96 % 1018,9 hPa 0,0 mm 5,8 km/h (2 Bft) O-NO 74 ° 0 min 0,000 mm 0,8 UV-I 100 W/m² 5,6 °C 5,2 °C 11,3 km/h (2 Bft)
29.10.2019 13:04 6,2 °C 96 % 1018,9 hPa 0,0 mm 7,5 km/h (2 Bft) O 79 ° 0 min 0,000 mm 0,8 UV-I 97 W/m² 5,6 °C 4,7 °C 12,9 km/h (3 Bft)
29.10.2019 13:05 6,2 °C 96 % 1018,9 hPa 0,0 mm 6,2 km/h (2 Bft) O-NO 74 ° 0 min 0,000 mm 0,8 UV-I 97 W/m² 5,6 °C 5,0 °C 9,7 km/h (2 Bft)
29.10.2019 13:06 6,2 °C 96 % 1018,9 hPa 0,0 mm 5,0 km/h (1 Bft) O 94 ° 0 min 0,000 mm 0,7 UV-I 91 W/m² 5,6 °C 5,4 °C 6,4 km/h (2 Bft)
29.10.2019 13:07 6,2 °C 96 % 1018,9 hPa 0,0 mm 4,0 km/h (1 Bft) O 93 ° 0 min 0,000 mm 0,6 UV-I 81 W/m² 5,6 °C 6,2 °C 6,4 km/h (2 Bft)
29.10.2019 13:08 6,2 °C 96 % 1018,9 hPa 0,0 mm 4,7 km/h (1 Bft) NO 42 ° 0 min 0,000 mm 0,6 UV-I 74 W/m² 5,6 °C 5,6 °C 4,8 km/h (1 Bft)
29.10.2019 13:09 6,2 °C 96 % 1018,9 hPa 0,0 mm 4,1 km/h (1 Bft) NO 43 ° 0 min 0,000 mm 0,5 UV-I 65 W/m² 5,6 °C 6,2 °C 4,8 km/h (1 Bft)
29.10.2019 13:10 6,2 °C 96 % 1018,9 hPa 0,0 mm 4,8 km/h (1 Bft) NO 43 ° 0 min 0,000 mm 0,5 UV-I 62 W/m² 5,6 °C 5,5 °C 6,4 km/h (2 Bft)
29.10.2019 13:11 6,2 °C 96 % 1018,8 hPa 0,0 mm 5,6 km/h (1 Bft) O-NO 59 ° 0 min 0,000 mm 0,5 UV-I 63 W/m² 5,6 °C 5,2 °C 8,0 km/h (2 Bft)
29.10.2019 13:12 6,2 °C 96 % 1018,9 hPa 0,0 mm 4,9 km/h (1 Bft) O 88 ° 0 min 0,000 mm 0,5 UV-I 60 W/m² 5,6 °C 5,5 °C 6,4 km/h (2 Bft)
29.10.2019 13:13 6,2 °C 96 % 1018,8 hPa 0,0 mm 3,8 km/h (1 Bft) O-NO 71 ° 0 min 0,000 mm 0,5 UV-I 58 W/m² 5,6 °C 6,2 °C 4,8 km/h (1 Bft)
29.10.2019 13:14 6,2 °C 96 % 1018,9 hPa 0,0 mm 2,7 km/h (1 Bft) O-NO 71 ° 0 min 0,000 mm 0,5 UV-I 56 W/m² 5,6 °C 6,2 °C 4,8 km/h (1 Bft)
29.10.2019 13:15 6,2 °C 96 % 1018,9 hPa 0,0 mm 3,7 km/h (1 Bft) O-NO 78 ° 0 min 0,000 mm 0,5 UV-I 58 W/m² 5,6 °C 6,2 °C 8,0 km/h (2 Bft)
29.10.2019 13:16 6,2 °C 96 % 1018,9 hPa 0,0 mm 5,0 km/h (1 Bft) O-NO 70 ° 0 min 0,000 mm 0,0 UV-I 54 W/m² 5,6 °C 5,4 °C 8,0 km/h (2 Bft)
29.10.2019 13:17 6,2 °C 96 % 1018,9 hPa 0,0 mm 5,2 km/h (1 Bft) O 81 ° 0 min 0,000 mm 0,0 UV-I 53 W/m² 5,6 °C 5,4 °C 6,4 km/h (2 Bft)
29.10.2019 13:18 6,2 °C 96 % 1018,9 hPa 0,0 mm 5,2 km/h (1 Bft) O-NO 76 ° 0 min 0,000 mm 0,0 UV-I 51 W/m² 5,6 °C 5,4 °C 8,0 km/h (2 Bft)
29.10.2019 13:19 6,2 °C 96 % 1018,8 hPa 0,0 mm 5,2 km/h (1 Bft) O-NO 78 ° 0 min 0,000 mm 0,0 UV-I 51 W/m² 5,6 °C 5,4 °C 8,0 km/h (2 Bft)
29.10.2019 13:20 6,2 °C 96 % 1018,9 hPa 0,0 mm 4,3 km/h (1 Bft) NO 44 ° 0 min 0,000 mm 0,0 UV-I 53 W/m² 5,6 °C 6,2 °C 6,4 km/h (2 Bft)
29.10.2019 13:21 6,2 °C 96 % 1018,9 hPa 0,0 mm 5,0 km/h (1 Bft) O 90 ° 0 min 0,000 mm 0,0 UV-I 53 W/m² 5,6 °C 5,4 °C 9,7 km/h (2 Bft)
29.10.2019 13:22 6,2 °C 96 % 1018,9 hPa 0,0 mm 6,4 km/h (2 Bft) O-NO 60 ° 0 min 0,000 mm 0,0 UV-I 54 W/m² 5,6 °C 5,0 °C 12,9 km/h (3 Bft)
29.10.2019 13:23 6,2 °C 96 % 1018,8 hPa 0,0 mm 5,2 km/h (1 Bft) O-NO 58 ° 0 min 0,000 mm 0,0 UV-I 54 W/m² 5,6 °C 5,4 °C 8,0 km/h (2 Bft)
29.10.2019 13:24 6,1 °C 96 % 1018,8 hPa 0,0 mm 6,2 km/h (2 Bft) NO 55 ° 0 min 0,000 mm 0,5 UV-I 60 W/m² 5,5 °C 4,9 °C 9,7 km/h (2 Bft)
29.10.2019 13:25 6,1 °C 96 % 1018,8 hPa 0,0 mm 4,8 km/h (1 Bft) O 88 ° 0 min 0,000 mm 0,0 UV-I 60 W/m² 5,5 °C 5,4 °C 8,0 km/h (2 Bft)
29.10.2019 13:26 6,1 °C 96 % 1018,8 hPa 0,0 mm 4,0 km/h (1 Bft) O 87 ° 0 min 0,000 mm 0,0 UV-I 58 W/m² 5,5 °C 6,1 °C 9,7 km/h (2 Bft)
29.10.2019 13:27 6,2 °C 96 % 1018,9 hPa 0,0 mm 4,1 km/h (1 Bft) O 79 ° 0 min 0,000 mm 0,0 UV-I 54 W/m² 5,6 °C 6,2 °C 4,8 km/h (1 Bft)
29.10.2019 13:28 6,1 °C 96 % 1018,9 hPa 0,0 mm 5,3 km/h (1 Bft) O-NO 78 ° 0 min 0,000 mm 0,0 UV-I 53 W/m² 5,5 °C 5,2 °C 8,0 km/h (2 Bft)
29.10.2019 13:29 6,1 °C 96 % 1018,8 hPa 0,0 mm 3,5 km/h (1 Bft) O-NO 78 ° 0 min 0,000 mm 0,0 UV-I 54 W/m² 5,5 °C 6,1 °C 4,8 km/h (1 Bft)
29.10.2019 13:30 6,1 °C 96 % 1018,9 hPa 0,0 mm 3,1 km/h (1 Bft) O-NO 77 ° 0 min 0,000 mm 0,0 UV-I 49 W/m² 5,5 °C 6,1 °C 4,8 km/h (1 Bft)
29.10.2019 13:31 6,1 °C 96 % 1018,8 hPa 0,0 mm 3,1 km/h (1 Bft) O 83 ° 0 min 0,000 mm 0,0 UV-I 46 W/m² 5,5 °C 6,1 °C 4,8 km/h (1 Bft)
29.10.2019 13:32 6,1 °C 96 % 1018,8 hPa 0,0 mm 5,0 km/h (1 Bft) O 81 ° 0 min 0,000 mm 0,0 UV-I 47 W/m² 5,5 °C 5,3 °C 6,4 km/h (2 Bft)
29.10.2019 13:33 6,1 °C 96 % 1018,9 hPa 0,0 mm 5,5 km/h (1 Bft) O-NO 67 ° 0 min 0,000 mm 0,0 UV-I 49 W/m² 5,5 °C 5,2 °C 6,4 km/h (2 Bft)
29.10.2019 13:34 6,1 °C 96 % 1018,9 hPa 0,0 mm 3,5 km/h (1 Bft) NO 38 ° 0 min 0,000 mm 0,0 UV-I 47 W/m² 5,5 °C 6,1 °C 6,4 km/h (2 Bft)
29.10.2019 13:35 6,1 °C 96 % 1018,9 hPa 0,0 mm 3,4 km/h (1 Bft) N-NO 17 ° 0 min 0,000 mm 0,0 UV-I 44 W/m² 5,5 °C 6,1 °C 6,4 km/h (2 Bft)
29.10.2019 13:36 6,1 °C 96 % 1018,9 hPa 0,0 mm 3,3 km/h (1 Bft) N-NO 23 ° 0 min 0,000 mm 0,0 UV-I 44 W/m² 5,5 °C 6,1 °C 4,8 km/h (1 Bft)
29.10.2019 13:37 6,1 °C 96 % 1018,8 hPa 0,0 mm 0,2 km/h (0 Bft) N-NO 23 ° 0 min 0,000 mm 0,0 UV-I 44 W/m² 5,5 °C 6,1 °C 1,6 km/h (1 Bft)
29.10.2019 13:38 6,2 °C 96 % 1018,8 hPa 0,0 mm 1,9 km/h (1 Bft) O-NO 59 ° 0 min 0,000 mm 0,0 UV-I 44 W/m² 5,6 °C 6,2 °C 4,8 km/h (1 Bft)
29.10.2019 13:39 6,1 °C 96 % 1018,9 hPa 0,0 mm 2,3 km/h (1 Bft) O-NO 57 ° 0 min 0,000 mm 0,0 UV-I 40 W/m² 5,5 °C 6,1 °C 4,8 km/h (1 Bft)
29.10.2019 13:40 6,2 °C 96 % 1018,9 hPa 0,0 mm 3,7 km/h (1 Bft) O-SO 103 ° 0 min 0,000 mm 0,0 UV-I 47 W/m² 5,6 °C 6,2 °C 11,3 km/h (2 Bft)
29.10.2019 13:41 6,1 °C 96 % 1018,9 hPa 0,0 mm 6,0 km/h (2 Bft) O-NO 65 ° 0 min 0,000 mm 0,0 UV-I 49 W/m² 5,5 °C 5,0 °C 11,3 km/h (2 Bft)
29.10.2019 13:42 6,1 °C 96 % 1018,9 hPa 0,0 mm 5,4 km/h (1 Bft) O-NO 65 ° 0 min 0,000 mm 0,0 UV-I 49 W/m² 5,5 °C 5,2 °C 9,7 km/h (2 Bft)
29.10.2019 13:43 6,1 °C 96 % 1018,9 hPa 0,0 mm 3,9 km/h (1 Bft) O 101 ° 0 min 0,000 mm 0,0 UV-I 49 W/m² 5,5 °C 6,1 °C 4,8 km/h (1 Bft)
29.10.2019 13:44 6,1 °C 96 % 1018,9 hPa 0,0 mm 3,8 km/h (1 Bft) O-NO 69 ° 0 min 0,000 mm 0,0 UV-I 49 W/m² 5,5 °C 6,1 °C 6,4 km/h (2 Bft)
29.10.2019 13:45 6,1 °C 96 % 1018,9 hPa 0,0 mm 1,7 km/h (1 Bft) O-NO 69 ° 0 min 0,000 mm 0,0 UV-I 46 W/m² 5,5 °C 6,1 °C 4,8 km/h (1 Bft)
29.10.2019 13:46 6,1 °C 96 % 1018,9 hPa 0,0 mm 4,8 km/h (1 Bft) O 92 ° 0 min 0,000 mm 0,0 UV-I 39 W/m² 5,5 °C 5,4 °C 11,3 km/h (2 Bft)
29.10.2019 13:47 6,1 °C 96 % 1018,9 hPa 0,0 mm 6,2 km/h (2 Bft) O 87 ° 0 min 0,000 mm 0,0 UV-I 37 W/m² 5,5 °C 4,9 °C 11,3 km/h (2 Bft)
29.10.2019 13:48 6,1 °C 96 % 1018,9 hPa 0,0 mm 5,5 km/h (1 Bft) O-NO 74 ° 0 min 0,000 mm 0,0 UV-I 33 W/m² 5,5 °C 5,2 °C 6,4 km/h (2 Bft)
29.10.2019 13:49 6,1 °C 96 % 1018,9 hPa 0,0 mm 5,5 km/h (1 Bft) O 80 ° 0 min 0,000 mm 0,0 UV-I 33 W/m² 5,5 °C 5,2 °C 8,0 km/h (2 Bft)
29.10.2019 13:50 6,1 °C 96 % 1018,9 hPa 0,0 mm 4,2 km/h (1 Bft) NO 50 ° 0 min 0,000 mm 0,0 UV-I 33 W/m² 5,5 °C 6,1 °C 8,0 km/h (2 Bft)
29.10.2019 13:51 6,0 °C 96 % 1019,0 hPa 0,0 mm 2,5 km/h (1 Bft) NO 50 ° 0 min 0,000 mm 0,0 UV-I 33 W/m² 5,4 °C 6,0 °C 3,2 km/h (1 Bft)
29.10.2019 13:52 6,0 °C 96 % 1019,0 hPa 0,0 mm 1,6 km/h (1 Bft) O-NO 71 ° 0 min 0,000 mm 0,0 UV-I 33 W/m² 5,4 °C 6,0 °C 4,8 km/h (1 Bft)
29.10.2019 13:53 6,1 °C 96 % 1019,0 hPa 0,0 mm 2,3 km/h (1 Bft) NO 54 ° 0 min 0,000 mm 0,0 UV-I 35 W/m² 5,5 °C 6,1 °C 4,8 km/h (1 Bft)
29.10.2019 13:54 6,1 °C 96 % 1019,0 hPa 0,0 mm 6,4 km/h (2 Bft) NO 44 ° 0 min 0,000 mm 0,0 UV-I 37 W/m² 5,5 °C 4,9 °C 8,0 km/h (2 Bft)
29.10.2019 13:55 6,0 °C 96 % 1019,0 hPa 0,0 mm 8,4 km/h (2 Bft) NO 54 ° 0 min 0,000 mm 0,0 UV-I 35 W/m² 5,4 °C 4,2 °C 11,3 km/h (2 Bft)
29.10.2019 13:56 6,0 °C 96 % 1019,0 hPa 0,0 mm 6,1 km/h (2 Bft) O-NO 63 ° 0 min 0,000 mm 0,0 UV-I 33 W/m² 5,4 °C 4,8 °C 9,7 km/h (2 Bft)
29.10.2019 13:57 5,9 °C 96 % 1019,1 hPa 0,0 mm 9,4 km/h (2 Bft) O-NO 68 ° 0 min 0,000 mm 0,0 UV-I 35 W/m² 5,3 °C 3,9 °C 12,9 km/h (3 Bft)
29.10.2019 13:58 5,9 °C 96 % 1019,1 hPa 0,0 mm 7,2 km/h (2 Bft) NO 35 ° 0 min 0,000 mm 0,0 UV-I 35 W/m² 5,3 °C 4,4 °C 12,9 km/h (3 Bft)
29.10.2019 13:59 5,9 °C 96 % 1019,1 hPa 0,0 mm 2,1 km/h (1 Bft) NO 51 ° 0 min 0,000 mm 0,0 UV-I 33 W/m² 5,3 °C 5,9 °C 6,4 km/h (2 Bft)
29.10.2019 14:00 5,9 °C 96 % 1019,0 hPa 0,0 mm 4,0 km/h (1 Bft) N-NO 28 ° 0 min 0,025 mm 0,0 UV-I 32 W/m² 5,3 °C 5,9 °C 6,4 km/h (2 Bft)
29.10.2019 14:01 5,9 °C 96 % 1019,1 hPa 0,0 mm 3,9 km/h (1 Bft) NO 51 ° 0 min 0,000 mm 0,0 UV-I 33 W/m² 5,3 °C 5,9 °C 6,4 km/h (2 Bft)
29.10.2019 14:02 5,9 °C 96 % 1019,1 hPa 0,0 mm 4,3 km/h (1 Bft) O 97 ° 0 min 0,000 mm 0,0 UV-I 35 W/m² 5,3 °C 5,9 °C 6,4 km/h (2 Bft)
29.10.2019 14:03 5,9 °C 96 % 1019,1 hPa 0,0 mm 4,5 km/h (1 Bft) NO 39 ° 0 min 0,000 mm 0,0 UV-I 39 W/m² 5,3 °C 5,9 °C 6,4 km/h (2 Bft)
29.10.2019 14:04 5,9 °C 96 % 1019,2 hPa 0,0 mm 6,6 km/h (2 Bft) O-NO 65 ° 0 min 0,000 mm 0,0 UV-I 39 W/m² 5,3 °C 4,6 °C 9,7 km/h (2 Bft)
29.10.2019 14:05 5,9 °C 96 % 1019,1 hPa 0,0 mm 6,1 km/h (2 Bft) O 90 ° 0 min 0,000 mm 0,0 UV-I 37 W/m² 5,3 °C 4,7 °C 9,7 km/h (2 Bft)
29.10.2019 14:06 5,9 °C 96 % 1019,1 hPa 0,0 mm 8,7 km/h (2 Bft) O 86 ° 0 min 0,000 mm 0,0 UV-I 35 W/m² 5,3 °C 4,0 °C 12,9 km/h (3 Bft)
29.10.2019 14:07 5,9 °C 96 % 1019,2 hPa 0,0 mm 7,7 km/h (2 Bft) O-NO 71 ° 0 min 0,000 mm 0,0 UV-I 35 W/m² 5,3 °C 4,3 °C 9,7 km/h (2 Bft)
29.10.2019 14:08 5,9 °C 96 % 1019,2 hPa 0,0 mm 4,6 km/h (1 Bft) O-NO 73 ° 0 min 0,000 mm 0,0 UV-I 33 W/m² 5,3 °C 5,3 °C 8,0 km/h (2 Bft)
29.10.2019 14:09 5,8 °C 96 % 1019,2 hPa 0,0 mm 6,2 km/h (2 Bft) O 79 ° 0 min 0,000 mm 0,0 UV-I 40 W/m² 5,2 °C 4,6 °C 12,9 km/h (3 Bft)
29.10.2019 14:10 5,8 °C 96 % 1019,2 hPa 0,0 mm 5,9 km/h (2 Bft) O-NO 59 ° 0 min 0,000 mm 0,0 UV-I 40 W/m² 5,2 °C 4,7 °C 9,7 km/h (2 Bft)
29.10.2019 14:11 5,8 °C 96 % 1019,2 hPa 0,0 mm 6,4 km/h (2 Bft) O 97 ° 0 min 0,000 mm 0,0 UV-I 40 W/m² 5,2 °C 4,5 °C 11,3 km/h (2 Bft)
29.10.2019 14:12 5,8 °C 96 % 1019,2 hPa 0,0 mm 6,3 km/h (2 Bft) O 88 ° 0 min 0,000 mm 0,0 UV-I 39 W/m² 5,2 °C 4,5 °C 9,7 km/h (2 Bft)
29.10.2019 14:13 5,8 °C 96 % 1019,2 hPa 0,0 mm 3,4 km/h (1 Bft) O-NO 78 ° 0 min 0,000 mm 0,0 UV-I 42 W/m² 5,2 °C 5,8 °C 4,8 km/h (1 Bft)
29.10.2019 14:14 5,8 °C 96 % 1019,2 hPa 0,0 mm 8,4 km/h (2 Bft) O 92 ° 0 min 0,000 mm 0,0 UV-I 40 W/m² 5,2 °C 4,0 °C 12,9 km/h (3 Bft)
29.10.2019 14:15 5,8 °C 96 % 1019,2 hPa 0,0 mm 7,3 km/h (2 Bft) O 96 ° 0 min 0,000 mm 0,0 UV-I 44 W/m² 5,2 °C 4,3 °C 11,3 km/h (2 Bft)
29.10.2019 14:16 5,8 °C 96 % 1019,2 hPa 0,0 mm 6,7 km/h (2 Bft) O-NO 59 ° 0 min 0,000 mm 0,0 UV-I 46 W/m² 5,2 °C 4,4 °C 9,7 km/h (2 Bft)
29.10.2019 14:17 5,8 °C 96 % 1019,2 hPa 0,0 mm 8,3 km/h (2 Bft) O-NO 63 ° 0 min 0,000 mm 0,0 UV-I 46 W/m² 5,2 °C 4,0 °C 12,9 km/h (3 Bft)
29.10.2019 14:18 5,8 °C 96 % 1019,2 hPa 0,0 mm 6,7 km/h (2 Bft) O-NO 63 ° 0 min 0,000 mm 0,0 UV-I 47 W/m² 5,2 °C 4,4 °C 9,7 km/h (2 Bft)
29.10.2019 14:19 5,8 °C 96 % 1019,3 hPa 0,0 mm 6,6 km/h (2 Bft) O-NO 70 ° 0 min 0,000 mm 0,0 UV-I 49 W/m² 5,2 °C 4,5 °C 9,7 km/h (2 Bft)
29.10.2019 14:20 5,7 °C 96 % 1019,3 hPa 0,0 mm 3,6 km/h (1 Bft) O 94 ° 0 min 0,000 mm 0,0 UV-I 47 W/m² 5,1 °C 5,7 °C 6,4 km/h (2 Bft)
29.10.2019 14:21 5,8 °C 96 % 1019,3 hPa 0,0 mm 3,3 km/h (1 Bft) N-NO 32 ° 0 min 0,000 mm 0,0 UV-I 44 W/m² 5,2 °C 5,8 °C 6,4 km/h (2 Bft)
29.10.2019 14:22 5,8 °C 96 % 1019,3 hPa 0,0 mm 4,6 km/h (1 Bft) O-NO 74 ° 0 min 0,000 mm 0,0 UV-I 42 W/m² 5,2 °C 5,1 °C 8,0 km/h (2 Bft)
29.10.2019 14:23 5,8 °C 96 % 1019,2 hPa 0,0 mm 4,5 km/h (1 Bft) O-NO 63 ° 0 min 0,000 mm 0,0 UV-I 42 W/m² 5,2 °C 5,8 °C 6,4 km/h (2 Bft)
29.10.2019 14:24 5,8 °C 96 % 1019,2 hPa 0,0 mm 7,3 km/h (2 Bft) O-NO 72 ° 0 min 0,000 mm 0,0 UV-I 40 W/m² 5,2 °C 4,3 °C 9,7 km/h (2 Bft)
29.10.2019 14:25 5,7 °C 96 % 1019,2 hPa 0,0 mm 6,2 km/h (2 Bft) O 90 ° 0 min 0,000 mm 0,0 UV-I 42 W/m² 5,1 °C 4,5 °C 9,7 km/h (2 Bft)
29.10.2019 14:26 5,7 °C 96 % 1019,2 hPa 0,0 mm 5,8 km/h (2 Bft) O-NO 77 ° 0 min 0,000 mm 0,0 UV-I 47 W/m² 5,1 °C 4,6 °C 11,3 km/h (2 Bft)
29.10.2019 14:27 5,8 °C 96 % 1019,2 hPa 0,0 mm 6,9 km/h (2 Bft) O 87 ° 0 min 0,000 mm 0,0 UV-I 53 W/m² 5,2 °C 4,4 °C 11,3 km/h (2 Bft)
29.10.2019 14:28 5,7 °C 96 % 1019,2 hPa 0,0 mm 8,5 km/h (2 Bft) NO 55 ° 0 min 0,000 mm 0,0 UV-I 51 W/m² 5,1 °C 3,8 °C 11,3 km/h (2 Bft)
29.10.2019 14:29 5,8 °C 96 % 1019,1 hPa 0,0 mm 6,4 km/h (2 Bft) O 85 ° 0 min 0,000 mm 0,0 UV-I 47 W/m² 5,2 °C 4,5 °C 8,0 km/h (2 Bft)
29.10.2019 14:30 5,7 °C 96 % 1019,1 hPa 0,0 mm 5,8 km/h (2 Bft) NO 41 ° 0 min 0,000 mm 0,0 UV-I 46 W/m² 5,1 °C 4,6 °C 9,7 km/h (2 Bft)
29.10.2019 14:31 5,8 °C 96 % 1019,1 hPa 0,0 mm 4,6 km/h (1 Bft) NO 44 ° 0 min 0,000 mm 0,0 UV-I 47 W/m² 5,2 °C 5,1 °C 6,4 km/h (2 Bft)
29.10.2019 14:32 5,7 °C 96 % 1019,1 hPa 0,0 mm 5,2 km/h (1 Bft) NO 56 ° 0 min 0,000 mm 0,0 UV-I 46 W/m² 5,1 °C 4,8 °C 9,7 km/h (2 Bft)
29.10.2019 14:33 5,7 °C 96 % 1019,1 hPa 0,0 mm 6,6 km/h (2 Bft) NO 43 ° 0 min 0,000 mm 0,0 UV-I 40 W/m² 5,1 °C 4,3 °C 9,7 km/h (2 Bft)
29.10.2019 14:34 5,7 °C 96 % 1019,1 hPa 0,0 mm 6,2 km/h (2 Bft) O-NO 63 ° 0 min 0,000 mm 0,0 UV-I 37 W/m² 5,1 °C 4,5 °C 11,3 km/h (2 Bft)
29.10.2019 14:35 5,7 °C 96 % 1019,1 hPa 0,0 mm 7,1 km/h (2 Bft) O-NO 74 ° 0 min 0,000 mm 0,0 UV-I 37 W/m² 5,1 °C 4,2 °C 9,7 km/h (2 Bft)
29.10.2019 14:36 5,7 °C 96 % 1019,1 hPa 0,0 mm 7,9 km/h (2 Bft) NO 56 ° 0 min 0,000 mm 0,0 UV-I 37 W/m² 5,1 °C 4,0 °C 11,3 km/h (2 Bft)
29.10.2019 14:37 5,7 °C 96 % 1019,1 hPa 0,0 mm 7,2 km/h (2 Bft) NO 40 ° 0 min 0,000 mm 0,0 UV-I 35 W/m² 5,1 °C 4,2 °C 9,7 km/h (2 Bft)
29.10.2019 14:38 5,7 °C 96 % 1019,1 hPa 0,0 mm 5,2 km/h (1 Bft) O-NO 61 ° 0 min 0,000 mm 0,0 UV-I 42 W/m² 5,1 °C 4,8 °C 6,4 km/h (2 Bft)
29.10.2019 14:39 5,6 °C 96 % 1019,1 hPa 0,0 mm 10,6 km/h (2 Bft) O-NO 74 ° 0 min 0,000 mm 0,0 UV-I 46 W/m² 5,0 °C 3,3 °C 16,1 km/h (3 Bft)
29.10.2019 14:40 5,6 °C 96 % 1019,1 hPa 0,0 mm 6,9 km/h (2 Bft) NO 56 ° 0 min 0,000 mm 0,0 UV-I 44 W/m² 5,0 °C 4,1 °C 9,7 km/h (2 Bft)
29.10.2019 14:41 5,6 °C 96 % 1019,1 hPa 0,0 mm 5,6 km/h (1 Bft) O 101 ° 0 min 0,000 mm 0,0 UV-I 44 W/m² 5,0 °C 4,5 °C 14,5 km/h (3 Bft)
29.10.2019 14:42 5,7 °C 96 % 1019,1 hPa 0,0 mm 7,0 km/h (2 Bft) O-NO 71 ° 0 min 0,000 mm 0,0 UV-I 44 W/m² 5,1 °C 4,2 °C 12,9 km/h (3 Bft)
29.10.2019 14:43 5,6 °C 96 % 1019,1 hPa 0,0 mm 8,0 km/h (2 Bft) O-NO 73 ° 0 min 0,000 mm 0,0 UV-I 44 W/m² 5,0 °C 3,8 °C 11,3 km/h (2 Bft)
29.10.2019 14:44 5,7 °C 96 % 1019,0 hPa 0,0 mm 5,7 km/h (1 Bft) O 88 ° 0 min 0,000 mm 0,0 UV-I 40 W/m² 5,1 °C 4,6 °C 11,3 km/h (2 Bft)
29.10.2019 14:45 5,6 °C 96 % 1019,0 hPa 0,0 mm 4,5 km/h (1 Bft) O 85 ° 0 min 0,000 mm 0,0 UV-I 39 W/m² 5,0 °C 5,6 °C 6,4 km/h (2 Bft)
29.10.2019 14:46 5,6 °C 96 % 1019,0 hPa 0,0 mm 6,3 km/h (2 Bft) O-NO 77 ° 0 min 0,000 mm 0,0 UV-I 39 W/m² 5,0 °C 4,3 °C 11,3 km/h (2 Bft)
29.10.2019 14:47 5,6 °C 96 % 1019,0 hPa 0,0 mm 5,6 km/h (1 Bft) NO 53 ° 0 min 0,000 mm 0,0 UV-I 37 W/m² 5,0 °C 4,5 °C 9,7 km/h (2 Bft)
29.10.2019 14:48 5,6 °C 96 % 1019,1 hPa 0,0 mm 7,8 km/h (2 Bft) N-NO 30 ° 0 min 0,000 mm 0,0 UV-I 35 W/m² 5,0 °C 3,9 °C 9,7 km/h (2 Bft)
29.10.2019 14:49 5,6 °C 96 % 1019,1 hPa 0,0 mm 6,8 km/h (2 Bft) NO 42 ° 0 min 0,000 mm 0,0 UV-I 37 W/m² 5,0 °C 4,2 °C 9,7 km/h (2 Bft)
29.10.2019 14:50 5,6 °C 96 % 1019,1 hPa 0,0 mm 4,2 km/h (1 Bft) O-NO 64 ° 0 min 0,000 mm 0,0 UV-I 32 W/m² 5,0 °C 5,6 °C 8,0 km/h (2 Bft)
29.10.2019 14:51 5,6 °C 96 % 1019,1 hPa 0,0 mm 7,8 km/h (2 Bft) N-NO 24 ° 0 min 0,000 mm 0,0 UV-I 30 W/m² 5,0 °C 3,9 °C 11,3 km/h (2 Bft)
29.10.2019 14:52 5,6 °C 96 % 1019,2 hPa 0,0 mm 5,5 km/h (1 Bft) NO 44 ° 0 min 0,000 mm 0,0 UV-I 30 W/m² 5,0 °C 4,6 °C 9,7 km/h (2 Bft)
29.10.2019 14:53 5,6 °C 96 % 1019,2 hPa 0,0 mm 6,4 km/h (2 Bft) NO 46 ° 0 min 0,000 mm 0,0 UV-I 30 W/m² 5,0 °C 4,3 °C 9,7 km/h (2 Bft)
29.10.2019 14:54 5,6 °C 96 % 1019,2 hPa 0,0 mm 6,0 km/h (2 Bft) N-NO 31 ° 0 min 0,000 mm 0,0 UV-I 25 W/m² 5,0 °C 4,4 °C 8,0 km/h (2 Bft)
29.10.2019 14:55 5,6 °C 96 % 1019,2 hPa 0,0 mm 6,4 km/h (2 Bft) NO 53 ° 0 min 0,000 mm 0,0 UV-I 21 W/m² 5,0 °C 4,3 °C 9,7 km/h (2 Bft)
29.10.2019 14:56 5,6 °C 96 % 1019,3 hPa 0,0 mm 7,0 km/h (2 Bft) N-NO 32 ° 0 min 0,000 mm 0,0 UV-I 16 W/m² 5,0 °C 4,1 °C 9,7 km/h (2 Bft)
29.10.2019 14:57 5,6 °C 96 % 1019,3 hPa 0,0 mm 3,9 km/h (1 Bft) NO 38 ° 0 min 0,000 mm 0,0 UV-I 14 W/m² 5,0 °C 5,6 °C 4,8 km/h (1 Bft)
29.10.2019 14:58 5,6 °C 96 % 1019,4 hPa 0,0 mm 3,4 km/h (1 Bft) N-NW 331 ° 0 min 0,000 mm 0,0 UV-I 14 W/m² 5,0 °C 5,6 °C 4,8 km/h (1 Bft)
29.10.2019 14:59 5,6 °C 96 % 1019,4 hPa 0,0 mm 3,0 km/h (1 Bft) O-NO 62 ° 0 min 0,000 mm 0,0 UV-I 14 W/m² 5,0 °C 5,6 °C 4,8 km/h (1 Bft)
29.10.2019 15:00 5,6 °C 96 % 1019,4 hPa 0,0 mm 2,4 km/h (1 Bft) N-NO 30 ° 0 min 0,000 mm 0,0 UV-I 12 W/m² 5,0 °C 5,6 °C 4,8 km/h (1 Bft)
29.10.2019 15:01 5,6 °C 96 % 1019,4 hPa 0,0 mm 1,1 km/h (1 Bft) N-NO 30 ° 0 min 0,025 mm 0,0 UV-I 14 W/m² 5,0 °C 5,6 °C 3,2 km/h (1 Bft)
29.10.2019 15:02 5,6 °C 96 % 1019,4 hPa 0,0 mm 5,6 km/h (1 Bft) NO 47 ° 0 min 0,000 mm 0,0 UV-I 16 W/m² 5,0 °C 4,5 °C 14,5 km/h (3 Bft)
29.10.2019 15:03 5,6 °C 96 % 1019,4 hPa 0,0 mm 9,3 km/h (2 Bft) O 86 ° 0 min 0,000 mm 0,0 UV-I 16 W/m² 5,0 °C 3,5 °C 11,3 km/h (2 Bft)
29.10.2019 15:04 5,6 °C 96 % 1019,4 hPa 0,0 mm 8,9 km/h (2 Bft) NO 51 ° 0 min 0,000 mm 0,0 UV-I 18 W/m² 5,0 °C 3,6 °C 11,3 km/h (2 Bft)
29.10.2019 15:05 5,6 °C 96 % 1019,4 hPa 0,0 mm 10,8 km/h (2 Bft) NO 50 ° 0 min 0,000 mm 0,0 UV-I 19 W/m² 5,0 °C 3,2 °C 16,1 km/h (3 Bft)
29.10.2019 15:06 5,5 °C 96 % 1019,4 hPa 0,0 mm 13,5 km/h (3 Bft) O 92 ° 0 min 0,000 mm 0,0 UV-I 18 W/m² 4,9 °C 2,6 °C 17,7 km/h (3 Bft)
29.10.2019 15:07 5,4 °C 96 % 1019,3 hPa 0,0 mm 7,0 km/h (2 Bft) O-NO 63 ° 0 min 0,000 mm 0,0 UV-I 18 W/m² 4,8 °C 3,9 °C 14,5 km/h (3 Bft)
29.10.2019 15:08 5,4 °C 96 % 1019,3 hPa 0,0 mm 8,9 km/h (2 Bft) O 88 ° 0 min 0,000 mm 0,0 UV-I 18 W/m² 4,8 °C 3,4 °C 14,5 km/h (3 Bft)
29.10.2019 15:09 5,4 °C 96 % 1019,4 hPa 0,0 mm 7,8 km/h (2 Bft) N-NO 26 ° 0 min 0,000 mm 0,0 UV-I 18 W/m² 4,8 °C 3,7 °C 12,9 km/h (3 Bft)
29.10.2019 15:10 5,3 °C 96 % 1019,4 hPa 0,0 mm 7,8 km/h (2 Bft) NO 42 ° 0 min 0,000 mm 0,0 UV-I 18 W/m² 4,7 °C 3,5 °C 12,9 km/h (3 Bft)
29.10.2019 15:11 5,3 °C 96 % 1019,5 hPa 0,0 mm 6,4 km/h (2 Bft) NO 53 ° 0 min 0,000 mm 0,0 UV-I 18 W/m² 4,7 °C 3,9 °C 9,7 km/h (2 Bft)
29.10.2019 15:12 5,3 °C 96 % 1019,5 hPa 0,0 mm 7,2 km/h (2 Bft) NO 38 ° 0 min 0,000 mm 0,0 UV-I 18 W/m² 4,7 °C 3,7 °C 14,5 km/h (3 Bft)
29.10.2019 15:13 5,3 °C 96 % 1019,5 hPa 0,0 mm 8,9 km/h (2 Bft) NO 43 ° 0 min 0,000 mm 0,0 UV-I 18 W/m² 4,7 °C 3,3 °C 14,5 km/h (3 Bft)
29.10.2019 15:14 5,3 °C 96 % 1019,5 hPa 0,0 mm 6,8 km/h (2 Bft) O-NO 61 ° 0 min 0,000 mm 0,0 UV-I 18 W/m² 4,7 °C 3,8 °C 12,9 km/h (3 Bft)
29.10.2019 15:15 5,3 °C 96 % 1019,5 hPa 0,0 mm 9,3 km/h (2 Bft) O-NO 76 ° 0 min 0,000 mm 0,0 UV-I 18 W/m² 4,7 °C 3,2 °C 12,9 km/h (3 Bft)
29.10.2019 15:16 5,2 °C 96 % 1019,5 hPa 0,0 mm 8,6 km/h (2 Bft) O-NO 70 ° 0 min 0,000 mm 0,0 UV-I 18 W/m² 4,6 °C 3,2 °C 14,5 km/h (3 Bft)
29.10.2019 15:17 5,2 °C 96 % 1019,5 hPa 0,0 mm 6,8 km/h (2 Bft) O 80 ° 0 min 0,000 mm 0,0 UV-I 19 W/m² 4,6 °C 3,7 °C 11,3 km/h (2 Bft)
29.10.2019 15:18 5,2 °C 96 % 1019,5 hPa 0,0 mm 5,6 km/h (1 Bft) O-NO 67 ° 0 min 0,000 mm 0,0 UV-I 19 W/m² 4,6 °C 4,1 °C 8,0 km/h (2 Bft)
29.10.2019 15:19 5,2 °C 96 % 1019,5 hPa 0,0 mm 4,2 km/h (1 Bft) O 90 ° 0 min 0,000 mm 0,0 UV-I 19 W/m² 4,6 °C 5,2 °C 8,0 km/h (2 Bft)
29.10.2019 15:20 5,2 °C 96 % 1019,5 hPa 0,0 mm 6,1 km/h (2 Bft) O-NO 69 ° 0 min 0,000 mm 0,0 UV-I 19 W/m² 4,6 °C 3,9 °C 9,7 km/h (2 Bft)
29.10.2019 15:21 5,2 °C 96 % 1019,6 hPa 0,0 mm 5,4 km/h (1 Bft) O 83 ° 0 min 0,000 mm 0,0 UV-I 18 W/m² 4,6 °C 4,2 °C 8,0 km/h (2 Bft)
29.10.2019 15:22 5,2 °C 96 % 1019,6 hPa 0,0 mm 4,9 km/h (1 Bft) NO 37 ° 0 min 0,000 mm 0,0 UV-I 16 W/m² 4,6 °C 4,3 °C 11,3 km/h (2 Bft)
29.10.2019 15:23 5,2 °C 96 % 1019,6 hPa 0,0 mm 8,2 km/h (2 Bft) NO 48 ° 0 min 0,000 mm 0,0 UV-I 18 W/m² 4,6 °C 3,3 °C 12,9 km/h (3 Bft)
29.10.2019 15:24 5,2 °C 96 % 1019,6 hPa 0,0 mm 8,0 km/h (2 Bft) NO 46 ° 0 min 0,000 mm 0,0 UV-I 16 W/m² 4,6 °C 3,4 °C 12,9 km/h (3 Bft)
29.10.2019 15:25 5,2 °C 96 % 1019,6 hPa 0,0 mm 6,8 km/h (2 Bft) O 88 ° 0 min 0,000 mm 0,0 UV-I 14 W/m² 4,6 °C 3,7 °C 11,3 km/h (2 Bft)
29.10.2019 15:26 5,2 °C 96 % 1019,7 hPa 0,0 mm 8,1 km/h (2 Bft) O-NO 57 ° 0 min 0,000 mm 0,0 UV-I 12 W/m² 4,6 °C 3,3 °C 11,3 km/h (2 Bft)
29.10.2019 15:27 5,2 °C 96 % 1019,6 hPa 0,0 mm 4,8 km/h (1 Bft) O 86 ° 0 min 0,000 mm 0,0 UV-I 12 W/m² 4,6 °C 4,4 °C 6,4 km/h (2 Bft)
29.10.2019 15:28 5,2 °C 96 % 1019,6 hPa 0,0 mm 2,2 km/h (1 Bft) O-NO 65 ° 0 min 0,000 mm 0,0 UV-I 11 W/m² 4,6 °C 5,2 °C 3,2 km/h (1 Bft)
29.10.2019 15:29 5,2 °C 96 % 1019,6 hPa 0,0 mm 2,7 km/h (1 Bft) O-NO 65 ° 0 min 0,000 mm 0,0 UV-I 11 W/m² 4,6 °C 5,2 °C 8,0 km/h (2 Bft)
29.10.2019 15:30 5,2 °C 96 % 1019,6 hPa 0,0 mm 4,3 km/h (1 Bft) N-NO 22 ° 0 min 0,000 mm 0,0 UV-I 11 W/m² 4,6 °C 5,2 °C 6,4 km/h (2 Bft)
29.10.2019 15:31 5,2 °C 96 % 1019,7 hPa 0,0 mm 7,8 km/h (2 Bft) NO 55 ° 0 min 0,000 mm 0,0 UV-I 11 W/m² 4,6 °C 3,4 °C 12,9 km/h (3 Bft)
29.10.2019 15:32 5,2 °C 96 % 1019,7 hPa 0,0 mm 2,4 km/h (1 Bft) O-NO 70 ° 0 min 0,000 mm 0,0 UV-I 9 W/m² 4,6 °C 5,2 °C 4,8 km/h (1 Bft)
29.10.2019 15:33 5,2 °C 96 % 1019,7 hPa 0,0 mm 1,7 km/h (1 Bft) O-NO 70 ° 0 min 0,000 mm 0,0 UV-I 9 W/m² 4,6 °C 5,2 °C 4,8 km/h (1 Bft)
29.10.2019 15:34 5,2 °C 96 % 1019,7 hPa 0,0 mm 2,5 km/h (1 Bft) O-NO 70 ° 0 min 0,000 mm 0,0 UV-I 9 W/m² 4,6 °C 5,2 °C 4,8 km/h (1 Bft)
29.10.2019 15:35 5,2 °C 96 % 1019,7 hPa 0,0 mm 6,6 km/h (2 Bft) O-NO 69 ° 0 min 0,000 mm 0,0 UV-I 9 W/m² 4,6 °C 3,8 °C 9,7 km/h (2 Bft)
29.10.2019 15:36 5,2 °C 96 % 1019,8 hPa 0,0 mm 7,0 km/h (2 Bft) O 88 ° 0 min 0,000 mm 0,0 UV-I 9 W/m² 4,6 °C 3,6 °C 9,7 km/h (2 Bft)
29.10.2019 15:37 5,2 °C 96 % 1019,8 hPa 0,0 mm 7,8 km/h (2 Bft) NO 52 ° 0 min 0,000 mm 0,0 UV-I 11 W/m² 4,6 °C 3,4 °C 12,9 km/h (3 Bft)
29.10.2019 15:38 5,2 °C 96 % 1019,8 hPa 0,0 mm 6,6 km/h (2 Bft) N-NO 32 ° 0 min 0,000 mm 0,0 UV-I 11 W/m² 4,6 °C 3,8 °C 9,7 km/h (2 Bft)
29.10.2019 15:39 5,2 °C 96 % 1019,8 hPa 0,0 mm 5,4 km/h (1 Bft) NO 53 ° 0 min 0,000 mm 0,0 UV-I 11 W/m² 4,6 °C 4,2 °C 8,0 km/h (2 Bft)
29.10.2019 15:40 5,2 °C 96 % 1019,8 hPa 0,0 mm 4,5 km/h (1 Bft) NO 47 ° 0 min 0,000 mm 0,0 UV-I 11 W/m² 4,6 °C 5,2 °C 6,4 km/h (2 Bft)
29.10.2019 15:41 5,2 °C 96 % 1019,8 hPa 0,0 mm 2,1 km/h (1 Bft) NO 49 ° 0 min 0,000 mm 0,0 UV-I 9 W/m² 4,6 °C 5,2 °C 9,7 km/h (2 Bft)
29.10.2019 15:42 5,2 °C 96 % 1019,8 hPa 0,0 mm 6,3 km/h (2 Bft) O-NO 77 ° 0 min 0,000 mm 0,0 UV-I 9 W/m² 4,6 °C 3,9 °C 12,9 km/h (3 Bft)
29.10.2019 15:43 5,2 °C 96 % 1019,8 hPa 0,0 mm 6,2 km/h (2 Bft) O-NO 57 ° 0 min 0,000 mm 0,0 UV-I 12 W/m² 4,6 °C 3,9 °C 11,3 km/h (2 Bft)
29.10.2019 15:44 5,1 °C 96 % 1019,8 hPa 0,0 mm 6,3 km/h (2 Bft) O-NO 75 ° 0 min 0,000 mm 0,0 UV-I 12 W/m² 4,5 °C 3,7 °C 8,0 km/h (2 Bft)
29.10.2019 15:45 5,1 °C 96 % 1019,8 hPa 0,0 mm 6,2 km/h (2 Bft) O-NO 57 ° 0 min 0,000 mm 0,0 UV-I 12 W/m² 4,5 °C 3,8 °C 6,4 km/h (2 Bft)
29.10.2019 15:46 5,1 °C 96 % 1019,9 hPa 0,0 mm 4,6 km/h (1 Bft) O-NO 70 ° 0 min 0,000 mm 0,0 UV-I 12 W/m² 4,5 °C 4,4 °C 6,4 km/h (2 Bft)
29.10.2019 15:47 5,1 °C 96 % 1019,9 hPa 0,0 mm 2,1 km/h (1 Bft) O-NO 70 ° 0 min 0,000 mm 0,0 UV-I 12 W/m² 4,5 °C 5,1 °C 4,8 km/h (1 Bft)
29.10.2019 15:48 5,1 °C 96 % 1019,9 hPa 0,0 mm 2,9 km/h (1 Bft) O-NO 70 ° 0 min 0,000 mm 0,0 UV-I 12 W/m² 4,5 °C 5,1 °C 4,8 km/h (1 Bft)
29.10.2019 15:49 5,1 °C 96 % 1019,9 hPa 0,0 mm 2,5 km/h (1 Bft) O-NO 71 ° 0 min 0,000 mm 0,0 UV-I 11 W/m² 4,5 °C 5,1 °C 4,8 km/h (1 Bft)
29.10.2019 15:50 5,1 °C 96 % 1019,9 hPa 0,0 mm 4,6 km/h (1 Bft) O 94 ° 0 min 0,000 mm 0,0 UV-I 11 W/m² 4,5 °C 4,4 °C 6,4 km/h (2 Bft)
29.10.2019 15:51 5,1 °C 96 % 1020,0 hPa 0,0 mm 5,2 km/h (1 Bft) O-NO 67 ° 0 min 0,000 mm 0,0 UV-I 9 W/m² 4,5 °C 4,1 °C 8,0 km/h (2 Bft)
29.10.2019 15:52 5,1 °C 96 % 1020,0 hPa 0,0 mm 4,7 km/h (1 Bft) O 94 ° 0 min 0,000 mm 0,0 UV-I 9 W/m² 4,5 °C 4,3 °C 6,4 km/h (2 Bft)
29.10.2019 15:53 5,1 °C 96 % 1020,0 hPa 0,0 mm 5,9 km/h (2 Bft) O 85 ° 0 min 0,000 mm 0,0 UV-I 9 W/m² 4,5 °C 3,9 °C 11,3 km/h (2 Bft)
29.10.2019 15:54 5,1 °C 96 % 1020,0 hPa 0,0 mm 7,4 km/h (2 Bft) O 88 ° 0 min 0,000 mm 0,0 UV-I 9 W/m² 4,5 °C 3,4 °C 11,3 km/h (2 Bft)
29.10.2019 15:55 5,1 °C 96 % 1020,0 hPa 0,0 mm 4,8 km/h (1 Bft) NO 38 ° 0 min 0,000 mm 0,0 UV-I 7 W/m² 4,5 °C 4,3 °C 8,0 km/h (2 Bft)
29.10.2019 15:56 5,1 °C 96 % 1020,1 hPa 0,0 mm 3,1 km/h (1 Bft) O-NO 77 ° 0 min 0,000 mm 0,0 UV-I 7 W/m² 4,5 °C 5,1 °C 6,4 km/h (2 Bft)
29.10.2019 15:57 5,1 °C 96 % 1020,0 hPa 0,0 mm 5,0 km/h (1 Bft) N-NO 31 ° 0 min 0,000 mm 0,0 UV-I 7 W/m² 4,5 °C 4,2 °C 8,0 km/h (2 Bft)
29.10.2019 15:58 5,1 °C 96 % 1020,1 hPa 0,0 mm 7,0 km/h (2 Bft) O-NO 74 ° 0 min 0,000 mm 0,0 UV-I 5 W/m² 4,5 °C 3,5 °C 9,7 km/h (2 Bft)
29.10.2019 15:59 5,1 °C 96 % 1020,1 hPa 0,0 mm 5,6 km/h (1 Bft) NO 53 ° 0 min 0,000 mm 0,0 UV-I 5 W/m² 4,5 °C 4,0 °C 8,0 km/h (2 Bft)
29.10.2019 16:00 5,1 °C 96 % 1020,1 hPa 0,0 mm 5,5 km/h (1 Bft) O-NO 57 ° 0 min 0,000 mm 0,0 UV-I 5 W/m² 4,5 °C 4,0 °C 8,0 km/h (2 Bft)
29.10.2019 16:01 5,1 °C 96 % 1020,1 hPa 0,0 mm 3,6 km/h (1 Bft) NO 54 ° 0 min 0,000 mm 0,0 UV-I 0 W/m² 4,5 °C 5,1 °C 8,0 km/h (2 Bft)
29.10.2019 16:02 5,1 °C 96 % 1020,1 hPa 0,0 mm 3,5 km/h (1 Bft) NO 38 ° 0 min 0,000 mm 0,0 UV-I 0 W/m² 4,5 °C 5,1 °C 6,4 km/h (2 Bft)
29.10.2019 16:03 5,1 °C 96 % 1020,1 hPa 0,0 mm 5,8 km/h (2 Bft) O 80 ° 0 min 0,000 mm 0,0 UV-I 0 W/m² 4,5 °C 3,9 °C 9,7 km/h (2 Bft)
29.10.2019 16:04 5,1 °C 96 % 1020,2 hPa 0,0 mm 5,2 km/h (1 Bft) O-NO 69 ° 0 min 0,000 mm 0,0 UV-I 0 W/m² 4,5 °C 4,1 °C 9,7 km/h (2 Bft)
29.10.2019 16:05 5,1 °C 96 % 1020,1 hPa 0,0 mm 5,0 km/h (1 Bft) O-NO 57 ° 0 min 0,000 mm 0,0 UV-I 5 W/m² 4,5 °C 4,2 °C 8,0 km/h (2 Bft)
29.10.2019 16:06 5,1 °C 96 % 1020,1 hPa 0,0 mm 6,0 km/h (2 Bft) O 92 ° 0 min 0,000 mm 0,0 UV-I 5 W/m² 4,5 °C 3,8 °C 11,3 km/h (2 Bft)
29.10.2019 16:07 5,1 °C 96 % 1020,2 hPa 0,0 mm 5,2 km/h (1 Bft) O-NO 63 ° 0 min 0,000 mm 0,0 UV-I 5 W/m² 4,5 °C 4,1 °C 8,0 km/h (2 Bft)
29.10.2019 16:08 5,1 °C 96 % 1020,2 hPa 0,0 mm 5,0 km/h (1 Bft) N-NO 18 ° 0 min 0,000 mm 0,0 UV-I 5 W/m² 4,5 °C 4,2 °C 6,4 km/h (2 Bft)
29.10.2019 16:09 5,1 °C 96 % 1020,2 hPa 0,0 mm 8,5 km/h (2 Bft) O 89 ° 0 min 0,000 mm 0,0 UV-I 5 W/m² 4,5 °C 3,1 °C 12,9 km/h (3 Bft)
29.10.2019 16:10 5,1 °C 96 % 1020,2 hPa 0,0 mm 7,8 km/h (2 Bft) O-NO 76 ° 0 min 0,000 mm 0,0 UV-I 7 W/m² 4,5 °C 3,3 °C 12,9 km/h (3 Bft)
29.10.2019 16:11 5,1 °C 96 % 1020,2 hPa 0,0 mm 6,6 km/h (2 Bft) NO 55 ° 0 min 0,000 mm 0,0 UV-I 7 W/m² 4,5 °C 3,6 °C 11,3 km/h (2 Bft)
29.10.2019 16:12 5,1 °C 96 % 1020,3 hPa 0,0 mm 6,1 km/h (2 Bft) O-NO 65 ° 0 min 0,000 mm 0,0 UV-I 7 W/m² 4,5 °C 3,8 °C 12,9 km/h (3 Bft)
29.10.2019 16:13 5,1 °C 96 % 1020,3 hPa 0,0 mm 10,6 km/h (2 Bft) O 94 ° 0 min 0,000 mm 0,0 UV-I 7 W/m² 4,5 °C 2,7 °C 14,5 km/h (3 Bft)
29.10.2019 16:14 5,1 °C 96 % 1020,3 hPa 0,0 mm 6,9 km/h (2 Bft) O-NO 57 ° 0 min 0,000 mm 0,0 UV-I 7 W/m² 4,5 °C 3,6 °C 12,9 km/h (3 Bft)
29.10.2019 16:15 5,0 °C 96 % 1020,2 hPa 0,0 mm 6,2 km/h (2 Bft) N-NO 27 ° 0 min 0,000 mm 0,0 UV-I 7 W/m² 4,4 °C 3,7 °C 14,5 km/h (3 Bft)
29.10.2019 16:16 5,0 °C 96 % 1020,3 hPa 0,0 mm 5,0 km/h (1 Bft) O 93 ° 0 min 0,000 mm 0,0 UV-I 7 W/m² 4,4 °C 4,1 °C 8,0 km/h (2 Bft)
29.10.2019 16:17 5,0 °C 96 % 1020,3 hPa 0,0 mm 4,8 km/h (1 Bft) O 82 ° 0 min 0,000 mm 0,0 UV-I 7 W/m² 4,4 °C 4,2 °C 11,3 km/h (2 Bft)
29.10.2019 16:18 5,0 °C 96 % 1020,3 hPa 0,0 mm 5,2 km/h (1 Bft) O-NO 65 ° 0 min 0,000 mm 0,0 UV-I 5 W/m² 4,4 °C 4,0 °C 11,3 km/h (2 Bft)
29.10.2019 16:19 5,0 °C 96 % 1020,3 hPa 0,0 mm 7,1 km/h (2 Bft) O-NO 66 ° 0 min 0,000 mm 0,0 UV-I 5 W/m² 4,4 °C 3,4 °C 14,5 km/h (3 Bft)
29.10.2019 16:20 5,0 °C 96 % 1020,3 hPa 0,0 mm 4,8 km/h (1 Bft) S 174 ° 0 min 0,000 mm 0,0 UV-I 5 W/m² 4,4 °C 4,2 °C 12,9 km/h (3 Bft)
29.10.2019 16:21 5,0 °C 96 % 1020,3 hPa 0,0 mm 8,6 km/h (2 Bft) O-NO 69 ° 0 min 0,000 mm 0,0 UV-I 5 W/m² 4,4 °C 3,0 °C 12,9 km/h (3 Bft)
29.10.2019 16:22 4,9 °C 96 % 1020,3 hPa 0,0 mm 4,6 km/h (1 Bft) O-NO 72 ° 0 min 0,000 mm 0,0 UV-I 0 W/m² 4,3 °C 4,1 °C 9,7 km/h (2 Bft)
29.10.2019 16:23 4,9 °C 96 % 1020,4 hPa 0,0 mm 5,3 km/h (1 Bft) O 90 ° 0 min 0,000 mm 0,0 UV-I 0 W/m² 4,3 °C 3,9 °C 9,7 km/h (2 Bft)
29.10.2019 16:24 4,9 °C 96 % 1020,5 hPa 0,0 mm 6,3 km/h (2 Bft) N 5 ° 0 min 0,000 mm 0,0 UV-I 0 W/m² 4,3 °C 3,5 °C 9,7 km/h (2 Bft)
29.10.2019 16:25 4,9 °C 96 % 1020,5 hPa 0,0 mm 8,4 km/h (2 Bft) O-SO 107 ° 0 min 0,000 mm 0,0 UV-I 0 W/m² 4,3 °C 2,9 °C 12,9 km/h (3 Bft)
29.10.2019 16:26 4,9 °C 96 % 1020,5 hPa 0,0 mm 8,5 km/h (2 Bft) NO 55 ° 0 min 0,000 mm 0,0 UV-I 0 W/m² 4,3 °C 2,9 °C 12,9 km/h (3 Bft)
29.10.2019 16:27 4,9 °C 96 % 1020,5 hPa 0,0 mm 7,7 km/h (2 Bft) NO 53 ° 0 min 0,000 mm 0,0 UV-I 0 W/m² 4,3 °C 3,1 °C 12,9 km/h (3 Bft)
29.10.2019 16:28 4,9 °C 96 % 1020,5 hPa 0,0 mm 5,6 km/h (1 Bft) O-NO 60 ° 0 min 0,000 mm 0,0 UV-I 0 W/m² 4,3 °C 3,7 °C 9,7 km/h (2 Bft)
29.10.2019 16:29 4,8 °C 96 % 1020,5 hPa 0,0 mm 4,2 km/h (1 Bft) O-NO 58 ° 0 min 0,000 mm 0,0 UV-I 0 W/m² 4,2 °C 4,8 °C 6,4 km/h (2 Bft)
29.10.2019 16:30 4,8 °C 96 % 1020,5 hPa 0,0 mm 7,6 km/h (2 Bft) NO 56 ° 0 min 0,000 mm 0,0 UV-I 0 W/m² 4,2 °C 3,0 °C 12,9 km/h (3 Bft)
29.10.2019 16:31 4,8 °C 96 % 1020,5 hPa 0,0 mm 5,1 km/h (1 Bft) O-NO 60 ° 0 min 0,000 mm 0,0 UV-I 0 W/m² 4,2 °C 3,8 °C 8,0 km/h (2 Bft)
29.10.2019 16:32 4,8 °C 96 % 1020,5 hPa 0,0 mm 5,5 km/h (1 Bft) O 89 ° 0 min 0,000 mm 0,0 UV-I 0 W/m² 4,2 °C 3,7 °C 9,7 km/h (2 Bft)
29.10.2019 16:33 4,8 °C 96 % 1020,5 hPa 0,0 mm 6,7 km/h (2 Bft) NO 52 ° 0 min 0,000 mm 0,0 UV-I 0 W/m² 4,2 °C 3,3 °C 12,9 km/h (3 Bft)
29.10.2019 16:34 4,8 °C 96 % 1020,5 hPa 0,0 mm 5,6 km/h (1 Bft) O-NO 65 ° 0 min 0,000 mm 0,0 UV-I 0 W/m² 4,2 °C 3,6 °C 8,0 km/h (2 Bft)
29.10.2019 16:35 4,8 °C 96 % 1020,5 hPa 0,0 mm 6,6 km/h (2 Bft) O-NO 78 ° 0 min 0,000 mm 0,0 UV-I 0 W/m² 4,2 °C 3,3 °C 9,7 km/h (2 Bft)
29.10.2019 16:36 4,8 °C 96 % 1020,5 hPa 0,0 mm 5,1 km/h (1 Bft) O 80 ° 0 min 0,000 mm 0,0 UV-I 0 W/m² 4,2 °C 3,8 °C 6,4 km/h (2 Bft)
29.10.2019 16:37 4,8 °C 96 % 1020,5 hPa 0,0 mm 5,9 km/h (2 Bft) O-NO 69 ° 0 min 0,000 mm 0,0 UV-I 0 W/m² 4,2 °C 3,5 °C 9,7 km/h (2 Bft)
29.10.2019 16:38 4,8 °C 96 % 1020,5 hPa 0,0 mm 12,4 km/h (3 Bft) O-NO 63 ° 0 min 0,000 mm 0,0 UV-I 0 W/m² 4,2 °C 1,9 °C 16,1 km/h (3 Bft)
29.10.2019 16:39 4,8 °C 96 % 1020,5 hPa 0,0 mm 8,9 km/h (2 Bft) O-NO 77 ° 0 min 0,000 mm 0,0 UV-I 0 W/m² 4,2 °C 2,7 °C 12,9 km/h (3 Bft)
29.10.2019 16:40 4,7 °C 96 % 1020,5 hPa 0,0 mm 8,1 km/h (2 Bft) O-NO 70 ° 0 min 0,000 mm 0,0 UV-I 0 W/m² 4,1 °C 2,8 °C 14,5 km/h (3 Bft)
29.10.2019 16:41 4,7 °C 96 % 1020,5 hPa 0,0 mm 8,6 km/h (2 Bft) N-NO 26 ° 0 min 0,000 mm 0,0 UV-I 0 W/m² 4,1 °C 2,6 °C 12,9 km/h (3 Bft)
29.10.2019 16:42 4,7 °C 96 % 1020,5 hPa 0,0 mm 11,3 km/h (2 Bft) SO 137 ° 0 min 0,000 mm 0,0 UV-I 0 W/m² 4,1 °C 2,0 °C 17,7 km/h (3 Bft)
29.10.2019 16:43 4,7 °C 96 % 1020,7 hPa 0,0 mm 8,3 km/h (2 Bft) N-NO 17 ° 0 min 0,000 mm 0,0 UV-I 0 W/m² 4,1 °C 2,7 °C 17,7 km/h (3 Bft)
29.10.2019 16:44 4,7 °C 96 % 1020,6 hPa 0,0 mm 9,9 km/h (2 Bft) NO 54 ° 0 min 0,000 mm 0,0 UV-I 0 W/m² 4,1 °C 2,3 °C 17,7 km/h (3 Bft)
29.10.2019 16:45 4,6 °C 96 % 1020,6 hPa 0,0 mm 13,5 km/h (3 Bft) O-NO 65 ° 0 min 0,000 mm 0,0 UV-I 0 W/m² 4,0 °C 1,5 °C 19,3 km/h (3 Bft)
29.10.2019 16:46 4,6 °C 96 % 1020,6 hPa 0,0 mm 6,6 km/h (2 Bft) NO 53 ° 0 min 0,000 mm 0,0 UV-I 0 W/m² 4,0 °C 3,1 °C 9,7 km/h (2 Bft)
29.10.2019 16:47 4,6 °C 96 % 1020,6 hPa 0,0 mm 10,5 km/h (2 Bft) O-NO 66 ° 0 min 0,000 mm 0,0 UV-I 0 W/m² 4,0 °C 2,1 °C 16,1 km/h (3 Bft)
29.10.2019 16:48 4,6 °C 96 % 1020,6 hPa 0,0 mm 9,7 km/h (2 Bft) O 88 ° 0 min 0,000 mm 0,0 UV-I 0 W/m² 4,0 °C 2,2 °C 16,1 km/h (3 Bft)
29.10.2019 16:49 4,6 °C 96 % 1020,7 hPa 0,0 mm 9,1 km/h (2 Bft) O 84 ° 0 min 0,000 mm 0,0 UV-I 0 W/m² 4,0 °C 2,4 °C 12,9 km/h (3 Bft)
29.10.2019 16:50 4,5 °C 96 % 1020,6 hPa 0,0 mm 6,8 km/h (2 Bft) O 89 ° 0 min 0,000 mm 0,0 UV-I 0 W/m² 3,9 °C 2,9 °C 11,3 km/h (2 Bft)
29.10.2019 16:51 4,5 °C 96 % 1020,7 hPa 0,0 mm 6,4 km/h (2 Bft) O-NO 58 ° 0 min 0,000 mm 0,0 UV-I 0 W/m² 3,9 °C 3,0 °C 9,7 km/h (2 Bft)
29.10.2019 16:52 4,5 °C 96 % 1020,7 hPa 0,0 mm 5,4 km/h (1 Bft) O-NO 66 ° 0 min 0,000 mm 0,0 UV-I 0 W/m² 3,9 °C 3,4 °C 8,0 km/h (2 Bft)
29.10.2019 16:53 4,4 °C 96 % 1020,7 hPa 0,0 mm 4,8 km/h (1 Bft) O-NO 66 ° 0 min 0,000 mm 0,0 UV-I 0 W/m² 3,8 °C 3,5 °C 6,4 km/h (2 Bft)
29.10.2019 16:54 4,4 °C 96 % 1020,7 hPa 0,0 mm 8,6 km/h (2 Bft) O-NO 74 ° 0 min 0,000 mm 0,0 UV-I 0 W/m² 3,8 °C 2,3 °C 14,5 km/h (3 Bft)
29.10.2019 16:55 4,4 °C 96 % 1020,7 hPa 0,0 mm 9,5 km/h (2 Bft) O-NO 64 ° 0 min 0,000 mm 0,0 UV-I 0 W/m² 3,8 °C 2,1 °C 12,9 km/h (3 Bft)
29.10.2019 16:56 4,4 °C 96 % 1020,7 hPa 0,0 mm 4,6 km/h (1 Bft) O-NO 76 ° 0 min 0,000 mm 0,0 UV-I 0 W/m² 3,8 °C 3,6 °C 6,4 km/h (2 Bft)
29.10.2019 16:57 4,4 °C 96 % 1020,7 hPa 0,0 mm 6,1 km/h (2 Bft) O 81 ° 0 min 0,000 mm 0,0 UV-I 0 W/m² 3,8 °C 3,0 °C 11,3 km/h (2 Bft)
29.10.2019 16:58 4,4 °C 96 % 1020,8 hPa 0,0 mm 2,3 km/h (1 Bft) O-NO 62 ° 0 min 0,000 mm 0,0 UV-I 0 W/m² 3,8 °C 4,4 °C 6,4 km/h (2 Bft)
29.10.2019 16:59 4,4 °C 96 % 1020,8 hPa 0,0 mm 5,4 km/h (1 Bft) O-NO 74 ° 0 min 0,000 mm 0,0 UV-I 0 W/m² 3,8 °C 3,2 °C 8,0 km/h (2 Bft)
29.10.2019 17:00 4,4 °C 96 % 1020,7 hPa 0,0 mm 5,4 km/h (1 Bft) NO 56 ° 0 min 0,000 mm 0,0 UV-I 0 W/m² 3,8 °C 3,2 °C 9,7 km/h (2 Bft)
29.10.2019 17:01 4,4 °C 96 % 1020,8 hPa 0,0 mm 5,1 km/h (1 Bft) O-NO 63 ° 0 min 0,000 mm 0,0 UV-I 0 W/m² 3,8 °C 3,4 °C 9,7 km/h (2 Bft)
29.10.2019 17:02 4,4 °C 96 % 1020,8 hPa 0,0 mm 7,6 km/h (2 Bft) O-NO 61 ° 0 min 0,000 mm 0,0 UV-I 0 W/m² 3,8 °C 2,5 °C 11,3 km/h (2 Bft)
29.10.2019 17:03 4,4 °C 96 % 1020,8 hPa 0,0 mm 8,6 km/h (2 Bft) O-NO 57 ° 0 min 0,000 mm 0,0 UV-I 0 W/m² 3,8 °C 2,3 °C 14,5 km/h (3 Bft)
29.10.2019 17:04 4,3 °C 96 % 1020,7 hPa 0,0 mm 6,7 km/h (2 Bft) O-NO 61 ° 0 min 0,000 mm 0,0 UV-I 0 W/m² 3,7 °C 2,7 °C 11,3 km/h (2 Bft)
29.10.2019 17:05 4,3 °C 96 % 1020,8 hPa 0,0 mm 4,8 km/h (1 Bft) O 86 ° 0 min 0,000 mm 0,0 UV-I 0 W/m² 3,7 °C 3,4 °C 6,4 km/h (2 Bft)
29.10.2019 17:06 4,3 °C 96 % 1020,7 hPa 0,0 mm 4,7 km/h (1 Bft) O 80 ° 0 min 0,000 mm 0,0 UV-I 0 W/m² 3,7 °C 3,4 °C 6,4 km/h (2 Bft)
29.10.2019 17:07 4,3 °C 96 % 1020,7 hPa 0,0 mm 8,7 km/h (2 Bft) O 82 ° 0 min 0,000 mm 0,0 UV-I 0 W/m² 3,7 °C 2,1 °C 12,9 km/h (3 Bft)
29.10.2019 17:08 4,3 °C 96 % 1020,8 hPa 0,0 mm 7,7 km/h (2 Bft) O-NO 58 ° 0 min 0,000 mm 0,0 UV-I 0 W/m² 3,7 °C 2,4 °C 12,9 km/h (3 Bft)
29.10.2019 17:09 4,3 °C 96 % 1020,8 hPa 0,0 mm 7,9 km/h (2 Bft) O 97 ° 0 min 0,000 mm 0,0 UV-I 0 W/m² 3,7 °C 2,3 °C 12,9 km/h (3 Bft)
29.10.2019 17:10 4,3 °C 96 % 1020,8 hPa 0,0 mm 7,7 km/h (2 Bft) O-NO 78 ° 0 min 0,000 mm 0,0 UV-I 0 W/m² 3,7 °C 2,4 °C 12,9 km/h (3 Bft)
29.10.2019 17:11 4,3 °C 96 % 1020,8 hPa 0,0 mm 7,9 km/h (2 Bft) O-NO 63 ° 0 min 0,000 mm 0,0 UV-I 0 W/m² 3,7 °C 2,3 °C 14,5 km/h (3 Bft)
29.10.2019 17:12 4,3 °C 96 % 1020,8 hPa 0,0 mm 6,4 km/h (2 Bft) O-NO 62 ° 0 min 0,000 mm 0,0 UV-I 0 W/m² 3,7 °C 2,8 °C 11,3 km/h (2 Bft)
29.10.2019 17:13 4,2 °C 96 % 1020,8 hPa 0,0 mm 7,2 km/h (2 Bft) O 80 ° 0 min 0,000 mm 0,0 UV-I 0 W/m² 3,6 °C 2,4 °C 11,3 km/h (2 Bft)
29.10.2019 17:14 4,2 °C 96 % 1020,8 hPa 0,0 mm 4,4 km/h (1 Bft) O 83 ° 0 min 0,000 mm 0,0 UV-I 0 W/m² 3,6 °C 4,2 °C 9,7 km/h (2 Bft)
29.10.2019 17:15 4,2 °C 96 % 1020,8 hPa 0,0 mm 8,0 km/h (2 Bft) O-NO 78 ° 0 min 0,000 mm 0,0 UV-I 0 W/m² 3,6 °C 2,2 °C 11,3 km/h (2 Bft)
29.10.2019 17:16 4,1 °C 95 % 1020,8 hPa 0,0 mm 5,1 km/h (1 Bft) O 84 ° 0 min 0,000 mm 0,0 UV-I 0 W/m² 3,4 °C 3,0 °C 11,3 km/h (2 Bft)
29.10.2019 17:17 4,1 °C 95 % 1020,8 hPa 0,0 mm 6,0 km/h (2 Bft) O-NO 62 ° 0 min 0,000 mm 0,0 UV-I 0 W/m² 3,4 °C 2,7 °C 9,7 km/h (2 Bft)
29.10.2019 17:18 4,1 °C 95 % 1020,8 hPa 0,0 mm 5,5 km/h (1 Bft) O-NO 74 ° 0 min 0,000 mm 0,0 UV-I 0 W/m² 3,4 °C 2,9 °C 8,0 km/h (2 Bft)
29.10.2019 17:19 4,0 °C 95 % 1020,8 hPa 0,0 mm 5,2 km/h (1 Bft) N-NO 25 ° 0 min 0,000 mm 0,0 UV-I 0 W/m² 3,3 °C 2,9 °C 8,0 km/h (2 Bft)
29.10.2019 17:20 4,0 °C 95 % 1020,7 hPa 0,0 mm 3,7 km/h (1 Bft) NO 51 ° 0 min 0,000 mm 0,0 UV-I 0 W/m² 3,3 °C 4,0 °C 6,4 km/h (2 Bft)
29.10.2019 17:21 4,0 °C 95 % 1020,8 hPa 0,0 mm 4,3 km/h (1 Bft) O 82 ° 0 min 0,000 mm 0,0 UV-I 0 W/m² 3,3 °C 4,0 °C 6,4 km/h (2 Bft)
29.10.2019 17:22 3,9 °C 95 % 1020,7 hPa 0,0 mm 5,8 km/h (2 Bft) NO 49 ° 0 min 0,000 mm 0,0 UV-I 0 W/m² 3,2 °C 2,5 °C 6,4 km/h (2 Bft)
29.10.2019 17:23 3,9 °C 95 % 1020,7 hPa 0,0 mm 5,4 km/h (1 Bft) NO 42 ° 0 min 0,000 mm 0,0 UV-I 0 W/m² 3,2 °C 2,7 °C 8,0 km/h (2 Bft)
29.10.2019 17:24 3,9 °C 96 % 1020,8 hPa 0,0 mm 3,0 km/h (1 Bft) NO 42 ° 0 min 0,000 mm 0,0 UV-I 0 W/m² 3,3 °C 3,9 °C 4,8 km/h (1 Bft)
29.10.2019 17:25 3,9 °C 96 % 1020,8 hPa 0,0 mm 3,9 km/h (1 Bft) NO 54 ° 0 min 0,000 mm 0,0 UV-I 0 W/m² 3,3 °C 3,9 °C 6,4 km/h (2 Bft)
29.10.2019 17:26 3,9 °C 96 % 1020,8 hPa 0,0 mm 4,4 km/h (1 Bft) O-NO 57 ° 0 min 0,000 mm 0,0 UV-I 0 W/m² 3,3 °C 3,9 °C 8,0 km/h (2 Bft)
29.10.2019 17:27 3,9 °C 96 % 1020,8 hPa 0,0 mm 4,3 km/h (1 Bft) NO 40 ° 0 min 0,000 mm 0,0 UV-I 0 W/m² 3,3 °C 3,9 °C 8,0 km/h (2 Bft)
29.10.2019 17:28 3,9 °C 96 % 1020,8 hPa 0,0 mm 3,4 km/h (1 Bft) O-NO 69 ° 0 min 0,000 mm 0,0 UV-I 0 W/m² 3,3 °C 3,9 °C 8,0 km/h (2 Bft)
29.10.2019 17:29 3,9 °C 96 % 1020,9 hPa 0,0 mm 7,3 km/h (2 Bft) O 90 ° 0 min 0,000 mm 0,0 UV-I 0 W/m² 3,3 °C 2,0 °C 11,3 km/h (2 Bft)
29.10.2019 17:30 3,9 °C 96 % 1020,9 hPa 0,0 mm 3,1 km/h (1 Bft) O-NO 76 ° 0 min 0,000 mm 0,0 UV-I 0 W/m² 3,3 °C 3,9 °C 4,8 km/h (1 Bft)
29.10.2019 17:31 3,8 °C 96 % 1020,9 hPa 0,0 mm 3,8 km/h (1 Bft) O-NO 75 ° 0 min 0,000 mm 0,0 UV-I 0 W/m² 3,2 °C 3,8 °C 6,4 km/h (2 Bft)
29.10.2019 17:32 3,8 °C 96 % 1020,9 hPa 0,0 mm 3,7 km/h (1 Bft) O-NO 75 ° 0 min 0,000 mm 0,0 UV-I 0 W/m² 3,2 °C 3,8 °C 4,8 km/h (1 Bft)
29.10.2019 17:33 3,8 °C 96 % 1020,9 hPa 0,0 mm 2,1 km/h (1 Bft) O-NO 75 ° 0 min 0,000 mm 0,0 UV-I 0 W/m² 3,2 °C 3,8 °C 3,2 km/h (1 Bft)
29.10.2019 17:34 3,8 °C 96 % 1021,0 hPa 0,0 mm 3,3 km/h (1 Bft) NO 41 ° 0 min 0,000 mm 0,0 UV-I 0 W/m² 3,2 °C 3,8 °C 6,4 km/h (2 Bft)
29.10.2019 17:35 3,9 °C 96 % 1020,9 hPa 0,0 mm 3,6 km/h (1 Bft) O-NO 57 ° 0 min 0,000 mm 0,0 UV-I 0 W/m² 3,3 °C 3,9 °C 6,4 km/h (2 Bft)
29.10.2019 17:36 3,8 °C 96 % 1020,9 hPa 0,0 mm 5,0 km/h (1 Bft) O 95 ° 0 min 0,000 mm 0,0 UV-I 0 W/m² 3,2 °C 2,7 °C 9,7 km/h (2 Bft)
29.10.2019 17:37 3,8 °C 96 % 1021,0 hPa 0,0 mm 3,7 km/h (1 Bft) NO 51 ° 0 min 0,000 mm 0,0 UV-I 0 W/m² 3,2 °C 3,8 °C 8,0 km/h (2 Bft)
29.10.2019 17:38 3,8 °C 96 % 1021,0 hPa 0,0 mm 6,7 km/h (2 Bft) O-NO 64 ° 0 min 0,000 mm 0,0 UV-I 0 W/m² 3,2 °C 2,1 °C 11,3 km/h (2 Bft)
29.10.2019 17:39 3,8 °C 96 % 1021,0 hPa 0,0 mm 5,7 km/h (1 Bft) NO 54 ° 0 min 0,000 mm 0,0 UV-I 0 W/m² 3,2 °C 2,5 °C 8,0 km/h (2 Bft)
29.10.2019 17:40 3,8 °C 96 % 1020,9 hPa 0,0 mm 4,6 km/h (1 Bft) NO 37 ° 0 min 0,000 mm 0,0 UV-I 0 W/m² 3,2 °C 2,9 °C 6,4 km/h (2 Bft)
29.10.2019 17:41 3,8 °C 96 % 1020,9 hPa 0,0 mm 4,4 km/h (1 Bft) NO 40 ° 0 min 0,000 mm 0,0 UV-I 0 W/m² 3,2 °C 3,8 °C 6,4 km/h (2 Bft)
29.10.2019 17:42 3,8 °C 96 % 1021,0 hPa 0,0 mm 3,6 km/h (1 Bft) NO 40 ° 0 min 0,000 mm 0,0 UV-I 0 W/m² 3,2 °C 3,8 °C 4,8 km/h (1 Bft)
29.10.2019 17:43 3,8 °C 96 % 1021,0 hPa 0,0 mm 4,5 km/h (1 Bft) N-NO 26 ° 0 min 0,000 mm 0,0 UV-I 0 W/m² 3,2 °C 3,8 °C 8,0 km/h (2 Bft)
29.10.2019 17:44 3,8 °C 96 % 1021,0 hPa 0,0 mm 2,3 km/h (1 Bft) N-NO 30 ° 0 min 0,000 mm 0,0 UV-I 0 W/m² 3,2 °C 3,8 °C 4,8 km/h (1 Bft)
29.10.2019 17:45 3,8 °C 96 % 1021,0 hPa 0,0 mm 4,1 km/h (1 Bft) NO 48 ° 0 min 0,000 mm 0,0 UV-I 0 W/m² 3,2 °C 3,8 °C 4,8 km/h (1 Bft)
29.10.2019 17:46 3,8 °C 96 % 1021,0 hPa 0,0 mm 1,0 km/h (0 Bft) NO 48 ° 0 min 0,000 mm 0,0 UV-I 0 W/m² 3,2 °C 3,8 °C 1,6 km/h (1 Bft)
29.10.2019 17:47 3,9 °C 96 % 1021,0 hPa 0,0 mm 3,3 km/h (1 Bft) O-NO 57 ° 0 min 0,000 mm 0,0 UV-I 0 W/m² 3,3 °C 3,9 °C 6,4 km/h (2 Bft)
29.10.2019 17:48 3,9 °C 96 % 1020,9 hPa 0,0 mm 3,7 km/h (1 Bft) O-NO 58 ° 0 min 0,000 mm 0,0 UV-I 0 W/m² 3,3 °C 3,9 °C 4,8 km/h (1 Bft)
29.10.2019 17:49 3,9 °C 96 % 1021,0 hPa 0,0 mm 4,5 km/h (1 Bft) O 86 ° 0 min 0,000 mm 0,0 UV-I 0 W/m² 3,3 °C 3,9 °C 9,7 km/h (2 Bft)
29.10.2019 17:50 3,8 °C 96 % 1021,0 hPa 0,0 mm 5,8 km/h (2 Bft) O-NO 78 ° 0 min 0,000 mm 0,0 UV-I 0 W/m² 3,2 °C 2,4 °C 9,7 km/h (2 Bft)
29.10.2019 17:51 3,9 °C 96 % 1021,0 hPa 0,0 mm 4,5 km/h (1 Bft) O 82 ° 0 min 0,000 mm 0,0 UV-I 0 W/m² 3,3 °C 3,9 °C 8,0 km/h (2 Bft)
29.10.2019 17:52 3,9 °C 96 % 1021,0 hPa 0,0 mm 2,8 km/h (1 Bft) O 82 ° 0 min 0,000 mm 0,0 UV-I 0 W/m² 3,3 °C 3,9 °C 4,8 km/h (1 Bft)
29.10.2019 17:53 3,9 °C 96 % 1021,0 hPa 0,0 mm 4,1 km/h (1 Bft) O 81 ° 0 min 0,000 mm 0,0 UV-I 0 W/m² 3,3 °C 3,9 °C 4,8 km/h (1 Bft)
29.10.2019 17:54 3,9 °C 96 % 1021,0 hPa 0,0 mm 2,7 km/h (1 Bft) O 81 ° 0 min 0,000 mm 0,0 UV-I 0 W/m² 3,3 °C 3,9 °C 3,2 km/h (1 Bft)
29.10.2019 17:55 3,9 °C 96 % 1021,0 hPa 0,0 mm 3,9 km/h (1 Bft) NO 48 ° 0 min 0,000 mm 0,0 UV-I 0 W/m² 3,3 °C 3,9 °C 8,0 km/h (2 Bft)
29.10.2019 17:56 3,9 °C 96 % 1021,1 hPa 0,0 mm 6,3 km/h (2 Bft) N-NO 14 ° 0 min 0,000 mm 0,0 UV-I 0 W/m² 3,3 °C 2,4 °C 8,0 km/h (2 Bft)
29.10.2019 17:57 3,9 °C 96 % 1021,1 hPa 0,0 mm 6,5 km/h (2 Bft) O-NO 66 ° 0 min 0,000 mm 0,0 UV-I 0 W/m² 3,3 °C 2,3 °C 9,7 km/h (2 Bft)
29.10.2019 17:58 3,9 °C 96 % 1021,1 hPa 0,0 mm 5,5 km/h (1 Bft) O 94 ° 0 min 0,000 mm 0,0 UV-I 0 W/m² 3,3 °C 2,6 °C 11,3 km/h (2 Bft)
29.10.2019 17:59 3,9 °C 96 % 1021,1 hPa 0,0 mm 3,2 km/h (1 Bft) O 90 ° 0 min 0,000 mm 0,0 UV-I 0 W/m² 3,3 °C 3,9 °C 4,8 km/h (1 Bft)
29.10.2019 18:00 3,9 °C 96 % 1021,1 hPa 0,0 mm 3,6 km/h (1 Bft) NO 47 ° 0 min 0,000 mm 0,0 UV-I 0 W/m² 3,3 °C 3,9 °C 6,4 km/h (2 Bft)
29.10.2019 18:01 3,9 °C 96 % 1021,1 hPa 0,0 mm 3,0 km/h (1 Bft) O 79 ° 0 min 0,000 mm 0,0 UV-I 0 W/m² 3,3 °C 3,9 °C 4,8 km/h (1 Bft)
29.10.2019 18:02 3,9 °C 96 % 1021,1 hPa 0,0 mm 4,2 km/h (1 Bft) NO 44 ° 0 min 0,000 mm 0,0 UV-I 0 W/m² 3,3 °C 3,9 °C 4,8 km/h (1 Bft)
29.10.2019 18:03 3,9 °C 96 % 1021,1 hPa 0,0 mm 4,0 km/h (1 Bft) O 85 ° 0 min 0,000 mm 0,0 UV-I 0 W/m² 3,3 °C 3,9 °C 4,8 km/h (1 Bft)
29.10.2019 18:04 3,9 °C 96 % 1021,1 hPa 0,0 mm 3,4 km/h (1 Bft) NO 44 ° 0 min 0,000 mm 0,0 UV-I 0 W/m² 3,3 °C 3,9 °C 4,8 km/h (1 Bft)
29.10.2019 18:05 3,9 °C 96 % 1021,1 hPa 0,0 mm 5,3 km/h (1 Bft) O-NO 57 ° 0 min 0,000 mm 0,0 UV-I 0 W/m² 3,3 °C 2,7 °C 6,4 km/h (2 Bft)
29.10.2019 18:06 3,9 °C 96 % 1021,1 hPa 0,0 mm 4,3 km/h (1 Bft) O-NO 57 ° 0 min 0,000 mm 0,0 UV-I 0 W/m² 3,3 °C 3,9 °C 6,4 km/h (2 Bft)
29.10.2019 18:07 3,9 °C 96 % 1021,1 hPa 0,0 mm 1,3 km/h (1 Bft) O-NO 57 ° 0 min 0,000 mm 0,0 UV-I 0 W/m² 3,3 °C 3,9 °C 3,2 km/h (1 Bft)
29.10.2019 18:08 3,9 °C 96 % 1021,1 hPa 0,0 mm 3,1 km/h (1 Bft) O 80 ° 0 min 0,000 mm 0,0 UV-I 0 W/m² 3,3 °C 3,9 °C 6,4 km/h (2 Bft)
29.10.2019 18:09 3,9 °C 96 % 1021,1 hPa 0,0 mm 5,0 km/h (1 Bft) O-NO 60 ° 0 min 0,000 mm 0,0 UV-I 0 W/m² 3,3 °C 2,8 °C 8,0 km/h (2 Bft)
29.10.2019 18:10 3,9 °C 96 % 1021,2 hPa 0,0 mm 6,9 km/h (2 Bft) O-NO 69 ° 0 min 0,000 mm 0,0 UV-I 0 W/m² 3,3 °C 2,2 °C 11,3 km/h (2 Bft)
29.10.2019 18:11 3,9 °C 96 % 1021,2 hPa 0,0 mm 4,4 km/h (1 Bft) O-NO 71 ° 0 min 0,000 mm 0,0 UV-I 0 W/m² 3,3 °C 3,9 °C 6,4 km/h (2 Bft)
29.10.2019 18:12 4,0 °C 96 % 1021,2 hPa 0,0 mm 4,8 km/h (1 Bft) O-NO 71 ° 0 min 0,000 mm 0,0 UV-I 0 W/m² 3,4 °C 3,0 °C 6,4 km/h (2 Bft)
29.10.2019 18:13 4,0 °C 96 % 1021,2 hPa 0,0 mm 3,3 km/h (1 Bft) O-NO 71 ° 0 min 0,000 mm 0,0 UV-I 0 W/m² 3,4 °C 4,0 °C 4,8 km/h (1 Bft)
29.10.2019 18:14 4,0 °C 96 % 1021,2 hPa 0,0 mm 3,2 km/h (1 Bft) N-NO 30 ° 0 min 0,000 mm 0,0 UV-I 0 W/m² 3,4 °C 4,0 °C 4,8 km/h (1 Bft)
29.10.2019 18:15 4,0 °C 96 % 1021,2 hPa 0,0 mm 1,3 km/h (1 Bft) N-NO 30 ° 0 min 0,000 mm 0,0 UV-I 0 W/m² 3,4 °C 4,0 °C 4,8 km/h (1 Bft)
29.10.2019 18:16 4,0 °C 96 % 1021,2 hPa 0,0 mm 1,7 km/h (1 Bft) N-NO 31 ° 0 min 0,000 mm 0,0 UV-I 0 W/m² 3,4 °C 4,0 °C 6,4 km/h (2 Bft)
29.10.2019 18:17 4,0 °C 96 % 1021,2 hPa 0,0 mm 4,4 km/h (1 Bft) O-NO 57 ° 0 min 0,000 mm 0,0 UV-I 0 W/m² 3,4 °C 4,0 °C 6,4 km/h (2 Bft)
29.10.2019 18:18 4,0 °C 96 % 1021,2 hPa 0,0 mm 3,1 km/h (1 Bft) O-NO 66 ° 0 min 0,000 mm 0,0 UV-I 0 W/m² 3,4 °C 4,0 °C 3,2 km/h (1 Bft)
29.10.2019 18:19 4,0 °C 96 % 1021,2 hPa 0,0 mm 4,8 km/h (1 Bft) O-NO 78 ° 0 min 0,000 mm 0,0 UV-I 0 W/m² 3,4 °C 3,0 °C 11,3 km/h (2 Bft)
29.10.2019 18:20 4,0 °C 96 % 1021,2 hPa 0,0 mm 4,6 km/h (1 Bft) O-NO 73 ° 0 min 0,000 mm 0,0 UV-I 0 W/m² 3,4 °C 3,1 °C 11,3 km/h (2 Bft)
29.10.2019 18:21 4,1 °C 96 % 1021,2 hPa 0,0 mm 3,8 km/h (1 Bft) O-NO 69 ° 0 min 0,000 mm 0,0 UV-I 0 W/m² 3,5 °C 4,1 °C 6,4 km/h (2 Bft)
29.10.2019 18:22 4,1 °C 96 % 1021,1 hPa 0,0 mm 4,5 km/h (1 Bft) O-NO 64 ° 0 min 0,000 mm 0,0 UV-I 0 W/m² 3,5 °C 4,1 °C 6,4 km/h (2 Bft)
29.10.2019 18:23 4,1 °C 96 % 1021,1 hPa 0,0 mm 5,2 km/h (1 Bft) O-NO 70 ° 0 min 0,000 mm 0,0 UV-I 0 W/m² 3,5 °C 3,0 °C 8,0 km/h (2 Bft)
29.10.2019 18:24 4,1 °C 96 % 1021,1 hPa 0,0 mm 2,8 km/h (1 Bft) O-NO 70 ° 0 min 0,000 mm 0,0 UV-I 0 W/m² 3,5 °C 4,1 °C 4,8 km/h (1 Bft)
29.10.2019 18:25 4,1 °C 96 % 1021,1 hPa 0,0 mm 5,7 km/h (1 Bft) SO 132 ° 0 min 0,000 mm 0,0 UV-I 0 W/m² 3,5 °C 2,8 °C 8,0 km/h (2 Bft)
29.10.2019 18:26 4,1 °C 96 % 1021,1 hPa 0,0 mm 1,7 km/h (1 Bft) SO 132 ° 0 min 0,000 mm 0,0 UV-I 0 W/m² 3,5 °C 4,1 °C 6,4 km/h (2 Bft)
29.10.2019 18:27 4,1 °C 96 % 1021,2 hPa 0,0 mm 0,5 km/h (0 Bft) O 82 ° 0 min 0,000 mm 0,0 UV-I 0 W/m² 3,5 °C 4,1 °C 3,2 km/h (1 Bft)
29.10.2019 18:28 4,1 °C 96 % 1021,1 hPa 0,0 mm 4,6 km/h (1 Bft) O 89 ° 0 min 0,000 mm 0,0 UV-I 0 W/m² 3,5 °C 3,2 °C 6,4 km/h (2 Bft)
29.10.2019 18:29 4,1 °C 96 % 1021,1 hPa 0,0 mm 3,8 km/h (1 Bft) O-NO 59 ° 0 min 0,000 mm 0,0 UV-I 0 W/m² 3,5 °C 4,1 °C 6,4 km/h (2 Bft)
29.10.2019 18:30 4,1 °C 96 % 1021,2 hPa 0,0 mm 5,1 km/h (1 Bft) O 79 ° 0 min 0,000 mm 0,0 UV-I 0 W/m² 3,5 °C 3,0 °C 6,4 km/h (2 Bft)
29.10.2019 18:31 4,1 °C 96 % 1021,2 hPa 0,0 mm 4,5 km/h (1 Bft) O 88 ° 0 min 0,000 mm 0,0 UV-I 0 W/m² 3,5 °C 4,1 °C 6,4 km/h (2 Bft)
29.10.2019 18:32 4,1 °C 96 % 1021,2 hPa 0,0 mm 4,2 km/h (1 Bft) O-NO 68 ° 0 min 0,000 mm 0,0 UV-I 0 W/m² 3,5 °C 4,1 °C 6,4 km/h (2 Bft)
29.10.2019 18:33 4,1 °C 96 % 1021,2 hPa 0,0 mm 1,6 km/h (1 Bft) O-NO 68 ° 0 min 0,000 mm 0,0 UV-I 0 W/m² 3,5 °C 4,1 °C 3,2 km/h (1 Bft)
29.10.2019 18:34 4,1 °C 96 % 1021,2 hPa 0,0 mm 4,7 km/h (1 Bft) O-NO 67 ° 0 min 0,000 mm 0,0 UV-I 0 W/m² 3,5 °C 3,2 °C 8,0 km/h (2 Bft)
29.10.2019 18:35 4,1 °C 96 % 1021,2 hPa 0,0 mm 3,8 km/h (1 Bft) O-NO 74 ° 0 min 0,000 mm 0,0 UV-I 0 W/m² 3,5 °C 4,1 °C 4,8 km/h (1 Bft)
29.10.2019 18:36 4,1 °C 96 % 1021,2 hPa 0,0 mm 3,7 km/h (1 Bft) O-NO 74 ° 0 min 0,000 mm 0,0 UV-I 0 W/m² 3,5 °C 4,1 °C 4,8 km/h (1 Bft)
29.10.2019 18:37 4,1 °C 96 % 1021,2 hPa 0,0 mm 1,1 km/h (1 Bft) O-NO 74 ° 0 min 0,000 mm 0,0 UV-I 0 W/m² 3,5 °C 4,1 °C 3,2 km/h (1 Bft)
29.10.2019 18:38 4,1 °C 96 % 1021,2 hPa 0,0 mm 4,2 km/h (1 Bft) O-NO 77 ° 0 min 0,000 mm 0,0 UV-I 0 W/m² 3,5 °C 4,1 °C 6,4 km/h (2 Bft)
29.10.2019 18:39 4,1 °C 96 % 1021,2 hPa 0,0 mm 3,9 km/h (1 Bft) O 84 ° 0 min 0,000 mm 0,0 UV-I 0 W/m² 3,5 °C 4,1 °C 6,4 km/h (2 Bft)
29.10.2019 18:40 4,1 °C 96 % 1021,2 hPa 0,0 mm 1,7 km/h (1 Bft) O 84 ° 0 min 0,000 mm 0,0 UV-I 0 W/m² 3,5 °C 4,1 °C 3,2 km/h (1 Bft)
29.10.2019 18:41 4,1 °C 96 % 1021,2 hPa 0,0 mm 4,4 km/h (1 Bft) O-NO 63 ° 0 min 0,000 mm 0,0 UV-I 0 W/m² 3,5 °C 4,1 °C 8,0 km/h (2 Bft)
29.10.2019 18:42 4,1 °C 96 % 1021,2 hPa 0,0 mm 4,8 km/h (1 Bft) O-NO 57 ° 0 min 0,000 mm 0,0 UV-I 0 W/m² 3,5 °C 3,1 °C 6,4 km/h (2 Bft)
29.10.2019 18:43 4,1 °C 96 % 1021,2 hPa 0,0 mm 3,7 km/h (1 Bft) O-NO 57 ° 0 min 0,000 mm 0,0 UV-I 0 W/m² 3,5 °C 4,1 °C 4,8 km/h (1 Bft)
29.10.2019 18:44 4,1 °C 96 % 1021,2 hPa 0,0 mm 1,1 km/h (1 Bft) O-NO 57 ° 0 min 0,000 mm 0,0 UV-I 0 W/m² 3,5 °C 4,1 °C 3,2 km/h (1 Bft)
29.10.2019 18:45 4,1 °C 96 % 1021,2 hPa 0,0 mm 4,4 km/h (1 Bft) O-NO 57 ° 0 min 0,000 mm 0,0 UV-I 0 W/m² 3,5 °C 4,1 °C 6,4 km/h (2 Bft)
29.10.2019 18:46 4,1 °C 96 % 1021,2 hPa 0,0 mm 4,4 km/h (1 Bft) O 82 ° 0 min 0,000 mm 0,0 UV-I 0 W/m² 3,5 °C 4,1 °C 4,8 km/h (1 Bft)
29.10.2019 18:47 4,1 °C 96 % 1021,2 hPa 0,0 mm 3,4 km/h (1 Bft) O 82 ° 0 min 0,000 mm 0,0 UV-I 0 W/m² 3,5 °C 4,1 °C 4,8 km/h (1 Bft)
29.10.2019 18:48 4,2 °C 96 % 1021,2 hPa 0,0 mm 0,6 km/h (0 Bft) O 82 ° 0 min 0,000 mm 0,0 UV-I 0 W/m² 3,6 °C 4,2 °C 1,6 km/h (1 Bft)
29.10.2019 18:49 4,2 °C 96 % 1021,2 hPa 0,0 mm 0,0 km/h (0 Bft) O 82 ° 0 min 0,000 mm 0,0 UV-I 0 W/m² 3,6 °C 4,2 °C 0,0 km/h (0 Bft)
29.10.2019 18:50 4,2 °C 96 % 1021,1 hPa 0,0 mm 3,4 km/h (1 Bft) O 82 ° 0 min 0,000 mm 0,0 UV-I 0 W/m² 3,6 °C 4,2 °C 6,4 km/h (2 Bft)
29.10.2019 18:51 4,1 °C 96 % 1021,1 hPa 0,0 mm 3,3 km/h (1 Bft) O 82 ° 0 min 0,000 mm 0,0 UV-I 0 W/m² 3,5 °C 4,1 °C 4,8 km/h (1 Bft)
29.10.2019 18:52 4,1 °C 96 % 1021,1 hPa 0,0 mm 4,8 km/h (1 Bft) NO 53 ° 0 min 0,000 mm 0,0 UV-I 0 W/m² 3,5 °C 3,1 °C 8,0 km/h (2 Bft)
29.10.2019 18:53 4,2 °C 96 % 1021,1 hPa 0,0 mm 3,0 km/h (1 Bft) NO 53 ° 0 min 0,000 mm 0,0 UV-I 0 W/m² 3,6 °C 4,2 °C 4,8 km/h (1 Bft)
29.10.2019 18:54 4,2 °C 96 % 1021,1 hPa 0,0 mm 2,9 km/h (1 Bft) NO 53 ° 0 min 0,000 mm 0,0 UV-I 0 W/m² 3,6 °C 4,2 °C 4,8 km/h (1 Bft)
29.10.2019 18:55 4,2 °C 96 % 1021,1 hPa 0,0 mm 3,8 km/h (1 Bft) NO 53 ° 0 min 0,000 mm 0,0 UV-I 0 W/m² 3,6 °C 4,2 °C 4,8 km/h (1 Bft)
29.10.2019 18:56 4,2 °C 96 % 1021,1 hPa 0,0 mm 4,3 km/h (1 Bft) O 88 ° 0 min 0,000 mm 0,0 UV-I 0 W/m² 3,6 °C 4,2 °C 11,3 km/h (2 Bft)
29.10.2019 18:57 4,2 °C 96 % 1021,1 hPa 0,0 mm 2,1 km/h (1 Bft) O 82 ° 0 min 0,000 mm 0,0 UV-I 0 W/m² 3,6 °C 4,2 °C 4,8 km/h (1 Bft)
29.10.2019 18:58 4,2 °C 96 % 1021,1 hPa 0,0 mm 1,1 km/h (1 Bft) O 82 ° 0 min 0,000 mm 0,0 UV-I 0 W/m² 3,6 °C 4,2 °C 3,2 km/h (1 Bft)
29.10.2019 18:59 4,2 °C 96 % 1021,1 hPa 0,0 mm 0,7 km/h (0 Bft) O 82 ° 0 min 0,000 mm 0,0 UV-I 0 W/m² 3,6 °C 4,2 °C 3,2 km/h (1 Bft)
29.10.2019 19:00 4,2 °C 96 % 1021,1 hPa 0,0 mm 2,6 km/h (1 Bft) O 82 ° 0 min 0,000 mm 0,0 UV-I 0 W/m² 3,6 °C 4,2 °C 4,8 km/h (1 Bft)
29.10.2019 19:01 4,2 °C 96 % 1021,1 hPa 0,0 mm 2,9 km/h (1 Bft) O 82 ° 0 min 0,000 mm 0,0 UV-I 0 W/m² 3,6 °C 4,2 °C 4,8 km/h (1 Bft)
29.10.2019 19:02 4,2 °C 96 % 1021,1 hPa 0,0 mm 5,2 km/h (1 Bft) O-NO 66 ° 0 min 0,000 mm 0,0 UV-I 0 W/m² 3,6 °C 3,1 °C 6,4 km/h (2 Bft)
29.10.2019 19:03 4,2 °C 96 % 1021,1 hPa 0,0 mm 5,8 km/h (2 Bft) O 89 ° 0 min 0,000 mm 0,0 UV-I 0 W/m² 3,6 °C 2,9 °C 9,7 km/h (2 Bft)
29.10.2019 19:04 4,2 °C 96 % 1021,1 hPa 0,0 mm 3,5 km/h (1 Bft) O 89 ° 0 min 0,000 mm 0,0 UV-I 0 W/m² 3,6 °C 4,2 °C 4,8 km/h (1 Bft)
29.10.2019 19:05 4,2 °C 96 % 1021,1 hPa 0,0 mm 2,1 km/h (1 Bft) NO 54 ° 0 min 0,000 mm 0,0 UV-I 0 W/m² 3,6 °C 4,2 °C 6,4 km/h (2 Bft)
29.10.2019 19:06 4,2 °C 96 % 1021,1 hPa 0,0 mm 5,0 km/h (1 Bft) O-NO 77 ° 0 min 0,000 mm 0,0 UV-I 0 W/m² 3,6 °C 3,2 °C 6,4 km/h (2 Bft)
29.10.2019 19:07 4,2 °C 96 % 1021,1 hPa 0,0 mm 2,7 km/h (1 Bft) O 89 ° 0 min 0,000 mm 0,0 UV-I 0 W/m² 3,6 °C 4,2 °C 6,4 km/h (2 Bft)
29.10.2019 19:08 4,2 °C 96 % 1021,1 hPa 0,0 mm 2,9 km/h (1 Bft) O-NO 67 ° 0 min 0,000 mm 0,0 UV-I 0 W/m² 3,6 °C 4,2 °C 4,8 km/h (1 Bft)
29.10.2019 19:09 4,2 °C 96 % 1021,1 hPa 0,0 mm 3,9 km/h (1 Bft) NO 51 ° 0 min 0,000 mm 0,0 UV-I 0 W/m² 3,6 °C 4,2 °C 6,4 km/h (2 Bft)
29.10.2019 19:10 4,2 °C 96 % 1021,1 hPa 0,0 mm 4,0 km/h (1 Bft) O 81 ° 0 min 0,000 mm 0,0 UV-I 0 W/m² 3,6 °C 4,2 °C 6,4 km/h (2 Bft)
29.10.2019 19:11 4,2 °C 96 % 1021,1 hPa 0,0 mm 5,2 km/h (1 Bft) O-NO 60 ° 0 min 0,000 mm 0,0 UV-I 0 W/m² 3,6 °C 3,1 °C 6,4 km/h (2 Bft)
29.10.2019 19:12 4,2 °C 96 % 1021,0 hPa 0,0 mm 3,9 km/h (1 Bft) O-NO 63 ° 0 min 0,000 mm 0,0 UV-I 0 W/m² 3,6 °C 4,2 °C 8,0 km/h (2 Bft)
29.10.2019 19:13 4,2 °C 96 % 1021,1 hPa 0,0 mm 2,9 km/h (1 Bft) O-NO 64 ° 0 min 0,000 mm 0,0 UV-I 0 W/m² 3,6 °C 4,2 °C 6,4 km/h (2 Bft)
29.10.2019 19:14 4,2 °C 96 % 1021,1 hPa 0,0 mm 4,0 km/h (1 Bft) O-NO 63 ° 0 min 0,000 mm 0,0 UV-I 0 W/m² 3,6 °C 4,2 °C 6,4 km/h (2 Bft)
29.10.2019 19:15 4,2 °C 96 % 1021,1 hPa 0,0 mm 4,0 km/h (1 Bft) N-NO 31 ° 0 min 0,000 mm 0,0 UV-I 0 W/m² 3,6 °C 4,2 °C 6,4 km/h (2 Bft)
29.10.2019 19:16 4,2 °C 96 % 1021,1 hPa 0,0 mm 4,4 km/h (1 Bft) NO 40 ° 0 min 0,000 mm 0,0 UV-I 0 W/m² 3,6 °C 4,2 °C 6,4 km/h (2 Bft)
29.10.2019 19:17 4,2 °C 96 % 1021,1 hPa 0,0 mm 4,1 km/h (1 Bft) NO 39 ° 0 min 0,000 mm 0,0 UV-I 0 W/m² 3,6 °C 4,2 °C 6,4 km/h (2 Bft)
29.10.2019 19:18 4,2 °C 96 % 1021,1 hPa 0,0 mm 1,0 km/h (0 Bft) NO 39 ° 0 min 0,000 mm 0,0 UV-I 0 W/m² 3,6 °C 4,2 °C 3,2 km/h (1 Bft)
29.10.2019 19:19 4,1 °C 96 % 1021,2 hPa 0,0 mm 3,5 km/h (1 Bft) O 83 ° 0 min 0,000 mm 0,0 UV-I 0 W/m² 3,5 °C 4,1 °C 11,3 km/h (2 Bft)
29.10.2019 19:20 4,2 °C 96 % 1021,1 hPa 0,0 mm 5,2 km/h (1 Bft) O 96 ° 0 min 0,000 mm 0,0 UV-I 0 W/m² 3,6 °C 3,1 °C 6,4 km/h (2 Bft)
29.10.2019 19:21 4,2 °C 96 % 1021,1 hPa 0,0 mm 6,0 km/h (2 Bft) O 82 ° 0 min 0,000 mm 0,0 UV-I 0 W/m² 3,6 °C 2,8 °C 8,0 km/h (2 Bft)
29.10.2019 19:22 4,2 °C 96 % 1021,1 hPa 0,0 mm 5,3 km/h (1 Bft) O 84 ° 0 min 0,000 mm 0,0 UV-I 0 W/m² 3,6 °C 3,1 °C 8,0 km/h (2 Bft)
29.10.2019 19:23 4,1 °C 96 % 1021,2 hPa 0,0 mm 4,3 km/h (1 Bft) O 83 ° 0 min 0,000 mm 0,0 UV-I 0 W/m² 3,5 °C 4,1 °C 6,4 km/h (2 Bft)
29.10.2019 19:24 4,1 °C 96 % 1021,2 hPa 0,0 mm 2,8 km/h (1 Bft) O 83 ° 0 min 0,000 mm 0,0 UV-I 0 W/m² 3,5 °C 4,1 °C 4,8 km/h (1 Bft)
29.10.2019 19:25 4,1 °C 96 % 1021,2 hPa 0,0 mm 2,7 km/h (1 Bft) O-NO 61 ° 0 min 0,000 mm 0,0 UV-I 0 W/m² 3,5 °C 4,1 °C 6,4 km/h (2 Bft)
29.10.2019 19:26 4,1 °C 96 % 1021,3 hPa 0,0 mm 4,8 km/h (1 Bft) O-NO 74 ° 0 min 0,000 mm 0,0 UV-I 0 W/m² 3,5 °C 3,1 °C 6,4 km/h (2 Bft)
29.10.2019 19:27 4,1 °C 96 % 1021,3 hPa 0,0 mm 2,3 km/h (1 Bft) O-NO 74 ° 0 min 0,000 mm 0,0 UV-I 0 W/m² 3,5 °C 4,1 °C 4,8 km/h (1 Bft)
29.10.2019 19:28 4,2 °C 96 % 1021,3 hPa 0,0 mm 0,6 km/h (0 Bft) O-NO 74 ° 0 min 0,000 mm 0,0 UV-I 0 W/m² 3,6 °C 4,2 °C 1,6 km/h (1 Bft)
29.10.2019 19:29 4,1 °C 96 % 1021,3 hPa 0,0 mm 0,0 km/h (0 Bft) O-NO 74 ° 0 min 0,000 mm 0,0 UV-I 0 W/m² 3,5 °C 4,1 °C 0,0 km/h (0 Bft)
29.10.2019 19:30 4,1 °C 96 % 1021,3 hPa 0,0 mm 0,1 km/h (0 Bft) O-NO 74 ° 0 min 0,000 mm 0,0 UV-I 0 W/m² 3,5 °C 4,1 °C 3,2 km/h (1 Bft)
29.10.2019 19:31 4,1 °C 96 % 1021,3 hPa 0,0 mm 4,4 km/h (1 Bft) O-NO 74 ° 0 min 0,000 mm 0,0 UV-I 0 W/m² 3,5 °C 4,1 °C 6,4 km/h (2 Bft)
29.10.2019 19:32 4,2 °C 96 % 1021,2 hPa 0,0 mm 2,8 km/h (1 Bft) O-NO 74 ° 0 min 0,000 mm 0,0 UV-I 0 W/m² 3,6 °C 4,2 °C 4,8 km/h (1 Bft)
29.10.2019 19:33 4,2 °C 96 % 1021,2 hPa 0,0 mm 3,8 km/h (1 Bft) NO 46 ° 0 min 0,000 mm 0,0 UV-I 0 W/m² 3,6 °C 4,2 °C 6,4 km/h (2 Bft)
29.10.2019 19:34 4,2 °C 96 % 1021,2 hPa 0,0 mm 3,0 km/h (1 Bft) O-NO 61 ° 0 min 0,000 mm 0,0 UV-I 0 W/m² 3,6 °C 4,2 °C 4,8 km/h (1 Bft)
29.10.2019 19:35 4,1 °C 96 % 1021,2 hPa 0,0 mm 1,0 km/h (0 Bft) O-NO 61 ° 0 min 0,000 mm 0,0 UV-I 0 W/m² 3,5 °C 4,1 °C 3,2 km/h (1 Bft)
29.10.2019 19:36 4,2 °C 96 % 1021,2 hPa 0,0 mm 5,8 km/h (2 Bft) O-NO 67 ° 0 min 0,000 mm 0,0 UV-I 0 W/m² 3,6 °C 2,9 °C 8,0 km/h (2 Bft)
29.10.2019 19:37 4,2 °C 96 % 1021,2 hPa 0,0 mm 4,2 km/h (1 Bft) O-SO 108 ° 0 min 0,000 mm 0,0 UV-I 0 W/m² 3,6 °C 4,2 °C 6,4 km/h (2 Bft)
29.10.2019 19:38 4,2 °C 96 % 1021,2 hPa 0,0 mm 3,2 km/h (1 Bft) NO 55 ° 0 min 0,000 mm 0,0 UV-I 0 W/m² 3,6 °C 4,2 °C 4,8 km/h (1 Bft)
29.10.2019 19:39 4,2 °C 96 % 1021,2 hPa 0,0 mm 3,5 km/h (1 Bft) O-NO 59 ° 0 min 0,000 mm 0,0 UV-I 0 W/m² 3,6 °C 4,2 °C 4,8 km/h (1 Bft)
29.10.2019 19:40 4,2 °C 96 % 1021,2 hPa 0,0 mm 4,8 km/h (1 Bft) NO 39 ° 0 min 0,000 mm 0,0 UV-I 0 W/m² 3,6 °C 3,3 °C 9,7 km/h (2 Bft)
29.10.2019 19:41 4,1 °C 96 % 1021,2 hPa 0,0 mm 5,6 km/h (1 Bft) NO 52 ° 0 min 0,000 mm 0,0 UV-I 0 W/m² 3,5 °C 2,8 °C 8,0 km/h (2 Bft)
29.10.2019 19:42 4,1 °C 96 % 1021,2 hPa 0,0 mm 5,0 km/h (1 Bft) N-NO 31 ° 0 min 0,000 mm 0,0 UV-I 0 W/m² 3,5 °C 3,1 °C 6,4 km/h (2 Bft)
29.10.2019 19:43 4,1 °C 96 % 1021,2 hPa 0,0 mm 4,8 km/h (1 Bft) O-NO 70 ° 0 min 0,000 mm 0,0 UV-I 0 W/m² 3,5 °C 3,1 °C 8,0 km/h (2 Bft)
29.10.2019 19:44 4,1 °C 96 % 1021,3 hPa 0,0 mm 4,4 km/h (1 Bft) O 88 ° 0 min 0,000 mm 0,0 UV-I 0 W/m² 3,5 °C 4,1 °C 6,4 km/h (2 Bft)
29.10.2019 19:45 4,1 °C 96 % 1021,3 hPa 0,0 mm 5,1 km/h (1 Bft) NO 36 ° 0 min 0,000 mm 0,0 UV-I 0 W/m² 3,5 °C 3,0 °C 8,0 km/h (2 Bft)
29.10.2019 19:46 4,1 °C 96 % 1021,2 hPa 0,0 mm 4,8 km/h (1 Bft) O 86 ° 0 min 0,000 mm 0,0 UV-I 0 W/m² 3,5 °C 3,1 °C 6,4 km/h (2 Bft)
29.10.2019 19:47 4,1 °C 96 % 1021,2 hPa 0,0 mm 6,6 km/h (2 Bft) O-NO 71 ° 0 min 0,000 mm 0,0 UV-I 0 W/m² 3,5 °C 2,5 °C 8,0 km/h (2 Bft)
29.10.2019 19:48 4,1 °C 96 % 1021,2 hPa 0,0 mm 5,2 km/h (1 Bft) O 90 ° 0 min 0,000 mm 0,0 UV-I 0 W/m² 3,5 °C 3,0 °C 8,0 km/h (2 Bft)
29.10.2019 19:49 4,1 °C 96 % 1021,2 hPa 0,0 mm 3,1 km/h (1 Bft) NO 46 ° 0 min 0,000 mm 0,0 UV-I 0 W/m² 3,5 °C 4,1 °C 4,8 km/h (1 Bft)
29.10.2019 19:50 4,1 °C 96 % 1021,2 hPa 0,0 mm 3,8 km/h (1 Bft) NO 49 ° 0 min 0,000 mm 0,0 UV-I 0 W/m² 3,5 °C 4,1 °C 4,8 km/h (1 Bft)
29.10.2019 19:51 4,1 °C 96 % 1021,2 hPa 0,0 mm 3,0 km/h (1 Bft) NO 49 ° 0 min 0,000 mm 0,0 UV-I 0 W/m² 3,5 °C 4,1 °C 4,8 km/h (1 Bft)
29.10.2019 19:52 4,1 °C 96 % 1021,2 hPa 0,0 mm 1,4 km/h (1 Bft) NO 49 ° 0 min 0,000 mm 0,0 UV-I 0 W/m² 3,5 °C 4,1 °C 4,8 km/h (1 Bft)
29.10.2019 19:53 4,1 °C 96 % 1021,2 hPa 0,0 mm 2,0 km/h (1 Bft) O 84 ° 0 min 0,000 mm 0,0 UV-I 0 W/m² 3,5 °C 4,1 °C 6,4 km/h (2 Bft)
29.10.2019 19:54 4,1 °C 96 % 1021,2 hPa 0,0 mm 4,4 km/h (1 Bft) O-NO 71 ° 0 min 0,000 mm 0,0 UV-I 0 W/m² 3,5 °C 4,1 °C 6,4 km/h (2 Bft)
29.10.2019 19:55 4,1 °C 96 % 1021,3 hPa 0,0 mm 4,4 km/h (1 Bft) O-NO 71 ° 0 min 0,000 mm 0,0 UV-I 0 W/m² 3,5 °C 4,1 °C 6,4 km/h (2 Bft)
29.10.2019 19:56 4,1 °C 96 % 1021,2 hPa 0,0 mm 3,7 km/h (1 Bft) O 86 ° 0 min 0,000 mm 0,0 UV-I 0 W/m² 3,5 °C 4,1 °C 6,4 km/h (2 Bft)
29.10.2019 19:57 4,1 °C 96 % 1021,2 hPa 0,0 mm 5,3 km/h (1 Bft) NO 47 ° 0 min 0,000 mm 0,0 UV-I 0 W/m² 3,5 °C 2,9 °C 8,0 km/h (2 Bft)
29.10.2019 19:58 4,1 °C 96 % 1021,3 hPa 0,0 mm 5,9 km/h (2 Bft) O 81 ° 0 min 0,000 mm 0,0 UV-I 0 W/m² 3,5 °C 2,7 °C 8,0 km/h (2 Bft)
29.10.2019 19:59 4,1 °C 96 % 1021,3 hPa 0,0 mm 4,3 km/h (1 Bft) NO 51 ° 0 min 0,000 mm 0,0 UV-I 0 W/m² 3,5 °C 4,1 °C 4,8 km/h (1 Bft)
29.10.2019 20:00 4,0 °C 96 % 1021,3 hPa 0,0 mm 5,5 km/h (1 Bft) NO 39 ° 0 min 0,000 mm 0,0 UV-I 0 W/m² 3,4 °C 2,8 °C 8,0 km/h (2 Bft)
29.10.2019 20:01 4,1 °C 96 % 1021,3 hPa 0,0 mm 5,3 km/h (1 Bft) NO 55 ° 0 min 0,000 mm 0,0 UV-I 0 W/m² 3,5 °C 2,9 °C 9,7 km/h (2 Bft)
29.10.2019 20:02 4,0 °C 96 % 1021,3 hPa 0,0 mm 7,0 km/h (2 Bft) NO 48 ° 0 min 0,000 mm 0,0 UV-I 0 W/m² 3,4 °C 2,2 °C 9,7 km/h (2 Bft)
29.10.2019 20:03 4,1 °C 96 % 1021,3 hPa 0,0 mm 7,0 km/h (2 Bft) O-NO 68 ° 0 min 0,000 mm 0,0 UV-I 0 W/m² 3,5 °C 2,4 °C 9,7 km/h (2 Bft)
29.10.2019 20:04 4,0 °C 96 % 1021,2 hPa 0,0 mm 7,8 km/h (2 Bft) O-NO 61 ° 0 min 0,000 mm 0,0 UV-I 0 W/m² 3,4 °C 2,0 °C 9,7 km/h (2 Bft)
29.10.2019 20:05 4,1 °C 96 % 1021,3 hPa 0,0 mm 8,5 km/h (2 Bft) O 84 ° 0 min 0,000 mm 0,0 UV-I 0 W/m² 3,5 °C 1,9 °C 12,9 km/h (3 Bft)
29.10.2019 20:06 4,0 °C 96 % 1021,3 hPa 0,0 mm 9,0 km/h (2 Bft) O 88 ° 0 min 0,000 mm 0,0 UV-I 0 W/m² 3,4 °C 1,7 °C 12,9 km/h (3 Bft)
29.10.2019 20:07 4,0 °C 96 % 1021,2 hPa 0,0 mm 6,2 km/h (2 Bft) O 89 ° 0 min 0,000 mm 0,0 UV-I 0 W/m² 3,4 °C 2,5 °C 11,3 km/h (2 Bft)
29.10.2019 20:08 4,0 °C 96 % 1021,2 hPa 0,0 mm 7,1 km/h (2 Bft) NO 42 ° 0 min 0,000 mm 0,0 UV-I 0 W/m² 3,4 °C 2,2 °C 11,3 km/h (2 Bft)
29.10.2019 20:09 4,0 °C 96 % 1021,3 hPa 0,0 mm 5,0 km/h (1 Bft) O-NO 76 ° 0 min 0,000 mm 0,0 UV-I 0 W/m² 3,4 °C 2,9 °C 8,0 km/h (2 Bft)
29.10.2019 20:10 4,0 °C 96 % 1021,3 hPa 0,0 mm 6,8 km/h (2 Bft) O-NO 75 ° 0 min 0,000 mm 0,0 UV-I 0 W/m² 3,4 °C 2,3 °C 8,0 km/h (2 Bft)
29.10.2019 20:11 4,0 °C 96 % 1021,3 hPa 0,0 mm 3,7 km/h (1 Bft) O-NO 61 ° 0 min 0,000 mm 0,0 UV-I 0 W/m² 3,4 °C 4,0 °C 6,4 km/h (2 Bft)
29.10.2019 20:12 3,9 °C 96 % 1021,4 hPa 0,0 mm 3,4 km/h (1 Bft) NO 46 ° 0 min 0,000 mm 0,0 UV-I 0 W/m² 3,3 °C 3,9 °C 6,4 km/h (2 Bft)
29.10.2019 20:13 3,9 °C 96 % 1021,4 hPa 0,0 mm 4,2 km/h (1 Bft) O 89 ° 0 min 0,000 mm 0,0 UV-I 0 W/m² 3,3 °C 3,9 °C 6,4 km/h (2 Bft)
29.10.2019 20:14 3,9 °C 96 % 1021,4 hPa 0,0 mm 4,8 km/h (1 Bft) O-NO 74 ° 0 min 0,000 mm 0,0 UV-I 0 W/m² 3,3 °C 2,9 °C 11,3 km/h (2 Bft)
29.10.2019 20:15 3,9 °C 96 % 1021,4 hPa 0,0 mm 4,3 km/h (1 Bft) NO 40 ° 0 min 0,000 mm 0,0 UV-I 0 W/m² 3,3 °C 3,9 °C 6,4 km/h (2 Bft)
29.10.2019 20:16 3,9 °C 96 % 1021,4 hPa 0,0 mm 3,6 km/h (1 Bft) NO 49 ° 0 min 0,000 mm 0,0 UV-I 0 W/m² 3,3 °C 3,9 °C 6,4 km/h (2 Bft)
29.10.2019 20:17 3,9 °C 96 % 1021,5 hPa 0,0 mm 4,7 km/h (1 Bft) O-NO 62 ° 0 min 0,000 mm 0,0 UV-I 0 W/m² 3,3 °C 3,0 °C 6,4 km/h (2 Bft)
29.10.2019 20:18 3,9 °C 96 % 1021,5 hPa 0,0 mm 8,8 km/h (2 Bft) O-NO 68 ° 0 min 0,000 mm 0,0 UV-I 0 W/m² 3,3 °C 1,6 °C 12,9 km/h (3 Bft)
29.10.2019 20:19 3,9 °C 96 % 1021,5 hPa 0,0 mm 7,0 km/h (2 Bft) O-SO 117 ° 0 min 0,000 mm 0,0 UV-I 0 W/m² 3,3 °C 2,1 °C 9,7 km/h (2 Bft)
29.10.2019 20:20 3,9 °C 96 % 1021,5 hPa 0,0 mm 7,8 km/h (2 Bft) O 86 ° 0 min 0,000 mm 0,0 UV-I 0 W/m² 3,3 °C 1,9 °C 12,9 km/h (3 Bft)
29.10.2019 20:21 3,8 °C 96 % 1021,5 hPa 0,0 mm 4,4 km/h (1 Bft) NO 48 ° 0 min 0,000 mm 0,0 UV-I 0 W/m² 3,2 °C 3,8 °C 6,4 km/h (2 Bft)
29.10.2019 20:22 3,8 °C 96 % 1021,5 hPa 0,0 mm 3,2 km/h (1 Bft) NO 49 ° 0 min 0,000 mm 0,0 UV-I 0 W/m² 3,2 °C 3,8 °C 4,8 km/h (1 Bft)
29.10.2019 20:23 3,8 °C 96 % 1021,5 hPa 0,0 mm 4,9 km/h (1 Bft) O 85 ° 0 min 0,000 mm 0,0 UV-I 0 W/m² 3,2 °C 2,8 °C 8,0 km/h (2 Bft)
29.10.2019 20:24 3,8 °C 96 % 1021,5 hPa 0,0 mm 3,4 km/h (1 Bft) O-NO 72 ° 0 min 0,000 mm 0,0 UV-I 0 W/m² 3,2 °C 3,8 °C 4,8 km/h (1 Bft)
29.10.2019 20:25 3,8 °C 96 % 1021,5 hPa 0,0 mm 6,7 km/h (2 Bft) O 94 ° 0 min 0,000 mm 0,0 UV-I 0 W/m² 3,2 °C 2,1 °C 9,7 km/h (2 Bft)
29.10.2019 20:26 3,8 °C 96 % 1021,6 hPa 0,0 mm 3,6 km/h (1 Bft) N-NO 29 ° 0 min 0,000 mm 0,0 UV-I 0 W/m² 3,2 °C 3,8 °C 6,4 km/h (2 Bft)
29.10.2019 20:27 3,8 °C 96 % 1021,6 hPa 0,0 mm 3,8 km/h (1 Bft) NO 46 ° 0 min 0,000 mm 0,0 UV-I 0 W/m² 3,2 °C 3,8 °C 6,4 km/h (2 Bft)
29.10.2019 20:28 3,8 °C 96 % 1021,6 hPa 0,0 mm 1,9 km/h (1 Bft) NO 46 ° 0 min 0,000 mm 0,0 UV-I 0 W/m² 3,2 °C 3,8 °C 3,2 km/h (1 Bft)
29.10.2019 20:29 3,8 °C 96 % 1021,7 hPa 0,0 mm 4,6 km/h (1 Bft) NO 44 ° 0 min 0,000 mm 0,0 UV-I 0 W/m² 3,2 °C 2,9 °C 8,0 km/h (2 Bft)
29.10.2019 20:30 3,8 °C 96 % 1021,7 hPa 0,0 mm 2,1 km/h (1 Bft) NO 44 ° 0 min 0,000 mm 0,0 UV-I 0 W/m² 3,2 °C 3,8 °C 3,2 km/h (1 Bft)
29.10.2019 20:31 3,8 °C 96 % 1021,7 hPa 0,0 mm 1,8 km/h (1 Bft) NO 44 ° 0 min 0,000 mm 0,0 UV-I 0 W/m² 3,2 °C 3,8 °C 3,2 km/h (1 Bft)
29.10.2019 20:32 3,8 °C 96 % 1021,7 hPa 0,0 mm 2,7 km/h (1 Bft) NO 44 ° 0 min 0,000 mm 0,0 UV-I 0 W/m² 3,2 °C 3,8 °C 4,8 km/h (1 Bft)
29.10.2019 20:33 3,8 °C 96 % 1021,7 hPa 0,0 mm 4,3 km/h (1 Bft) O-NO 59 ° 0 min 0,000 mm 0,0 UV-I 0 W/m² 3,2 °C 3,8 °C 6,4 km/h (2 Bft)
29.10.2019 20:34 3,8 °C 96 % 1021,7 hPa 0,0 mm 3,9 km/h (1 Bft) O-NO 67 ° 0 min 0,000 mm 0,0 UV-I 0 W/m² 3,2 °C 3,8 °C 4,8 km/h (1 Bft)
29.10.2019 20:35 3,8 °C 96 % 1021,7 hPa 0,0 mm 9,8 km/h (2 Bft) NO 55 ° 0 min 0,000 mm 0,0 UV-I 0 W/m² 3,2 °C 1,3 °C 19,3 km/h (3 Bft)
29.10.2019 20:36 3,8 °C 96 % 1021,7 hPa 0,0 mm 6,3 km/h (2 Bft) O-NO 57 ° 0 min 0,000 mm 0,0 UV-I 0 W/m² 3,2 °C 2,2 °C 9,7 km/h (2 Bft)
29.10.2019 20:37 3,7 °C 96 % 1021,7 hPa 0,0 mm 7,6 km/h (2 Bft) O 98 ° 0 min 0,000 mm 0,0 UV-I 0 W/m² 3,1 °C 1,7 °C 12,9 km/h (3 Bft)
29.10.2019 20:38 3,8 °C 96 % 1021,7 hPa 0,0 mm 6,0 km/h (2 Bft) NO 46 ° 0 min 0,000 mm 0,0 UV-I 0 W/m² 3,2 °C 2,3 °C 11,3 km/h (2 Bft)
29.10.2019 20:39 3,7 °C 96 % 1021,7 hPa 0,0 mm 5,3 km/h (1 Bft) NO 42 ° 0 min 0,000 mm 0,0 UV-I 0 W/m² 3,1 °C 2,5 °C 8,0 km/h (2 Bft)
29.10.2019 20:40 3,7 °C 96 % 1021,7 hPa 0,0 mm 6,0 km/h (2 Bft) NO 38 ° 0 min 0,000 mm 0,0 UV-I 0 W/m² 3,1 °C 2,2 °C 8,0 km/h (2 Bft)
29.10.2019 20:41 3,7 °C 96 % 1021,7 hPa 0,0 mm 7,6 km/h (2 Bft) NO 42 ° 0 min 0,000 mm 0,0 UV-I 0 W/m² 3,1 °C 1,7 °C 16,1 km/h (3 Bft)
29.10.2019 20:42 3,7 °C 96 % 1021,7 hPa 0,0 mm 7,4 km/h (2 Bft) O-NO 65 ° 0 min 0,000 mm 0,0 UV-I 0 W/m² 3,1 °C 1,8 °C 11,3 km/h (2 Bft)
29.10.2019 20:43 3,7 °C 96 % 1021,7 hPa 0,0 mm 6,0 km/h (2 Bft) O 97 ° 0 min 0,000 mm 0,0 UV-I 0 W/m² 3,1 °C 2,2 °C 11,3 km/h (2 Bft)
29.10.2019 20:44 3,7 °C 96 % 1021,7 hPa 0,0 mm 7,4 km/h (2 Bft) NO 45 ° 0 min 0,000 mm 0,0 UV-I 0 W/m² 3,1 °C 1,8 °C 11,3 km/h (2 Bft)
29.10.2019 20:45 3,7 °C 96 % 1021,7 hPa 0,0 mm 4,2 km/h (1 Bft) O-NO 62 ° 0 min 0,000 mm 0,0 UV-I 0 W/m² 3,1 °C 3,7 °C 8,0 km/h (2 Bft)
29.10.2019 20:46 3,7 °C 96 % 1021,7 hPa 0,0 mm 2,0 km/h (1 Bft) O-NO 62 ° 0 min 0,000 mm 0,0 UV-I 0 W/m² 3,1 °C 3,7 °C 3,2 km/h (1 Bft)
29.10.2019 20:47 3,7 °C 96 % 1021,8 hPa 0,0 mm 1,6 km/h (1 Bft) O-NO 62 ° 0 min 0,000 mm 0,0 UV-I 0 W/m² 3,1 °C 3,7 °C 3,2 km/h (1 Bft)
29.10.2019 20:48 3,7 °C 96 % 1021,7 hPa 0,0 mm 1,7 km/h (1 Bft) O-NO 62 ° 0 min 0,000 mm 0,0 UV-I 0 W/m² 3,1 °C 3,7 °C 3,2 km/h (1 Bft)
29.10.2019 20:49 3,7 °C 96 % 1021,7 hPa 0,0 mm 2,9 km/h (1 Bft) NO 52 ° 0 min 0,000 mm 0,0 UV-I 0 W/m² 3,1 °C 3,7 °C 4,8 km/h (1 Bft)
29.10.2019 20:50 3,7 °C 96 % 1021,8 hPa 0,0 mm 2,8 km/h (1 Bft) NO 52 ° 0 min 0,000 mm 0,0 UV-I 0 W/m² 3,1 °C 3,7 °C 4,8 km/h (1 Bft)
29.10.2019 20:51 3,7 °C 96 % 1021,7 hPa 0,0 mm 1,7 km/h (1 Bft) NO 52 ° 0 min 0,000 mm 0,0 UV-I 0 W/m² 3,1 °C 3,7 °C 3,2 km/h (1 Bft)
29.10.2019 20:52 3,7 °C 96 % 1021,8 hPa 0,0 mm 0,3 km/h (0 Bft) NO 52 ° 0 min 0,000 mm 0,0 UV-I 0 W/m² 3,1 °C 3,7 °C 1,6 km/h (1 Bft)
29.10.2019 20:53 3,7 °C 96 % 1021,8 hPa 0,0 mm 1,8 km/h (1 Bft) NO 52 ° 0 min 0,000 mm 0,0 UV-I 0 W/m² 3,1 °C 3,7 °C 3,2 km/h (1 Bft)
29.10.2019 20:54 3,7 °C 96 % 1021,7 hPa 0,0 mm 3,6 km/h (1 Bft) NO 52 ° 0 min 0,000 mm 0,0 UV-I 0 W/m² 3,1 °C 3,7 °C 4,8 km/h (1 Bft)
29.10.2019 20:55 3,7 °C 96 % 1021,7 hPa 0,0 mm 0,8 km/h (0 Bft) NO 52 ° 0 min 0,000 mm 0,0 UV-I 0 W/m² 3,1 °C 3,7 °C 3,2 km/h (1 Bft)
29.10.2019 20:56 3,7 °C 96 % 1021,8 hPa 0,0 mm 2,5 km/h (1 Bft) NO 52 ° 0 min 0,000 mm 0,0 UV-I 0 W/m² 3,1 °C 3,7 °C 3,2 km/h (1 Bft)
29.10.2019 20:57 3,7 °C 96 % 1021,8 hPa 0,0 mm 4,6 km/h (1 Bft) O-NO 74 ° 0 min 0,000 mm 0,0 UV-I 0 W/m² 3,1 °C 2,8 °C 6,4 km/h (2 Bft)
29.10.2019 20:58 3,7 °C 96 % 1021,8 hPa 0,0 mm 3,1 km/h (1 Bft) O-NO 75 ° 0 min 0,000 mm 0,0 UV-I 0 W/m² 3,1 °C 3,7 °C 4,8 km/h (1 Bft)
29.10.2019 20:59 3,7 °C 96 % 1021,8 hPa 0,0 mm 3,1 km/h (1 Bft) O-NO 75 ° 0 min 0,000 mm 0,0 UV-I 0 W/m² 3,1 °C 3,7 °C 4,8 km/h (1 Bft)
29.10.2019 21:00 3,7 °C 96 % 1021,8 hPa 0,0 mm 2,1 km/h (1 Bft) O-NO 75 ° 0 min 0,000 mm 0,0 UV-I 0 W/m² 3,1 °C 3,7 °C 3,2 km/h (1 Bft)
29.10.2019 21:01 3,7 °C 96 % 1021,8 hPa 0,0 mm 5,0 km/h (1 Bft) NO 36 ° 0 min 0,000 mm 0,0 UV-I 0 W/m² 3,1 °C 2,6 °C 8,0 km/h (2 Bft)
29.10.2019 21:02 3,7 °C 96 % 1021,8 hPa 0,0 mm 4,9 km/h (1 Bft) O-NO 57 ° 0 min 0,000 mm 0,0 UV-I 0 W/m² 3,1 °C 2,6 °C 8,0 km/h (2 Bft)
29.10.2019 21:03 3,7 °C 96 % 1021,8 hPa 0,0 mm 5,8 km/h (2 Bft) O 96 ° 0 min 0,000 mm 0,0 UV-I 0 W/m² 3,1 °C 2,3 °C 8,0 km/h (2 Bft)
29.10.2019 21:04 3,7 °C 96 % 1021,9 hPa 0,0 mm 3,8 km/h (1 Bft) O-NO 78 ° 0 min 0,000 mm 0,0 UV-I 0 W/m² 3,1 °C 3,7 °C 4,8 km/h (1 Bft)
29.10.2019 21:05 3,7 °C 96 % 1021,9 hPa 0,0 mm 3,8 km/h (1 Bft) NO 50 ° 0 min 0,000 mm 0,0 UV-I 0 W/m² 3,1 °C 3,7 °C 6,4 km/h (2 Bft)
29.10.2019 21:06 3,7 °C 96 % 1021,9 hPa 0,0 mm 3,4 km/h (1 Bft) O 82 ° 0 min 0,000 mm 0,0 UV-I 0 W/m² 3,1 °C 3,7 °C 4,8 km/h (1 Bft)
29.10.2019 21:07 3,7 °C 96 % 1021,9 hPa 0,0 mm 3,1 km/h (1 Bft) O 82 ° 0 min 0,000 mm 0,0 UV-I 0 W/m² 3,1 °C 3,7 °C 4,8 km/h (1 Bft)
29.10.2019 21:08 3,7 °C 96 % 1021,9 hPa 0,0 mm 3,4 km/h (1 Bft) NO 52 ° 0 min 0,000 mm 0,0 UV-I 0 W/m² 3,1 °C 3,7 °C 4,8 km/h (1 Bft)
29.10.2019 21:09 3,7 °C 96 % 1021,9 hPa 0,0 mm 4,8 km/h (1 Bft) O-NO 71 ° 0 min 0,000 mm 0,0 UV-I 0 W/m² 3,1 °C 2,7 °C 8,0 km/h (2 Bft)
29.10.2019 21:10 3,7 °C 96 % 1021,9 hPa 0,0 mm 5,2 km/h (1 Bft) O-NO 78 ° 0 min 0,000 mm 0,0 UV-I 0 W/m² 3,1 °C 2,5 °C 8,0 km/h (2 Bft)
29.10.2019 21:11 3,7 °C 96 % 1021,9 hPa 0,0 mm 6,0 km/h (2 Bft) O-NO 66 ° 0 min 0,000 mm 0,0 UV-I 0 W/m² 3,1 °C 2,2 °C 9,7 km/h (2 Bft)
29.10.2019 21:12 3,7 °C 96 % 1022,0 hPa 0,0 mm 5,8 km/h (2 Bft) NO 50 ° 0 min 0,000 mm 0,0 UV-I 0 W/m² 3,1 °C 2,3 °C 8,0 km/h (2 Bft)
29.10.2019 21:13 3,7 °C 96 % 1022,0 hPa 0,0 mm 4,6 km/h (1 Bft) NO 56 ° 0 min 0,000 mm 0,0 UV-I 0 W/m² 3,1 °C 2,8 °C 8,0 km/h (2 Bft)
29.10.2019 21:14 3,7 °C 96 % 1022,0 hPa 0,0 mm 5,4 km/h (1 Bft) O 87 ° 0 min 0,000 mm 0,0 UV-I 0 W/m² 3,1 °C 2,4 °C 6,4 km/h (2 Bft)
29.10.2019 21:15 3,7 °C 96 % 1022,0 hPa 0,0 mm 7,6 km/h (2 Bft) O 94 ° 0 min 0,000 mm 0,0 UV-I 0 W/m² 3,1 °C 1,7 °C 11,3 km/h (2 Bft)
29.10.2019 21:16 3,7 °C 96 % 1022,0 hPa 0,0 mm 5,6 km/h (1 Bft) O-NO 74 ° 0 min 0,000 mm 0,0 UV-I 0 W/m² 3,1 °C 2,4 °C 9,7 km/h (2 Bft)
29.10.2019 21:17 3,7 °C 96 % 1022,0 hPa 0,0 mm 4,8 km/h (1 Bft) NO 44 ° 0 min 0,000 mm 0,0 UV-I 0 W/m² 3,1 °C 2,7 °C 8,0 km/h (2 Bft)
29.10.2019 21:18 3,7 °C 96 % 1022,0 hPa 0,0 mm 3,6 km/h (1 Bft) NO 48 ° 0 min 0,000 mm 0,0 UV-I 0 W/m² 3,1 °C 3,7 °C 4,8 km/h (1 Bft)
29.10.2019 21:19 3,7 °C 96 % 1022,0 hPa 0,0 mm 3,7 km/h (1 Bft) NO 53 ° 0 min 0,000 mm 0,0 UV-I 0 W/m² 3,1 °C 3,7 °C 6,4 km/h (2 Bft)
29.10.2019 21:20 3,7 °C 96 % 1022,0 hPa 0,0 mm 2,7 km/h (1 Bft) O-SO 116 ° 0 min 0,000 mm 0,0 UV-I 0 W/m² 3,1 °C 3,7 °C 4,8 km/h (1 Bft)
29.10.2019 21:21 3,7 °C 96 % 1022,1 hPa 0,0 mm 6,5 km/h (2 Bft) O-NO 57 ° 0 min 0,000 mm 0,0 UV-I 0 W/m² 3,1 °C 2,1 °C 9,7 km/h (2 Bft)
29.10.2019 21:22 3,7 °C 96 % 1022,0 hPa 0,0 mm 3,3 km/h (1 Bft) O-NO 65 ° 0 min 0,000 mm 0,0 UV-I 0 W/m² 3,1 °C 3,7 °C 4,8 km/h (1 Bft)
29.10.2019 21:23 3,7 °C 96 % 1022,1 hPa 0,0 mm 5,2 km/h (1 Bft) O-NO 67 ° 0 min 0,000 mm 0,0 UV-I 0 W/m² 3,1 °C 2,5 °C 6,4 km/h (2 Bft)
29.10.2019 21:24 3,7 °C 96 % 1022,1 hPa 0,0 mm 5,9 km/h (2 Bft) O 80 ° 0 min 0,000 mm 0,0 UV-I 0 W/m² 3,1 °C 2,3 °C 9,7 km/h (2 Bft)
29.10.2019 21:25 3,7 °C 96 % 1022,0 hPa 0,0 mm 4,6 km/h (1 Bft) NO 36 ° 0 min 0,000 mm 0,0 UV-I 0 W/m² 3,1 °C 2,8 °C 6,4 km/h (2 Bft)
29.10.2019 21:26 3,7 °C 96 % 1022,1 hPa 0,0 mm 4,5 km/h (1 Bft) NO 37 ° 0 min 0,000 mm 0,0 UV-I 0 W/m² 3,1 °C 3,7 °C 6,4 km/h (2 Bft)
29.10.2019 21:27 3,7 °C 96 % 1022,0 hPa 0,0 mm 0,1 km/h (0 Bft) NO 37 ° 0 min 0,000 mm 0,0 UV-I 0 W/m² 3,1 °C 3,7 °C 1,6 km/h (1 Bft)
29.10.2019 21:28 3,7 °C 96 % 1022,0 hPa 0,0 mm 0,0 km/h (0 Bft) NO 37 ° 0 min 0,000 mm 0,0 UV-I 0 W/m² 3,1 °C 3,7 °C 0,0 km/h (0 Bft)
29.10.2019 21:29 3,7 °C 96 % 1022,0 hPa 0,0 mm 2,7 km/h (1 Bft) NO 34 ° 0 min 0,000 mm 0,0 UV-I 0 W/m² 3,1 °C 3,7 °C 6,4 km/h (2 Bft)
29.10.2019 21:30 3,7 °C 96 % 1022,0 hPa 0,0 mm 4,4 km/h (1 Bft) NO 38 ° 0 min 0,000 mm 0,0 UV-I 0 W/m² 3,1 °C 3,7 °C 6,4 km/h (2 Bft)
29.10.2019 21:31 3,7 °C 96 % 1022,0 hPa 0,0 mm 2,1 km/h (1 Bft) NO 38 ° 0 min 0,000 mm 0,0 UV-I 0 W/m² 3,1 °C 3,7 °C 4,8 km/h (1 Bft)
29.10.2019 21:32 3,7 °C 96 % 1022,1 hPa 0,0 mm 2,8 km/h (1 Bft) O-NO 66 ° 0 min 0,000 mm 0,0 UV-I 0 W/m² 3,1 °C 3,7 °C 4,8 km/h (1 Bft)
29.10.2019 21:33 3,7 °C 96 % 1022,1 hPa 0,0 mm 3,4 km/h (1 Bft) O-NO 65 ° 0 min 0,000 mm 0,0 UV-I 0 W/m² 3,1 °C 3,7 °C 6,4 km/h (2 Bft)
29.10.2019 21:34 3,7 °C 96 % 1022,1 hPa 0,0 mm 5,0 km/h (1 Bft) O 86 ° 0 min 0,000 mm 0,0 UV-I 0 W/m² 3,1 °C 2,6 °C 9,7 km/h (2 Bft)
29.10.2019 21:35 3,6 °C 96 % 1022,1 hPa 0,0 mm 5,1 km/h (1 Bft) NO 55 ° 0 min 0,000 mm 0,0 UV-I 0 W/m² 3,0 °C 2,5 °C 9,7 km/h (2 Bft)
29.10.2019 21:36 3,7 °C 96 % 1022,1 hPa 0,0 mm 5,6 km/h (1 Bft) O-NO 71 ° 0 min 0,000 mm 0,0 UV-I 0 W/m² 3,1 °C 2,4 °C 8,0 km/h (2 Bft)
29.10.2019 21:37 3,7 °C 96 % 1022,1 hPa 0,0 mm 4,4 km/h (1 Bft) O-NO 64 ° 0 min 0,000 mm 0,0 UV-I 0 W/m² 3,1 °C 3,7 °C 6,4 km/h (2 Bft)
29.10.2019 21:38 3,6 °C 96 % 1022,1 hPa 0,0 mm 3,9 km/h (1 Bft) O-NO 74 ° 0 min 0,000 mm 0,0 UV-I 0 W/m² 3,0 °C 3,6 °C 6,4 km/h (2 Bft)
29.10.2019 21:39 3,6 °C 96 % 1022,1 hPa 0,0 mm 3,4 km/h (1 Bft) O-NO 74 ° 0 min 0,000 mm 0,0 UV-I 0 W/m² 3,0 °C 3,6 °C 4,8 km/h (1 Bft)
29.10.2019 21:40 3,6 °C 96 % 1022,1 hPa 0,0 mm 3,0 km/h (1 Bft) O-NO 74 ° 0 min 0,000 mm 0,0 UV-I 0 W/m² 3,0 °C 3,6 °C 4,8 km/h (1 Bft)
29.10.2019 21:41 3,6 °C 96 % 1022,1 hPa 0,0 mm 5,1 km/h (1 Bft) N 360 ° 0 min 0,000 mm 0,0 UV-I 0 W/m² 3,0 °C 2,5 °C 6,4 km/h (2 Bft)
29.10.2019 21:42 3,6 °C 96 % 1022,1 hPa 0,0 mm 5,8 km/h (2 Bft) O-NO 78 ° 0 min 0,000 mm 0,0 UV-I 0 W/m² 3,0 °C 2,2 °C 9,7 km/h (2 Bft)
29.10.2019 21:43 3,6 °C 96 % 1022,0 hPa 0,0 mm 5,2 km/h (1 Bft) O-NO 59 ° 0 min 0,000 mm 0,0 UV-I 0 W/m² 3,0 °C 2,4 °C 6,4 km/h (2 Bft)
29.10.2019 21:44 3,6 °C 96 % 1022,1 hPa 0,0 mm 4,6 km/h (1 Bft) O-NO 61 ° 0 min 0,000 mm 0,0 UV-I 0 W/m² 3,0 °C 2,7 °C 8,0 km/h (2 Bft)
29.10.2019 21:45 3,6 °C 96 % 1022,1 hPa 0,0 mm 6,1 km/h (2 Bft) O 96 ° 0 min 0,000 mm 0,0 UV-I 0 W/m² 3,0 °C 2,1 °C 9,7 km/h (2 Bft)
29.10.2019 21:46 3,6 °C 96 % 1022,1 hPa 0,0 mm 7,4 km/h (2 Bft) O-NO 62 ° 0 min 0,000 mm 0,0 UV-I 0 W/m² 3,0 °C 1,7 °C 12,9 km/h (3 Bft)
29.10.2019 21:47 3,6 °C 96 % 1022,1 hPa 0,0 mm 5,6 km/h (1 Bft) N-NO 30 ° 0 min 0,000 mm 0,0 UV-I 0 W/m² 3,0 °C 2,3 °C 8,0 km/h (2 Bft)
29.10.2019 21:48 3,6 °C 96 % 1022,1 hPa 0,0 mm 4,6 km/h (1 Bft) NO 52 ° 0 min 0,000 mm 0,0 UV-I 0 W/m² 3,0 °C 2,7 °C 8,0 km/h (2 Bft)
29.10.2019 21:49 3,6 °C 96 % 1022,1 hPa 0,0 mm 6,4 km/h (2 Bft) O-NO 71 ° 0 min 0,000 mm 0,0 UV-I 0 W/m² 3,0 °C 2,0 °C 8,0 km/h (2 Bft)
29.10.2019 21:50 3,6 °C 96 % 1022,1 hPa 0,0 mm 4,4 km/h (1 Bft) O-NO 59 ° 0 min 0,000 mm 0,0 UV-I 0 W/m² 3,0 °C 3,6 °C 6,4 km/h (2 Bft)
29.10.2019 21:51 3,6 °C 96 % 1022,1 hPa 0,0 mm 4,2 km/h (1 Bft) O-NO 57 ° 0 min 0,000 mm 0,0 UV-I 0 W/m² 3,0 °C 3,6 °C 6,4 km/h (2 Bft)
29.10.2019 21:52 3,6 °C 96 % 1022,1 hPa 0,0 mm 6,6 km/h (2 Bft) NO 55 ° 0 min 0,000 mm 0,0 UV-I 0 W/m² 3,0 °C 1,9 °C 11,3 km/h (2 Bft)
29.10.2019 21:53 3,6 °C 96 % 1022,1 hPa 0,0 mm 3,4 km/h (1 Bft) NO 36 ° 0 min 0,000 mm 0,0 UV-I 0 W/m² 3,0 °C 3,6 °C 6,4 km/h (2 Bft)
29.10.2019 21:54 3,6 °C 96 % 1022,0 hPa 0,0 mm 7,6 km/h (2 Bft) O-NO 73 ° 0 min 0,000 mm 0,0 UV-I 0 W/m² 3,0 °C 1,6 °C 12,9 km/h (3 Bft)
29.10.2019 21:55 3,6 °C 96 % 1022,1 hPa 0,0 mm 4,4 km/h (1 Bft) O-NO 68 ° 0 min 0,000 mm 0,0 UV-I 0 W/m² 3,0 °C 3,6 °C 6,4 km/h (2 Bft)
29.10.2019 21:56 3,6 °C 96 % 1022,0 hPa 0,0 mm 2,1 km/h (1 Bft) O-NO 68 ° 0 min 0,000 mm 0,0 UV-I 0 W/m² 3,0 °C 3,6 °C 3,2 km/h (1 Bft)
29.10.2019 21:57 3,6 °C 96 % 1022,0 hPa 0,0 mm 4,4 km/h (1 Bft) O-NO 73 ° 0 min 0,000 mm 0,0 UV-I 0 W/m² 3,0 °C 3,6 °C 8,0 km/h (2 Bft)
29.10.2019 21:58 3,6 °C 96 % 1022,1 hPa 0,0 mm 7,2 km/h (2 Bft) NO 55 ° 0 min 0,000 mm 0,0 UV-I 0 W/m² 3,0 °C 1,7 °C 11,3 km/h (2 Bft)
29.10.2019 21:59 3,6 °C 96 % 1022,1 hPa 0,0 mm 3,6 km/h (1 Bft) NO 55 ° 0 min 0,000 mm 0,0 UV-I 0 W/m² 3,0 °C 3,6 °C 4,8 km/h (1 Bft)
29.10.2019 22:00 3,6 °C 96 % 1022,1 hPa 0,0 mm 4,2 km/h (1 Bft) NO 54 ° 0 min 0,000 mm 0,0 UV-I 0 W/m² 3,0 °C 3,6 °C 4,8 km/h (1 Bft)
29.10.2019 22:01 3,6 °C 96 % 1022,1 hPa 0,0 mm 4,8 km/h (1 Bft) O-NO 71 ° 0 min 0,000 mm 0,0 UV-I 0 W/m² 3,0 °C 2,6 °C 8,0 km/h (2 Bft)
29.10.2019 22:02 3,6 °C 96 % 1022,1 hPa 0,0 mm 4,1 km/h (1 Bft) O-NO 67 ° 0 min 0,000 mm 0,0 UV-I 0 W/m² 3,0 °C 3,6 °C 6,4 km/h (2 Bft)
29.10.2019 22:03 3,6 °C 96 % 1022,1 hPa 0,0 mm 4,0 km/h (1 Bft) O-NO 75 ° 0 min 0,000 mm 0,0 UV-I 0 W/m² 3,0 °C 3,6 °C 6,4 km/h (2 Bft)
29.10.2019 22:04 3,6 °C 96 % 1022,1 hPa 0,0 mm 3,8 km/h (1 Bft) O-NO 57 ° 0 min 0,000 mm 0,0 UV-I 0 W/m² 3,0 °C 3,6 °C 6,4 km/h (2 Bft)
29.10.2019 22:05 3,6 °C 96 % 1022,1 hPa 0,0 mm 4,0 km/h (1 Bft) O 83 ° 0 min 0,000 mm 0,0 UV-I 0 W/m² 3,0 °C 3,6 °C 6,4 km/h (2 Bft)
29.10.2019 22:06 3,6 °C 96 % 1022,1 hPa 0,0 mm 2,1 km/h (1 Bft) O 83 ° 0 min 0,000 mm 0,0 UV-I 0 W/m² 3,0 °C 3,6 °C 3,2 km/h (1 Bft)
29.10.2019 22:07 3,6 °C 96 % 1022,1 hPa 0,0 mm 1,9 km/h (1 Bft) O 85 ° 0 min 0,000 mm 0,0 UV-I 0 W/m² 3,0 °C 3,6 °C 4,8 km/h (1 Bft)
29.10.2019 22:08 3,6 °C 96 % 1022,1 hPa 0,0 mm 3,0 km/h (1 Bft) O 85 ° 0 min 0,000 mm 0,0 UV-I 0 W/m² 3,0 °C 3,6 °C 4,8 km/h (1 Bft)
29.10.2019 22:09 3,6 °C 96 % 1022,1 hPa 0,0 mm 2,2 km/h (1 Bft) O 85 ° 0 min 0,000 mm 0,0 UV-I 0 W/m² 3,0 °C 3,6 °C 4,8 km/h (1 Bft)
29.10.2019 22:10 3,6 °C 96 % 1022,1 hPa 0,0 mm 1,6 km/h (1 Bft) O 85 ° 0 min 0,000 mm 0,0 UV-I 0 W/m² 3,0 °C 3,6 °C 4,8 km/h (1 Bft)
29.10.2019 22:11 3,6 °C 96 % 1022,1 hPa 0,0 mm 2,3 km/h (1 Bft) O 85 ° 0 min 0,000 mm 0,0 UV-I 0 W/m² 3,0 °C 3,6 °C 3,2 km/h (1 Bft)
29.10.2019 22:12 3,6 °C 96 % 1022,1 hPa 0,0 mm 1,9 km/h (1 Bft) O 85 ° 0 min 0,000 mm 0,0 UV-I 0 W/m² 3,0 °C 3,6 °C 3,2 km/h (1 Bft)
29.10.2019 22:13 3,6 °C 96 % 1022,1 hPa 0,0 mm 3,1 km/h (1 Bft) O 85 ° 0 min 0,000 mm 0,0 UV-I 0 W/m² 3,0 °C 3,6 °C 4,8 km/h (1 Bft)
29.10.2019 22:14 3,7 °C 96 % 1022,0 hPa 0,0 mm 4,2 km/h (1 Bft) O-NO 57 ° 0 min 0,000 mm 0,0 UV-I 0 W/m² 3,1 °C 3,7 °C 6,4 km/h (2 Bft)
29.10.2019 22:15 3,7 °C 96 % 1022,0 hPa 0,0 mm 5,2 km/h (1 Bft) O 84 ° 0 min 0,000 mm 0,0 UV-I 0 W/m² 3,1 °C 2,5 °C 9,7 km/h (2 Bft)
29.10.2019 22:16 3,6 °C 96 % 1022,1 hPa 0,0 mm 1,6 km/h (1 Bft) O 84 ° 0 min 0,000 mm 0,0 UV-I 0 W/m² 3,0 °C 3,6 °C 3,2 km/h (1 Bft)
29.10.2019 22:17 3,7 °C 96 % 1022,1 hPa 0,0 mm 0,7 km/h (0 Bft) O 84 ° 0 min 0,000 mm 0,0 UV-I 0 W/m² 3,1 °C 3,7 °C 1,6 km/h (1 Bft)
29.10.2019 22:18 3,7 °C 96 % 1022,0 hPa 0,0 mm 2,0 km/h (1 Bft) O 84 ° 0 min 0,000 mm 0,0 UV-I 0 W/m² 3,1 °C 3,7 °C 3,2 km/h (1 Bft)
29.10.2019 22:19 3,7 °C 96 % 1022,1 hPa 0,0 mm 5,0 km/h (1 Bft) O-NO 58 ° 0 min 0,000 mm 0,0 UV-I 0 W/m² 3,1 °C 2,6 °C 8,0 km/h (2 Bft)
29.10.2019 22:20 3,7 °C 96 % 1022,1 hPa 0,0 mm 3,0 km/h (1 Bft) O-NO 58 ° 0 min 0,000 mm 0,0 UV-I 0 W/m² 3,1 °C 3,7 °C 4,8 km/h (1 Bft)
29.10.2019 22:21 3,6 °C 96 % 1022,1 hPa 0,0 mm 4,3 km/h (1 Bft) O-NO 76 ° 0 min 0,000 mm 0,0 UV-I 0 W/m² 3,0 °C 3,6 °C 6,4 km/h (2 Bft)
29.10.2019 22:22 3,7 °C 96 % 1022,1 hPa 0,0 mm 0,4 km/h (0 Bft) O-NO 76 ° 0 min 0,000 mm 0,0 UV-I 0 W/m² 3,1 °C 3,7 °C 1,6 km/h (1 Bft)
29.10.2019 22:23 3,6 °C 96 % 1022,1 hPa 0,0 mm 0,7 km/h (0 Bft) O-NO 76 ° 0 min 0,000 mm 0,0 UV-I 0 W/m² 3,0 °C 3,6 °C 1,6 km/h (1 Bft)
29.10.2019 22:24 3,6 °C 96 % 1022,1 hPa 0,0 mm 4,2 km/h (1 Bft) NO 47 ° 0 min 0,000 mm 0,0 UV-I 0 W/m² 3,0 °C 3,6 °C 6,4 km/h (2 Bft)
29.10.2019 22:25 3,6 °C 96 % 1022,0 hPa 0,0 mm 4,5 km/h (1 Bft) O 81 ° 0 min 0,000 mm 0,0 UV-I 0 W/m² 3,0 °C 3,6 °C 8,0 km/h (2 Bft)
29.10.2019 22:26 3,7 °C 96 % 1022,0 hPa 0,0 mm 5,2 km/h (1 Bft) O-NO 74 ° 0 min 0,000 mm 0,0 UV-I 0 W/m² 3,1 °C 2,5 °C 6,4 km/h (2 Bft)
29.10.2019 22:27 3,7 °C 96 % 1022,1 hPa 0,0 mm 3,4 km/h (1 Bft) NO 39 ° 0 min 0,000 mm 0,0 UV-I 0 W/m² 3,1 °C 3,7 °C 6,4 km/h (2 Bft)
29.10.2019 22:28 3,7 °C 96 % 1022,0 hPa 0,0 mm 3,4 km/h (1 Bft) N-NO 33 ° 0 min 0,000 mm 0,0 UV-I 0 W/m² 3,1 °C 3,7 °C 6,4 km/h (2 Bft)
29.10.2019 22:29 3,7 °C 96 % 1022,0 hPa 0,0 mm 4,4 km/h (1 Bft) O 81 ° 0 min 0,000 mm 0,0 UV-I 0 W/m² 3,1 °C 3,7 °C 6,4 km/h (2 Bft)
29.10.2019 22:30 3,7 °C 96 % 1022,0 hPa 0,0 mm 8,2 km/h (2 Bft) O 87 ° 0 min 0,000 mm 0,0 UV-I 0 W/m² 3,1 °C 1,6 °C 12,9 km/h (3 Bft)
29.10.2019 22:31 3,7 °C 96 % 1022,0 hPa 0,0 mm 7,7 km/h (2 Bft) NO 54 ° 0 min 0,000 mm 0,0 UV-I 0 W/m² 3,1 °C 1,7 °C 14,5 km/h (3 Bft)
29.10.2019 22:32 3,7 °C 96 % 1022,0 hPa 0,0 mm 4,5 km/h (1 Bft) NO 53 ° 0 min 0,000 mm 0,0 UV-I 0 W/m² 3,1 °C 3,7 °C 8,0 km/h (2 Bft)
29.10.2019 22:33 3,7 °C 96 % 1022,0 hPa 0,0 mm 5,1 km/h (1 Bft) NO 51 ° 0 min 0,000 mm 0,0 UV-I 0 W/m² 3,1 °C 2,6 °C 8,0 km/h (2 Bft)
29.10.2019 22:34 3,6 °C 96 % 1022,0 hPa 0,0 mm 4,2 km/h (1 Bft) O-NO 63 ° 0 min 0,000 mm 0,0 UV-I 0 W/m² 3,0 °C 3,6 °C 6,4 km/h (2 Bft)
29.10.2019 22:35 3,6 °C 96 % 1022,0 hPa 0,0 mm 3,9 km/h (1 Bft) O 97 ° 0 min 0,000 mm 0,0 UV-I 0 W/m² 3,0 °C 3,6 °C 9,7 km/h (2 Bft)
29.10.2019 22:36 3,7 °C 96 % 1022,0 hPa 0,0 mm 4,4 km/h (1 Bft) NO 55 ° 0 min 0,000 mm 0,0 UV-I 0 W/m² 3,1 °C 3,7 °C 8,0 km/h (2 Bft)
29.10.2019 22:37 3,6 °C 96 % 1022,0 hPa 0,0 mm 5,3 km/h (1 Bft) O-NO 62 ° 0 min 0,000 mm 0,0 UV-I 0 W/m² 3,0 °C 2,4 °C 6,4 km/h (2 Bft)
29.10.2019 22:38 3,7 °C 96 % 1022,0 hPa 0,0 mm 5,0 km/h (1 Bft) O 89 ° 0 min 0,000 mm 0,0 UV-I 0 W/m² 3,1 °C 2,6 °C 9,7 km/h (2 Bft)
29.10.2019 22:39 3,6 °C 96 % 1022,0 hPa 0,0 mm 3,6 km/h (1 Bft) O-NO 57 ° 0 min 0,000 mm 0,0 UV-I 0 W/m² 3,0 °C 3,6 °C 4,8 km/h (1 Bft)
29.10.2019 22:40 3,7 °C 96 % 1022,1 hPa 0,0 mm 3,7 km/h (1 Bft) O-NO 59 ° 0 min 0,000 mm 0,0 UV-I 0 W/m² 3,1 °C 3,7 °C 4,8 km/h (1 Bft)
29.10.2019 22:41 3,6 °C 96 % 1022,0 hPa 0,0 mm 3,0 km/h (1 Bft) O-NO 59 ° 0 min 0,000 mm 0,0 UV-I 0 W/m² 3,0 °C 3,6 °C 4,8 km/h (1 Bft)
29.10.2019 22:42 3,6 °C 96 % 1022,1 hPa 0,0 mm 4,7 km/h (1 Bft) NO 50 ° 0 min 0,000 mm 0,0 UV-I 0 W/m² 3,0 °C 2,6 °C 6,4 km/h (2 Bft)
29.10.2019 22:43 3,7 °C 96 % 1022,1 hPa 0,0 mm 5,7 km/h (1 Bft) O-NO 76 ° 0 min 0,000 mm 0,0 UV-I 0 W/m² 3,1 °C 2,3 °C 8,0 km/h (2 Bft)
29.10.2019 22:44 3,6 °C 96 % 1022,1 hPa 0,0 mm 5,6 km/h (1 Bft) NO 55 ° 0 min 0,000 mm 0,0 UV-I 0 W/m² 3,0 °C 2,3 °C 12,9 km/h (3 Bft)
29.10.2019 22:45 3,7 °C 96 % 1022,1 hPa 0,0 mm 2,7 km/h (1 Bft) NO 50 ° 0 min 0,000 mm 0,0 UV-I 0 W/m² 3,1 °C 3,7 °C 4,8 km/h (1 Bft)
29.10.2019 22:46 3,6 °C 96 % 1022,1 hPa 0,0 mm 1,3 km/h (1 Bft) NO 50 ° 0 min 0,000 mm 0,0 UV-I 0 W/m² 3,0 °C 3,6 °C 1,6 km/h (1 Bft)
29.10.2019 22:47 3,6 °C 96 % 1022,1 hPa 0,0 mm 4,7 km/h (1 Bft) N-NO 20 ° 0 min 0,000 mm 0,0 UV-I 0 W/m² 3,0 °C 2,6 °C 6,4 km/h (2 Bft)
29.10.2019 22:48 3,6 °C 96 % 1022,1 hPa 0,0 mm 2,6 km/h (1 Bft) NO 51 ° 0 min 0,000 mm 0,0 UV-I 0 W/m² 3,0 °C 3,6 °C 4,8 km/h (1 Bft)
29.10.2019 22:49 3,6 °C 96 % 1022,1 hPa 0,0 mm 1,8 km/h (1 Bft) NO 51 ° 0 min 0,000 mm 0,0 UV-I 0 W/m² 3,0 °C 3,6 °C 4,8 km/h (1 Bft)
29.10.2019 22:50 3,7 °C 96 % 1022,1 hPa 0,0 mm 2,5 km/h (1 Bft) NO 51 ° 0 min 0,000 mm 0,0 UV-I 0 W/m² 3,1 °C 3,7 °C 4,8 km/h (1 Bft)
29.10.2019 22:51 3,6 °C 96 % 1022,1 hPa 0,0 mm 4,1 km/h (1 Bft) NO 43 ° 0 min 0,000 mm 0,0 UV-I 0 W/m² 3,0 °C 3,6 °C 8,0 km/h (2 Bft)
29.10.2019 22:52 3,6 °C 96 % 1022,1 hPa 0,0 mm 4,2 km/h (1 Bft) O 80 ° 0 min 0,000 mm 0,0 UV-I 0 W/m² 3,0 °C 3,6 °C 6,4 km/h (2 Bft)
29.10.2019 22:53 3,6 °C 96 % 1022,1 hPa 0,0 mm 3,8 km/h (1 Bft) O-NO 69 ° 0 min 0,000 mm 0,0 UV-I 0 W/m² 3,0 °C 3,6 °C 4,8 km/h (1 Bft)
29.10.2019 22:54 3,7 °C 96 % 1022,1 hPa 0,0 mm 4,7 km/h (1 Bft) O-NO 57 ° 0 min 0,000 mm 0,0 UV-I 0 W/m² 3,1 °C 2,7 °C 6,4 km/h (2 Bft)
29.10.2019 22:55 3,6 °C 96 % 1022,1 hPa 0,0 mm 4,5 km/h (1 Bft) NO 36 ° 0 min 0,000 mm 0,0 UV-I 0 W/m² 3,0 °C 3,6 °C 8,0 km/h (2 Bft)
29.10.2019 22:56 3,6 °C 96 % 1022,1 hPa 0,0 mm 3,4 km/h (1 Bft) O 82 ° 0 min 0,000 mm 0,0 UV-I 0 W/m² 3,0 °C 3,6 °C 4,8 km/h (1 Bft)
29.10.2019 22:57 3,7 °C 96 % 1022,1 hPa 0,0 mm 2,1 km/h (1 Bft) O 82 ° 0 min 0,000 mm 0,0 UV-I 0 W/m² 3,1 °C 3,7 °C 4,8 km/h (1 Bft)
29.10.2019 22:58 3,7 °C 96 % 1022,1 hPa 0,0 mm 2,2 km/h (1 Bft) O 82 ° 0 min 0,000 mm 0,0 UV-I 0 W/m² 3,1 °C 3,7 °C 3,2 km/h (1 Bft)
29.10.2019 22:59 3,7 °C 96 % 1022,1 hPa 0,0 mm 4,4 km/h (1 Bft) O-NO 75 ° 0 min 0,000 mm 0,0 UV-I 0 W/m² 3,1 °C 3,7 °C 6,4 km/h (2 Bft)
29.10.2019 23:00 3,7 °C 96 % 1022,1 hPa 0,0 mm 2,6 km/h (1 Bft) O-NO 75 ° 0 min 0,000 mm 0,0 UV-I 0 W/m² 3,1 °C 3,7 °C 4,8 km/h (1 Bft)
29.10.2019 23:01 3,7 °C 96 % 1022,1 hPa 0,0 mm 2,4 km/h (1 Bft) O-NO 63 ° 0 min 0,000 mm 0,0 UV-I 0 W/m² 3,1 °C 3,7 °C 4,8 km/h (1 Bft)
29.10.2019 23:02 3,6 °C 96 % 1022,1 hPa 0,0 mm 3,9 km/h (1 Bft) N-NO 26 ° 0 min 0,000 mm 0,0 UV-I 0 W/m² 3,0 °C 3,6 °C 4,8 km/h (1 Bft)
29.10.2019 23:03 3,7 °C 96 % 1022,1 hPa 0,0 mm 4,4 km/h (1 Bft) NO 42 ° 0 min 0,000 mm 0,0 UV-I 0 W/m² 3,1 °C 3,7 °C 6,4 km/h (2 Bft)
29.10.2019 23:04 3,6 °C 96 % 1022,1 hPa 0,0 mm 3,0 km/h (1 Bft) NO 55 ° 0 min 0,000 mm 0,0 UV-I 0 W/m² 3,0 °C 3,6 °C 4,8 km/h (1 Bft)
29.10.2019 23:05 3,6 °C 96 % 1022,1 hPa 0,0 mm 1,7 km/h (1 Bft) NO 55 ° 0 min 0,000 mm 0,0 UV-I 0 W/m² 3,0 °C 3,6 °C 3,2 km/h (1 Bft)
29.10.2019 23:06 3,6 °C 96 % 1022,1 hPa 0,0 mm 3,1 km/h (1 Bft) O 91 ° 0 min 0,000 mm 0,0 UV-I 0 W/m² 3,0 °C 3,6 °C 4,8 km/h (1 Bft)
29.10.2019 23:07 3,7 °C 96 % 1022,2 hPa 0,0 mm 2,7 km/h (1 Bft) NO 37 ° 0 min 0,000 mm 0,0 UV-I 0 W/m² 3,1 °C 3,7 °C 4,8 km/h (1 Bft)
29.10.2019 23:08 3,6 °C 96 % 1022,1 hPa 0,0 mm 3,9 km/h (1 Bft) O-NO 57 ° 0 min 0,000 mm 0,0 UV-I 0 W/m² 3,0 °C 3,6 °C 4,8 km/h (1 Bft)
29.10.2019 23:09 3,7 °C 96 % 1022,1 hPa 0,0 mm 2,0 km/h (1 Bft) O-NO 57 ° 0 min 0,000 mm 0,0 UV-I 0 W/m² 3,1 °C 3,7 °C 4,8 km/h (1 Bft)
29.10.2019 23:10 3,7 °C 96 % 1022,1 hPa 0,0 mm 4,6 km/h (1 Bft) O 84 ° 0 min 0,000 mm 0,0 UV-I 0 W/m² 3,1 °C 2,8 °C 6,4 km/h (2 Bft)
29.10.2019 23:11 3,7 °C 96 % 1022,1 hPa 0,0 mm 5,4 km/h (1 Bft) NO 42 ° 0 min 0,000 mm 0,0 UV-I 0 W/m² 3,1 °C 2,4 °C 6,4 km/h (2 Bft)
29.10.2019 23:12 3,7 °C 96 % 1022,1 hPa 0,0 mm 4,0 km/h (1 Bft) NO 50 ° 0 min 0,000 mm 0,0 UV-I 0 W/m² 3,1 °C 3,7 °C 6,4 km/h (2 Bft)
29.10.2019 23:13 3,7 °C 96 % 1022,1 hPa 0,0 mm 3,0 km/h (1 Bft) NO 50 ° 0 min 0,000 mm 0,0 UV-I 0 W/m² 3,1 °C 3,7 °C 4,8 km/h (1 Bft)
29.10.2019 23:14 3,7 °C 96 % 1022,1 hPa 0,0 mm 2,5 km/h (1 Bft) NO 50 ° 0 min 0,000 mm 0,0 UV-I 0 W/m² 3,1 °C 3,7 °C 4,8 km/h (1 Bft)
29.10.2019 23:15 3,7 °C 96 % 1022,1 hPa 0,0 mm 1,7 km/h (1 Bft) NO 50 ° 0 min 0,000 mm 0,0 UV-I 0 W/m² 3,1 °C 3,7 °C 3,2 km/h (1 Bft)
29.10.2019 23:16 3,7 °C 96 % 1022,1 hPa 0,0 mm 2,5 km/h (1 Bft) NO 50 ° 0 min 0,000 mm 0,0 UV-I 0 W/m² 3,1 °C 3,7 °C 3,2 km/h (1 Bft)
29.10.2019 23:17 3,7 °C 96 % 1022,1 hPa 0,0 mm 0,4 km/h (0 Bft) NO 50 ° 0 min 0,000 mm 0,0 UV-I 0 W/m² 3,1 °C 3,7 °C 1,6 km/h (1 Bft)
29.10.2019 23:18 3,7 °C 96 % 1022,1 hPa 0,0 mm 4,6 km/h (1 Bft) NO 46 ° 0 min 0,000 mm 0,0 UV-I 0 W/m² 3,1 °C 2,8 °C 9,7 km/h (2 Bft)
29.10.2019 23:19 3,7 °C 96 % 1022,2 hPa 0,0 mm 2,5 km/h (1 Bft) NO 46 ° 0 min 0,000 mm 0,0 UV-I 0 W/m² 3,1 °C 3,7 °C 4,8 km/h (1 Bft)
29.10.2019 23:20 3,7 °C 96 % 1022,1 hPa 0,0 mm 2,2 km/h (1 Bft) NO 46 ° 0 min 0,000 mm 0,0 UV-I 0 W/m² 3,1 °C 3,7 °C 3,2 km/h (1 Bft)
29.10.2019 23:21 3,7 °C 96 % 1022,2 hPa 0,0 mm 4,8 km/h (1 Bft) NO 49 ° 0 min 0,000 mm 0,0 UV-I 0 W/m² 3,1 °C 2,7 °C 6,4 km/h (2 Bft)
29.10.2019 23:22 3,7 °C 96 % 1022,1 hPa 0,0 mm 3,8 km/h (1 Bft) O-NO 67 ° 0 min 0,000 mm 0,0 UV-I 0 W/m² 3,1 °C 3,7 °C 4,8 km/h (1 Bft)
29.10.2019 23:23 3,7 °C 96 % 1022,1 hPa 0,0 mm 3,5 km/h (1 Bft) O-NO 67 ° 0 min 0,000 mm 0,0 UV-I 0 W/m² 3,1 °C 3,7 °C 6,4 km/h (2 Bft)
29.10.2019 23:24 3,7 °C 96 % 1022,2 hPa 0,0 mm 4,8 km/h (1 Bft) O-NO 78 ° 0 min 0,000 mm 0,0 UV-I 0 W/m² 3,1 °C 2,7 °C 6,4 km/h (2 Bft)
29.10.2019 23:25 3,7 °C 96 % 1022,2 hPa 0,0 mm 5,2 km/h (1 Bft) O-NO 57 ° 0 min 0,000 mm 0,0 UV-I 0 W/m² 3,1 °C 2,5 °C 6,4 km/h (2 Bft)
29.10.2019 23:26 3,7 °C 96 % 1022,2 hPa 0,0 mm 3,8 km/h (1 Bft) O-NO 57 ° 0 min 0,000 mm 0,0 UV-I 0 W/m² 3,1 °C 3,7 °C 6,4 km/h (2 Bft)
29.10.2019 23:27 3,7 °C 96 % 1022,2 hPa 0,0 mm 3,6 km/h (1 Bft) O-NO 57 ° 0 min 0,000 mm 0,0 UV-I 0 W/m² 3,1 °C 3,7 °C 4,8 km/h (1 Bft)
29.10.2019 23:28 3,7 °C 96 % 1022,3 hPa 0,0 mm 2,4 km/h (1 Bft) O-NO 57 ° 0 min 0,000 mm 0,0 UV-I 0 W/m² 3,1 °C 3,7 °C 3,2 km/h (1 Bft)
29.10.2019 23:29 3,7 °C 96 % 1022,2 hPa 0,0 mm 0,6 km/h (0 Bft) O-NO 57 ° 0 min 0,000 mm 0,0 UV-I 0 W/m² 3,1 °C 3,7 °C 3,2 km/h (1 Bft)
29.10.2019 23:30 3,7 °C 96 % 1022,2 hPa 0,0 mm 1,3 km/h (1 Bft) O-NO 57 ° 0 min 0,000 mm 0,0 UV-I 0 W/m² 3,1 °C 3,7 °C 3,2 km/h (1 Bft)
29.10.2019 23:31 3,7 °C 96 % 1022,2 hPa 0,0 mm 2,0 km/h (1 Bft) O-NO 57 ° 0 min 0,000 mm 0,0 UV-I 0 W/m² 3,1 °C 3,7 °C 4,8 km/h (1 Bft)
29.10.2019 23:32 3,7 °C 96 % 1022,2 hPa 0,0 mm 5,0 km/h (1 Bft) O-NO 76 ° 0 min 0,000 mm 0,0 UV-I 0 W/m² 3,1 °C 2,6 °C 8,0 km/h (2 Bft)
29.10.2019 23:33 3,7 °C 96 % 1022,2 hPa 0,0 mm 4,0 km/h (1 Bft) NO 37 ° 0 min 0,000 mm 0,0 UV-I 0 W/m² 3,1 °C 3,7 °C 6,4 km/h (2 Bft)
29.10.2019 23:34 3,7 °C 96 % 1022,2 hPa 0,0 mm 2,9 km/h (1 Bft) O-NO 61 ° 0 min 0,000 mm 0,0 UV-I 0 W/m² 3,1 °C 3,7 °C 4,8 km/h (1 Bft)
29.10.2019 23:35 3,7 °C 96 % 1022,2 hPa 0,0 mm 3,4 km/h (1 Bft) NO 35 ° 0 min 0,000 mm 0,0 UV-I 0 W/m² 3,1 °C 3,7 °C 6,4 km/h (2 Bft)
29.10.2019 23:36 3,7 °C 96 % 1022,1 hPa 0,0 mm 4,2 km/h (1 Bft) O-NO 76 ° 0 min 0,000 mm 0,0 UV-I 0 W/m² 3,1 °C 3,7 °C 6,4 km/h (2 Bft)
29.10.2019 23:37 3,7 °C 96 % 1022,2 hPa 0,0 mm 4,3 km/h (1 Bft) O-NO 76 ° 0 min 0,000 mm 0,0 UV-I 0 W/m² 3,1 °C 3,7 °C 6,4 km/h (2 Bft)
29.10.2019 23:38 3,7 °C 96 % 1022,3 hPa 0,0 mm 2,4 km/h (1 Bft) O-NO 76 ° 0 min 0,000 mm 0,0 UV-I 0 W/m² 3,1 °C 3,7 °C 4,8 km/h (1 Bft)
29.10.2019 23:39 3,7 °C 96 % 1022,3 hPa 0,0 mm 1,9 km/h (1 Bft) O-NO 76 ° 0 min 0,000 mm 0,0 UV-I 0 W/m² 3,1 °C 3,7 °C 3,2 km/h (1 Bft)
29.10.2019 23:40 3,7 °C 96 % 1022,3 hPa 0,0 mm 3,7 km/h (1 Bft) O-NO 59 ° 0 min 0,000 mm 0,0 UV-I 0 W/m² 3,1 °C 3,7 °C 6,4 km/h (2 Bft)
29.10.2019 23:41 3,7 °C 96 % 1022,3 hPa 0,0 mm 3,8 km/h (1 Bft) NO 34 ° 0 min 0,000 mm 0,0 UV-I 0 W/m² 3,1 °C 3,7 °C 8,0 km/h (2 Bft)
29.10.2019 23:42 3,7 °C 96 % 1022,3 hPa 0,0 mm 4,7 km/h (1 Bft) O-NO 76 ° 0 min 0,000 mm 0,0 UV-I 0 W/m² 3,1 °C 2,7 °C 6,4 km/h (2 Bft)
29.10.2019 23:43 3,7 °C 96 % 1022,2 hPa 0,0 mm 2,7 km/h (1 Bft) O-NO 74 ° 0 min 0,000 mm 0,0 UV-I 0 W/m² 3,1 °C 3,7 °C 4,8 km/h (1 Bft)
29.10.2019 23:44 3,7 °C 96 % 1022,2 hPa 0,0 mm 3,0 km/h (1 Bft) NO 53 ° 0 min 0,000 mm 0,0 UV-I 0 W/m² 3,1 °C 3,7 °C 6,4 km/h (2 Bft)
29.10.2019 23:45 3,7 °C 96 % 1022,2 hPa 0,0 mm 3,4 km/h (1 Bft) NO 53 ° 0 min 0,000 mm 0,0 UV-I 0 W/m² 3,1 °C 3,7 °C 4,8 km/h (1 Bft)
29.10.2019 23:46 3,7 °C 96 % 1022,3 hPa 0,0 mm 2,1 km/h (1 Bft) NO 53 ° 0 min 0,000 mm 0,0 UV-I 0 W/m² 3,1 °C 3,7 °C 3,2 km/h (1 Bft)
29.10.2019 23:47 3,7 °C 96 % 1022,3 hPa 0,0 mm 2,3 km/h (1 Bft) NO 53 ° 0 min 0,000 mm 0,0 UV-I 0 W/m² 3,1 °C 3,7 °C 3,2 km/h (1 Bft)
29.10.2019 23:48 3,7 °C 96 % 1022,3 hPa 0,0 mm 2,2 km/h (1 Bft) NO 53 ° 0 min 0,000 mm 0,0 UV-I 0 W/m² 3,1 °C 3,7 °C 4,8 km/h (1 Bft)
29.10.2019 23:49 3,7 °C 96 % 1022,3 hPa 0,0 mm 3,6 km/h (1 Bft) NO 53 ° 0 min 0,000 mm 0,0 UV-I 0 W/m² 3,1 °C 3,7 °C 4,8 km/h (1 Bft)
29.10.2019 23:50 3,7 °C 96 % 1022,3 hPa 0,0 mm 3,7 km/h (1 Bft) O-NO 65 ° 0 min 0,000 mm 0,0 UV-I 0 W/m² 3,1 °C 3,7 °C 6,4 km/h (2 Bft)
29.10.2019 23:51 3,7 °C 96 % 1022,2 hPa 0,0 mm 3,4 km/h (1 Bft) NO 46 ° 0 min 0,000 mm 0,0 UV-I 0 W/m² 3,1 °C 3,7 °C 4,8 km/h (1 Bft)
29.10.2019 23:52 3,7 °C 96 % 1022,3 hPa 0,0 mm 4,1 km/h (1 Bft) NO 44 ° 0 min 0,000 mm 0,0 UV-I 0 W/m² 3,1 °C 3,7 °C 6,4 km/h (2 Bft)
29.10.2019 23:53 3,7 °C 96 % 1022,3 hPa 0,0 mm 7,5 km/h (2 Bft) O-NO 67 ° 0 min 0,000 mm 0,0 UV-I 0 W/m² 3,1 °C 1,7 °C 11,3 km/h (2 Bft)
29.10.2019 23:54 3,7 °C 96 % 1022,3 hPa 0,0 mm 6,9 km/h (2 Bft) NO 44 ° 0 min 0,000 mm 0,0 UV-I 0 W/m² 3,1 °C 1,9 °C 12,9 km/h (3 Bft)
29.10.2019 23:55 3,6 °C 96 % 1022,2 hPa 0,0 mm 5,1 km/h (1 Bft) NO 40 ° 0 min 0,000 mm 0,0 UV-I 0 W/m² 3,0 °C 2,5 °C 8,0 km/h (2 Bft)
29.10.2019 23:56 3,7 °C 96 % 1022,2 hPa 0,0 mm 4,6 km/h (1 Bft) O 96 ° 0 min 0,000 mm 0,0 UV-I 0 W/m² 3,1 °C 2,8 °C 8,0 km/h (2 Bft)
29.10.2019 23:57 3,6 °C 96 % 1022,3 hPa 0,0 mm 1,1 km/h (1 Bft) O 96 ° 0 min 0,000 mm 0,0 UV-I 0 W/m² 3,0 °C 3,6 °C 3,2 km/h (1 Bft)
29.10.2019 23:58 3,6 °C 96 % 1022,3 hPa 0,0 mm 5,6 km/h (1 Bft) O-NO 76 ° 0 min 0,000 mm 0,0 UV-I 0 W/m² 3,0 °C 2,3 °C 8,0 km/h (2 Bft)
29.10.2019 23:59 3,6 °C 95 % 1022,3 hPa 0,0 mm 7,0 km/h (2 Bft) O-NO 76 ° 0 min 0,000 mm 0,0 UV-I 0 W/m² 2,9 °C 1,8 °C 11,3 km/h (2 Bft)
_ Min-Zeit 23:59 23:59 03:38 - 21:28 - - - - - - 23:59 20:35 21:28
Minimum _ 3,6 °C 95 % 1015,4 hPa - 0,0 km/h (0 Bft) - - - - - - 2,9 °C 1,3 °C 0,0 km/h (0 Bft)
_ Max-Zeit 11:34 10:53 23:59 23:59 16:45 - - 23:59 13:00 13:02 13:02 11:34 11:33 20:35
Maximum _ 6,4 °C 97 % 1022,3 hPa 0,0 mm 13,5 km/h
O-NO (3 Bft)
- - 0 min 0,026 mm 0,9 UV-I 105 W/m² 5,8 °C 6,4 °C 19,3 km/h
NO (3 Bft)
Durchschnitt _ 5,1 °C 96 % 1018,6 hPa #0,0 mm 3,2 km/h (1 Bft) O-NO - #0 min. #0,152 mm 0,6 UV-I 13 W/m² 4,5 °C 4,8 °C 5,3 km/h (1 Bft)